<?xml version='1.0' encoding='UTF-8'?><gpx version="1.1" creator="JPX - https://github.com/jenetics/jpx" xmlns="http://www.topografix.com/GPX/1/1"><trk><trkseg><trkpt lat="45.6275882" lon="9.0307832"><ele>213.99999999999997</ele><time>2026-04-02T14:44:57.549Z</time></trkpt><trkpt lat="45.6276647" lon="9.0307371"><ele>214.0</ele><time>2026-04-02T14:45:07.549Z</time></trkpt><trkpt lat="45.6276978" lon="9.0308141"><ele>214.0</ele><time>2026-04-02T14:48:53.546Z</time></trkpt><trkpt lat="45.6278278" lon="9.0308319"><ele>214.0</ele><time>2026-04-02T14:49:24.547Z</time></trkpt><trkpt lat="45.6278696" lon="9.0309083"><ele>213.99999999999997</ele><time>2026-04-02T14:49:27.547Z</time></trkpt><trkpt lat="45.6278116" lon="9.0309591"><ele>214.0</ele><time>2026-04-02T14:49:42.548Z</time></trkpt><trkpt lat="45.627741" lon="9.0309656"><ele>214.33333333333331</ele><time>2026-04-02T14:49:44.547Z</time></trkpt><trkpt lat="45.6276679" lon="9.0309718"><ele>214.66666666666666</ele><time>2026-04-02T14:49:47.548Z</time></trkpt><trkpt lat="45.6275962" lon="9.0309856"><ele>215.0</ele><time>2026-04-02T14:49:52.547Z</time></trkpt><trkpt lat="45.6275425" lon="9.0311002"><ele>215.33333333333331</ele><time>2026-04-02T14:49:57.546Z</time></trkpt><trkpt lat="45.6275423" lon="9.0312315"><ele>215.66666666666666</ele><time>2026-04-02T14:49:59.548Z</time></trkpt><trkpt lat="45.6275461" lon="9.031358"><ele>216.0</ele><time>2026-04-02T14:50:01.547Z</time></trkpt><trkpt lat="45.6275474" lon="9.0314704"><ele>216.0</ele><time>2026-04-02T14:50:03.548Z</time></trkpt><trkpt lat="45.6275454" lon="9.0315819"><ele>216.0</ele><time>2026-04-02T14:50:05.548Z</time></trkpt><trkpt lat="45.6275468" lon="9.0316923"><ele>216.0</ele><time>2026-04-02T14:50:07.547Z</time></trkpt><trkpt lat="45.6275452" lon="9.0318066"><ele>216.0</ele><time>2026-04-02T14:50:09.548Z</time></trkpt><trkpt lat="45.6275435" lon="9.0319358"><ele>216.0</ele><time>2026-04-02T14:50:11.548Z</time></trkpt><trkpt lat="45.6275409" lon="9.0320476"><ele>216.0</ele><time>2026-04-02T14:50:13.546Z</time></trkpt><trkpt lat="45.6275328" lon="9.0321546"><ele>216.0</ele><time>2026-04-02T14:50:15.548Z</time></trkpt><trkpt lat="45.6275281" lon="9.0322496"><ele>216.0</ele><time>2026-04-02T14:50:17.547Z</time></trkpt><trkpt lat="45.6275371" lon="9.0323683"><ele>216.0</ele><time>2026-04-02T14:50:20.547Z</time></trkpt><trkpt lat="45.627514" lon="9.0324878"><ele>216.0</ele><time>2026-04-02T14:50:23.548Z</time></trkpt><trkpt lat="45.6274561" lon="9.0325238"><ele>216.0</ele><time>2026-04-02T14:50:25.548Z</time></trkpt><trkpt lat="45.6273871" lon="9.0325201"><ele>216.0</ele><time>2026-04-02T14:50:27.548Z</time></trkpt><trkpt lat="45.6272945" lon="9.0325161"><ele>216.0</ele><time>2026-04-02T14:50:30.548Z</time></trkpt><trkpt lat="45.6272222" lon="9.0325039"><ele>216.0</ele><time>2026-04-02T14:50:32.547Z</time></trkpt><trkpt lat="45.6271498" lon="9.0324881"><ele>216.0</ele><time>2026-04-02T14:50:34.547Z</time></trkpt><trkpt lat="45.6270814" lon="9.0324738"><ele>216.0</ele><time>2026-04-02T14:50:36.547Z</time></trkpt><trkpt lat="45.6270124" lon="9.032472"><ele>216.0</ele><time>2026-04-02T14:50:38.546Z</time></trkpt><trkpt lat="45.6269399" lon="9.0324605"><ele>216.0</ele><time>2026-04-02T14:50:40.548Z</time></trkpt><trkpt lat="45.6268737" lon="9.0324446"><ele>216.0</ele><time>2026-04-02T14:50:42.545Z</time></trkpt><trkpt lat="45.6268055" lon="9.0324336"><ele>216.0</ele><time>2026-04-02T14:50:45.547Z</time></trkpt><trkpt lat="45.6267319" lon="9.0324817"><ele>216.0</ele><time>2026-04-02T14:50:49.547Z</time></trkpt><trkpt lat="45.6267145" lon="9.0325849"><ele>216.0</ele><time>2026-04-02T14:50:51.546Z</time></trkpt><trkpt lat="45.6267084" lon="9.0327057"><ele>216.0</ele><time>2026-04-02T14:50:53.547Z</time></trkpt><trkpt lat="45.6267007" lon="9.0328285"><ele>216.0</ele><time>2026-04-02T14:50:55.546Z</time></trkpt><trkpt lat="45.6266937" lon="9.0329438"><ele>216.0</ele><time>2026-04-02T14:50:57.547Z</time></trkpt><trkpt lat="45.6266923" lon="9.0330417"><ele>216.0</ele><time>2026-04-02T14:50:59.547Z</time></trkpt><trkpt lat="45.6266804" lon="9.0331581"><ele>216.0</ele><time>2026-04-02T14:51:02.546Z</time></trkpt><trkpt lat="45.6266327" lon="9.033235"><ele>216.0</ele><time>2026-04-02T14:51:11.547Z</time></trkpt><trkpt lat="45.6265556" lon="9.0332372"><ele>216.0</ele><time>2026-04-02T14:51:13.546Z</time></trkpt><trkpt lat="45.6264604" lon="9.0332126"><ele>216.0</ele><time>2026-04-02T14:51:15.547Z</time></trkpt><trkpt lat="45.6263642" lon="9.03319"><ele>216.0</ele><time>2026-04-02T14:51:17.547Z</time></trkpt><trkpt lat="45.6262722" lon="9.033171"><ele>216.0</ele><time>2026-04-02T14:51:19.545Z</time></trkpt><trkpt lat="45.6261776" lon="9.0331449"><ele>216.0</ele><time>2026-04-02T14:51:21.547Z</time></trkpt><trkpt lat="45.6261182" lon="9.0330644"><ele>216.0</ele><time>2026-04-02T14:51:23.547Z</time></trkpt><trkpt lat="45.6261222" lon="9.0329432"><ele>216.0</ele><time>2026-04-02T14:51:25.547Z</time></trkpt><trkpt lat="45.6261349" lon="9.0328004"><ele>216.0</ele><time>2026-04-02T14:51:27.546Z</time></trkpt><trkpt lat="45.6261408" lon="9.0326835"><ele>216.0</ele><time>2026-04-02T14:51:29.546Z</time></trkpt><trkpt lat="45.6261499" lon="9.0325671"><ele>216.0</ele><time>2026-04-02T14:51:37.547Z</time></trkpt><trkpt lat="45.626156" lon="9.0324309"><ele>216.00000000000003</ele><time>2026-04-02T14:51:39.547Z</time></trkpt><trkpt lat="45.6261604" lon="9.0322569"><ele>216.00000000000003</ele><time>2026-04-02T14:51:41.545Z</time></trkpt><trkpt lat="45.6261631" lon="9.032069"><ele>216.0</ele><time>2026-04-02T14:51:43.546Z</time></trkpt><trkpt lat="45.6261591" lon="9.0319623"><ele>216.0</ele><time>2026-04-02T14:51:44.546Z</time></trkpt><trkpt lat="45.6261549" lon="9.0318516"><ele>216.0</ele><time>2026-04-02T14:51:45.547Z</time></trkpt><trkpt lat="45.6261498" lon="9.0317324"><ele>216.0</ele><time>2026-04-02T14:51:46.547Z</time></trkpt><trkpt lat="45.6261431" lon="9.031609"><ele>216.0</ele><time>2026-04-02T14:51:47.547Z</time></trkpt><trkpt lat="45.6261405" lon="9.0314929"><ele>216.0</ele><time>2026-04-02T14:51:48.547Z</time></trkpt><trkpt lat="45.6261352" lon="9.0313803"><ele>216.0</ele><time>2026-04-02T14:51:49.546Z</time></trkpt><trkpt lat="45.6261318" lon="9.0312639"><ele>216.0</ele><time>2026-04-02T14:51:50.545Z</time></trkpt><trkpt lat="45.6261251" lon="9.0311402"><ele>215.60000000000002</ele><time>2026-04-02T14:51:51.546Z</time></trkpt><trkpt lat="45.6261236" lon="9.0310098"><ele>215.20000000000002</ele><time>2026-04-02T14:51:52.546Z</time></trkpt><trkpt lat="45.626123" lon="9.0308726"><ele>214.79999999999998</ele><time>2026-04-02T14:51:53.547Z</time></trkpt><trkpt lat="45.6261227" lon="9.0307295"><ele>214.39999999999998</ele><time>2026-04-02T14:51:54.546Z</time></trkpt><trkpt lat="45.6261206" lon="9.0305714"><ele>214.0</ele><time>2026-04-02T14:51:55.545Z</time></trkpt><trkpt lat="45.6261211" lon="9.0304131"><ele>213.6</ele><time>2026-04-02T14:51:56.547Z</time></trkpt><trkpt lat="45.6261238" lon="9.0302631"><ele>213.2</ele><time>2026-04-02T14:51:57.546Z</time></trkpt><trkpt lat="45.6261253" lon="9.0301234"><ele>212.79999999999998</ele><time>2026-04-02T14:51:58.546Z</time></trkpt><trkpt lat="45.6261224" lon="9.0299513"><ele>212.39999999999998</ele><time>2026-04-02T14:51:59.546Z</time></trkpt><trkpt lat="45.626107" lon="9.0297898"><ele>212.0</ele><time>2026-04-02T14:52:00.545Z</time></trkpt><trkpt lat="45.6260858" lon="9.0296208"><ele>212.0</ele><time>2026-04-02T14:52:01.547Z</time></trkpt><trkpt lat="45.6260556" lon="9.0294513"><ele>212.0</ele><time>2026-04-02T14:52:02.547Z</time></trkpt><trkpt lat="45.6260234" lon="9.0292834"><ele>212.0</ele><time>2026-04-02T14:52:03.546Z</time></trkpt><trkpt lat="45.625984" lon="9.02911"><ele>212.0</ele><time>2026-04-02T14:52:04.547Z</time></trkpt><trkpt lat="45.6259452" lon="9.0289387"><ele>212.0</ele><time>2026-04-02T14:52:05.547Z</time></trkpt><trkpt lat="45.6259124" lon="9.028773"><ele>212.0</ele><time>2026-04-02T14:52:06.546Z</time></trkpt><trkpt lat="45.6258766" lon="9.0286152"><ele>212.0</ele><time>2026-04-02T14:52:07.545Z</time></trkpt><trkpt lat="45.6258436" lon="9.028456"><ele>212.0</ele><time>2026-04-02T14:52:08.547Z</time></trkpt><trkpt lat="45.6258106" lon="9.0283001"><ele>212.5</ele><time>2026-04-02T14:52:09.547Z</time></trkpt><trkpt lat="45.6257782" lon="9.0281421"><ele>213.0</ele><time>2026-04-02T14:52:10.547Z</time></trkpt><trkpt lat="45.6257435" lon="9.0279853"><ele>213.5</ele><time>2026-04-02T14:52:11.547Z</time></trkpt><trkpt lat="45.6257075" lon="9.0278256"><ele>214.0</ele><time>2026-04-02T14:52:12.547Z</time></trkpt><trkpt lat="45.6256717" lon="9.0276706"><ele>214.0</ele><time>2026-04-02T14:52:13.546Z</time></trkpt><trkpt lat="45.6256376" lon="9.0275226"><ele>213.99999999999997</ele><time>2026-04-02T14:52:14.545Z</time></trkpt><trkpt lat="45.6256068" lon="9.0273812"><ele>213.99999999999997</ele><time>2026-04-02T14:52:15.546Z</time></trkpt><trkpt lat="45.6255798" lon="9.0272527"><ele>214.0</ele><time>2026-04-02T14:52:16.547Z</time></trkpt><trkpt lat="45.6255537" lon="9.0271323"><ele>214.0</ele><time>2026-04-02T14:52:17.546Z</time></trkpt><trkpt lat="45.6255313" lon="9.0270172"><ele>214.2</ele><time>2026-04-02T14:52:18.546Z</time></trkpt><trkpt lat="45.6255011" lon="9.0268712"><ele>214.39999999999998</ele><time>2026-04-02T14:52:20.546Z</time></trkpt><trkpt lat="45.6254757" lon="9.0267603"><ele>214.6</ele><time>2026-04-02T14:52:22.545Z</time></trkpt><trkpt lat="45.6254526" lon="9.0266427"><ele>214.8</ele><time>2026-04-02T14:52:24.547Z</time></trkpt><trkpt lat="45.6254336" lon="9.0265125"><ele>215.0</ele><time>2026-04-02T14:52:26.546Z</time></trkpt><trkpt lat="45.6254098" lon="9.0263976"><ele>214.66666666666669</ele><time>2026-04-02T14:52:28.546Z</time></trkpt><trkpt lat="45.6254023" lon="9.0262669"><ele>214.33333333333334</ele><time>2026-04-02T14:52:30.547Z</time></trkpt><trkpt lat="45.6253952" lon="9.0261408"><ele>214.0</ele><time>2026-04-02T14:52:32.547Z</time></trkpt><trkpt lat="45.6253984" lon="9.026035"><ele>213.66666666666669</ele><time>2026-04-02T14:52:34.547Z</time></trkpt><trkpt lat="45.6254011" lon="9.0259444"><ele>213.33333333333334</ele><time>2026-04-02T14:52:38.547Z</time></trkpt><trkpt lat="45.625403" lon="9.0258316"><ele>213.0</ele><time>2026-04-02T14:52:49.547Z</time></trkpt><trkpt lat="45.6253952" lon="9.0256763"><ele>213.0</ele><time>2026-04-02T14:52:51.546Z</time></trkpt><trkpt lat="45.6253255" lon="9.0255302"><ele>213.0</ele><time>2026-04-02T14:52:53.546Z</time></trkpt><trkpt lat="45.6252873" lon="9.0254559"><ele>213.0</ele><time>2026-04-02T14:52:54.546Z</time></trkpt><trkpt lat="45.6252533" lon="9.0253734"><ele>213.0</ele><time>2026-04-02T14:52:55.546Z</time></trkpt><trkpt lat="45.625221" lon="9.0252839"><ele>213.0</ele><time>2026-04-02T14:52:56.546Z</time></trkpt><trkpt lat="45.6251888" lon="9.0251947"><ele>213.0</ele><time>2026-04-02T14:52:57.546Z</time></trkpt><trkpt lat="45.6251545" lon="9.0250994"><ele>212.66666666666666</ele><time>2026-04-02T14:52:58.546Z</time></trkpt><trkpt lat="45.625117" lon="9.0249951"><ele>212.33333333333331</ele><time>2026-04-02T14:52:59.546Z</time></trkpt><trkpt lat="45.6250818" lon="9.0248735"><ele>212.0</ele><time>2026-04-02T14:53:00.546Z</time></trkpt><trkpt lat="45.6250505" lon="9.024756"><ele>211.66666666666666</ele><time>2026-04-02T14:53:01.546Z</time></trkpt><trkpt lat="45.6250236" lon="9.0246456"><ele>211.33333333333331</ele><time>2026-04-02T14:53:02.546Z</time></trkpt><trkpt lat="45.6249992" lon="9.0245424"><ele>211.0</ele><time>2026-04-02T14:53:03.546Z</time></trkpt><trkpt lat="45.6249784" lon="9.0244483"><ele>210.71428571428572</ele><time>2026-04-02T14:53:04.546Z</time></trkpt><trkpt lat="45.6249574" lon="9.024359"><ele>210.42857142857144</ele><time>2026-04-02T14:53:05.547Z</time></trkpt><trkpt lat="45.6249355" lon="9.0242653"><ele>210.14285714285714</ele><time>2026-04-02T14:53:06.546Z</time></trkpt><trkpt lat="45.6249132" lon="9.0241676"><ele>209.85714285714286</ele><time>2026-04-02T14:53:07.547Z</time></trkpt><trkpt lat="45.6248928" lon="9.0240668"><ele>209.57142857142856</ele><time>2026-04-02T14:53:08.546Z</time></trkpt><trkpt lat="45.6248689" lon="9.0239589"><ele>209.28571428571428</ele><time>2026-04-02T14:53:09.546Z</time></trkpt><trkpt lat="45.6248431" lon="9.0238601"><ele>209.0</ele><time>2026-04-02T14:53:10.547Z</time></trkpt><trkpt lat="45.6248193" lon="9.0237411"><ele>209.00000000000003</ele><time>2026-04-02T14:53:11.547Z</time></trkpt><trkpt lat="45.6247955" lon="9.0236349"><ele>209.0</ele><time>2026-04-02T14:53:12.547Z</time></trkpt><trkpt lat="45.6247742" lon="9.0235356"><ele>209.0</ele><time>2026-04-02T14:53:13.547Z</time></trkpt><trkpt lat="45.6247614" lon="9.0234463"><ele>209.0</ele><time>2026-04-02T14:53:14.546Z</time></trkpt><trkpt lat="45.6247348" lon="9.0232874"><ele>209.00000000000003</ele><time>2026-04-02T14:53:16.545Z</time></trkpt><trkpt lat="45.6247013" lon="9.0231393"><ele>209.0</ele><time>2026-04-02T14:53:18.547Z</time></trkpt><trkpt lat="45.6246637" lon="9.0229673"><ele>209.33333333333334</ele><time>2026-04-02T14:53:20.546Z</time></trkpt><trkpt lat="45.6246416" lon="9.0228756"><ele>209.66666666666669</ele><time>2026-04-02T14:53:21.545Z</time></trkpt><trkpt lat="45.6246163" lon="9.0227729"><ele>210.0</ele><time>2026-04-02T14:53:22.545Z</time></trkpt><trkpt lat="45.624592" lon="9.0226611"><ele>210.33333333333331</ele><time>2026-04-02T14:53:23.547Z</time></trkpt><trkpt lat="45.6245589" lon="9.022531"><ele>210.66666666666666</ele><time>2026-04-02T14:53:24.547Z</time></trkpt><trkpt lat="45.6245152" lon="9.0223842"><ele>211.0</ele><time>2026-04-02T14:53:25.547Z</time></trkpt><trkpt lat="45.6244675" lon="9.0222443"><ele>211.0</ele><time>2026-04-02T14:53:26.547Z</time></trkpt><trkpt lat="45.6244187" lon="9.0221075"><ele>211.0</ele><time>2026-04-02T14:53:27.547Z</time></trkpt><trkpt lat="45.6243638" lon="9.0219728"><ele>211.0</ele><time>2026-04-02T14:53:28.547Z</time></trkpt><trkpt lat="45.6243067" lon="9.0218309"><ele>211.0</ele><time>2026-04-02T14:53:29.547Z</time></trkpt><trkpt lat="45.6242481" lon="9.0216853"><ele>211.0</ele><time>2026-04-02T14:53:30.546Z</time></trkpt><trkpt lat="45.6241802" lon="9.0215445"><ele>212.0</ele><time>2026-04-02T14:53:31.546Z</time></trkpt><trkpt lat="45.6241049" lon="9.0213961"><ele>213.0</ele><time>2026-04-02T14:53:32.547Z</time></trkpt><trkpt lat="45.6240276" lon="9.0212503"><ele>214.0</ele><time>2026-04-02T14:53:33.547Z</time></trkpt><trkpt lat="45.6239537" lon="9.0211169"><ele>215.0</ele><time>2026-04-02T14:53:34.546Z</time></trkpt><trkpt lat="45.623886" lon="9.0209914"><ele>215.0</ele><time>2026-04-02T14:53:35.547Z</time></trkpt><trkpt lat="45.6238214" lon="9.0208792"><ele>215.0</ele><time>2026-04-02T14:53:36.547Z</time></trkpt><trkpt lat="45.6237602" lon="9.0207725"><ele>215.0</ele><time>2026-04-02T14:53:37.547Z</time></trkpt><trkpt lat="45.623704" lon="9.0206762"><ele>215.0</ele><time>2026-04-02T14:53:38.546Z</time></trkpt><trkpt lat="45.6236491" lon="9.0205779"><ele>215.0</ele><time>2026-04-02T14:53:39.545Z</time></trkpt><trkpt lat="45.6235919" lon="9.0204861"><ele>214.8</ele><time>2026-04-02T14:53:40.546Z</time></trkpt><trkpt lat="45.6235305" lon="9.0203852"><ele>214.6</ele><time>2026-04-02T14:53:41.546Z</time></trkpt><trkpt lat="45.62347" lon="9.0202818"><ele>214.39999999999998</ele><time>2026-04-02T14:53:42.547Z</time></trkpt><trkpt lat="45.6234104" lon="9.0201756"><ele>214.2</ele><time>2026-04-02T14:53:43.547Z</time></trkpt><trkpt lat="45.6233492" lon="9.0200668"><ele>214.0</ele><time>2026-04-02T14:53:44.546Z</time></trkpt><trkpt lat="45.6232856" lon="9.0199558"><ele>214.0</ele><time>2026-04-02T14:53:45.546Z</time></trkpt><trkpt lat="45.6232223" lon="9.0198462"><ele>213.99999999999997</ele><time>2026-04-02T14:53:46.546Z</time></trkpt><trkpt lat="45.623158" lon="9.0197384"><ele>213.99999999999997</ele><time>2026-04-02T14:53:47.545Z</time></trkpt><trkpt lat="45.6230866" lon="9.0196278"><ele>214.0</ele><time>2026-04-02T14:53:48.545Z</time></trkpt><trkpt lat="45.6230223" lon="9.0195122"><ele>214.0</ele><time>2026-04-02T14:53:49.546Z</time></trkpt><trkpt lat="45.6229577" lon="9.0194032"><ele>213.99999999999997</ele><time>2026-04-02T14:53:50.545Z</time></trkpt><trkpt lat="45.6228981" lon="9.0193018"><ele>214.0</ele><time>2026-04-02T14:53:51.546Z</time></trkpt><trkpt lat="45.6228411" lon="9.0192129"><ele>214.0</ele><time>2026-04-02T14:53:52.545Z</time></trkpt><trkpt lat="45.6227919" lon="9.0191318"><ele>214.0</ele><time>2026-04-02T14:53:53.544Z</time></trkpt><trkpt lat="45.6227475" lon="9.0190621"><ele>213.99999999999997</ele><time>2026-04-02T14:53:54.545Z</time></trkpt><trkpt lat="45.6226776" lon="9.0189502"><ele>214.0</ele><time>2026-04-02T14:53:56.545Z</time></trkpt><trkpt lat="45.6226366" lon="9.0188721"><ele>213.79999999999998</ele><time>2026-04-02T14:53:58.546Z</time></trkpt><trkpt lat="45.6226119" lon="9.0187837"><ele>213.59999999999997</ele><time>2026-04-02T14:54:01.545Z</time></trkpt><trkpt lat="45.6225903" lon="9.0186165"><ele>213.4</ele><time>2026-04-02T14:54:10.546Z</time></trkpt><trkpt lat="45.6225495" lon="9.0184486"><ele>213.2</ele><time>2026-04-02T14:54:12.546Z</time></trkpt><trkpt lat="45.6225004" lon="9.018362"><ele>213.0</ele><time>2026-04-02T14:54:13.545Z</time></trkpt><trkpt lat="45.6224255" lon="9.0182787"><ele>213.0</ele><time>2026-04-02T14:54:14.546Z</time></trkpt><trkpt lat="45.6223469" lon="9.018201"><ele>213.0</ele><time>2026-04-02T14:54:15.546Z</time></trkpt><trkpt lat="45.6222754" lon="9.0181244"><ele>213.0</ele><time>2026-04-02T14:54:16.546Z</time></trkpt><trkpt lat="45.6222063" lon="9.0180412"><ele>213.0</ele><time>2026-04-02T14:54:17.546Z</time></trkpt><trkpt lat="45.6221381" lon="9.0179448"><ele>213.0</ele><time>2026-04-02T14:54:18.546Z</time></trkpt><trkpt lat="45.6220665" lon="9.0178446"><ele>213.0</ele><time>2026-04-02T14:54:19.546Z</time></trkpt><trkpt lat="45.6219913" lon="9.0177352"><ele>213.0</ele><time>2026-04-02T14:54:20.545Z</time></trkpt><trkpt lat="45.6219222" lon="9.0176299"><ele>213.0</ele><time>2026-04-02T14:54:21.544Z</time></trkpt><trkpt lat="45.6218566" lon="9.0175247"><ele>213.0</ele><time>2026-04-02T14:54:22.545Z</time></trkpt><trkpt lat="45.6217984" lon="9.0174124"><ele>213.0</ele><time>2026-04-02T14:54:23.545Z</time></trkpt><trkpt lat="45.6217524" lon="9.0172986"><ele>213.0</ele><time>2026-04-02T14:54:24.545Z</time></trkpt><trkpt lat="45.6217174" lon="9.0171743"><ele>213.0</ele><time>2026-04-02T14:54:25.546Z</time></trkpt><trkpt lat="45.6216702" lon="9.0170526"><ele>213.0</ele><time>2026-04-02T14:54:26.545Z</time></trkpt><trkpt lat="45.621587" lon="9.0169411"><ele>213.0</ele><time>2026-04-02T14:54:27.546Z</time></trkpt><trkpt lat="45.6214882" lon="9.0168412"><ele>213.0</ele><time>2026-04-02T14:54:28.546Z</time></trkpt><trkpt lat="45.6213892" lon="9.0167162"><ele>213.25</ele><time>2026-04-02T14:54:29.545Z</time></trkpt><trkpt lat="45.6212991" lon="9.0165877"><ele>213.5</ele><time>2026-04-02T14:54:30.545Z</time></trkpt><trkpt lat="45.6212162" lon="9.0164657"><ele>213.75</ele><time>2026-04-02T14:54:31.545Z</time></trkpt><trkpt lat="45.6211345" lon="9.0163405"><ele>214.0</ele><time>2026-04-02T14:54:32.545Z</time></trkpt><trkpt lat="45.621054" lon="9.0162124"><ele>214.25</ele><time>2026-04-02T14:54:33.545Z</time></trkpt><trkpt lat="45.6209743" lon="9.0160743"><ele>214.5</ele><time>2026-04-02T14:54:34.546Z</time></trkpt><trkpt lat="45.6208909" lon="9.0159285"><ele>214.75</ele><time>2026-04-02T14:54:35.545Z</time></trkpt><trkpt lat="45.6208017" lon="9.0157748"><ele>215.0</ele><time>2026-04-02T14:54:36.545Z</time></trkpt><trkpt lat="45.6207082" lon="9.0156157"><ele>215.0</ele><time>2026-04-02T14:54:37.545Z</time></trkpt><trkpt lat="45.6206143" lon="9.0154474"><ele>215.0</ele><time>2026-04-02T14:54:38.545Z</time></trkpt><trkpt lat="45.6205165" lon="9.0152768"><ele>215.0</ele><time>2026-04-02T14:54:39.546Z</time></trkpt><trkpt lat="45.6204173" lon="9.0151064"><ele>214.75</ele><time>2026-04-02T14:54:40.544Z</time></trkpt><trkpt lat="45.6203259" lon="9.0149496"><ele>214.5</ele><time>2026-04-02T14:54:41.545Z</time></trkpt><trkpt lat="45.6202357" lon="9.0147981"><ele>214.25</ele><time>2026-04-02T14:54:42.545Z</time></trkpt><trkpt lat="45.6201449" lon="9.0146497"><ele>214.0</ele><time>2026-04-02T14:54:43.545Z</time></trkpt><trkpt lat="45.6200506" lon="9.0144922"><ele>212.66666666666666</ele><time>2026-04-02T14:54:44.546Z</time></trkpt><trkpt lat="45.6199552" lon="9.0143296"><ele>211.33333333333331</ele><time>2026-04-02T14:54:45.546Z</time></trkpt><trkpt lat="45.6198564" lon="9.0141666"><ele>210.0</ele><time>2026-04-02T14:54:46.546Z</time></trkpt><trkpt lat="45.6197559" lon="9.0140057"><ele>210.25</ele><time>2026-04-02T14:54:47.545Z</time></trkpt><trkpt lat="45.6196597" lon="9.0138416"><ele>210.5</ele><time>2026-04-02T14:54:48.545Z</time></trkpt><trkpt lat="45.6195656" lon="9.0136801"><ele>210.75</ele><time>2026-04-02T14:54:49.546Z</time></trkpt><trkpt lat="45.6194749" lon="9.0135177"><ele>211.0</ele><time>2026-04-02T14:54:50.546Z</time></trkpt><trkpt lat="45.6193813" lon="9.013357"><ele>211.25</ele><time>2026-04-02T14:54:51.545Z</time></trkpt><trkpt lat="45.6192849" lon="9.0131981"><ele>211.5</ele><time>2026-04-02T14:54:52.545Z</time></trkpt><trkpt lat="45.6191886" lon="9.0130358"><ele>211.75</ele><time>2026-04-02T14:54:53.545Z</time></trkpt><trkpt lat="45.6190897" lon="9.0128722"><ele>212.0</ele><time>2026-04-02T14:54:54.546Z</time></trkpt><trkpt lat="45.6189924" lon="9.0127069"><ele>212.0</ele><time>2026-04-02T14:54:55.545Z</time></trkpt><trkpt lat="45.6188918" lon="9.0125364"><ele>212.0</ele><time>2026-04-02T14:54:56.545Z</time></trkpt><trkpt lat="45.6187925" lon="9.0123625"><ele>212.0</ele><time>2026-04-02T14:54:57.545Z</time></trkpt><trkpt lat="45.6186951" lon="9.0121975"><ele>212.25</ele><time>2026-04-02T14:54:58.546Z</time></trkpt><trkpt lat="45.6186046" lon="9.0120436"><ele>212.5</ele><time>2026-04-02T14:54:59.546Z</time></trkpt><trkpt lat="45.6185172" lon="9.0119016"><ele>212.75</ele><time>2026-04-02T14:55:00.544Z</time></trkpt><trkpt lat="45.6184321" lon="9.0117613"><ele>213.0</ele><time>2026-04-02T14:55:01.545Z</time></trkpt><trkpt lat="45.6183487" lon="9.01162"><ele>212.5</ele><time>2026-04-02T14:55:02.546Z</time></trkpt><trkpt lat="45.6182654" lon="9.0114761"><ele>212.0</ele><time>2026-04-02T14:55:03.546Z</time></trkpt><trkpt lat="45.6181818" lon="9.0113356"><ele>211.5</ele><time>2026-04-02T14:55:04.545Z</time></trkpt><trkpt lat="45.6181059" lon="9.0112049"><ele>211.0</ele><time>2026-04-02T14:55:05.546Z</time></trkpt><trkpt lat="45.6180339" lon="9.0110809"><ele>211.0</ele><time>2026-04-02T14:55:06.546Z</time></trkpt><trkpt lat="45.6179662" lon="9.0109584"><ele>211.0</ele><time>2026-04-02T14:55:07.546Z</time></trkpt><trkpt lat="45.6179013" lon="9.0108458"><ele>211.0</ele><time>2026-04-02T14:55:08.546Z</time></trkpt><trkpt lat="45.6178392" lon="9.0107379"><ele>211.0</ele><time>2026-04-02T14:55:09.546Z</time></trkpt><trkpt lat="45.6177746" lon="9.0106269"><ele>211.0</ele><time>2026-04-02T14:55:10.546Z</time></trkpt><trkpt lat="45.6177089" lon="9.0105159"><ele>211.25</ele><time>2026-04-02T14:55:11.546Z</time></trkpt><trkpt lat="45.6176391" lon="9.0104017"><ele>211.5</ele><time>2026-04-02T14:55:12.546Z</time></trkpt><trkpt lat="45.617565" lon="9.0102785"><ele>211.75</ele><time>2026-04-02T14:55:13.546Z</time></trkpt><trkpt lat="45.6174877" lon="9.0101489"><ele>212.0</ele><time>2026-04-02T14:55:14.546Z</time></trkpt><trkpt lat="45.6174108" lon="9.0100129"><ele>211.75</ele><time>2026-04-02T14:55:15.546Z</time></trkpt><trkpt lat="45.6173246" lon="9.0098699"><ele>211.5</ele><time>2026-04-02T14:55:16.546Z</time></trkpt><trkpt lat="45.6172372" lon="9.0097166"><ele>211.25</ele><time>2026-04-02T14:55:17.546Z</time></trkpt><trkpt lat="45.6171452" lon="9.0095543"><ele>211.0</ele><time>2026-04-02T14:55:18.546Z</time></trkpt><trkpt lat="45.6170513" lon="9.0093895"><ele>211.0</ele><time>2026-04-02T14:55:19.545Z</time></trkpt><trkpt lat="45.6169626" lon="9.0092384"><ele>211.0</ele><time>2026-04-02T14:55:20.546Z</time></trkpt><trkpt lat="45.616874" lon="9.0090936"><ele>211.0</ele><time>2026-04-02T14:55:21.546Z</time></trkpt><trkpt lat="45.6167876" lon="9.0089507"><ele>211.0</ele><time>2026-04-02T14:55:22.546Z</time></trkpt><trkpt lat="45.6167007" lon="9.0088014"><ele>211.0</ele><time>2026-04-02T14:55:23.546Z</time></trkpt><trkpt lat="45.6166104" lon="9.0086491"><ele>211.0</ele><time>2026-04-02T14:55:24.546Z</time></trkpt><trkpt lat="45.6165209" lon="9.0084977"><ele>211.0</ele><time>2026-04-02T14:55:25.546Z</time></trkpt><trkpt lat="45.6164329" lon="9.0083524"><ele>211.0</ele><time>2026-04-02T14:55:26.546Z</time></trkpt><trkpt lat="45.6163453" lon="9.0082055"><ele>210.5</ele><time>2026-04-02T14:55:27.545Z</time></trkpt><trkpt lat="45.6162556" lon="9.0080543"><ele>210.0</ele><time>2026-04-02T14:55:28.546Z</time></trkpt><trkpt lat="45.6161667" lon="9.0079026"><ele>209.5</ele><time>2026-04-02T14:55:29.545Z</time></trkpt><trkpt lat="45.6160792" lon="9.0077557"><ele>209.0</ele><time>2026-04-02T14:55:30.546Z</time></trkpt><trkpt lat="45.6159922" lon="9.0076078"><ele>208.0</ele><time>2026-04-02T14:55:31.546Z</time></trkpt><trkpt lat="45.6159036" lon="9.0074573"><ele>207.0</ele><time>2026-04-02T14:55:32.545Z</time></trkpt><trkpt lat="45.6158146" lon="9.0073104"><ele>206.0</ele><time>2026-04-02T14:55:33.545Z</time></trkpt><trkpt lat="45.6157257" lon="9.0071637"><ele>205.0</ele><time>2026-04-02T14:55:34.545Z</time></trkpt><trkpt lat="45.6156432" lon="9.0070261"><ele>205.0</ele><time>2026-04-02T14:55:35.545Z</time></trkpt><trkpt lat="45.6155644" lon="9.0068918"><ele>205.0</ele><time>2026-04-02T14:55:36.544Z</time></trkpt><trkpt lat="45.6154916" lon="9.0067642"><ele>205.0</ele><time>2026-04-02T14:55:37.546Z</time></trkpt><trkpt lat="45.615419" lon="9.0066462"><ele>205.0</ele><time>2026-04-02T14:55:38.546Z</time></trkpt><trkpt lat="45.6153492" lon="9.0065289"><ele>205.4</ele><time>2026-04-02T14:55:39.546Z</time></trkpt><trkpt lat="45.6152826" lon="9.0064144"><ele>205.8</ele><time>2026-04-02T14:55:40.546Z</time></trkpt><trkpt lat="45.6152153" lon="9.0063074"><ele>206.2</ele><time>2026-04-02T14:55:41.546Z</time></trkpt><trkpt lat="45.6151511" lon="9.0062046"><ele>206.6</ele><time>2026-04-02T14:55:42.545Z</time></trkpt><trkpt lat="45.6150948" lon="9.0061118"><ele>207.0</ele><time>2026-04-02T14:55:43.545Z</time></trkpt><trkpt lat="45.6150395" lon="9.0060255"><ele>207.00000000000003</ele><time>2026-04-02T14:55:44.545Z</time></trkpt><trkpt lat="45.6149873" lon="9.0059418"><ele>207.0</ele><time>2026-04-02T14:55:45.546Z</time></trkpt><trkpt lat="45.6149397" lon="9.0058664"><ele>207.0</ele><time>2026-04-02T14:55:46.546Z</time></trkpt><trkpt lat="45.614893" lon="9.0057895"><ele>207.0</ele><time>2026-04-02T14:55:47.546Z</time></trkpt><trkpt lat="45.6148476" lon="9.0057127"><ele>207.0</ele><time>2026-04-02T14:55:48.545Z</time></trkpt><trkpt lat="45.6148021" lon="9.005632"><ele>207.00000000000003</ele><time>2026-04-02T14:55:49.545Z</time></trkpt><trkpt lat="45.6147612" lon="9.0055462"><ele>207.0</ele><time>2026-04-02T14:55:50.545Z</time></trkpt><trkpt lat="45.6147112" lon="9.0054537"><ele>207.0</ele><time>2026-04-02T14:55:51.545Z</time></trkpt><trkpt lat="45.6146655" lon="9.0053588"><ele>207.0</ele><time>2026-04-02T14:55:52.546Z</time></trkpt><trkpt lat="45.6146196" lon="9.005271"><ele>207.0</ele><time>2026-04-02T14:55:53.545Z</time></trkpt><trkpt lat="45.6145658" lon="9.0051672"><ele>207.0</ele><time>2026-04-02T14:55:54.546Z</time></trkpt><trkpt lat="45.6145191" lon="9.0050696"><ele>207.0</ele><time>2026-04-02T14:55:55.545Z</time></trkpt><trkpt lat="45.6144736" lon="9.004966"><ele>207.0</ele><time>2026-04-02T14:55:56.545Z</time></trkpt><trkpt lat="45.6144301" lon="9.0048607"><ele>207.0</ele><time>2026-04-02T14:55:57.545Z</time></trkpt><trkpt lat="45.6143866" lon="9.0047508"><ele>207.0</ele><time>2026-04-02T14:55:58.545Z</time></trkpt><trkpt lat="45.6143449" lon="9.0046299"><ele>207.0</ele><time>2026-04-02T14:55:59.545Z</time></trkpt><trkpt lat="45.6143008" lon="9.0045014"><ele>207.0</ele><time>2026-04-02T14:56:00.545Z</time></trkpt><trkpt lat="45.6142567" lon="9.0043746"><ele>207.0</ele><time>2026-04-02T14:56:01.545Z</time></trkpt><trkpt lat="45.6142157" lon="9.0042469"><ele>207.0</ele><time>2026-04-02T14:56:02.546Z</time></trkpt><trkpt lat="45.6141772" lon="9.0041273"><ele>207.0</ele><time>2026-04-02T14:56:03.546Z</time></trkpt><trkpt lat="45.6141416" lon="9.0040053"><ele>207.0</ele><time>2026-04-02T14:56:04.546Z</time></trkpt><trkpt lat="45.6141034" lon="9.0038821"><ele>207.0</ele><time>2026-04-02T14:56:05.546Z</time></trkpt><trkpt lat="45.6140634" lon="9.0037617"><ele>207.0</ele><time>2026-04-02T14:56:06.544Z</time></trkpt><trkpt lat="45.6140326" lon="9.0036407"><ele>207.0</ele><time>2026-04-02T14:56:07.545Z</time></trkpt><trkpt lat="45.6140025" lon="9.0035163"><ele>207.0</ele><time>2026-04-02T14:56:08.546Z</time></trkpt><trkpt lat="45.6139744" lon="9.0033908"><ele>207.0</ele><time>2026-04-02T14:56:09.545Z</time></trkpt><trkpt lat="45.6139488" lon="9.0032623"><ele>207.0</ele><time>2026-04-02T14:56:10.546Z</time></trkpt><trkpt lat="45.6139218" lon="9.0031273"><ele>207.0</ele><time>2026-04-02T14:56:11.545Z</time></trkpt><trkpt lat="45.6138946" lon="9.0029888"><ele>206.8</ele><time>2026-04-02T14:56:12.545Z</time></trkpt><trkpt lat="45.613867" lon="9.0028497"><ele>206.6</ele><time>2026-04-02T14:56:13.545Z</time></trkpt><trkpt lat="45.6138434" lon="9.0027106"><ele>206.4</ele><time>2026-04-02T14:56:14.545Z</time></trkpt><trkpt lat="45.6138228" lon="9.0025683"><ele>206.20000000000002</ele><time>2026-04-02T14:56:15.545Z</time></trkpt><trkpt lat="45.613801" lon="9.002426"><ele>206.0</ele><time>2026-04-02T14:56:16.545Z</time></trkpt><trkpt lat="45.6137747" lon="9.00228"><ele>206.0</ele><time>2026-04-02T14:56:17.544Z</time></trkpt><trkpt lat="45.6137513" lon="9.0021355"><ele>206.0</ele><time>2026-04-02T14:56:18.545Z</time></trkpt><trkpt lat="45.6137348" lon="9.0019813"><ele>206.0</ele><time>2026-04-02T14:56:19.544Z</time></trkpt><trkpt lat="45.6137213" lon="9.0018299"><ele>206.0</ele><time>2026-04-02T14:56:20.546Z</time></trkpt><trkpt lat="45.6137076" lon="9.0016735"><ele>206.0</ele><time>2026-04-02T14:56:21.544Z</time></trkpt><trkpt lat="45.6136962" lon="9.0015249"><ele>206.0</ele><time>2026-04-02T14:56:22.546Z</time></trkpt><trkpt lat="45.6136831" lon="9.001379"><ele>206.0</ele><time>2026-04-02T14:56:23.546Z</time></trkpt><trkpt lat="45.6136786" lon="9.0012304"><ele>206.0</ele><time>2026-04-02T14:56:24.546Z</time></trkpt><trkpt lat="45.6136769" lon="9.0010858"><ele>206.0</ele><time>2026-04-02T14:56:25.546Z</time></trkpt><trkpt lat="45.6136774" lon="9.0009351"><ele>206.0</ele><time>2026-04-02T14:56:26.546Z</time></trkpt><trkpt lat="45.6136719" lon="9.0007874"><ele>206.4</ele><time>2026-04-02T14:56:27.545Z</time></trkpt><trkpt lat="45.6136666" lon="9.0006338"><ele>206.8</ele><time>2026-04-02T14:56:28.544Z</time></trkpt><trkpt lat="45.6136645" lon="9.0004837"><ele>207.20000000000002</ele><time>2026-04-02T14:56:29.544Z</time></trkpt><trkpt lat="45.6136626" lon="9.0003308"><ele>207.60000000000002</ele><time>2026-04-02T14:56:30.545Z</time></trkpt><trkpt lat="45.6136596" lon="9.0001767"><ele>208.0</ele><time>2026-04-02T14:56:31.545Z</time></trkpt><trkpt lat="45.6136567" lon="9.0000188"><ele>208.0</ele><time>2026-04-02T14:56:32.545Z</time></trkpt><trkpt lat="45.6136537" lon="8.9998561"><ele>208.0</ele><time>2026-04-02T14:56:33.545Z</time></trkpt><trkpt lat="45.6136448" lon="8.9996897"><ele>208.0</ele><time>2026-04-02T14:56:34.546Z</time></trkpt><trkpt lat="45.6136417" lon="8.9995204"><ele>208.0</ele><time>2026-04-02T14:56:35.545Z</time></trkpt><trkpt lat="45.613635" lon="8.9993361"><ele>208.0</ele><time>2026-04-02T14:56:36.546Z</time></trkpt><trkpt lat="45.6136311" lon="8.9991501"><ele>208.0</ele><time>2026-04-02T14:56:37.546Z</time></trkpt><trkpt lat="45.6136279" lon="8.9989542"><ele>208.0</ele><time>2026-04-02T14:56:38.545Z</time></trkpt><trkpt lat="45.6136236" lon="8.9987666"><ele>208.0</ele><time>2026-04-02T14:56:39.545Z</time></trkpt><trkpt lat="45.613619" lon="8.9985837"><ele>208.0</ele><time>2026-04-02T14:56:40.544Z</time></trkpt><trkpt lat="45.6136179" lon="8.998399"><ele>208.0</ele><time>2026-04-02T14:56:41.545Z</time></trkpt><trkpt lat="45.613615" lon="8.9982162"><ele>208.0</ele><time>2026-04-02T14:56:42.546Z</time></trkpt><trkpt lat="45.6136129" lon="8.9980309"><ele>208.0</ele><time>2026-04-02T14:56:43.545Z</time></trkpt><trkpt lat="45.6136092" lon="8.9978431"><ele>207.75</ele><time>2026-04-02T14:56:44.545Z</time></trkpt><trkpt lat="45.6135992" lon="8.9976484"><ele>207.5</ele><time>2026-04-02T14:56:45.545Z</time></trkpt><trkpt lat="45.6135925" lon="8.9974642"><ele>207.25</ele><time>2026-04-02T14:56:46.545Z</time></trkpt><trkpt lat="45.6135807" lon="8.9972838"><ele>207.0</ele><time>2026-04-02T14:56:47.545Z</time></trkpt><trkpt lat="45.6135754" lon="8.9971161"><ele>207.0</ele><time>2026-04-02T14:56:48.546Z</time></trkpt><trkpt lat="45.6135707" lon="8.9969509"><ele>207.0</ele><time>2026-04-02T14:56:49.546Z</time></trkpt><trkpt lat="45.6135634" lon="8.9967802"><ele>207.0</ele><time>2026-04-02T14:56:50.545Z</time></trkpt><trkpt lat="45.6135581" lon="8.9966099"><ele>207.0</ele><time>2026-04-02T14:56:51.545Z</time></trkpt><trkpt lat="45.6135472" lon="8.9964398"><ele>207.0</ele><time>2026-04-02T14:56:52.545Z</time></trkpt><trkpt lat="45.6135367" lon="8.9962721"><ele>207.0</ele><time>2026-04-02T14:56:53.546Z</time></trkpt><trkpt lat="45.613526" lon="8.9961081"><ele>207.0</ele><time>2026-04-02T14:56:54.546Z</time></trkpt><trkpt lat="45.6135163" lon="8.9959431"><ele>207.0</ele><time>2026-04-02T14:56:55.545Z</time></trkpt><trkpt lat="45.6135093" lon="8.9957831"><ele>207.2</ele><time>2026-04-02T14:56:56.545Z</time></trkpt><trkpt lat="45.6135067" lon="8.9956281"><ele>207.39999999999998</ele><time>2026-04-02T14:56:57.545Z</time></trkpt><trkpt lat="45.6135004" lon="8.9954688"><ele>207.60000000000002</ele><time>2026-04-02T14:56:58.546Z</time></trkpt><trkpt lat="45.6134946" lon="8.9953094"><ele>207.8</ele><time>2026-04-02T14:56:59.546Z</time></trkpt><trkpt lat="45.6134878" lon="8.9951506"><ele>208.0</ele><time>2026-04-02T14:57:00.546Z</time></trkpt><trkpt lat="45.6134827" lon="8.9949887"><ele>208.0</ele><time>2026-04-02T14:57:01.545Z</time></trkpt><trkpt lat="45.6134734" lon="8.9948284"><ele>208.0</ele><time>2026-04-02T14:57:02.546Z</time></trkpt><trkpt lat="45.6134634" lon="8.9946662"><ele>208.0</ele><time>2026-04-02T14:57:03.545Z</time></trkpt><trkpt lat="45.6134579" lon="8.9945011"><ele>208.0</ele><time>2026-04-02T14:57:04.545Z</time></trkpt><trkpt lat="45.6134543" lon="8.9943345"><ele>208.0</ele><time>2026-04-02T14:57:05.545Z</time></trkpt><trkpt lat="45.6134489" lon="8.9941604"><ele>208.0</ele><time>2026-04-02T14:57:06.545Z</time></trkpt><trkpt lat="45.6134436" lon="8.9939866"><ele>208.0</ele><time>2026-04-02T14:57:07.545Z</time></trkpt><trkpt lat="45.6134371" lon="8.993814"><ele>208.0</ele><time>2026-04-02T14:57:08.545Z</time></trkpt><trkpt lat="45.6134292" lon="8.9936375"><ele>208.0</ele><time>2026-04-02T14:57:09.545Z</time></trkpt><trkpt lat="45.6134225" lon="8.9934752"><ele>208.0</ele><time>2026-04-02T14:57:10.544Z</time></trkpt><trkpt lat="45.6134194" lon="8.9933256"><ele>208.0</ele><time>2026-04-02T14:57:11.545Z</time></trkpt><trkpt lat="45.6134152" lon="8.9931841"><ele>208.0</ele><time>2026-04-02T14:57:12.545Z</time></trkpt><trkpt lat="45.6134148" lon="8.9930478"><ele>208.0</ele><time>2026-04-02T14:57:13.545Z</time></trkpt><trkpt lat="45.6134098" lon="8.9929116"><ele>207.99999999999997</ele><time>2026-04-02T14:57:14.545Z</time></trkpt><trkpt lat="45.6134073" lon="8.9927933"><ele>208.0</ele><time>2026-04-02T14:57:15.545Z</time></trkpt><trkpt lat="45.6134041" lon="8.9926744"><ele>208.0</ele><time>2026-04-02T14:57:16.544Z</time></trkpt><trkpt lat="45.613397" lon="8.992561"><ele>208.0</ele><time>2026-04-02T14:57:17.544Z</time></trkpt><trkpt lat="45.6133939" lon="8.992443"><ele>207.99999999999997</ele><time>2026-04-02T14:57:18.545Z</time></trkpt><trkpt lat="45.6133892" lon="8.9923247"><ele>208.0</ele><time>2026-04-02T14:57:19.545Z</time></trkpt><trkpt lat="45.6133883" lon="8.9922086"><ele>207.83333333333331</ele><time>2026-04-02T14:57:20.545Z</time></trkpt><trkpt lat="45.6133874" lon="8.992107"><ele>207.66666666666666</ele><time>2026-04-02T14:57:21.545Z</time></trkpt><trkpt lat="45.613393" lon="8.9920131"><ele>207.5</ele><time>2026-04-02T14:57:22.544Z</time></trkpt><trkpt lat="45.6133949" lon="8.991909"><ele>207.33333333333331</ele><time>2026-04-02T14:57:23.544Z</time></trkpt><trkpt lat="45.6134063" lon="8.9918076"><ele>207.16666666666666</ele><time>2026-04-02T14:57:24.545Z</time></trkpt><trkpt lat="45.6134319" lon="8.9917196"><ele>207.0</ele><time>2026-04-02T14:57:25.545Z</time></trkpt><trkpt lat="45.6134907" lon="8.9915671"><ele>207.00000000000003</ele><time>2026-04-02T14:57:27.544Z</time></trkpt><trkpt lat="45.6135252" lon="8.9914886"><ele>207.0</ele><time>2026-04-02T14:57:28.544Z</time></trkpt><trkpt lat="45.6135726" lon="8.9914169"><ele>207.0</ele><time>2026-04-02T14:57:29.544Z</time></trkpt><trkpt lat="45.6136133" lon="8.9913315"><ele>207.0</ele><time>2026-04-02T14:57:30.545Z</time></trkpt><trkpt lat="45.6136451" lon="8.9912391"><ele>207.0</ele><time>2026-04-02T14:57:31.545Z</time></trkpt><trkpt lat="45.6136522" lon="8.9911176"><ele>207.00000000000003</ele><time>2026-04-02T14:57:32.544Z</time></trkpt><trkpt lat="45.6136555" lon="8.9910229"><ele>207.0</ele><time>2026-04-02T14:57:33.545Z</time></trkpt><trkpt lat="45.6135749" lon="8.990878"><ele>207.2</ele><time>2026-04-02T14:57:35.545Z</time></trkpt><trkpt lat="45.6134741" lon="8.9908147"><ele>207.39999999999998</ele><time>2026-04-02T14:57:36.544Z</time></trkpt><trkpt lat="45.6134047" lon="8.9907268"><ele>207.60000000000002</ele><time>2026-04-02T14:57:37.545Z</time></trkpt><trkpt lat="45.613355" lon="8.9906211"><ele>207.8</ele><time>2026-04-02T14:57:38.544Z</time></trkpt><trkpt lat="45.6133328" lon="8.9904923"><ele>208.0</ele><time>2026-04-02T14:57:39.545Z</time></trkpt><trkpt lat="45.6133183" lon="8.9903396"><ele>208.0</ele><time>2026-04-02T14:57:40.545Z</time></trkpt><trkpt lat="45.6133121" lon="8.9901777"><ele>208.0</ele><time>2026-04-02T14:57:41.545Z</time></trkpt><trkpt lat="45.6132998" lon="8.9900064"><ele>208.0</ele><time>2026-04-02T14:57:42.543Z</time></trkpt><trkpt lat="45.6132893" lon="8.9898151"><ele>208.0</ele><time>2026-04-02T14:57:43.545Z</time></trkpt><trkpt lat="45.6132814" lon="8.9896028"><ele>207.75</ele><time>2026-04-02T14:57:44.545Z</time></trkpt><trkpt lat="45.6132768" lon="8.9893895"><ele>207.5</ele><time>2026-04-02T14:57:45.544Z</time></trkpt><trkpt lat="45.6132724" lon="8.989193"><ele>207.25</ele><time>2026-04-02T14:57:46.544Z</time></trkpt><trkpt lat="45.6132666" lon="8.988989"><ele>207.0</ele><time>2026-04-02T14:57:47.544Z</time></trkpt><trkpt lat="45.6132584" lon="8.9887752"><ele>207.0</ele><time>2026-04-02T14:57:48.544Z</time></trkpt><trkpt lat="45.6132494" lon="8.9885498"><ele>207.0</ele><time>2026-04-02T14:57:49.544Z</time></trkpt><trkpt lat="45.6132375" lon="8.9883124"><ele>207.0</ele><time>2026-04-02T14:57:50.544Z</time></trkpt><trkpt lat="45.6132309" lon="8.988067"><ele>208.0</ele><time>2026-04-02T14:57:51.544Z</time></trkpt><trkpt lat="45.6132264" lon="8.9878306"><ele>209.0</ele><time>2026-04-02T14:57:52.544Z</time></trkpt><trkpt lat="45.613219" lon="8.9876037"><ele>210.0</ele><time>2026-04-02T14:57:53.544Z</time></trkpt><trkpt lat="45.61321" lon="8.9873811"><ele>210.33333333333331</ele><time>2026-04-02T14:57:54.544Z</time></trkpt><trkpt lat="45.6132041" lon="8.9871572"><ele>210.66666666666666</ele><time>2026-04-02T14:57:55.545Z</time></trkpt><trkpt lat="45.6131965" lon="8.9869384"><ele>211.0</ele><time>2026-04-02T14:57:56.543Z</time></trkpt><trkpt lat="45.6131901" lon="8.9867182"><ele>210.5</ele><time>2026-04-02T14:57:57.545Z</time></trkpt><trkpt lat="45.6131831" lon="8.9865043"><ele>210.0</ele><time>2026-04-02T14:57:58.544Z</time></trkpt><trkpt lat="45.6131791" lon="8.9863006"><ele>209.5</ele><time>2026-04-02T14:57:59.545Z</time></trkpt><trkpt lat="45.6131782" lon="8.9861043"><ele>209.0</ele><time>2026-04-02T14:58:00.545Z</time></trkpt><trkpt lat="45.613172" lon="8.9858983"><ele>208.75</ele><time>2026-04-02T14:58:01.545Z</time></trkpt><trkpt lat="45.613165" lon="8.9856976"><ele>208.5</ele><time>2026-04-02T14:58:02.544Z</time></trkpt><trkpt lat="45.6131601" lon="8.9854921"><ele>208.25</ele><time>2026-04-02T14:58:03.544Z</time></trkpt><trkpt lat="45.6131566" lon="8.9852808"><ele>208.0</ele><time>2026-04-02T14:58:04.545Z</time></trkpt><trkpt lat="45.613154" lon="8.985071"><ele>208.33333333333331</ele><time>2026-04-02T14:58:05.545Z</time></trkpt><trkpt lat="45.6131494" lon="8.9848614"><ele>208.66666666666669</ele><time>2026-04-02T14:58:06.545Z</time></trkpt><trkpt lat="45.6131424" lon="8.9846465"><ele>209.0</ele><time>2026-04-02T14:58:07.545Z</time></trkpt><trkpt lat="45.6131344" lon="8.984429"><ele>209.0</ele><time>2026-04-02T14:58:08.544Z</time></trkpt><trkpt lat="45.6131231" lon="8.9842012"><ele>209.0</ele><time>2026-04-02T14:58:09.544Z</time></trkpt><trkpt lat="45.6131094" lon="8.9839658"><ele>209.0</ele><time>2026-04-02T14:58:10.544Z</time></trkpt><trkpt lat="45.6130956" lon="8.9837277"><ele>209.0</ele><time>2026-04-02T14:58:11.545Z</time></trkpt><trkpt lat="45.6130803" lon="8.9834818"><ele>209.0</ele><time>2026-04-02T14:58:12.545Z</time></trkpt><trkpt lat="45.6130639" lon="8.9832297"><ele>209.0</ele><time>2026-04-02T14:58:13.545Z</time></trkpt><trkpt lat="45.6130523" lon="8.9829673"><ele>209.0</ele><time>2026-04-02T14:58:14.544Z</time></trkpt><trkpt lat="45.6130461" lon="8.9827051"><ele>209.0</ele><time>2026-04-02T14:58:15.544Z</time></trkpt><trkpt lat="45.6130363" lon="8.9824315"><ele>209.0</ele><time>2026-04-02T14:58:16.545Z</time></trkpt><trkpt lat="45.6130269" lon="8.9821558"><ele>209.66666666666669</ele><time>2026-04-02T14:58:17.544Z</time></trkpt><trkpt lat="45.6130183" lon="8.9818883"><ele>210.33333333333331</ele><time>2026-04-02T14:58:18.544Z</time></trkpt><trkpt lat="45.6130156" lon="8.981631"><ele>211.0</ele><time>2026-04-02T14:58:19.545Z</time></trkpt><trkpt lat="45.6130088" lon="8.9813682"><ele>210.0</ele><time>2026-04-02T14:58:20.545Z</time></trkpt><trkpt lat="45.6130022" lon="8.981116"><ele>209.0</ele><time>2026-04-02T14:58:21.545Z</time></trkpt><trkpt lat="45.6129935" lon="8.9808601"><ele>208.0</ele><time>2026-04-02T14:58:22.545Z</time></trkpt><trkpt lat="45.6129851" lon="8.9806071"><ele>208.0</ele><time>2026-04-02T14:58:23.545Z</time></trkpt><trkpt lat="45.6129788" lon="8.9803589"><ele>208.0</ele><time>2026-04-02T14:58:24.545Z</time></trkpt><trkpt lat="45.6129678" lon="8.9801114"><ele>208.0</ele><time>2026-04-02T14:58:25.544Z</time></trkpt><trkpt lat="45.6129576" lon="8.9798809"><ele>207.66666666666666</ele><time>2026-04-02T14:58:26.544Z</time></trkpt><trkpt lat="45.6129435" lon="8.979657"><ele>207.33333333333331</ele><time>2026-04-02T14:58:27.544Z</time></trkpt><trkpt lat="45.6129311" lon="8.9794345"><ele>207.0</ele><time>2026-04-02T14:58:28.544Z</time></trkpt><trkpt lat="45.6129241" lon="8.9792122"><ele>207.66666666666669</ele><time>2026-04-02T14:58:29.544Z</time></trkpt><trkpt lat="45.612918" lon="8.9789829"><ele>208.33333333333334</ele><time>2026-04-02T14:58:30.544Z</time></trkpt><trkpt lat="45.6129076" lon="8.9787525"><ele>209.0</ele><time>2026-04-02T14:58:31.544Z</time></trkpt><trkpt lat="45.612899" lon="8.9785305"><ele>209.5</ele><time>2026-04-02T14:58:32.545Z</time></trkpt><trkpt lat="45.6128938" lon="8.9783124"><ele>210.0</ele><time>2026-04-02T14:58:33.544Z</time></trkpt><trkpt lat="45.612887" lon="8.9780953"><ele>210.5</ele><time>2026-04-02T14:58:34.545Z</time></trkpt><trkpt lat="45.6128785" lon="8.9778894"><ele>211.0</ele><time>2026-04-02T14:58:35.544Z</time></trkpt><trkpt lat="45.6128719" lon="8.9776903"><ele>211.0</ele><time>2026-04-02T14:58:36.544Z</time></trkpt><trkpt lat="45.6128647" lon="8.9774914"><ele>211.0</ele><time>2026-04-02T14:58:37.544Z</time></trkpt><trkpt lat="45.6128606" lon="8.9772955"><ele>211.0</ele><time>2026-04-02T14:58:38.544Z</time></trkpt><trkpt lat="45.6128515" lon="8.9770955"><ele>211.0</ele><time>2026-04-02T14:58:39.545Z</time></trkpt><trkpt lat="45.6128451" lon="8.9768952"><ele>211.0</ele><time>2026-04-02T14:58:40.545Z</time></trkpt><trkpt lat="45.6128399" lon="8.9767063"><ele>211.0</ele><time>2026-04-02T14:58:41.545Z</time></trkpt><trkpt lat="45.6128311" lon="8.9765169"><ele>211.0</ele><time>2026-04-02T14:58:42.545Z</time></trkpt><trkpt lat="45.6128277" lon="8.9763284"><ele>211.0</ele><time>2026-04-02T14:58:43.544Z</time></trkpt><trkpt lat="45.6128218" lon="8.9761357"><ele>211.25</ele><time>2026-04-02T14:58:44.544Z</time></trkpt><trkpt lat="45.6128147" lon="8.975945"><ele>211.5</ele><time>2026-04-02T14:58:45.545Z</time></trkpt><trkpt lat="45.6128049" lon="8.9757465"><ele>211.75</ele><time>2026-04-02T14:58:46.545Z</time></trkpt><trkpt lat="45.6127966" lon="8.9755429"><ele>212.0</ele><time>2026-04-02T14:58:47.544Z</time></trkpt><trkpt lat="45.6127889" lon="8.9753419"><ele>212.0</ele><time>2026-04-02T14:58:48.544Z</time></trkpt><trkpt lat="45.6127847" lon="8.9751472"><ele>212.0</ele><time>2026-04-02T14:58:49.545Z</time></trkpt><trkpt lat="45.6127756" lon="8.9749577"><ele>212.0</ele><time>2026-04-02T14:58:50.544Z</time></trkpt><trkpt lat="45.6127718" lon="8.9747758"><ele>212.0</ele><time>2026-04-02T14:58:51.545Z</time></trkpt><trkpt lat="45.612764" lon="8.9745973"><ele>212.75</ele><time>2026-04-02T14:58:52.545Z</time></trkpt><trkpt lat="45.6127624" lon="8.9744233"><ele>213.5</ele><time>2026-04-02T14:58:53.543Z</time></trkpt><trkpt lat="45.6127541" lon="8.9742426"><ele>214.25</ele><time>2026-04-02T14:58:54.545Z</time></trkpt><trkpt lat="45.6127467" lon="8.9740549"><ele>215.0</ele><time>2026-04-02T14:58:55.544Z</time></trkpt><trkpt lat="45.6127403" lon="8.9738706"><ele>215.5</ele><time>2026-04-02T14:58:56.544Z</time></trkpt><trkpt lat="45.612735" lon="8.9736894"><ele>216.0</ele><time>2026-04-02T14:58:57.545Z</time></trkpt><trkpt lat="45.6127287" lon="8.9735145"><ele>216.5</ele><time>2026-04-02T14:58:58.545Z</time></trkpt><trkpt lat="45.6127225" lon="8.9733457"><ele>217.0</ele><time>2026-04-02T14:58:59.544Z</time></trkpt><trkpt lat="45.6127184" lon="8.9731823"><ele>215.75</ele><time>2026-04-02T14:59:00.544Z</time></trkpt><trkpt lat="45.612711" lon="8.9730174"><ele>214.5</ele><time>2026-04-02T14:59:01.545Z</time></trkpt><trkpt lat="45.6127045" lon="8.9728484"><ele>213.25</ele><time>2026-04-02T14:59:02.544Z</time></trkpt><trkpt lat="45.6126974" lon="8.9726764"><ele>212.0</ele><time>2026-04-02T14:59:03.544Z</time></trkpt><trkpt lat="45.6126916" lon="8.9724971"><ele>211.75</ele><time>2026-04-02T14:59:04.545Z</time></trkpt><trkpt lat="45.6126849" lon="8.9723149"><ele>211.5</ele><time>2026-04-02T14:59:05.544Z</time></trkpt><trkpt lat="45.6126774" lon="8.9721236"><ele>211.25</ele><time>2026-04-02T14:59:06.545Z</time></trkpt><trkpt lat="45.6126729" lon="8.9719324"><ele>211.0</ele><time>2026-04-02T14:59:07.545Z</time></trkpt><trkpt lat="45.6126682" lon="8.9717455"><ele>212.0</ele><time>2026-04-02T14:59:08.544Z</time></trkpt><trkpt lat="45.6126612" lon="8.9715672"><ele>213.0</ele><time>2026-04-02T14:59:09.545Z</time></trkpt><trkpt lat="45.6126534" lon="8.9713927"><ele>214.0</ele><time>2026-04-02T14:59:10.545Z</time></trkpt><trkpt lat="45.6126495" lon="8.9712057"><ele>215.0</ele><time>2026-04-02T14:59:11.545Z</time></trkpt><trkpt lat="45.6126435" lon="8.9710277"><ele>215.0</ele><time>2026-04-02T14:59:12.545Z</time></trkpt><trkpt lat="45.6126405" lon="8.9708555"><ele>215.0</ele><time>2026-04-02T14:59:13.544Z</time></trkpt><trkpt lat="45.612632" lon="8.9706743"><ele>215.0</ele><time>2026-04-02T14:59:14.544Z</time></trkpt><trkpt lat="45.6126261" lon="8.9704949"><ele>215.0</ele><time>2026-04-02T14:59:15.544Z</time></trkpt><trkpt lat="45.61262" lon="8.9703136"><ele>215.0</ele><time>2026-04-02T14:59:16.544Z</time></trkpt><trkpt lat="45.612612" lon="8.9701254"><ele>215.0</ele><time>2026-04-02T14:59:17.544Z</time></trkpt><trkpt lat="45.6126066" lon="8.9699348"><ele>215.0</ele><time>2026-04-02T14:59:18.545Z</time></trkpt><trkpt lat="45.6126003" lon="8.9697367"><ele>215.0</ele><time>2026-04-02T14:59:19.545Z</time></trkpt><trkpt lat="45.6125957" lon="8.969542"><ele>214.5</ele><time>2026-04-02T14:59:20.545Z</time></trkpt><trkpt lat="45.6125876" lon="8.9693448"><ele>214.0</ele><time>2026-04-02T14:59:21.544Z</time></trkpt><trkpt lat="45.6125801" lon="8.9691524"><ele>213.5</ele><time>2026-04-02T14:59:22.545Z</time></trkpt><trkpt lat="45.6125758" lon="8.9689696"><ele>213.0</ele><time>2026-04-02T14:59:23.544Z</time></trkpt><trkpt lat="45.6125693" lon="8.9687968"><ele>213.0</ele><time>2026-04-02T14:59:24.545Z</time></trkpt><trkpt lat="45.6125612" lon="8.9686245"><ele>213.0</ele><time>2026-04-02T14:59:25.545Z</time></trkpt><trkpt lat="45.6125579" lon="8.9684539"><ele>213.0</ele><time>2026-04-02T14:59:26.545Z</time></trkpt><trkpt lat="45.6125522" lon="8.9682894"><ele>213.0</ele><time>2026-04-02T14:59:27.545Z</time></trkpt><trkpt lat="45.6125479" lon="8.9681259"><ele>213.0</ele><time>2026-04-02T14:59:28.545Z</time></trkpt><trkpt lat="45.612545" lon="8.967968"><ele>213.0</ele><time>2026-04-02T14:59:29.544Z</time></trkpt><trkpt lat="45.6125374" lon="8.9678034"><ele>213.0</ele><time>2026-04-02T14:59:30.545Z</time></trkpt><trkpt lat="45.6125289" lon="8.9676393"><ele>213.0</ele><time>2026-04-02T14:59:31.545Z</time></trkpt><trkpt lat="45.612523" lon="8.9674724"><ele>213.0</ele><time>2026-04-02T14:59:32.544Z</time></trkpt><trkpt lat="45.6125185" lon="8.9673081"><ele>213.0</ele><time>2026-04-02T14:59:33.544Z</time></trkpt><trkpt lat="45.6125118" lon="8.9671355"><ele>213.0</ele><time>2026-04-02T14:59:34.545Z</time></trkpt><trkpt lat="45.6125056" lon="8.9669636"><ele>213.0</ele><time>2026-04-02T14:59:35.544Z</time></trkpt><trkpt lat="45.6124972" lon="8.9667977"><ele>213.2</ele><time>2026-04-02T14:59:36.544Z</time></trkpt><trkpt lat="45.6124873" lon="8.9666386"><ele>213.4</ele><time>2026-04-02T14:59:37.543Z</time></trkpt><trkpt lat="45.6124766" lon="8.9664923"><ele>213.59999999999997</ele><time>2026-04-02T14:59:38.545Z</time></trkpt><trkpt lat="45.6124612" lon="8.9663529"><ele>213.79999999999998</ele><time>2026-04-02T14:59:39.544Z</time></trkpt><trkpt lat="45.6124408" lon="8.9662189"><ele>214.0</ele><time>2026-04-02T14:59:40.545Z</time></trkpt><trkpt lat="45.6124135" lon="8.966083"><ele>214.0</ele><time>2026-04-02T14:59:41.544Z</time></trkpt><trkpt lat="45.6123826" lon="8.9659474"><ele>213.99999999999997</ele><time>2026-04-02T14:59:42.544Z</time></trkpt><trkpt lat="45.6123615" lon="8.9658089"><ele>213.99999999999997</ele><time>2026-04-02T14:59:43.544Z</time></trkpt><trkpt lat="45.612358" lon="8.9656583"><ele>214.0</ele><time>2026-04-02T14:59:44.545Z</time></trkpt><trkpt lat="45.6123711" lon="8.965508"><ele>214.0</ele><time>2026-04-02T14:59:45.544Z</time></trkpt><trkpt lat="45.612387" lon="8.9653497"><ele>214.25</ele><time>2026-04-02T14:59:46.544Z</time></trkpt><trkpt lat="45.6124066" lon="8.9651896"><ele>214.5</ele><time>2026-04-02T14:59:47.545Z</time></trkpt><trkpt lat="45.6124111" lon="8.9650159"><ele>214.75</ele><time>2026-04-02T14:59:48.544Z</time></trkpt><trkpt lat="45.6124108" lon="8.9648445"><ele>215.0</ele><time>2026-04-02T14:59:49.544Z</time></trkpt><trkpt lat="45.6124039" lon="8.96467"><ele>215.0</ele><time>2026-04-02T14:59:50.544Z</time></trkpt><trkpt lat="45.6123951" lon="8.9644946"><ele>215.0</ele><time>2026-04-02T14:59:51.545Z</time></trkpt><trkpt lat="45.6123868" lon="8.9643198"><ele>215.0</ele><time>2026-04-02T14:59:52.545Z</time></trkpt><trkpt lat="45.6123759" lon="8.9641368"><ele>215.0</ele><time>2026-04-02T14:59:53.544Z</time></trkpt><trkpt lat="45.612368" lon="8.9639431"><ele>215.0</ele><time>2026-04-02T14:59:54.543Z</time></trkpt><trkpt lat="45.6123606" lon="8.9637364"><ele>215.0</ele><time>2026-04-02T14:59:55.543Z</time></trkpt><trkpt lat="45.6123518" lon="8.9635339"><ele>215.0</ele><time>2026-04-02T14:59:56.545Z</time></trkpt><trkpt lat="45.6123456" lon="8.963335"><ele>215.0</ele><time>2026-04-02T14:59:57.545Z</time></trkpt><trkpt lat="45.6123438" lon="8.9631393"><ele>215.0</ele><time>2026-04-02T14:59:58.544Z</time></trkpt><trkpt lat="45.6123455" lon="8.9629294"><ele>215.0</ele><time>2026-04-02T14:59:59.544Z</time></trkpt><trkpt lat="45.6123474" lon="8.9627238"><ele>215.0</ele><time>2026-04-02T15:00:00.543Z</time></trkpt><trkpt lat="45.6123485" lon="8.9625031"><ele>215.0</ele><time>2026-04-02T15:00:01.544Z</time></trkpt><trkpt lat="45.6123459" lon="8.9622842"><ele>215.0</ele><time>2026-04-02T15:00:02.544Z</time></trkpt><trkpt lat="45.6123443" lon="8.9620669"><ele>215.0</ele><time>2026-04-02T15:00:03.544Z</time></trkpt><trkpt lat="45.6123439" lon="8.9618573"><ele>215.0</ele><time>2026-04-02T15:00:04.545Z</time></trkpt><trkpt lat="45.6123384" lon="8.9616571"><ele>215.0</ele><time>2026-04-02T15:00:05.543Z</time></trkpt><trkpt lat="45.6123349" lon="8.9614753"><ele>215.25</ele><time>2026-04-02T15:00:06.543Z</time></trkpt><trkpt lat="45.6123266" lon="8.9612982"><ele>215.5</ele><time>2026-04-02T15:00:07.544Z</time></trkpt><trkpt lat="45.6123211" lon="8.9611224"><ele>215.75</ele><time>2026-04-02T15:00:08.544Z</time></trkpt><trkpt lat="45.6123117" lon="8.9609358"><ele>216.0</ele><time>2026-04-02T15:00:09.543Z</time></trkpt><trkpt lat="45.6123057" lon="8.960753"><ele>216.0</ele><time>2026-04-02T15:00:10.544Z</time></trkpt><trkpt lat="45.6122987" lon="8.9605703"><ele>216.0</ele><time>2026-04-02T15:00:11.544Z</time></trkpt><trkpt lat="45.6122949" lon="8.9603778"><ele>216.0</ele><time>2026-04-02T15:00:12.543Z</time></trkpt><trkpt lat="45.6122913" lon="8.960179"><ele>216.0</ele><time>2026-04-02T15:00:13.543Z</time></trkpt><trkpt lat="45.6122863" lon="8.9599716"><ele>216.0</ele><time>2026-04-02T15:00:14.543Z</time></trkpt><trkpt lat="45.6122773" lon="8.9597618"><ele>216.0</ele><time>2026-04-02T15:00:15.542Z</time></trkpt><trkpt lat="45.6122678" lon="8.9595603"><ele>216.0</ele><time>2026-04-02T15:00:16.543Z</time></trkpt><trkpt lat="45.6122588" lon="8.9593614"><ele>216.0</ele><time>2026-04-02T15:00:17.544Z</time></trkpt><trkpt lat="45.6122502" lon="8.959164"><ele>216.0</ele><time>2026-04-02T15:00:18.544Z</time></trkpt><trkpt lat="45.6122452" lon="8.958974"><ele>216.0</ele><time>2026-04-02T15:00:19.543Z</time></trkpt><trkpt lat="45.6122416" lon="8.9587835"><ele>216.0</ele><time>2026-04-02T15:00:20.543Z</time></trkpt><trkpt lat="45.6122371" lon="8.9585926"><ele>216.0</ele><time>2026-04-02T15:00:21.543Z</time></trkpt><trkpt lat="45.6122286" lon="8.9584092"><ele>216.0</ele><time>2026-04-02T15:00:22.543Z</time></trkpt><trkpt lat="45.6122215" lon="8.9582321"><ele>216.0</ele><time>2026-04-02T15:00:23.544Z</time></trkpt><trkpt lat="45.6122153" lon="8.9580608"><ele>216.0</ele><time>2026-04-02T15:00:24.544Z</time></trkpt><trkpt lat="45.6122135" lon="8.9578969"><ele>216.0</ele><time>2026-04-02T15:00:25.543Z</time></trkpt><trkpt lat="45.612209" lon="8.9577383"><ele>216.0</ele><time>2026-04-02T15:00:26.543Z</time></trkpt><trkpt lat="45.6122053" lon="8.9575922"><ele>216.00000000000003</ele><time>2026-04-02T15:00:27.543Z</time></trkpt><trkpt lat="45.6121966" lon="8.9574541"><ele>216.00000000000003</ele><time>2026-04-02T15:00:28.543Z</time></trkpt><trkpt lat="45.6121893" lon="8.9573217"><ele>216.0</ele><time>2026-04-02T15:00:29.544Z</time></trkpt><trkpt lat="45.6121827" lon="8.9572018"><ele>216.0</ele><time>2026-04-02T15:00:30.544Z</time></trkpt><trkpt lat="45.6121807" lon="8.957086"><ele>216.16666666666666</ele><time>2026-04-02T15:00:31.542Z</time></trkpt><trkpt lat="45.6121762" lon="8.9569814"><ele>216.33333333333331</ele><time>2026-04-02T15:00:32.543Z</time></trkpt><trkpt lat="45.6121685" lon="8.9568257"><ele>216.5</ele><time>2026-04-02T15:00:34.544Z</time></trkpt><trkpt lat="45.612177" lon="8.9567109"><ele>216.66666666666666</ele><time>2026-04-02T15:00:36.542Z</time></trkpt><trkpt lat="45.6122064" lon="8.9566128"><ele>216.83333333333331</ele><time>2026-04-02T15:00:38.544Z</time></trkpt><trkpt lat="45.6122349" lon="8.9564633"><ele>217.0</ele><time>2026-04-02T15:00:40.543Z</time></trkpt><trkpt lat="45.6122316" lon="8.9563725"><ele>216.99999999999997</ele><time>2026-04-02T15:00:41.543Z</time></trkpt><trkpt lat="45.6122078" lon="8.9562865"><ele>217.0</ele><time>2026-04-02T15:00:42.543Z</time></trkpt><trkpt lat="45.6121749" lon="8.9561856"><ele>217.0</ele><time>2026-04-02T15:00:43.544Z</time></trkpt><trkpt lat="45.6121455" lon="8.9560893"><ele>217.0</ele><time>2026-04-02T15:00:44.543Z</time></trkpt><trkpt lat="45.6121341" lon="8.9559353"><ele>216.99999999999997</ele><time>2026-04-02T15:00:45.544Z</time></trkpt><trkpt lat="45.612125" lon="8.9558059"><ele>217.0</ele><time>2026-04-02T15:00:46.543Z</time></trkpt><trkpt lat="45.6121185" lon="8.9556765"><ele>217.0</ele><time>2026-04-02T15:00:47.543Z</time></trkpt><trkpt lat="45.6121174" lon="8.955533"><ele>217.0</ele><time>2026-04-02T15:00:48.543Z</time></trkpt><trkpt lat="45.6121129" lon="8.955382"><ele>217.0</ele><time>2026-04-02T15:00:49.542Z</time></trkpt><trkpt lat="45.6121058" lon="8.9552285"><ele>217.0</ele><time>2026-04-02T15:00:50.544Z</time></trkpt><trkpt lat="45.6120985" lon="8.9550725"><ele>217.0</ele><time>2026-04-02T15:00:51.544Z</time></trkpt><trkpt lat="45.612095" lon="8.9549096"><ele>217.0</ele><time>2026-04-02T15:00:52.543Z</time></trkpt><trkpt lat="45.6120873" lon="8.9547355"><ele>217.0</ele><time>2026-04-02T15:00:53.542Z</time></trkpt><trkpt lat="45.6120775" lon="8.9545455"><ele>217.0</ele><time>2026-04-02T15:00:54.544Z</time></trkpt><trkpt lat="45.6120731" lon="8.9543685"><ele>217.0</ele><time>2026-04-02T15:00:55.544Z</time></trkpt><trkpt lat="45.6120664" lon="8.9542047"><ele>217.25</ele><time>2026-04-02T15:00:56.543Z</time></trkpt><trkpt lat="45.6120575" lon="8.9540513"><ele>217.5</ele><time>2026-04-02T15:00:57.544Z</time></trkpt><trkpt lat="45.6120487" lon="8.9539009"><ele>217.75</ele><time>2026-04-02T15:00:58.544Z</time></trkpt><trkpt lat="45.6120356" lon="8.9537283"><ele>218.0</ele><time>2026-04-02T15:00:59.543Z</time></trkpt><trkpt lat="45.6120299" lon="8.9535309"><ele>218.0</ele><time>2026-04-02T15:01:00.543Z</time></trkpt><trkpt lat="45.6120312" lon="8.9533107"><ele>218.0</ele><time>2026-04-02T15:01:01.544Z</time></trkpt><trkpt lat="45.6120275" lon="8.9530925"><ele>218.0</ele><time>2026-04-02T15:01:02.543Z</time></trkpt><trkpt lat="45.6120272" lon="8.9528864"><ele>218.0</ele><time>2026-04-02T15:01:03.543Z</time></trkpt><trkpt lat="45.6120216" lon="8.9526797"><ele>218.0</ele><time>2026-04-02T15:01:04.543Z</time></trkpt><trkpt lat="45.6120159" lon="8.9524711"><ele>218.0</ele><time>2026-04-02T15:01:05.544Z</time></trkpt><trkpt lat="45.6120077" lon="8.9522587"><ele>218.0</ele><time>2026-04-02T15:01:06.544Z</time></trkpt><trkpt lat="45.6119998" lon="8.9520489"><ele>218.0</ele><time>2026-04-02T15:01:07.543Z</time></trkpt><trkpt lat="45.6119931" lon="8.9518426"><ele>218.0</ele><time>2026-04-02T15:01:08.543Z</time></trkpt><trkpt lat="45.611987" lon="8.9516183"><ele>218.0</ele><time>2026-04-02T15:01:09.544Z</time></trkpt><trkpt lat="45.6119818" lon="8.9514087"><ele>218.0</ele><time>2026-04-02T15:01:10.544Z</time></trkpt><trkpt lat="45.6119756" lon="8.9512031"><ele>218.0</ele><time>2026-04-02T15:01:11.544Z</time></trkpt><trkpt lat="45.61197" lon="8.9509975"><ele>218.0</ele><time>2026-04-02T15:01:12.542Z</time></trkpt><trkpt lat="45.6119633" lon="8.9508001"><ele>218.0</ele><time>2026-04-02T15:01:13.544Z</time></trkpt><trkpt lat="45.6119584" lon="8.9506008"><ele>218.0</ele><time>2026-04-02T15:01:14.543Z</time></trkpt><trkpt lat="45.6119548" lon="8.9504062"><ele>218.25</ele><time>2026-04-02T15:01:15.544Z</time></trkpt><trkpt lat="45.6119464" lon="8.9502098"><ele>218.5</ele><time>2026-04-02T15:01:16.543Z</time></trkpt><trkpt lat="45.6119336" lon="8.9500098"><ele>218.75</ele><time>2026-04-02T15:01:17.544Z</time></trkpt><trkpt lat="45.6119265" lon="8.9498367"><ele>219.0</ele><time>2026-04-02T15:01:18.543Z</time></trkpt><trkpt lat="45.6119198" lon="8.9496694"><ele>219.0</ele><time>2026-04-02T15:01:19.543Z</time></trkpt><trkpt lat="45.6119182" lon="8.9495153"><ele>218.99999999999997</ele><time>2026-04-02T15:01:20.543Z</time></trkpt><trkpt lat="45.6119144" lon="8.9493651"><ele>218.99999999999997</ele><time>2026-04-02T15:01:21.543Z</time></trkpt><trkpt lat="45.6119055" lon="8.9492128"><ele>219.0</ele><time>2026-04-02T15:01:22.543Z</time></trkpt><trkpt lat="45.6118978" lon="8.949062"><ele>219.0</ele><time>2026-04-02T15:01:23.544Z</time></trkpt><trkpt lat="45.6118911" lon="8.9489019"><ele>218.75</ele><time>2026-04-02T15:01:24.544Z</time></trkpt><trkpt lat="45.6118831" lon="8.9487386"><ele>218.5</ele><time>2026-04-02T15:01:25.544Z</time></trkpt><trkpt lat="45.6118755" lon="8.9485645"><ele>218.25</ele><time>2026-04-02T15:01:26.544Z</time></trkpt><trkpt lat="45.6118686" lon="8.9483873"><ele>218.0</ele><time>2026-04-02T15:01:27.544Z</time></trkpt><trkpt lat="45.6118613" lon="8.9482087"><ele>218.0</ele><time>2026-04-02T15:01:28.544Z</time></trkpt><trkpt lat="45.6118557" lon="8.9480342"><ele>218.0</ele><time>2026-04-02T15:01:29.543Z</time></trkpt><trkpt lat="45.6118475" lon="8.9478695"><ele>218.0</ele><time>2026-04-02T15:01:30.544Z</time></trkpt><trkpt lat="45.6118413" lon="8.9477121"><ele>218.0</ele><time>2026-04-02T15:01:31.543Z</time></trkpt><trkpt lat="45.6118355" lon="8.9475619"><ele>218.00000000000003</ele><time>2026-04-02T15:01:32.543Z</time></trkpt><trkpt lat="45.6118288" lon="8.9474231"><ele>218.0</ele><time>2026-04-02T15:01:33.544Z</time></trkpt><trkpt lat="45.6118235" lon="8.9472913"><ele>218.0</ele><time>2026-04-02T15:01:34.543Z</time></trkpt><trkpt lat="45.6118179" lon="8.9471642"><ele>218.0</ele><time>2026-04-02T15:01:35.544Z</time></trkpt><trkpt lat="45.6118144" lon="8.9470447"><ele>218.00000000000003</ele><time>2026-04-02T15:01:36.543Z</time></trkpt><trkpt lat="45.6118123" lon="8.9469339"><ele>218.0</ele><time>2026-04-02T15:01:37.543Z</time></trkpt><trkpt lat="45.611811" lon="8.9468193"><ele>218.16666666666669</ele><time>2026-04-02T15:01:38.544Z</time></trkpt><trkpt lat="45.6118071" lon="8.9466975"><ele>218.33333333333334</ele><time>2026-04-02T15:01:39.542Z</time></trkpt><trkpt lat="45.6118027" lon="8.9465866"><ele>218.5</ele><time>2026-04-02T15:01:40.544Z</time></trkpt><trkpt lat="45.6118013" lon="8.946474"><ele>218.66666666666669</ele><time>2026-04-02T15:01:41.544Z</time></trkpt><trkpt lat="45.6117963" lon="8.9463562"><ele>218.83333333333334</ele><time>2026-04-02T15:01:42.543Z</time></trkpt><trkpt lat="45.6117963" lon="8.9462173"><ele>219.0</ele><time>2026-04-02T15:01:44.542Z</time></trkpt><trkpt lat="45.6118357" lon="8.9460984"><ele>219.0</ele><time>2026-04-02T15:01:46.543Z</time></trkpt><trkpt lat="45.6119185" lon="8.9459852"><ele>218.99999999999997</ele><time>2026-04-02T15:01:48.543Z</time></trkpt><trkpt lat="45.6119945" lon="8.945886"><ele>218.99999999999997</ele><time>2026-04-02T15:01:50.543Z</time></trkpt><trkpt lat="45.6120322" lon="8.9457343"><ele>219.0</ele><time>2026-04-02T15:01:52.543Z</time></trkpt><trkpt lat="45.6120254" lon="8.9456392"><ele>219.0</ele><time>2026-04-02T15:01:53.543Z</time></trkpt><trkpt lat="45.6119994" lon="8.945546"><ele>219.0</ele><time>2026-04-02T15:01:54.544Z</time></trkpt><trkpt lat="45.6119603" lon="8.9454505"><ele>219.0</ele><time>2026-04-02T15:01:55.544Z</time></trkpt><trkpt lat="45.6119174" lon="8.9453573"><ele>219.0</ele><time>2026-04-02T15:01:56.544Z</time></trkpt><trkpt lat="45.6118818" lon="8.9452543"><ele>219.0</ele><time>2026-04-02T15:01:57.544Z</time></trkpt><trkpt lat="45.6118492" lon="8.9451407"><ele>219.0</ele><time>2026-04-02T15:01:58.544Z</time></trkpt><trkpt lat="45.6118189" lon="8.9450147"><ele>219.0</ele><time>2026-04-02T15:01:59.544Z</time></trkpt><trkpt lat="45.6117883" lon="8.9448896"><ele>219.0</ele><time>2026-04-02T15:02:00.543Z</time></trkpt><trkpt lat="45.6117599" lon="8.9447487"><ele>218.99999999999997</ele><time>2026-04-02T15:02:01.544Z</time></trkpt><trkpt lat="45.6117461" lon="8.9446438"><ele>218.99999999999997</ele><time>2026-04-02T15:02:02.544Z</time></trkpt><trkpt lat="45.6117357" lon="8.9445253"><ele>219.0</ele><time>2026-04-02T15:02:03.544Z</time></trkpt><trkpt lat="45.6117216" lon="8.944389"><ele>219.0</ele><time>2026-04-02T15:02:04.544Z</time></trkpt><trkpt lat="45.6117055" lon="8.9442378"><ele>219.75</ele><time>2026-04-02T15:02:05.543Z</time></trkpt><trkpt lat="45.6116906" lon="8.9440617"><ele>220.5</ele><time>2026-04-02T15:02:06.542Z</time></trkpt><trkpt lat="45.6116733" lon="8.9438909"><ele>221.25</ele><time>2026-04-02T15:02:07.544Z</time></trkpt><trkpt lat="45.611657" lon="8.9437286"><ele>222.0</ele><time>2026-04-02T15:02:08.544Z</time></trkpt><trkpt lat="45.611639" lon="8.9435776"><ele>222.0</ele><time>2026-04-02T15:02:09.544Z</time></trkpt><trkpt lat="45.6116214" lon="8.943432"><ele>222.0</ele><time>2026-04-02T15:02:10.544Z</time></trkpt><trkpt lat="45.6116052" lon="8.9432895"><ele>222.0</ele><time>2026-04-02T15:02:11.543Z</time></trkpt><trkpt lat="45.6115845" lon="8.9431387"><ele>222.0</ele><time>2026-04-02T15:02:12.544Z</time></trkpt><trkpt lat="45.6115657" lon="8.9429832"><ele>222.0</ele><time>2026-04-02T15:02:13.544Z</time></trkpt><trkpt lat="45.6115492" lon="8.9428286"><ele>222.25</ele><time>2026-04-02T15:02:14.543Z</time></trkpt><trkpt lat="45.6115315" lon="8.9426703"><ele>222.5</ele><time>2026-04-02T15:02:15.543Z</time></trkpt><trkpt lat="45.6115131" lon="8.9425086"><ele>222.75</ele><time>2026-04-02T15:02:16.543Z</time></trkpt><trkpt lat="45.6114967" lon="8.942346"><ele>223.0</ele><time>2026-04-02T15:02:17.544Z</time></trkpt><trkpt lat="45.6114802" lon="8.9421771"><ele>223.0</ele><time>2026-04-02T15:02:18.544Z</time></trkpt><trkpt lat="45.6114624" lon="8.9420031"><ele>223.0</ele><time>2026-04-02T15:02:19.543Z</time></trkpt><trkpt lat="45.6114456" lon="8.9418251"><ele>223.0</ele><time>2026-04-02T15:02:20.544Z</time></trkpt><trkpt lat="45.611424" lon="8.9416415"><ele>223.0</ele><time>2026-04-02T15:02:21.544Z</time></trkpt><trkpt lat="45.6114004" lon="8.9414547"><ele>223.0</ele><time>2026-04-02T15:02:22.544Z</time></trkpt><trkpt lat="45.6113792" lon="8.9412758"><ele>223.0</ele><time>2026-04-02T15:02:23.544Z</time></trkpt><trkpt lat="45.6113594" lon="8.9411046"><ele>223.0</ele><time>2026-04-02T15:02:24.544Z</time></trkpt><trkpt lat="45.6113408" lon="8.9409389"><ele>223.0</ele><time>2026-04-02T15:02:25.543Z</time></trkpt><trkpt lat="45.6113203" lon="8.9407698"><ele>222.5</ele><time>2026-04-02T15:02:26.543Z</time></trkpt><trkpt lat="45.6112987" lon="8.9406012"><ele>222.0</ele><time>2026-04-02T15:02:27.544Z</time></trkpt><trkpt lat="45.6112751" lon="8.9404356"><ele>221.5</ele><time>2026-04-02T15:02:28.544Z</time></trkpt><trkpt lat="45.6112552" lon="8.9402662"><ele>221.0</ele><time>2026-04-02T15:02:29.544Z</time></trkpt><trkpt lat="45.6112347" lon="8.9401065"><ele>221.0</ele><time>2026-04-02T15:02:30.544Z</time></trkpt><trkpt lat="45.6112155" lon="8.9399551"><ele>221.00000000000003</ele><time>2026-04-02T15:02:31.543Z</time></trkpt><trkpt lat="45.6111955" lon="8.9398132"><ele>221.00000000000003</ele><time>2026-04-02T15:02:32.542Z</time></trkpt><trkpt lat="45.6111773" lon="8.9396751"><ele>221.0</ele><time>2026-04-02T15:02:33.544Z</time></trkpt><trkpt lat="45.6111599" lon="8.9395312"><ele>221.0</ele><time>2026-04-02T15:02:34.544Z</time></trkpt><trkpt lat="45.6111476" lon="8.9393828"><ele>221.0</ele><time>2026-04-02T15:02:35.544Z</time></trkpt><trkpt lat="45.6111309" lon="8.9392269"><ele>221.00000000000003</ele><time>2026-04-02T15:02:36.544Z</time></trkpt><trkpt lat="45.6111159" lon="8.939068"><ele>221.00000000000003</ele><time>2026-04-02T15:02:37.544Z</time></trkpt><trkpt lat="45.6111039" lon="8.9389139"><ele>221.0</ele><time>2026-04-02T15:02:38.543Z</time></trkpt><trkpt lat="45.611093" lon="8.9387599"><ele>221.0</ele><time>2026-04-02T15:02:39.542Z</time></trkpt><trkpt lat="45.6110825" lon="8.9386151"><ele>221.00000000000003</ele><time>2026-04-02T15:02:40.543Z</time></trkpt><trkpt lat="45.6110739" lon="8.9384705"><ele>221.0</ele><time>2026-04-02T15:02:41.543Z</time></trkpt><trkpt lat="45.6110744" lon="8.9383665"><ele>221.0</ele><time>2026-04-02T15:02:42.543Z</time></trkpt><trkpt lat="45.6110725" lon="8.9382366"><ele>221.0</ele><time>2026-04-02T15:02:43.543Z</time></trkpt><trkpt lat="45.6110769" lon="8.9381394"><ele>221.00000000000003</ele><time>2026-04-02T15:02:44.544Z</time></trkpt><trkpt lat="45.6110975" lon="8.9380501"><ele>221.0</ele><time>2026-04-02T15:02:45.544Z</time></trkpt><trkpt lat="45.6111418" lon="8.9379613"><ele>221.20000000000002</ele><time>2026-04-02T15:02:46.543Z</time></trkpt><trkpt lat="45.6112042" lon="8.9378713"><ele>221.40000000000003</ele><time>2026-04-02T15:02:47.544Z</time></trkpt><trkpt lat="45.6112839" lon="8.9377913"><ele>221.6</ele><time>2026-04-02T15:02:48.543Z</time></trkpt><trkpt lat="45.6113793" lon="8.9377334"><ele>221.8</ele><time>2026-04-02T15:02:49.544Z</time></trkpt><trkpt lat="45.611484" lon="8.9376857"><ele>222.0</ele><time>2026-04-02T15:02:50.544Z</time></trkpt><trkpt lat="45.6115905" lon="8.937648"><ele>222.0</ele><time>2026-04-02T15:02:51.544Z</time></trkpt><trkpt lat="45.6117258" lon="8.9376232"><ele>222.0</ele><time>2026-04-02T15:02:52.544Z</time></trkpt><trkpt lat="45.6118436" lon="8.9375958"><ele>222.0</ele><time>2026-04-02T15:02:53.543Z</time></trkpt><trkpt lat="45.611964" lon="8.937563"><ele>222.0</ele><time>2026-04-02T15:02:54.544Z</time></trkpt><trkpt lat="45.6120889" lon="8.9375296"><ele>222.0</ele><time>2026-04-02T15:02:55.544Z</time></trkpt><trkpt lat="45.6122274" lon="8.9374944"><ele>222.0</ele><time>2026-04-02T15:02:56.544Z</time></trkpt><trkpt lat="45.61237" lon="8.937459"><ele>222.0</ele><time>2026-04-02T15:02:57.543Z</time></trkpt><trkpt lat="45.6125049" lon="8.9374222"><ele>222.0</ele><time>2026-04-02T15:02:58.544Z</time></trkpt><trkpt lat="45.6126376" lon="8.9373823"><ele>222.0</ele><time>2026-04-02T15:02:59.544Z</time></trkpt><trkpt lat="45.6127708" lon="8.9373354"><ele>222.0</ele><time>2026-04-02T15:03:00.543Z</time></trkpt><trkpt lat="45.6129052" lon="8.937293"><ele>222.0</ele><time>2026-04-02T15:03:01.543Z</time></trkpt><trkpt lat="45.6130338" lon="8.937251"><ele>222.0</ele><time>2026-04-02T15:03:02.543Z</time></trkpt><trkpt lat="45.6131609" lon="8.9372069"><ele>222.25</ele><time>2026-04-02T15:03:03.543Z</time></trkpt><trkpt lat="45.6132915" lon="8.9371645"><ele>222.5</ele><time>2026-04-02T15:03:04.544Z</time></trkpt><trkpt lat="45.6134214" lon="8.9371184"><ele>222.75</ele><time>2026-04-02T15:03:05.544Z</time></trkpt><trkpt lat="45.613553" lon="8.9370763"><ele>223.0</ele><time>2026-04-02T15:03:06.543Z</time></trkpt><trkpt lat="45.6136853" lon="8.937034"><ele>224.25</ele><time>2026-04-02T15:03:07.544Z</time></trkpt><trkpt lat="45.6138216" lon="8.936993"><ele>225.5</ele><time>2026-04-02T15:03:08.544Z</time></trkpt><trkpt lat="45.6139567" lon="8.9369293"><ele>226.75</ele><time>2026-04-02T15:03:09.544Z</time></trkpt><trkpt lat="45.6140822" lon="8.9368514"><ele>228.0</ele><time>2026-04-02T15:03:10.543Z</time></trkpt><trkpt lat="45.6142275" lon="8.9367302"><ele>227.5</ele><time>2026-04-02T15:03:11.542Z</time></trkpt><trkpt lat="45.6143541" lon="8.9366237"><ele>227.0</ele><time>2026-04-02T15:03:12.543Z</time></trkpt><trkpt lat="45.6144714" lon="8.9365188"><ele>226.5</ele><time>2026-04-02T15:03:13.543Z</time></trkpt><trkpt lat="45.6145826" lon="8.9364207"><ele>226.0</ele><time>2026-04-02T15:03:14.543Z</time></trkpt><trkpt lat="45.6146898" lon="8.9363294"><ele>225.8</ele><time>2026-04-02T15:03:15.543Z</time></trkpt><trkpt lat="45.6147905" lon="8.9362411"><ele>225.60000000000002</ele><time>2026-04-02T15:03:16.543Z</time></trkpt><trkpt lat="45.6148849" lon="8.936157"><ele>225.4</ele><time>2026-04-02T15:03:17.543Z</time></trkpt><trkpt lat="45.6149757" lon="8.936079"><ele>225.2</ele><time>2026-04-02T15:03:18.543Z</time></trkpt><trkpt lat="45.6150581" lon="8.9360081"><ele>225.0</ele><time>2026-04-02T15:03:19.542Z</time></trkpt><trkpt lat="45.6151342" lon="8.9359403"><ele>224.8</ele><time>2026-04-02T15:03:20.542Z</time></trkpt><trkpt lat="45.6152054" lon="8.9358797"><ele>224.6</ele><time>2026-04-02T15:03:21.542Z</time></trkpt><trkpt lat="45.6152858" lon="8.9358323"><ele>224.39999999999998</ele><time>2026-04-02T15:03:22.542Z</time></trkpt><trkpt lat="45.6153772" lon="8.9357977"><ele>224.2</ele><time>2026-04-02T15:03:23.542Z</time></trkpt><trkpt lat="45.6154567" lon="8.935712"><ele>224.0</ele><time>2026-04-02T15:03:24.543Z</time></trkpt><trkpt lat="45.6155222" lon="8.9355867"><ele>223.75</ele><time>2026-04-02T15:03:25.542Z</time></trkpt><trkpt lat="45.6156027" lon="8.9354597"><ele>223.5</ele><time>2026-04-02T15:03:26.542Z</time></trkpt><trkpt lat="45.6156981" lon="8.9353251"><ele>223.25</ele><time>2026-04-02T15:03:27.542Z</time></trkpt><trkpt lat="45.6157859" lon="8.9352004"><ele>223.0</ele><time>2026-04-02T15:03:28.542Z</time></trkpt><trkpt lat="45.6158727" lon="8.9350807"><ele>223.25</ele><time>2026-04-02T15:03:29.542Z</time></trkpt><trkpt lat="45.6159631" lon="8.934954"><ele>223.5</ele><time>2026-04-02T15:03:30.542Z</time></trkpt><trkpt lat="45.6160534" lon="8.934824"><ele>223.75</ele><time>2026-04-02T15:03:31.542Z</time></trkpt><trkpt lat="45.6161416" lon="8.9346997"><ele>224.0</ele><time>2026-04-02T15:03:32.543Z</time></trkpt><trkpt lat="45.616225" lon="8.9345828"><ele>224.2</ele><time>2026-04-02T15:03:33.543Z</time></trkpt><trkpt lat="45.6163018" lon="8.9344727"><ele>224.39999999999998</ele><time>2026-04-02T15:03:34.543Z</time></trkpt><trkpt lat="45.616377" lon="8.9343643"><ele>224.6</ele><time>2026-04-02T15:03:35.542Z</time></trkpt><trkpt lat="45.616442" lon="8.9342712"><ele>224.8</ele><time>2026-04-02T15:03:36.543Z</time></trkpt><trkpt lat="45.6164952" lon="8.9341965"><ele>225.0</ele><time>2026-04-02T15:03:37.543Z</time></trkpt><trkpt lat="45.6165426" lon="8.934128"><ele>225.0</ele><time>2026-04-02T15:03:38.543Z</time></trkpt><trkpt lat="45.6166245" lon="8.934026"><ele>225.0</ele><time>2026-04-02T15:03:40.541Z</time></trkpt><trkpt lat="45.6167382" lon="8.9339613"><ele>225.0</ele><time>2026-04-02T15:03:42.543Z</time></trkpt><trkpt lat="45.6168254" lon="8.9339631"><ele>225.0</ele><time>2026-04-02T15:03:43.543Z</time></trkpt><trkpt lat="45.6169171" lon="8.9339521"><ele>225.0</ele><time>2026-04-02T15:03:44.543Z</time></trkpt><trkpt lat="45.6169925" lon="8.9338899"><ele>225.6</ele><time>2026-04-02T15:03:45.543Z</time></trkpt><trkpt lat="45.6170451" lon="8.9337761"><ele>226.2</ele><time>2026-04-02T15:03:46.542Z</time></trkpt><trkpt lat="45.6170926" lon="8.9336381"><ele>226.8</ele><time>2026-04-02T15:03:47.541Z</time></trkpt><trkpt lat="45.6171515" lon="8.9334992"><ele>227.4</ele><time>2026-04-02T15:03:48.543Z</time></trkpt><trkpt lat="45.6172285" lon="8.93338"><ele>228.0</ele><time>2026-04-02T15:03:49.543Z</time></trkpt><trkpt lat="45.6173133" lon="8.9332713"><ele>229.0</ele><time>2026-04-02T15:03:50.543Z</time></trkpt><trkpt lat="45.6174087" lon="8.9331542"><ele>230.0</ele><time>2026-04-02T15:03:51.542Z</time></trkpt><trkpt lat="45.6175068" lon="8.9330406"><ele>231.0</ele><time>2026-04-02T15:03:52.542Z</time></trkpt><trkpt lat="45.617602" lon="8.9329413"><ele>232.0</ele><time>2026-04-02T15:03:53.542Z</time></trkpt><trkpt lat="45.6176965" lon="8.9328388"><ele>232.0</ele><time>2026-04-02T15:03:54.543Z</time></trkpt><trkpt lat="45.6177962" lon="8.9327223"><ele>232.0</ele><time>2026-04-02T15:03:55.542Z</time></trkpt><trkpt lat="45.6178978" lon="8.9326067"><ele>232.0</ele><time>2026-04-02T15:03:56.542Z</time></trkpt><trkpt lat="45.6180044" lon="8.9324806"><ele>232.0</ele><time>2026-04-02T15:03:57.542Z</time></trkpt><trkpt lat="45.6181136" lon="8.9323296"><ele>234.66666666666666</ele><time>2026-04-02T15:03:58.543Z</time></trkpt><trkpt lat="45.6182253" lon="8.9321573"><ele>237.33333333333331</ele><time>2026-04-02T15:03:59.543Z</time></trkpt><trkpt lat="45.6183251" lon="8.9319854"><ele>240.0</ele><time>2026-04-02T15:04:00.543Z</time></trkpt><trkpt lat="45.6184144" lon="8.9318232"><ele>239.25</ele><time>2026-04-02T15:04:01.543Z</time></trkpt><trkpt lat="45.6184987" lon="8.9316526"><ele>238.5</ele><time>2026-04-02T15:04:02.542Z</time></trkpt><trkpt lat="45.6185744" lon="8.9314732"><ele>237.75</ele><time>2026-04-02T15:04:03.543Z</time></trkpt><trkpt lat="45.6186457" lon="8.9312821"><ele>237.0</ele><time>2026-04-02T15:04:04.543Z</time></trkpt><trkpt lat="45.6187098" lon="8.9310844"><ele>236.5</ele><time>2026-04-02T15:04:05.543Z</time></trkpt><trkpt lat="45.6187699" lon="8.9308922"><ele>236.0</ele><time>2026-04-02T15:04:06.543Z</time></trkpt><trkpt lat="45.6188225" lon="8.9307123"><ele>235.5</ele><time>2026-04-02T15:04:07.543Z</time></trkpt><trkpt lat="45.6188708" lon="8.9305399"><ele>235.0</ele><time>2026-04-02T15:04:08.543Z</time></trkpt><trkpt lat="45.6189182" lon="8.9303662"><ele>234.75</ele><time>2026-04-02T15:04:09.541Z</time></trkpt><trkpt lat="45.6189669" lon="8.9301872"><ele>234.5</ele><time>2026-04-02T15:04:10.543Z</time></trkpt><trkpt lat="45.619015" lon="8.9300102"><ele>234.25</ele><time>2026-04-02T15:04:11.543Z</time></trkpt><trkpt lat="45.6190652" lon="8.9298358"><ele>234.0</ele><time>2026-04-02T15:04:12.543Z</time></trkpt><trkpt lat="45.6191203" lon="8.9296594"><ele>234.0</ele><time>2026-04-02T15:04:13.543Z</time></trkpt><trkpt lat="45.6191837" lon="8.9294908"><ele>234.0</ele><time>2026-04-02T15:04:14.541Z</time></trkpt><trkpt lat="45.61926" lon="8.9293227"><ele>234.0</ele><time>2026-04-02T15:04:15.542Z</time></trkpt><trkpt lat="45.6193422" lon="8.9291659"><ele>234.0</ele><time>2026-04-02T15:04:16.543Z</time></trkpt><trkpt lat="45.6194299" lon="8.9290266"><ele>233.5</ele><time>2026-04-02T15:04:17.543Z</time></trkpt><trkpt lat="45.6195365" lon="8.928874"><ele>233.0</ele><time>2026-04-02T15:04:18.542Z</time></trkpt><trkpt lat="45.6196369" lon="8.92875"><ele>232.5</ele><time>2026-04-02T15:04:19.542Z</time></trkpt><trkpt lat="45.6197655" lon="8.9286053"><ele>232.0</ele><time>2026-04-02T15:04:20.543Z</time></trkpt><trkpt lat="45.6199095" lon="8.9284884"><ele>232.0</ele><time>2026-04-02T15:04:21.543Z</time></trkpt><trkpt lat="45.6200403" lon="8.9284088"><ele>232.0</ele><time>2026-04-02T15:04:22.543Z</time></trkpt><trkpt lat="45.6201781" lon="8.9283106"><ele>232.0</ele><time>2026-04-02T15:04:23.542Z</time></trkpt><trkpt lat="45.6203191" lon="8.9282175"><ele>232.33333333333331</ele><time>2026-04-02T15:04:24.543Z</time></trkpt><trkpt lat="45.6204632" lon="8.9281247"><ele>232.66666666666669</ele><time>2026-04-02T15:04:25.543Z</time></trkpt><trkpt lat="45.6206186" lon="8.9280493"><ele>233.0</ele><time>2026-04-02T15:04:26.542Z</time></trkpt><trkpt lat="45.620777" lon="8.9279649"><ele>233.0</ele><time>2026-04-02T15:04:27.542Z</time></trkpt><trkpt lat="45.6209378" lon="8.9278702"><ele>233.0</ele><time>2026-04-02T15:04:28.542Z</time></trkpt><trkpt lat="45.6210864" lon="8.9277725"><ele>233.0</ele><time>2026-04-02T15:04:29.543Z</time></trkpt><trkpt lat="45.621202" lon="8.9276377"><ele>232.75</ele><time>2026-04-02T15:04:30.543Z</time></trkpt><trkpt lat="45.6213218" lon="8.9275138"><ele>232.5</ele><time>2026-04-02T15:04:31.541Z</time></trkpt><trkpt lat="45.6214338" lon="8.9273746"><ele>232.25</ele><time>2026-04-02T15:04:32.542Z</time></trkpt><trkpt lat="45.6215216" lon="8.9272208"><ele>232.0</ele><time>2026-04-02T15:04:33.541Z</time></trkpt><trkpt lat="45.6216028" lon="8.9270543"><ele>232.0</ele><time>2026-04-02T15:04:34.541Z</time></trkpt><trkpt lat="45.6216711" lon="8.9268758"><ele>232.0</ele><time>2026-04-02T15:04:35.543Z</time></trkpt><trkpt lat="45.6217302" lon="8.9266872"><ele>232.0</ele><time>2026-04-02T15:04:36.543Z</time></trkpt><trkpt lat="45.6217832" lon="8.9264983"><ele>232.0</ele><time>2026-04-02T15:04:37.542Z</time></trkpt><trkpt lat="45.6218255" lon="8.9262985"><ele>231.25</ele><time>2026-04-02T15:04:38.543Z</time></trkpt><trkpt lat="45.6218521" lon="8.9260982"><ele>230.5</ele><time>2026-04-02T15:04:39.543Z</time></trkpt><trkpt lat="45.6218722" lon="8.9258846"><ele>229.75</ele><time>2026-04-02T15:04:40.543Z</time></trkpt><trkpt lat="45.6218669" lon="8.9256773"><ele>229.0</ele><time>2026-04-02T15:04:41.542Z</time></trkpt><trkpt lat="45.6218542" lon="8.9254739"><ele>230.25</ele><time>2026-04-02T15:04:42.543Z</time></trkpt><trkpt lat="45.6218304" lon="8.9252781"><ele>231.5</ele><time>2026-04-02T15:04:43.543Z</time></trkpt><trkpt lat="45.6217903" lon="8.9250881"><ele>232.75</ele><time>2026-04-02T15:04:44.543Z</time></trkpt><trkpt lat="45.621736" lon="8.9249044"><ele>234.0</ele><time>2026-04-02T15:04:45.542Z</time></trkpt><trkpt lat="45.6216746" lon="8.9247388"><ele>234.0</ele><time>2026-04-02T15:04:46.543Z</time></trkpt><trkpt lat="45.621615" lon="8.9245994"><ele>233.99999999999997</ele><time>2026-04-02T15:04:47.542Z</time></trkpt><trkpt lat="45.621562" lon="8.9244809"><ele>233.99999999999997</ele><time>2026-04-02T15:04:48.543Z</time></trkpt><trkpt lat="45.6215112" lon="8.9243796"><ele>234.0</ele><time>2026-04-02T15:04:49.543Z</time></trkpt><trkpt lat="45.6214691" lon="8.9242861"><ele>234.0</ele><time>2026-04-02T15:04:50.543Z</time></trkpt><trkpt lat="45.6214268" lon="8.9241994"><ele>233.6</ele><time>2026-04-02T15:04:51.543Z</time></trkpt><trkpt lat="45.6213952" lon="8.9241023"><ele>233.2</ele><time>2026-04-02T15:04:52.543Z</time></trkpt><trkpt lat="45.621364" lon="8.9239922"><ele>232.79999999999998</ele><time>2026-04-02T15:04:53.542Z</time></trkpt><trkpt lat="45.6213227" lon="8.9238897"><ele>232.39999999999998</ele><time>2026-04-02T15:04:54.543Z</time></trkpt><trkpt lat="45.6212211" lon="8.9237656"><ele>232.0</ele><time>2026-04-02T15:04:55.543Z</time></trkpt><trkpt lat="45.6211251" lon="8.9236773"><ele>232.0</ele><time>2026-04-02T15:04:56.543Z</time></trkpt><trkpt lat="45.6210337" lon="8.9235658"><ele>232.0</ele><time>2026-04-02T15:04:57.542Z</time></trkpt><trkpt lat="45.6209438" lon="8.9234159"><ele>232.0</ele><time>2026-04-02T15:04:58.543Z</time></trkpt><trkpt lat="45.6208581" lon="8.9232415"><ele>232.0</ele><time>2026-04-02T15:04:59.542Z</time></trkpt><trkpt lat="45.6207898" lon="8.9230669"><ele>231.66666666666666</ele><time>2026-04-02T15:05:00.542Z</time></trkpt><trkpt lat="45.6207223" lon="8.9228937"><ele>231.33333333333331</ele><time>2026-04-02T15:05:01.543Z</time></trkpt><trkpt lat="45.6206809" lon="8.9226575"><ele>231.0</ele><time>2026-04-02T15:05:02.543Z</time></trkpt><trkpt lat="45.6206301" lon="8.9224353"><ele>231.66666666666669</ele><time>2026-04-02T15:05:03.542Z</time></trkpt><trkpt lat="45.6205915" lon="8.9222102"><ele>232.33333333333334</ele><time>2026-04-02T15:05:04.543Z</time></trkpt><trkpt lat="45.6205692" lon="8.9219865"><ele>233.0</ele><time>2026-04-02T15:05:05.543Z</time></trkpt><trkpt lat="45.6205493" lon="8.9217633"><ele>233.0</ele><time>2026-04-02T15:05:06.543Z</time></trkpt><trkpt lat="45.6205327" lon="8.9215457"><ele>233.0</ele><time>2026-04-02T15:05:07.542Z</time></trkpt><trkpt lat="45.6205174" lon="8.9213178"><ele>233.0</ele><time>2026-04-02T15:05:08.542Z</time></trkpt><trkpt lat="45.6204981" lon="8.9211043"><ele>232.33333333333334</ele><time>2026-04-02T15:05:09.541Z</time></trkpt><trkpt lat="45.6204797" lon="8.9208923"><ele>231.66666666666669</ele><time>2026-04-02T15:05:10.542Z</time></trkpt><trkpt lat="45.6204617" lon="8.9206769"><ele>231.0</ele><time>2026-04-02T15:05:11.543Z</time></trkpt><trkpt lat="45.6204402" lon="8.920456"><ele>231.0</ele><time>2026-04-02T15:05:12.543Z</time></trkpt><trkpt lat="45.6204232" lon="8.9202352"><ele>231.0</ele><time>2026-04-02T15:05:13.542Z</time></trkpt><trkpt lat="45.6204025" lon="8.9200048"><ele>231.0</ele><time>2026-04-02T15:05:14.543Z</time></trkpt><trkpt lat="45.620385" lon="8.9197789"><ele>231.33333333333331</ele><time>2026-04-02T15:05:15.543Z</time></trkpt><trkpt lat="45.6203684" lon="8.919555"><ele>231.66666666666666</ele><time>2026-04-02T15:05:16.542Z</time></trkpt><trkpt lat="45.6203515" lon="8.9193325"><ele>232.0</ele><time>2026-04-02T15:05:17.542Z</time></trkpt><trkpt lat="45.6203325" lon="8.9191175"><ele>232.33333333333331</ele><time>2026-04-02T15:05:18.542Z</time></trkpt><trkpt lat="45.6203146" lon="8.9189067"><ele>232.66666666666669</ele><time>2026-04-02T15:05:19.542Z</time></trkpt><trkpt lat="45.6202991" lon="8.9186936"><ele>233.0</ele><time>2026-04-02T15:05:20.542Z</time></trkpt><trkpt lat="45.6202811" lon="8.9184749"><ele>233.0</ele><time>2026-04-02T15:05:21.541Z</time></trkpt><trkpt lat="45.6202586" lon="8.9182542"><ele>233.0</ele><time>2026-04-02T15:05:22.542Z</time></trkpt><trkpt lat="45.6202383" lon="8.9180297"><ele>233.0</ele><time>2026-04-02T15:05:23.543Z</time></trkpt><trkpt lat="45.6202233" lon="8.9178047"><ele>233.0</ele><time>2026-04-02T15:05:24.542Z</time></trkpt><trkpt lat="45.6202056" lon="8.9175777"><ele>233.0</ele><time>2026-04-02T15:05:25.542Z</time></trkpt><trkpt lat="45.620188" lon="8.917349"><ele>233.0</ele><time>2026-04-02T15:05:26.542Z</time></trkpt><trkpt lat="45.6201712" lon="8.9171192"><ele>232.0</ele><time>2026-04-02T15:05:27.542Z</time></trkpt><trkpt lat="45.6201529" lon="8.9168855"><ele>231.0</ele><time>2026-04-02T15:05:28.542Z</time></trkpt><trkpt lat="45.6201355" lon="8.9166538"><ele>230.0</ele><time>2026-04-02T15:05:29.542Z</time></trkpt><trkpt lat="45.6201182" lon="8.9164221"><ele>229.0</ele><time>2026-04-02T15:05:30.542Z</time></trkpt><trkpt lat="45.6200973" lon="8.9161916"><ele>228.0</ele><time>2026-04-02T15:05:31.543Z</time></trkpt><trkpt lat="45.6200792" lon="8.915959"><ele>227.0</ele><time>2026-04-02T15:05:32.543Z</time></trkpt><trkpt lat="45.6200607" lon="8.9157284"><ele>225.33333333333334</ele><time>2026-04-02T15:05:33.542Z</time></trkpt><trkpt lat="45.6200424" lon="8.9154916"><ele>223.66666666666669</ele><time>2026-04-02T15:05:34.543Z</time></trkpt><trkpt lat="45.6200229" lon="8.9152514"><ele>222.0</ele><time>2026-04-02T15:05:35.543Z</time></trkpt><trkpt lat="45.6200055" lon="8.915011"><ele>222.0</ele><time>2026-04-02T15:05:36.543Z</time></trkpt><trkpt lat="45.6199857" lon="8.9147742"><ele>222.0</ele><time>2026-04-02T15:05:37.542Z</time></trkpt><trkpt lat="45.6199638" lon="8.9145347"><ele>222.0</ele><time>2026-04-02T15:05:38.543Z</time></trkpt><trkpt lat="45.619948" lon="8.9142856"><ele>222.33333333333331</ele><time>2026-04-02T15:05:39.543Z</time></trkpt><trkpt lat="45.6199375" lon="8.9140384"><ele>222.66666666666666</ele><time>2026-04-02T15:05:40.541Z</time></trkpt><trkpt lat="45.6199438" lon="8.9137881"><ele>223.0</ele><time>2026-04-02T15:05:41.542Z</time></trkpt><trkpt lat="45.6199622" lon="8.9135353"><ele>222.0</ele><time>2026-04-02T15:05:42.543Z</time></trkpt><trkpt lat="45.6199896" lon="8.9132862"><ele>221.0</ele><time>2026-04-02T15:05:43.543Z</time></trkpt><trkpt lat="45.6200347" lon="8.913048"><ele>220.0</ele><time>2026-04-02T15:05:44.542Z</time></trkpt><trkpt lat="45.6200965" lon="8.9128092"><ele>220.0</ele><time>2026-04-02T15:05:45.543Z</time></trkpt><trkpt lat="45.6201677" lon="8.9125879"><ele>220.0</ele><time>2026-04-02T15:05:46.543Z</time></trkpt><trkpt lat="45.6202489" lon="8.9123734"><ele>220.0</ele><time>2026-04-02T15:05:47.543Z</time></trkpt><trkpt lat="45.6203363" lon="8.91218"><ele>220.5</ele><time>2026-04-02T15:05:48.543Z</time></trkpt><trkpt lat="45.6204294" lon="8.9119935"><ele>221.0</ele><time>2026-04-02T15:05:49.541Z</time></trkpt><trkpt lat="45.6205194" lon="8.9118228"><ele>221.5</ele><time>2026-04-02T15:05:50.543Z</time></trkpt><trkpt lat="45.6206093" lon="8.9116759"><ele>222.0</ele><time>2026-04-02T15:05:51.542Z</time></trkpt><trkpt lat="45.6206918" lon="8.9115497"><ele>222.0</ele><time>2026-04-02T15:05:52.543Z</time></trkpt><trkpt lat="45.6207652" lon="8.9114144"><ele>222.0</ele><time>2026-04-02T15:05:53.543Z</time></trkpt><trkpt lat="45.6208352" lon="8.9112973"><ele>222.0</ele><time>2026-04-02T15:05:54.542Z</time></trkpt><trkpt lat="45.6209065" lon="8.9111934"><ele>222.0</ele><time>2026-04-02T15:05:55.543Z</time></trkpt><trkpt lat="45.6209683" lon="8.9111044"><ele>222.0</ele><time>2026-04-02T15:05:56.543Z</time></trkpt><trkpt lat="45.6210378" lon="8.9110385"><ele>222.0</ele><time>2026-04-02T15:05:57.542Z</time></trkpt><trkpt lat="45.6211186" lon="8.9109855"><ele>222.0</ele><time>2026-04-02T15:05:58.542Z</time></trkpt><trkpt lat="45.6212117" lon="8.910948"><ele>222.0</ele><time>2026-04-02T15:05:59.542Z</time></trkpt><trkpt lat="45.6213033" lon="8.9109128"><ele>222.0</ele><time>2026-04-02T15:06:00.542Z</time></trkpt><trkpt lat="45.6213977" lon="8.9109293"><ele>222.0</ele><time>2026-04-02T15:06:01.543Z</time></trkpt><trkpt lat="45.621496" lon="8.9109901"><ele>222.5</ele><time>2026-04-02T15:06:02.542Z</time></trkpt><trkpt lat="45.6216026" lon="8.9111044"><ele>223.0</ele><time>2026-04-02T15:06:03.543Z</time></trkpt><trkpt lat="45.6217006" lon="8.9112426"><ele>223.5</ele><time>2026-04-02T15:06:04.542Z</time></trkpt><trkpt lat="45.6217943" lon="8.9113797"><ele>224.0</ele><time>2026-04-02T15:06:05.543Z</time></trkpt><trkpt lat="45.6218906" lon="8.911515"><ele>223.75</ele><time>2026-04-02T15:06:06.542Z</time></trkpt><trkpt lat="45.6219841" lon="8.9116439"><ele>223.5</ele><time>2026-04-02T15:06:07.542Z</time></trkpt><trkpt lat="45.6220792" lon="8.9117717"><ele>223.25</ele><time>2026-04-02T15:06:08.543Z</time></trkpt><trkpt lat="45.6221684" lon="8.9119"><ele>223.0</ele><time>2026-04-02T15:06:09.541Z</time></trkpt><trkpt lat="45.6222611" lon="8.9120262"><ele>223.0</ele><time>2026-04-02T15:06:10.541Z</time></trkpt><trkpt lat="45.6223546" lon="8.9121587"><ele>223.0</ele><time>2026-04-02T15:06:11.542Z</time></trkpt><trkpt lat="45.6224409" lon="8.9122814"><ele>223.0</ele><time>2026-04-02T15:06:12.541Z</time></trkpt><trkpt lat="45.6225256" lon="8.9123981"><ele>223.0</ele><time>2026-04-02T15:06:13.541Z</time></trkpt><trkpt lat="45.6226166" lon="8.9125245"><ele>222.75</ele><time>2026-04-02T15:06:14.542Z</time></trkpt><trkpt lat="45.6227" lon="8.9126335"><ele>222.5</ele><time>2026-04-02T15:06:15.542Z</time></trkpt><trkpt lat="45.6227887" lon="8.9127545"><ele>222.25</ele><time>2026-04-02T15:06:16.542Z</time></trkpt><trkpt lat="45.6228786" lon="8.912875"><ele>222.0</ele><time>2026-04-02T15:06:17.54Z</time></trkpt><trkpt lat="45.6229733" lon="8.9130044"><ele>222.75</ele><time>2026-04-02T15:06:18.542Z</time></trkpt><trkpt lat="45.6230728" lon="8.913144"><ele>223.5</ele><time>2026-04-02T15:06:19.541Z</time></trkpt><trkpt lat="45.6231776" lon="8.9132909"><ele>224.25</ele><time>2026-04-02T15:06:20.542Z</time></trkpt><trkpt lat="45.6232803" lon="8.9134392"><ele>225.0</ele><time>2026-04-02T15:06:21.542Z</time></trkpt><trkpt lat="45.6233805" lon="8.9135896"><ele>225.0</ele><time>2026-04-02T15:06:22.542Z</time></trkpt><trkpt lat="45.6234854" lon="8.913733"><ele>225.0</ele><time>2026-04-02T15:06:23.542Z</time></trkpt><trkpt lat="45.6235849" lon="8.9138715"><ele>225.0</ele><time>2026-04-02T15:06:24.542Z</time></trkpt><trkpt lat="45.6236797" lon="8.913993"><ele>225.0</ele><time>2026-04-02T15:06:25.541Z</time></trkpt><trkpt lat="45.6237799" lon="8.914101"><ele>225.5</ele><time>2026-04-02T15:06:26.542Z</time></trkpt><trkpt lat="45.6238913" lon="8.9141863"><ele>226.0</ele><time>2026-04-02T15:06:27.541Z</time></trkpt><trkpt lat="45.6240095" lon="8.9142512"><ele>226.5</ele><time>2026-04-02T15:06:28.541Z</time></trkpt><trkpt lat="45.6241212" lon="8.9142905"><ele>227.0</ele><time>2026-04-02T15:06:29.541Z</time></trkpt><trkpt lat="45.6242446" lon="8.9143111"><ele>227.5</ele><time>2026-04-02T15:06:30.542Z</time></trkpt><trkpt lat="45.624368" lon="8.9143177"><ele>228.0</ele><time>2026-04-02T15:06:31.542Z</time></trkpt><trkpt lat="45.6244977" lon="8.9143116"><ele>228.5</ele><time>2026-04-02T15:06:32.542Z</time></trkpt><trkpt lat="45.6246206" lon="8.9142917"><ele>229.0</ele><time>2026-04-02T15:06:33.542Z</time></trkpt><trkpt lat="45.6247376" lon="8.9142634"><ele>228.39999999999998</ele><time>2026-04-02T15:06:34.542Z</time></trkpt><trkpt lat="45.6248493" lon="8.9142287"><ele>227.79999999999998</ele><time>2026-04-02T15:06:35.542Z</time></trkpt><trkpt lat="45.6249546" lon="8.9141936"><ele>227.20000000000002</ele><time>2026-04-02T15:06:36.542Z</time></trkpt><trkpt lat="45.6250577" lon="8.9141602"><ele>226.60000000000002</ele><time>2026-04-02T15:06:37.542Z</time></trkpt><trkpt lat="45.6251541" lon="8.9141294"><ele>226.0</ele><time>2026-04-02T15:06:38.541Z</time></trkpt><trkpt lat="45.6252521" lon="8.9141021"><ele>226.25</ele><time>2026-04-02T15:06:39.541Z</time></trkpt><trkpt lat="45.625351" lon="8.9140727"><ele>226.5</ele><time>2026-04-02T15:06:40.541Z</time></trkpt><trkpt lat="45.6254538" lon="8.9140325"><ele>226.75</ele><time>2026-04-02T15:06:41.541Z</time></trkpt><trkpt lat="45.6255642" lon="8.913973"><ele>227.0</ele><time>2026-04-02T15:06:42.54Z</time></trkpt><trkpt lat="45.6256815" lon="8.9139044"><ele>227.0</ele><time>2026-04-02T15:06:43.542Z</time></trkpt><trkpt lat="45.6258021" lon="8.9138274"><ele>227.0</ele><time>2026-04-02T15:06:44.542Z</time></trkpt><trkpt lat="45.6259221" lon="8.9137516"><ele>227.0</ele><time>2026-04-02T15:06:45.541Z</time></trkpt><trkpt lat="45.6260414" lon="8.9136725"><ele>227.0</ele><time>2026-04-02T15:06:46.541Z</time></trkpt><trkpt lat="45.6261526" lon="8.9135962"><ele>227.25</ele><time>2026-04-02T15:06:47.541Z</time></trkpt><trkpt lat="45.6262649" lon="8.9135139"><ele>227.5</ele><time>2026-04-02T15:06:48.541Z</time></trkpt><trkpt lat="45.6263775" lon="8.9134331"><ele>227.75</ele><time>2026-04-02T15:06:49.541Z</time></trkpt><trkpt lat="45.626489" lon="8.9133529"><ele>228.0</ele><time>2026-04-02T15:06:50.541Z</time></trkpt><trkpt lat="45.6266003" lon="8.9132686"><ele>228.0</ele><time>2026-04-02T15:06:51.542Z</time></trkpt><trkpt lat="45.6267123" lon="8.9131874"><ele>228.0</ele><time>2026-04-02T15:06:52.542Z</time></trkpt><trkpt lat="45.6268287" lon="8.9131028"><ele>228.0</ele><time>2026-04-02T15:06:53.541Z</time></trkpt><trkpt lat="45.6269427" lon="8.9130159"><ele>228.0</ele><time>2026-04-02T15:06:54.541Z</time></trkpt><trkpt lat="45.6270565" lon="8.9129277"><ele>228.75</ele><time>2026-04-02T15:06:55.541Z</time></trkpt><trkpt lat="45.6271721" lon="8.9128419"><ele>229.5</ele><time>2026-04-02T15:06:56.542Z</time></trkpt><trkpt lat="45.6272876" lon="8.9127603"><ele>230.25</ele><time>2026-04-02T15:06:57.542Z</time></trkpt><trkpt lat="45.6274033" lon="8.9126768"><ele>231.0</ele><time>2026-04-02T15:06:58.542Z</time></trkpt><trkpt lat="45.6275174" lon="8.9125927"><ele>230.5</ele><time>2026-04-02T15:06:59.542Z</time></trkpt><trkpt lat="45.6276263" lon="8.9125141"><ele>230.0</ele><time>2026-04-02T15:07:00.542Z</time></trkpt><trkpt lat="45.6277316" lon="8.9124373"><ele>229.5</ele><time>2026-04-02T15:07:01.541Z</time></trkpt><trkpt lat="45.6278315" lon="8.9123674"><ele>229.0</ele><time>2026-04-02T15:07:02.541Z</time></trkpt><trkpt lat="45.6279321" lon="8.9123035"><ele>229.83333333333331</ele><time>2026-04-02T15:07:03.54Z</time></trkpt><trkpt lat="45.6280267" lon="8.912245"><ele>230.66666666666666</ele><time>2026-04-02T15:07:04.541Z</time></trkpt><trkpt lat="45.6281172" lon="8.9121867"><ele>231.5</ele><time>2026-04-02T15:07:05.541Z</time></trkpt><trkpt lat="45.6281985" lon="8.9121328"><ele>232.33333333333331</ele><time>2026-04-02T15:07:06.541Z</time></trkpt><trkpt lat="45.6282697" lon="8.9120899"><ele>233.16666666666666</ele><time>2026-04-02T15:07:07.542Z</time></trkpt><trkpt lat="45.6283283" lon="8.9120486"><ele>234.0</ele><time>2026-04-02T15:07:08.542Z</time></trkpt><trkpt lat="45.6284277" lon="8.9119847"><ele>234.0</ele><time>2026-04-02T15:07:10.542Z</time></trkpt><trkpt lat="45.6285112" lon="8.9119415"><ele>234.0</ele><time>2026-04-02T15:07:12.542Z</time></trkpt><trkpt lat="45.6285982" lon="8.9119052"><ele>234.0</ele><time>2026-04-02T15:07:14.54Z</time></trkpt><trkpt lat="45.6286658" lon="8.911884"><ele>234.0</ele><time>2026-04-02T15:07:16.542Z</time></trkpt><trkpt lat="45.6287691" lon="8.9118832"><ele>234.0</ele><time>2026-04-02T15:07:19.541Z</time></trkpt><trkpt lat="45.6288532" lon="8.9119132"><ele>234.0</ele><time>2026-04-02T15:07:21.541Z</time></trkpt><trkpt lat="45.6289436" lon="8.9119137"><ele>234.16666666666666</ele><time>2026-04-02T15:07:23.542Z</time></trkpt><trkpt lat="45.629016" lon="8.9118556"><ele>234.33333333333331</ele><time>2026-04-02T15:07:24.542Z</time></trkpt><trkpt lat="45.6290665" lon="8.9117749"><ele>234.5</ele><time>2026-04-02T15:07:25.541Z</time></trkpt><trkpt lat="45.6291309" lon="8.9116886"><ele>234.66666666666666</ele><time>2026-04-02T15:07:26.541Z</time></trkpt><trkpt lat="45.6292026" lon="8.9116068"><ele>234.83333333333331</ele><time>2026-04-02T15:07:27.542Z</time></trkpt><trkpt lat="45.6292801" lon="8.9115333"><ele>235.0</ele><time>2026-04-02T15:07:28.542Z</time></trkpt><trkpt lat="45.6293901" lon="8.9114664"><ele>235.0</ele><time>2026-04-02T15:07:29.542Z</time></trkpt><trkpt lat="45.6294988" lon="8.9113893"><ele>235.0</ele><time>2026-04-02T15:07:30.542Z</time></trkpt><trkpt lat="45.6296194" lon="8.9113124"><ele>235.0</ele><time>2026-04-02T15:07:31.542Z</time></trkpt><trkpt lat="45.6297634" lon="8.9112138"><ele>235.0</ele><time>2026-04-02T15:07:32.541Z</time></trkpt><trkpt lat="45.6299027" lon="8.91113"><ele>235.0</ele><time>2026-04-02T15:07:33.541Z</time></trkpt><trkpt lat="45.6300352" lon="8.9110519"><ele>235.0</ele><time>2026-04-02T15:07:34.542Z</time></trkpt><trkpt lat="45.6301632" lon="8.9109715"><ele>235.0</ele><time>2026-04-02T15:07:35.542Z</time></trkpt><trkpt lat="45.6302886" lon="8.9108954"><ele>235.0</ele><time>2026-04-02T15:07:36.541Z</time></trkpt><trkpt lat="45.630412" lon="8.9108185"><ele>234.5</ele><time>2026-04-02T15:07:37.542Z</time></trkpt><trkpt lat="45.6305305" lon="8.9107441"><ele>234.0</ele><time>2026-04-02T15:07:38.542Z</time></trkpt><trkpt lat="45.6306456" lon="8.9106749"><ele>233.5</ele><time>2026-04-02T15:07:39.541Z</time></trkpt><trkpt lat="45.6307583" lon="8.910606"><ele>233.0</ele><time>2026-04-02T15:07:40.541Z</time></trkpt><trkpt lat="45.6308708" lon="8.9105363"><ele>233.0</ele><time>2026-04-02T15:07:41.541Z</time></trkpt><trkpt lat="45.63098" lon="8.9104706"><ele>233.0</ele><time>2026-04-02T15:07:42.542Z</time></trkpt><trkpt lat="45.6310892" lon="8.9104046"><ele>233.0</ele><time>2026-04-02T15:07:43.541Z</time></trkpt><trkpt lat="45.6312005" lon="8.9103344"><ele>233.0</ele><time>2026-04-02T15:07:44.54Z</time></trkpt><trkpt lat="45.6313131" lon="8.9102679"><ele>234.0</ele><time>2026-04-02T15:07:45.542Z</time></trkpt><trkpt lat="45.6314239" lon="8.9101923"><ele>235.0</ele><time>2026-04-02T15:07:46.542Z</time></trkpt><trkpt lat="45.6315374" lon="8.9101179"><ele>236.0</ele><time>2026-04-02T15:07:47.541Z</time></trkpt><trkpt lat="45.6316517" lon="8.9100465"><ele>237.0</ele><time>2026-04-02T15:07:48.541Z</time></trkpt><trkpt lat="45.631764" lon="8.9099871"><ele>237.0</ele><time>2026-04-02T15:07:49.541Z</time></trkpt><trkpt lat="45.6318681" lon="8.9099329"><ele>237.0</ele><time>2026-04-02T15:07:50.541Z</time></trkpt><trkpt lat="45.6319625" lon="8.9098802"><ele>237.0</ele><time>2026-04-02T15:07:51.541Z</time></trkpt><trkpt lat="45.6320435" lon="8.9098336"><ele>237.0</ele><time>2026-04-02T15:07:52.541Z</time></trkpt><trkpt lat="45.6321184" lon="8.9097985"><ele>237.0</ele><time>2026-04-02T15:07:53.54Z</time></trkpt><trkpt lat="45.6321913" lon="8.9097628"><ele>237.6</ele><time>2026-04-02T15:07:54.541Z</time></trkpt><trkpt lat="45.6322684" lon="8.9097339"><ele>238.2</ele><time>2026-04-02T15:07:55.542Z</time></trkpt><trkpt lat="45.6323506" lon="8.9097181"><ele>238.8</ele><time>2026-04-02T15:07:56.542Z</time></trkpt><trkpt lat="45.6324456" lon="8.9097101"><ele>239.4</ele><time>2026-04-02T15:07:57.542Z</time></trkpt><trkpt lat="45.6325384" lon="8.909665"><ele>240.0</ele><time>2026-04-02T15:07:58.542Z</time></trkpt><trkpt lat="45.6326294" lon="8.9095601"><ele>240.0</ele><time>2026-04-02T15:07:59.542Z</time></trkpt><trkpt lat="45.6327341" lon="8.9094707"><ele>240.0</ele><time>2026-04-02T15:08:00.541Z</time></trkpt><trkpt lat="45.6328403" lon="8.909391"><ele>240.0</ele><time>2026-04-02T15:08:01.542Z</time></trkpt><trkpt lat="45.6329449" lon="8.909318"><ele>240.0</ele><time>2026-04-02T15:08:02.541Z</time></trkpt><trkpt lat="45.6330535" lon="8.9092394"><ele>239.5</ele><time>2026-04-02T15:08:03.541Z</time></trkpt><trkpt lat="45.6331695" lon="8.9091604"><ele>239.0</ele><time>2026-04-02T15:08:04.542Z</time></trkpt><trkpt lat="45.6332936" lon="8.9090783"><ele>238.5</ele><time>2026-04-02T15:08:05.541Z</time></trkpt><trkpt lat="45.6334231" lon="8.9089954"><ele>238.0</ele><time>2026-04-02T15:08:06.541Z</time></trkpt><trkpt lat="45.6335696" lon="8.9089"><ele>238.33333333333331</ele><time>2026-04-02T15:08:07.541Z</time></trkpt><trkpt lat="45.6337218" lon="8.9088125"><ele>238.66666666666669</ele><time>2026-04-02T15:08:08.542Z</time></trkpt><trkpt lat="45.6338669" lon="8.9087277"><ele>239.0</ele><time>2026-04-02T15:08:09.542Z</time></trkpt><trkpt lat="45.6340056" lon="8.9086427"><ele>239.0</ele><time>2026-04-02T15:08:10.542Z</time></trkpt><trkpt lat="45.6341349" lon="8.9085615"><ele>239.0</ele><time>2026-04-02T15:08:11.541Z</time></trkpt><trkpt lat="45.6342543" lon="8.9084887"><ele>239.0</ele><time>2026-04-02T15:08:12.542Z</time></trkpt><trkpt lat="45.6343679" lon="8.9084154"><ele>239.0</ele><time>2026-04-02T15:08:13.542Z</time></trkpt><trkpt lat="45.6344754" lon="8.9083476"><ele>239.25</ele><time>2026-04-02T15:08:14.541Z</time></trkpt><trkpt lat="45.6345806" lon="8.9082881"><ele>239.5</ele><time>2026-04-02T15:08:15.542Z</time></trkpt><trkpt lat="45.6346859" lon="8.9082243"><ele>239.75</ele><time>2026-04-02T15:08:16.542Z</time></trkpt><trkpt lat="45.6347954" lon="8.9081585"><ele>240.0</ele><time>2026-04-02T15:08:17.542Z</time></trkpt><trkpt lat="45.6349018" lon="8.9080985"><ele>240.0</ele><time>2026-04-02T15:08:18.542Z</time></trkpt><trkpt lat="45.6349994" lon="8.9080407"><ele>240.0</ele><time>2026-04-02T15:08:19.542Z</time></trkpt><trkpt lat="45.6350969" lon="8.9079888"><ele>240.0</ele><time>2026-04-02T15:08:20.541Z</time></trkpt><trkpt lat="45.6351991" lon="8.9079238"><ele>240.0</ele><time>2026-04-02T15:08:21.541Z</time></trkpt><trkpt lat="45.6352951" lon="8.9078645"><ele>240.0</ele><time>2026-04-02T15:08:22.54Z</time></trkpt><trkpt lat="45.6353877" lon="8.9078108"><ele>240.4</ele><time>2026-04-02T15:08:23.541Z</time></trkpt><trkpt lat="45.6354888" lon="8.9077482"><ele>240.8</ele><time>2026-04-02T15:08:24.542Z</time></trkpt><trkpt lat="45.6355898" lon="8.9076862"><ele>241.2</ele><time>2026-04-02T15:08:25.542Z</time></trkpt><trkpt lat="45.6356867" lon="8.9076248"><ele>241.6</ele><time>2026-04-02T15:08:26.54Z</time></trkpt><trkpt lat="45.6357733" lon="8.9075712"><ele>242.0</ele><time>2026-04-02T15:08:27.542Z</time></trkpt><trkpt lat="45.6358524" lon="8.9075215"><ele>242.00000000000003</ele><time>2026-04-02T15:08:28.541Z</time></trkpt><trkpt lat="45.6359256" lon="8.9074783"><ele>242.0</ele><time>2026-04-02T15:08:29.542Z</time></trkpt><trkpt lat="45.636001" lon="8.907439"><ele>242.0</ele><time>2026-04-02T15:08:30.542Z</time></trkpt><trkpt lat="45.6360744" lon="8.9074005"><ele>242.0</ele><time>2026-04-02T15:08:31.541Z</time></trkpt><trkpt lat="45.6361459" lon="8.9073649"><ele>242.00000000000003</ele><time>2026-04-02T15:08:32.541Z</time></trkpt><trkpt lat="45.6362217" lon="8.9073343"><ele>242.0</ele><time>2026-04-02T15:08:33.541Z</time></trkpt><trkpt lat="45.6362956" lon="8.9073085"><ele>242.50000000000003</ele><time>2026-04-02T15:08:34.541Z</time></trkpt><trkpt lat="45.6363766" lon="8.9072794"><ele>243.0</ele><time>2026-04-02T15:08:35.54Z</time></trkpt><trkpt lat="45.6364574" lon="8.9072496"><ele>243.5</ele><time>2026-04-02T15:08:36.541Z</time></trkpt><trkpt lat="45.6365376" lon="8.9072262"><ele>244.0</ele><time>2026-04-02T15:08:37.541Z</time></trkpt><trkpt lat="45.6366202" lon="8.9072038"><ele>244.50000000000003</ele><time>2026-04-02T15:08:38.541Z</time></trkpt><trkpt lat="45.6367052" lon="8.9071813"><ele>245.0</ele><time>2026-04-02T15:08:39.541Z</time></trkpt><trkpt lat="45.6367782" lon="8.9071638"><ele>245.0</ele><time>2026-04-02T15:08:40.541Z</time></trkpt><trkpt lat="45.6368955" lon="8.9071381"><ele>245.0</ele><time>2026-04-02T15:08:42.542Z</time></trkpt><trkpt lat="45.6370062" lon="8.9071132"><ele>245.0</ele><time>2026-04-02T15:08:44.541Z</time></trkpt><trkpt lat="45.6371193" lon="8.9070889"><ele>245.0</ele><time>2026-04-02T15:08:46.541Z</time></trkpt><trkpt lat="45.6372281" lon="8.9070651"><ele>244.6</ele><time>2026-04-02T15:08:48.541Z</time></trkpt><trkpt lat="45.6373446" lon="8.9070428"><ele>244.2</ele><time>2026-04-02T15:08:50.542Z</time></trkpt><trkpt lat="45.6374413" lon="8.907036"><ele>243.8</ele><time>2026-04-02T15:08:52.542Z</time></trkpt><trkpt lat="45.6375396" lon="8.9070507"><ele>243.4</ele><time>2026-04-02T15:08:54.541Z</time></trkpt><trkpt lat="45.6376395" lon="8.9071048"><ele>243.0</ele><time>2026-04-02T15:08:56.542Z</time></trkpt><trkpt lat="45.6377491" lon="8.9071622"><ele>242.66666666666666</ele><time>2026-04-02T15:08:58.54Z</time></trkpt><trkpt lat="45.637809" lon="8.9071904"><ele>242.33333333333331</ele><time>2026-04-02T15:08:59.54Z</time></trkpt><trkpt lat="45.6378722" lon="8.9072245"><ele>242.0</ele><time>2026-04-02T15:09:00.541Z</time></trkpt><trkpt lat="45.637942" lon="8.9072771"><ele>241.66666666666666</ele><time>2026-04-02T15:09:01.542Z</time></trkpt><trkpt lat="45.6380074" lon="8.9073525"><ele>241.33333333333331</ele><time>2026-04-02T15:09:02.542Z</time></trkpt><trkpt lat="45.6380658" lon="8.9074463"><ele>241.0</ele><time>2026-04-02T15:09:03.542Z</time></trkpt><trkpt lat="45.6381147" lon="8.90754"><ele>241.0</ele><time>2026-04-02T15:09:04.542Z</time></trkpt><trkpt lat="45.6381678" lon="8.9076187"><ele>241.00000000000003</ele><time>2026-04-02T15:09:05.541Z</time></trkpt><trkpt lat="45.6382462" lon="8.9076526"><ele>241.00000000000003</ele><time>2026-04-02T15:09:06.541Z</time></trkpt><trkpt lat="45.6383335" lon="8.9076493"><ele>241.0</ele><time>2026-04-02T15:09:07.539Z</time></trkpt><trkpt lat="45.6384278" lon="8.9076257"><ele>241.0</ele><time>2026-04-02T15:09:08.541Z</time></trkpt><trkpt lat="45.6385386" lon="8.9076353"><ele>241.4</ele><time>2026-04-02T15:09:09.54Z</time></trkpt><trkpt lat="45.6386389" lon="8.9076572"><ele>241.8</ele><time>2026-04-02T15:09:10.541Z</time></trkpt><trkpt lat="45.6387347" lon="8.90768"><ele>242.20000000000002</ele><time>2026-04-02T15:09:11.54Z</time></trkpt><trkpt lat="45.638834" lon="8.9077134"><ele>242.60000000000002</ele><time>2026-04-02T15:09:12.54Z</time></trkpt><trkpt lat="45.6389409" lon="8.9077545"><ele>243.0</ele><time>2026-04-02T15:09:13.541Z</time></trkpt><trkpt lat="45.6390532" lon="8.9078042"><ele>243.0</ele><time>2026-04-02T15:09:14.541Z</time></trkpt><trkpt lat="45.6391694" lon="8.9078707"><ele>243.0</ele><time>2026-04-02T15:09:15.54Z</time></trkpt><trkpt lat="45.6392863" lon="8.9079398"><ele>243.0</ele><time>2026-04-02T15:09:16.54Z</time></trkpt><trkpt lat="45.6393928" lon="8.9080038"><ele>243.0</ele><time>2026-04-02T15:09:17.541Z</time></trkpt><trkpt lat="45.6395034" lon="8.9080728"><ele>242.5</ele><time>2026-04-02T15:09:18.54Z</time></trkpt><trkpt lat="45.6396157" lon="8.9081442"><ele>242.0</ele><time>2026-04-02T15:09:19.54Z</time></trkpt><trkpt lat="45.6397338" lon="8.9082148"><ele>241.5</ele><time>2026-04-02T15:09:20.54Z</time></trkpt><trkpt lat="45.6398527" lon="8.9082889"><ele>241.0</ele><time>2026-04-02T15:09:21.54Z</time></trkpt><trkpt lat="45.6399764" lon="8.9083597"><ele>241.0</ele><time>2026-04-02T15:09:22.54Z</time></trkpt><trkpt lat="45.6400984" lon="8.9084329"><ele>241.0</ele><time>2026-04-02T15:09:23.541Z</time></trkpt><trkpt lat="45.6402176" lon="8.9085029"><ele>241.0</ele><time>2026-04-02T15:09:24.541Z</time></trkpt><trkpt lat="45.6403316" lon="8.9085726"><ele>241.0</ele><time>2026-04-02T15:09:25.541Z</time></trkpt><trkpt lat="45.6404463" lon="8.9086385"><ele>241.0</ele><time>2026-04-02T15:09:26.541Z</time></trkpt><trkpt lat="45.6405618" lon="8.9087048"><ele>241.0</ele><time>2026-04-02T15:09:27.54Z</time></trkpt><trkpt lat="45.6406735" lon="8.9087713"><ele>241.0</ele><time>2026-04-02T15:09:28.54Z</time></trkpt><trkpt lat="45.6407884" lon="8.9088414"><ele>241.0</ele><time>2026-04-02T15:09:29.54Z</time></trkpt><trkpt lat="45.6409049" lon="8.9089128"><ele>241.0</ele><time>2026-04-02T15:09:30.54Z</time></trkpt><trkpt lat="45.6410222" lon="8.9089901"><ele>241.0</ele><time>2026-04-02T15:09:31.541Z</time></trkpt><trkpt lat="45.6411431" lon="8.9090683"><ele>241.0</ele><time>2026-04-02T15:09:32.541Z</time></trkpt><trkpt lat="45.6412703" lon="8.9091472"><ele>241.0</ele><time>2026-04-02T15:09:33.54Z</time></trkpt><trkpt lat="45.6414028" lon="8.9092273"><ele>241.75</ele><time>2026-04-02T15:09:34.541Z</time></trkpt><trkpt lat="45.6415342" lon="8.9093095"><ele>242.5</ele><time>2026-04-02T15:09:35.541Z</time></trkpt><trkpt lat="45.6416649" lon="8.9093857"><ele>243.25</ele><time>2026-04-02T15:09:36.541Z</time></trkpt><trkpt lat="45.6417936" lon="8.9094626"><ele>244.0</ele><time>2026-04-02T15:09:37.54Z</time></trkpt><trkpt lat="45.6419253" lon="8.9095465"><ele>244.5</ele><time>2026-04-02T15:09:38.54Z</time></trkpt><trkpt lat="45.6420577" lon="8.9096317"><ele>245.0</ele><time>2026-04-02T15:09:39.541Z</time></trkpt><trkpt lat="45.6421982" lon="8.9097173"><ele>245.5</ele><time>2026-04-02T15:09:40.541Z</time></trkpt><trkpt lat="45.6423382" lon="8.9097993"><ele>246.0</ele><time>2026-04-02T15:09:41.54Z</time></trkpt><trkpt lat="45.6424752" lon="8.9098812"><ele>246.0</ele><time>2026-04-02T15:09:42.541Z</time></trkpt><trkpt lat="45.6426137" lon="8.9099689"><ele>246.0</ele><time>2026-04-02T15:09:43.541Z</time></trkpt><trkpt lat="45.642755" lon="8.9100566"><ele>246.0</ele><time>2026-04-02T15:09:44.541Z</time></trkpt><trkpt lat="45.6428937" lon="8.9101434"><ele>245.0</ele><time>2026-04-02T15:09:45.54Z</time></trkpt><trkpt lat="45.6430457" lon="8.9102396"><ele>244.0</ele><time>2026-04-02T15:09:46.539Z</time></trkpt><trkpt lat="45.6431982" lon="8.9103347"><ele>243.0</ele><time>2026-04-02T15:09:47.54Z</time></trkpt><trkpt lat="45.6433465" lon="8.9104253"><ele>243.0</ele><time>2026-04-02T15:09:48.539Z</time></trkpt><trkpt lat="45.6434914" lon="8.9105102"><ele>243.0</ele><time>2026-04-02T15:09:49.541Z</time></trkpt><trkpt lat="45.6436375" lon="8.9106039"><ele>243.0</ele><time>2026-04-02T15:09:50.541Z</time></trkpt><trkpt lat="45.6437853" lon="8.9106983"><ele>244.0</ele><time>2026-04-02T15:09:51.54Z</time></trkpt><trkpt lat="45.6439327" lon="8.9107865"><ele>245.0</ele><time>2026-04-02T15:09:52.54Z</time></trkpt><trkpt lat="45.644084" lon="8.9108721"><ele>246.0</ele><time>2026-04-02T15:09:53.54Z</time></trkpt><trkpt lat="45.6442301" lon="8.9109603"><ele>246.0</ele><time>2026-04-02T15:09:54.541Z</time></trkpt><trkpt lat="45.644374" lon="8.9110456"><ele>246.0</ele><time>2026-04-02T15:09:55.54Z</time></trkpt><trkpt lat="45.6445159" lon="8.9111189"><ele>246.0</ele><time>2026-04-02T15:09:56.54Z</time></trkpt><trkpt lat="45.6446628" lon="8.9111825"><ele>246.0</ele><time>2026-04-02T15:09:57.54Z</time></trkpt><trkpt lat="45.6448144" lon="8.9112335"><ele>246.0</ele><time>2026-04-02T15:09:58.54Z</time></trkpt><trkpt lat="45.6449589" lon="8.9112572"><ele>246.0</ele><time>2026-04-02T15:09:59.54Z</time></trkpt><trkpt lat="45.6450914" lon="8.9112716"><ele>246.0</ele><time>2026-04-02T15:10:00.54Z</time></trkpt><trkpt lat="45.6452096" lon="8.9112738"><ele>246.33333333333334</ele><time>2026-04-02T15:10:01.541Z</time></trkpt><trkpt lat="45.6453163" lon="8.9112676"><ele>246.66666666666669</ele><time>2026-04-02T15:10:02.541Z</time></trkpt><trkpt lat="45.6454102" lon="8.9112631"><ele>247.0</ele><time>2026-04-02T15:10:03.54Z</time></trkpt><trkpt lat="45.6454948" lon="8.9112609"><ele>247.33333333333334</ele><time>2026-04-02T15:10:04.54Z</time></trkpt><trkpt lat="45.6455735" lon="8.9112591"><ele>247.66666666666669</ele><time>2026-04-02T15:10:05.54Z</time></trkpt><trkpt lat="45.6456524" lon="8.9112584"><ele>248.0</ele><time>2026-04-02T15:10:06.541Z</time></trkpt><trkpt lat="45.6457266" lon="8.9112685"><ele>248.0</ele><time>2026-04-02T15:10:07.541Z</time></trkpt><trkpt lat="45.6458237" lon="8.9112678"><ele>248.0</ele><time>2026-04-02T15:10:08.541Z</time></trkpt><trkpt lat="45.6459141" lon="8.9112115"><ele>248.0</ele><time>2026-04-02T15:10:09.541Z</time></trkpt><trkpt lat="45.6459975" lon="8.9111253"><ele>248.0</ele><time>2026-04-02T15:10:10.541Z</time></trkpt><trkpt lat="45.6460828" lon="8.911053"><ele>248.0</ele><time>2026-04-02T15:10:11.541Z</time></trkpt><trkpt lat="45.6461706" lon="8.9109867"><ele>247.75</ele><time>2026-04-02T15:10:12.54Z</time></trkpt><trkpt lat="45.6462692" lon="8.9109216"><ele>247.5</ele><time>2026-04-02T15:10:13.541Z</time></trkpt><trkpt lat="45.6463809" lon="8.9108482"><ele>247.25</ele><time>2026-04-02T15:10:14.541Z</time></trkpt><trkpt lat="45.6465074" lon="8.9107726"><ele>247.0</ele><time>2026-04-02T15:10:15.54Z</time></trkpt><trkpt lat="45.6466549" lon="8.9106912"><ele>247.0</ele><time>2026-04-02T15:10:16.541Z</time></trkpt><trkpt lat="45.6467973" lon="8.9106123"><ele>247.0</ele><time>2026-04-02T15:10:17.539Z</time></trkpt><trkpt lat="45.6469416" lon="8.9105253"><ele>247.0</ele><time>2026-04-02T15:10:18.541Z</time></trkpt><trkpt lat="45.6470961" lon="8.9104437"><ele>246.75</ele><time>2026-04-02T15:10:19.54Z</time></trkpt><trkpt lat="45.6472486" lon="8.910371"><ele>246.5</ele><time>2026-04-02T15:10:20.541Z</time></trkpt><trkpt lat="45.6473852" lon="8.9102986"><ele>246.25</ele><time>2026-04-02T15:10:21.541Z</time></trkpt><trkpt lat="45.6475151" lon="8.9102276"><ele>246.0</ele><time>2026-04-02T15:10:22.541Z</time></trkpt><trkpt lat="45.647633" lon="8.9101621"><ele>246.0</ele><time>2026-04-02T15:10:23.541Z</time></trkpt><trkpt lat="45.6477464" lon="8.9101025"><ele>246.00000000000003</ele><time>2026-04-02T15:10:24.541Z</time></trkpt><trkpt lat="45.6478526" lon="8.910048"><ele>246.00000000000003</ele><time>2026-04-02T15:10:25.54Z</time></trkpt><trkpt lat="45.6479482" lon="8.9099931"><ele>246.0</ele><time>2026-04-02T15:10:26.539Z</time></trkpt><trkpt lat="45.6480361" lon="8.9099506"><ele>246.0</ele><time>2026-04-02T15:10:27.54Z</time></trkpt><trkpt lat="45.6481125" lon="8.9099123"><ele>246.4</ele><time>2026-04-02T15:10:28.541Z</time></trkpt><trkpt lat="45.6481754" lon="8.9098778"><ele>246.8</ele><time>2026-04-02T15:10:29.541Z</time></trkpt><trkpt lat="45.6482732" lon="8.909832"><ele>247.20000000000002</ele><time>2026-04-02T15:10:31.541Z</time></trkpt><trkpt lat="45.6483709" lon="8.9097875"><ele>247.60000000000002</ele><time>2026-04-02T15:10:33.541Z</time></trkpt><trkpt lat="45.6485001" lon="8.9097985"><ele>248.0</ele><time>2026-04-02T15:10:35.541Z</time></trkpt><trkpt lat="45.648576" lon="8.909796"><ele>248.4</ele><time>2026-04-02T15:10:36.541Z</time></trkpt><trkpt lat="45.648647" lon="8.9097545"><ele>248.8</ele><time>2026-04-02T15:10:37.541Z</time></trkpt><trkpt lat="45.6487028" lon="8.9096744"><ele>249.2</ele><time>2026-04-02T15:10:38.541Z</time></trkpt><trkpt lat="45.6487654" lon="8.9095933"><ele>249.6</ele><time>2026-04-02T15:10:39.541Z</time></trkpt><trkpt lat="45.6488535" lon="8.9095271"><ele>250.0</ele><time>2026-04-02T15:10:40.541Z</time></trkpt><trkpt lat="45.6489552" lon="8.9094627"><ele>250.0</ele><time>2026-04-02T15:10:41.54Z</time></trkpt><trkpt lat="45.6490584" lon="8.9094078"><ele>250.0</ele><time>2026-04-02T15:10:42.539Z</time></trkpt><trkpt lat="45.6491655" lon="8.9093477"><ele>250.0</ele><time>2026-04-02T15:10:43.539Z</time></trkpt><trkpt lat="45.6492879" lon="8.909285"><ele>250.0</ele><time>2026-04-02T15:10:44.54Z</time></trkpt><trkpt lat="45.6494179" lon="8.9092195"><ele>249.5</ele><time>2026-04-02T15:10:45.541Z</time></trkpt><trkpt lat="45.6495504" lon="8.9091462"><ele>249.0</ele><time>2026-04-02T15:10:46.541Z</time></trkpt><trkpt lat="45.6496737" lon="8.9090808"><ele>248.5</ele><time>2026-04-02T15:10:47.54Z</time></trkpt><trkpt lat="45.649797" lon="8.909017"><ele>248.0</ele><time>2026-04-02T15:10:48.54Z</time></trkpt><trkpt lat="45.6499203" lon="8.9089526"><ele>248.0</ele><time>2026-04-02T15:10:49.539Z</time></trkpt><trkpt lat="45.6500454" lon="8.908883"><ele>248.0</ele><time>2026-04-02T15:10:50.54Z</time></trkpt><trkpt lat="45.6501773" lon="8.9088156"><ele>248.0</ele><time>2026-04-02T15:10:51.54Z</time></trkpt><trkpt lat="45.6503082" lon="8.9087489"><ele>248.0</ele><time>2026-04-02T15:10:52.541Z</time></trkpt><trkpt lat="45.6504374" lon="8.9086713"><ele>249.0</ele><time>2026-04-02T15:10:53.541Z</time></trkpt><trkpt lat="45.6505675" lon="8.9085838"><ele>250.0</ele><time>2026-04-02T15:10:54.541Z</time></trkpt><trkpt lat="45.6506986" lon="8.9084738"><ele>251.0</ele><time>2026-04-02T15:10:55.54Z</time></trkpt><trkpt lat="45.6508292" lon="8.9083425"><ele>251.0</ele><time>2026-04-02T15:10:56.54Z</time></trkpt><trkpt lat="45.6509569" lon="8.9081853"><ele>251.0</ele><time>2026-04-02T15:10:57.541Z</time></trkpt><trkpt lat="45.6510732" lon="8.9080178"><ele>251.0</ele><time>2026-04-02T15:10:58.54Z</time></trkpt><trkpt lat="45.6511773" lon="8.9078379"><ele>251.33333333333334</ele><time>2026-04-02T15:10:59.54Z</time></trkpt><trkpt lat="45.6512735" lon="8.9076441"><ele>251.66666666666669</ele><time>2026-04-02T15:11:00.541Z</time></trkpt><trkpt lat="45.6513639" lon="8.9074493"><ele>252.0</ele><time>2026-04-02T15:11:01.54Z</time></trkpt><trkpt lat="45.651431" lon="8.9072515"><ele>252.0</ele><time>2026-04-02T15:11:02.54Z</time></trkpt><trkpt lat="45.6514851" lon="8.9070569"><ele>252.0</ele><time>2026-04-02T15:11:03.54Z</time></trkpt><trkpt lat="45.6515369" lon="8.9068535"><ele>252.0</ele><time>2026-04-02T15:11:04.54Z</time></trkpt><trkpt lat="45.6515893" lon="8.9066543"><ele>252.0</ele><time>2026-04-02T15:11:05.541Z</time></trkpt><trkpt lat="45.6516399" lon="8.9064551"><ele>252.0</ele><time>2026-04-02T15:11:06.541Z</time></trkpt><trkpt lat="45.6516966" lon="8.9062501"><ele>252.0</ele><time>2026-04-02T15:11:07.54Z</time></trkpt><trkpt lat="45.6517488" lon="8.9060398"><ele>252.0</ele><time>2026-04-02T15:11:08.541Z</time></trkpt><trkpt lat="45.6518015" lon="8.9058212"><ele>252.0</ele><time>2026-04-02T15:11:09.54Z</time></trkpt><trkpt lat="45.6518577" lon="8.9055909"><ele>252.0</ele><time>2026-04-02T15:11:10.541Z</time></trkpt><trkpt lat="45.651919" lon="8.9053615"><ele>252.0</ele><time>2026-04-02T15:11:11.541Z</time></trkpt><trkpt lat="45.6519835" lon="8.9051361"><ele>251.0</ele><time>2026-04-02T15:11:12.541Z</time></trkpt><trkpt lat="45.6520465" lon="8.9049209"><ele>250.0</ele><time>2026-04-02T15:11:13.54Z</time></trkpt><trkpt lat="45.6521016" lon="8.9046989"><ele>249.0</ele><time>2026-04-02T15:11:14.54Z</time></trkpt><trkpt lat="45.6521574" lon="8.9044743"><ele>249.66666666666669</ele><time>2026-04-02T15:11:15.539Z</time></trkpt><trkpt lat="45.6522138" lon="8.9042458"><ele>250.33333333333334</ele><time>2026-04-02T15:11:16.54Z</time></trkpt><trkpt lat="45.6522716" lon="8.9040195"><ele>251.0</ele><time>2026-04-02T15:11:17.54Z</time></trkpt><trkpt lat="45.6523322" lon="8.9037952"><ele>251.0</ele><time>2026-04-02T15:11:18.541Z</time></trkpt><trkpt lat="45.6523917" lon="8.903562"><ele>251.0</ele><time>2026-04-02T15:11:19.541Z</time></trkpt><trkpt lat="45.6524544" lon="8.9033353"><ele>251.0</ele><time>2026-04-02T15:11:20.54Z</time></trkpt><trkpt lat="45.6525164" lon="8.9031068"><ele>251.0</ele><time>2026-04-02T15:11:21.541Z</time></trkpt><trkpt lat="45.6525805" lon="8.9028763"><ele>251.0</ele><time>2026-04-02T15:11:22.541Z</time></trkpt><trkpt lat="45.6526396" lon="8.9026531"><ele>251.0</ele><time>2026-04-02T15:11:23.54Z</time></trkpt><trkpt lat="45.6526976" lon="8.9024313"><ele>251.33333333333334</ele><time>2026-04-02T15:11:24.54Z</time></trkpt><trkpt lat="45.6527572" lon="8.9022126"><ele>251.66666666666669</ele><time>2026-04-02T15:11:25.541Z</time></trkpt><trkpt lat="45.6528156" lon="8.9019997"><ele>252.0</ele><time>2026-04-02T15:11:26.541Z</time></trkpt><trkpt lat="45.6528731" lon="8.901789"><ele>251.66666666666669</ele><time>2026-04-02T15:11:27.541Z</time></trkpt><trkpt lat="45.6529333" lon="8.9015736"><ele>251.33333333333334</ele><time>2026-04-02T15:11:28.54Z</time></trkpt><trkpt lat="45.6530043" lon="8.9013537"><ele>251.0</ele><time>2026-04-02T15:11:29.541Z</time></trkpt><trkpt lat="45.6530889" lon="8.9011414"><ele>251.0</ele><time>2026-04-02T15:11:30.54Z</time></trkpt><trkpt lat="45.6531908" lon="8.900934"><ele>251.0</ele><time>2026-04-02T15:11:31.54Z</time></trkpt><trkpt lat="45.6533061" lon="8.9007404"><ele>251.0</ele><time>2026-04-02T15:11:32.54Z</time></trkpt><trkpt lat="45.6534338" lon="8.9005588"><ele>251.0</ele><time>2026-04-02T15:11:33.541Z</time></trkpt><trkpt lat="45.65357" lon="8.900392"><ele>251.0</ele><time>2026-04-02T15:11:34.539Z</time></trkpt><trkpt lat="45.6537124" lon="8.9002406"><ele>251.0</ele><time>2026-04-02T15:11:35.54Z</time></trkpt><trkpt lat="45.6538578" lon="8.9001128"><ele>252.33333333333334</ele><time>2026-04-02T15:11:36.541Z</time></trkpt><trkpt lat="45.6540204" lon="8.8999887"><ele>253.66666666666669</ele><time>2026-04-02T15:11:37.541Z</time></trkpt><trkpt lat="45.6541857" lon="8.8998727"><ele>255.0</ele><time>2026-04-02T15:11:38.54Z</time></trkpt><trkpt lat="45.6543396" lon="8.8997619"><ele>254.33333333333331</ele><time>2026-04-02T15:11:39.54Z</time></trkpt><trkpt lat="45.6544836" lon="8.8996597"><ele>253.66666666666666</ele><time>2026-04-02T15:11:40.54Z</time></trkpt><trkpt lat="45.6546275" lon="8.899552"><ele>253.0</ele><time>2026-04-02T15:11:41.54Z</time></trkpt><trkpt lat="45.6547656" lon="8.8994511"><ele>253.0</ele><time>2026-04-02T15:11:42.54Z</time></trkpt><trkpt lat="45.6549035" lon="8.8993564"><ele>253.0</ele><time>2026-04-02T15:11:43.541Z</time></trkpt><trkpt lat="45.6550335" lon="8.8992629"><ele>253.0</ele><time>2026-04-02T15:11:44.541Z</time></trkpt><trkpt lat="45.6551585" lon="8.8991686"><ele>253.0</ele><time>2026-04-02T15:11:45.54Z</time></trkpt><trkpt lat="45.6552772" lon="8.899079"><ele>253.5</ele><time>2026-04-02T15:11:46.541Z</time></trkpt><trkpt lat="45.6553901" lon="8.8990019"><ele>254.0</ele><time>2026-04-02T15:11:47.541Z</time></trkpt><trkpt lat="45.6554995" lon="8.8989258"><ele>254.5</ele><time>2026-04-02T15:11:48.541Z</time></trkpt><trkpt lat="45.6556033" lon="8.8988546"><ele>255.0</ele><time>2026-04-02T15:11:49.539Z</time></trkpt><trkpt lat="45.6557023" lon="8.8987875"><ele>255.0</ele><time>2026-04-02T15:11:50.541Z</time></trkpt><trkpt lat="45.6558039" lon="8.8987171"><ele>255.0</ele><time>2026-04-02T15:11:51.541Z</time></trkpt><trkpt lat="45.655907" lon="8.8986556"><ele>255.0</ele><time>2026-04-02T15:11:52.541Z</time></trkpt><trkpt lat="45.6560026" lon="8.8985981"><ele>255.0</ele><time>2026-04-02T15:11:53.54Z</time></trkpt><trkpt lat="45.656086" lon="8.8985495"><ele>255.0</ele><time>2026-04-02T15:11:54.539Z</time></trkpt><trkpt lat="45.6561567" lon="8.8985234"><ele>255.14285714285717</ele><time>2026-04-02T15:11:55.541Z</time></trkpt><trkpt lat="45.6562317" lon="8.8985218"><ele>255.2857142857143</ele><time>2026-04-02T15:11:56.54Z</time></trkpt><trkpt lat="45.6563059" lon="8.8985421"><ele>255.42857142857144</ele><time>2026-04-02T15:11:57.541Z</time></trkpt><trkpt lat="45.656378" lon="8.8985425"><ele>255.57142857142856</ele><time>2026-04-02T15:11:58.54Z</time></trkpt><trkpt lat="45.6564477" lon="8.8985225"><ele>255.7142857142857</ele><time>2026-04-02T15:11:59.54Z</time></trkpt><trkpt lat="45.656511" lon="8.898472"><ele>255.85714285714283</ele><time>2026-04-02T15:12:00.541Z</time></trkpt><trkpt lat="45.6565779" lon="8.8984147"><ele>256.0</ele><time>2026-04-02T15:12:01.541Z</time></trkpt><trkpt lat="45.6566607" lon="8.8983649"><ele>256.25</ele><time>2026-04-02T15:12:02.541Z</time></trkpt><trkpt lat="45.656756" lon="8.8983215"><ele>256.5</ele><time>2026-04-02T15:12:03.54Z</time></trkpt><trkpt lat="45.6568723" lon="8.8982889"><ele>256.75</ele><time>2026-04-02T15:12:04.539Z</time></trkpt><trkpt lat="45.6570079" lon="8.8982598"><ele>257.0</ele><time>2026-04-02T15:12:05.539Z</time></trkpt><trkpt lat="45.6571486" lon="8.8982312"><ele>257.0</ele><time>2026-04-02T15:12:06.54Z</time></trkpt><trkpt lat="45.6572836" lon="8.898208"><ele>257.0</ele><time>2026-04-02T15:12:07.54Z</time></trkpt><trkpt lat="45.6574204" lon="8.8981833"><ele>257.0</ele><time>2026-04-02T15:12:08.539Z</time></trkpt><trkpt lat="45.6575544" lon="8.8981539"><ele>257.0</ele><time>2026-04-02T15:12:09.54Z</time></trkpt><trkpt lat="45.6576892" lon="8.8981312"><ele>256.75</ele><time>2026-04-02T15:12:10.539Z</time></trkpt><trkpt lat="45.6578247" lon="8.8981096"><ele>256.5</ele><time>2026-04-02T15:12:11.539Z</time></trkpt><trkpt lat="45.6579644" lon="8.8980783"><ele>256.25</ele><time>2026-04-02T15:12:12.539Z</time></trkpt><trkpt lat="45.6580999" lon="8.8980571"><ele>256.0</ele><time>2026-04-02T15:12:13.539Z</time></trkpt><trkpt lat="45.658251" lon="8.8980298"><ele>256.0</ele><time>2026-04-02T15:12:14.54Z</time></trkpt><trkpt lat="45.6583953" lon="8.8980008"><ele>256.0</ele><time>2026-04-02T15:12:15.539Z</time></trkpt><trkpt lat="45.6585398" lon="8.8979757"><ele>256.0</ele><time>2026-04-02T15:12:16.54Z</time></trkpt><trkpt lat="45.6586798" lon="8.897951"><ele>256.0</ele><time>2026-04-02T15:12:17.538Z</time></trkpt><trkpt lat="45.6588179" lon="8.8979231"><ele>255.66666666666666</ele><time>2026-04-02T15:12:18.539Z</time></trkpt><trkpt lat="45.6589588" lon="8.8978988"><ele>255.33333333333331</ele><time>2026-04-02T15:12:19.54Z</time></trkpt><trkpt lat="45.6591165" lon="8.8978719"><ele>255.0</ele><time>2026-04-02T15:12:20.54Z</time></trkpt><trkpt lat="45.6592689" lon="8.8978425"><ele>255.0</ele><time>2026-04-02T15:12:21.54Z</time></trkpt><trkpt lat="45.6594118" lon="8.8978093"><ele>255.0</ele><time>2026-04-02T15:12:22.54Z</time></trkpt><trkpt lat="45.6595577" lon="8.8977821"><ele>255.0</ele><time>2026-04-02T15:12:23.538Z</time></trkpt><trkpt lat="45.659708" lon="8.8977516"><ele>255.0</ele><time>2026-04-02T15:12:24.54Z</time></trkpt><trkpt lat="45.6598543" lon="8.8977262"><ele>255.75</ele><time>2026-04-02T15:12:25.538Z</time></trkpt><trkpt lat="45.6599949" lon="8.897702"><ele>256.5</ele><time>2026-04-02T15:12:26.54Z</time></trkpt><trkpt lat="45.6601297" lon="8.8976752"><ele>257.25</ele><time>2026-04-02T15:12:27.54Z</time></trkpt><trkpt lat="45.6602681" lon="8.8976431"><ele>258.0</ele><time>2026-04-02T15:12:28.539Z</time></trkpt><trkpt lat="45.6604142" lon="8.8976111"><ele>257.6666666666667</ele><time>2026-04-02T15:12:29.54Z</time></trkpt><trkpt lat="45.6605659" lon="8.8975844"><ele>257.33333333333337</ele><time>2026-04-02T15:12:30.54Z</time></trkpt><trkpt lat="45.6607156" lon="8.8975556"><ele>257.0</ele><time>2026-04-02T15:12:31.54Z</time></trkpt><trkpt lat="45.6608716" lon="8.8975256"><ele>257.0</ele><time>2026-04-02T15:12:32.539Z</time></trkpt><trkpt lat="45.6610272" lon="8.897494"><ele>257.0</ele><time>2026-04-02T15:12:33.539Z</time></trkpt><trkpt lat="45.6611831" lon="8.8974626"><ele>257.0</ele><time>2026-04-02T15:12:34.539Z</time></trkpt><trkpt lat="45.6613303" lon="8.8974345"><ele>257.0</ele><time>2026-04-02T15:12:35.539Z</time></trkpt><trkpt lat="45.6614668" lon="8.8974101"><ele>257.0</ele><time>2026-04-02T15:12:36.539Z</time></trkpt><trkpt lat="45.6615992" lon="8.8973854"><ele>257.0</ele><time>2026-04-02T15:12:37.539Z</time></trkpt><trkpt lat="45.6617253" lon="8.8973644"><ele>257.0</ele><time>2026-04-02T15:12:38.539Z</time></trkpt><trkpt lat="45.6618415" lon="8.8973417"><ele>257.4</ele><time>2026-04-02T15:12:39.539Z</time></trkpt><trkpt lat="45.6619525" lon="8.8973224"><ele>257.79999999999995</ele><time>2026-04-02T15:12:40.54Z</time></trkpt><trkpt lat="45.6620605" lon="8.8973047"><ele>258.2</ele><time>2026-04-02T15:12:41.54Z</time></trkpt><trkpt lat="45.6621707" lon="8.8972869"><ele>258.59999999999997</ele><time>2026-04-02T15:12:42.54Z</time></trkpt><trkpt lat="45.6622824" lon="8.8972711"><ele>259.0</ele><time>2026-04-02T15:12:43.54Z</time></trkpt><trkpt lat="45.662392" lon="8.8972541"><ele>259.0</ele><time>2026-04-02T15:12:44.54Z</time></trkpt><trkpt lat="45.6624993" lon="8.8972356"><ele>259.0</ele><time>2026-04-02T15:12:45.54Z</time></trkpt><trkpt lat="45.6626005" lon="8.897217"><ele>259.0</ele><time>2026-04-02T15:12:46.54Z</time></trkpt><trkpt lat="45.6626987" lon="8.8971975"><ele>259.0</ele><time>2026-04-02T15:12:47.54Z</time></trkpt><trkpt lat="45.6627999" lon="8.8971798"><ele>259.0</ele><time>2026-04-02T15:12:48.54Z</time></trkpt><trkpt lat="45.6628994" lon="8.8971595"><ele>259.0</ele><time>2026-04-02T15:12:49.54Z</time></trkpt><trkpt lat="45.6629713" lon="8.8971462"><ele>259.0</ele><time>2026-04-02T15:12:50.54Z</time></trkpt><trkpt lat="45.6631018" lon="8.8971206"><ele>259.0</ele><time>2026-04-02T15:12:52.54Z</time></trkpt><trkpt lat="45.6631737" lon="8.8971157"><ele>259.0</ele><time>2026-04-02T15:12:53.54Z</time></trkpt><trkpt lat="45.6632524" lon="8.8971332"><ele>259.0</ele><time>2026-04-02T15:12:54.539Z</time></trkpt><trkpt lat="45.6633316" lon="8.897159"><ele>259.0</ele><time>2026-04-02T15:12:55.54Z</time></trkpt><trkpt lat="45.6634036" lon="8.8972205"><ele>259.0</ele><time>2026-04-02T15:12:56.539Z</time></trkpt><trkpt lat="45.6634746" lon="8.89725"><ele>259.0</ele><time>2026-04-02T15:12:57.539Z</time></trkpt><trkpt lat="45.6635475" lon="8.897225"><ele>259.0</ele><time>2026-04-02T15:12:58.54Z</time></trkpt><trkpt lat="45.6636277" lon="8.8971643"><ele>259.0</ele><time>2026-04-02T15:12:59.54Z</time></trkpt><trkpt lat="45.6637207" lon="8.897094"><ele>259.0</ele><time>2026-04-02T15:13:00.539Z</time></trkpt><trkpt lat="45.6638123" lon="8.8970668"><ele>259.0</ele><time>2026-04-02T15:13:01.539Z</time></trkpt><trkpt lat="45.6638973" lon="8.8970429"><ele>259.16666666666663</ele><time>2026-04-02T15:13:02.539Z</time></trkpt><trkpt lat="45.663972" lon="8.8970224"><ele>259.3333333333333</ele><time>2026-04-02T15:13:03.54Z</time></trkpt><trkpt lat="45.6640361" lon="8.8970119"><ele>259.5</ele><time>2026-04-02T15:13:04.539Z</time></trkpt><trkpt lat="45.6641592" lon="8.8969888"><ele>259.6666666666667</ele><time>2026-04-02T15:13:06.539Z</time></trkpt><trkpt lat="45.6642269" lon="8.8969746"><ele>259.83333333333337</ele><time>2026-04-02T15:13:07.54Z</time></trkpt><trkpt lat="45.6642927" lon="8.8969677"><ele>260.0</ele><time>2026-04-02T15:13:08.54Z</time></trkpt><trkpt lat="45.6644015" lon="8.8969513"><ele>260.1666666666667</ele><time>2026-04-02T15:13:10.54Z</time></trkpt><trkpt lat="45.6644803" lon="8.8969378"><ele>260.33333333333337</ele><time>2026-04-02T15:13:12.539Z</time></trkpt><trkpt lat="45.6645436" lon="8.8969284"><ele>260.5</ele><time>2026-04-02T15:13:15.539Z</time></trkpt><trkpt lat="45.6646288" lon="8.8969111"><ele>260.6666666666667</ele><time>2026-04-02T15:13:23.54Z</time></trkpt><trkpt lat="45.6647023" lon="8.8968999"><ele>260.8333333333333</ele><time>2026-04-02T15:13:25.539Z</time></trkpt><trkpt lat="45.6647851" lon="8.8968858"><ele>261.0</ele><time>2026-04-02T15:13:27.539Z</time></trkpt><trkpt lat="45.6648593" lon="8.896878"><ele>261.0</ele><time>2026-04-02T15:13:29.539Z</time></trkpt><trkpt lat="45.6649598" lon="8.8968657"><ele>261.0</ele><time>2026-04-02T15:13:31.54Z</time></trkpt><trkpt lat="45.6650697" lon="8.8968542"><ele>261.0</ele><time>2026-04-02T15:13:33.539Z</time></trkpt><trkpt lat="45.6651405" lon="8.8968449"><ele>261.0</ele><time>2026-04-02T15:13:34.539Z</time></trkpt><trkpt lat="45.6652109" lon="8.8968355"><ele>261.0</ele><time>2026-04-02T15:13:35.54Z</time></trkpt><trkpt lat="45.6652837" lon="8.8968215"><ele>261.0</ele><time>2026-04-02T15:13:36.539Z</time></trkpt><trkpt lat="45.665361" lon="8.8968126"><ele>261.0</ele><time>2026-04-02T15:13:37.54Z</time></trkpt><trkpt lat="45.665438" lon="8.8968008"><ele>261.0</ele><time>2026-04-02T15:13:38.539Z</time></trkpt><trkpt lat="45.6655162" lon="8.8967939"><ele>261.0</ele><time>2026-04-02T15:13:39.538Z</time></trkpt><trkpt lat="45.6655923" lon="8.8967838"><ele>261.0</ele><time>2026-04-02T15:13:40.54Z</time></trkpt><trkpt lat="45.6656698" lon="8.8967753"><ele>261.0</ele><time>2026-04-02T15:13:41.54Z</time></trkpt><trkpt lat="45.6657411" lon="8.8967685"><ele>261.0</ele><time>2026-04-02T15:13:42.539Z</time></trkpt><trkpt lat="45.6658065" lon="8.8967602"><ele>261.0</ele><time>2026-04-02T15:13:43.54Z</time></trkpt><trkpt lat="45.6658722" lon="8.8967512"><ele>261.0</ele><time>2026-04-02T15:13:44.54Z</time></trkpt><trkpt lat="45.6659373" lon="8.8967406"><ele>261.0</ele><time>2026-04-02T15:13:45.538Z</time></trkpt><trkpt lat="45.6660013" lon="8.8967265"><ele>261.0</ele><time>2026-04-02T15:13:46.54Z</time></trkpt><trkpt lat="45.6661181" lon="8.896709"><ele>261.0</ele><time>2026-04-02T15:13:48.54Z</time></trkpt><trkpt lat="45.666201" lon="8.8967021"><ele>261.0</ele><time>2026-04-02T15:13:50.54Z</time></trkpt><trkpt lat="45.6662824" lon="8.8967002"><ele>261.0</ele><time>2026-04-02T15:13:53.54Z</time></trkpt><trkpt lat="45.6663477" lon="8.896715"><ele>261.1666666666667</ele><time>2026-04-02T15:13:58.54Z</time></trkpt><trkpt lat="45.6664475" lon="8.896713"><ele>261.3333333333333</ele><time>2026-04-02T15:13:59.54Z</time></trkpt><trkpt lat="45.6665185" lon="8.8967087"><ele>261.5</ele><time>2026-04-02T15:14:00.539Z</time></trkpt><trkpt lat="45.6665906" lon="8.8966965"><ele>261.66666666666663</ele><time>2026-04-02T15:14:01.538Z</time></trkpt><trkpt lat="45.6666721" lon="8.8966877"><ele>261.8333333333333</ele><time>2026-04-02T15:14:02.54Z</time></trkpt><trkpt lat="45.6667657" lon="8.8966755"><ele>262.0</ele><time>2026-04-02T15:14:03.54Z</time></trkpt><trkpt lat="45.6668657" lon="8.8966617"><ele>261.6</ele><time>2026-04-02T15:14:04.54Z</time></trkpt><trkpt lat="45.6669637" lon="8.8966503"><ele>261.2</ele><time>2026-04-02T15:14:05.539Z</time></trkpt><trkpt lat="45.6670678" lon="8.8966391"><ele>260.8</ele><time>2026-04-02T15:14:06.54Z</time></trkpt><trkpt lat="45.6671742" lon="8.8966304"><ele>260.4</ele><time>2026-04-02T15:14:07.539Z</time></trkpt><trkpt lat="45.6672864" lon="8.8966168"><ele>260.0</ele><time>2026-04-02T15:14:08.539Z</time></trkpt><trkpt lat="45.6674076" lon="8.896602"><ele>260.0</ele><time>2026-04-02T15:14:09.54Z</time></trkpt><trkpt lat="45.6675321" lon="8.8965878"><ele>260.0</ele><time>2026-04-02T15:14:10.54Z</time></trkpt><trkpt lat="45.6676528" lon="8.8965739"><ele>260.0</ele><time>2026-04-02T15:14:11.54Z</time></trkpt><trkpt lat="45.6677712" lon="8.8965608"><ele>260.0</ele><time>2026-04-02T15:14:12.54Z</time></trkpt><trkpt lat="45.6678962" lon="8.8965466"><ele>260.75</ele><time>2026-04-02T15:14:13.538Z</time></trkpt><trkpt lat="45.6680298" lon="8.8965213"><ele>261.5</ele><time>2026-04-02T15:14:14.539Z</time></trkpt><trkpt lat="45.6681697" lon="8.8964989"><ele>262.25</ele><time>2026-04-02T15:14:15.538Z</time></trkpt><trkpt lat="45.668299" lon="8.8964845"><ele>263.0</ele><time>2026-04-02T15:14:16.539Z</time></trkpt><trkpt lat="45.6684169" lon="8.8964724"><ele>263.0</ele><time>2026-04-02T15:14:17.54Z</time></trkpt><trkpt lat="45.6685259" lon="8.8964632"><ele>263.0</ele><time>2026-04-02T15:14:18.539Z</time></trkpt><trkpt lat="45.6686342" lon="8.8964566"><ele>263.0</ele><time>2026-04-02T15:14:19.539Z</time></trkpt><trkpt lat="45.6687359" lon="8.8964458"><ele>263.0</ele><time>2026-04-02T15:14:20.54Z</time></trkpt><trkpt lat="45.6687999" lon="8.896462"><ele>263.0</ele><time>2026-04-02T15:14:21.54Z</time></trkpt><trkpt lat="45.6688979" lon="8.8965097"><ele>263.4</ele><time>2026-04-02T15:14:22.54Z</time></trkpt><trkpt lat="45.6690031" lon="8.8965299"><ele>263.8</ele><time>2026-04-02T15:14:23.539Z</time></trkpt><trkpt lat="45.669106" lon="8.8965303"><ele>264.2</ele><time>2026-04-02T15:14:24.54Z</time></trkpt><trkpt lat="45.6692025" lon="8.8964266"><ele>264.6</ele><time>2026-04-02T15:14:25.54Z</time></trkpt><trkpt lat="45.6693131" lon="8.8964156"><ele>265.0</ele><time>2026-04-02T15:14:26.539Z</time></trkpt><trkpt lat="45.669436" lon="8.8964016"><ele>265.0</ele><time>2026-04-02T15:14:27.54Z</time></trkpt><trkpt lat="45.6695745" lon="8.8963773"><ele>265.0</ele><time>2026-04-02T15:14:28.54Z</time></trkpt><trkpt lat="45.6697012" lon="8.8963593"><ele>265.0</ele><time>2026-04-02T15:14:29.539Z</time></trkpt><trkpt lat="45.6698226" lon="8.8963475"><ele>265.0</ele><time>2026-04-02T15:14:30.539Z</time></trkpt><trkpt lat="45.6699406" lon="8.8963244"><ele>265.0</ele><time>2026-04-02T15:14:31.539Z</time></trkpt><trkpt lat="45.6700544" lon="8.8963037"><ele>265.0</ele><time>2026-04-02T15:14:32.538Z</time></trkpt><trkpt lat="45.670169" lon="8.8962844"><ele>265.0</ele><time>2026-04-02T15:14:33.54Z</time></trkpt><trkpt lat="45.6702879" lon="8.896267"><ele>265.0</ele><time>2026-04-02T15:14:34.539Z</time></trkpt><trkpt lat="45.6704091" lon="8.8962507"><ele>265.5</ele><time>2026-04-02T15:14:35.539Z</time></trkpt><trkpt lat="45.6705343" lon="8.8962233"><ele>266.0</ele><time>2026-04-02T15:14:36.539Z</time></trkpt><trkpt lat="45.6706641" lon="8.8961933"><ele>266.5</ele><time>2026-04-02T15:14:37.54Z</time></trkpt><trkpt lat="45.670794" lon="8.8961642"><ele>267.0</ele><time>2026-04-02T15:14:38.54Z</time></trkpt><trkpt lat="45.6709299" lon="8.8961235"><ele>267.0</ele><time>2026-04-02T15:14:39.54Z</time></trkpt><trkpt lat="45.6710741" lon="8.8960764"><ele>267.0</ele><time>2026-04-02T15:14:40.539Z</time></trkpt><trkpt lat="45.6712149" lon="8.8960294"><ele>267.0</ele><time>2026-04-02T15:14:41.539Z</time></trkpt><trkpt lat="45.6713507" lon="8.895989"><ele>267.0</ele><time>2026-04-02T15:14:42.54Z</time></trkpt><trkpt lat="45.6714788" lon="8.895951"><ele>266.75</ele><time>2026-04-02T15:14:43.54Z</time></trkpt><trkpt lat="45.6715996" lon="8.8959163"><ele>266.5</ele><time>2026-04-02T15:14:44.54Z</time></trkpt><trkpt lat="45.6717193" lon="8.8958768"><ele>266.25</ele><time>2026-04-02T15:14:45.54Z</time></trkpt><trkpt lat="45.6718395" lon="8.8958366"><ele>266.0</ele><time>2026-04-02T15:14:46.54Z</time></trkpt><trkpt lat="45.6719602" lon="8.8957991"><ele>265.5</ele><time>2026-04-02T15:14:47.538Z</time></trkpt><trkpt lat="45.6720832" lon="8.8957635"><ele>265.0</ele><time>2026-04-02T15:14:48.54Z</time></trkpt><trkpt lat="45.6722003" lon="8.8957274"><ele>264.5</ele><time>2026-04-02T15:14:49.539Z</time></trkpt><trkpt lat="45.6723113" lon="8.8956934"><ele>264.0</ele><time>2026-04-02T15:14:50.538Z</time></trkpt><trkpt lat="45.6724147" lon="8.8956584"><ele>264.0</ele><time>2026-04-02T15:14:51.539Z</time></trkpt><trkpt lat="45.6725137" lon="8.8956291"><ele>264.0</ele><time>2026-04-02T15:14:52.54Z</time></trkpt><trkpt lat="45.6726095" lon="8.895596"><ele>264.0</ele><time>2026-04-02T15:14:53.54Z</time></trkpt><trkpt lat="45.6727057" lon="8.8955681"><ele>264.0</ele><time>2026-04-02T15:14:54.54Z</time></trkpt><trkpt lat="45.6727957" lon="8.8955472"><ele>264.0</ele><time>2026-04-02T15:14:55.54Z</time></trkpt><trkpt lat="45.6728847" lon="8.8955212"><ele>263.8</ele><time>2026-04-02T15:14:56.54Z</time></trkpt><trkpt lat="45.6729771" lon="8.895509"><ele>263.59999999999997</ele><time>2026-04-02T15:14:57.539Z</time></trkpt><trkpt lat="45.6730849" lon="8.8955307"><ele>263.4</ele><time>2026-04-02T15:14:58.539Z</time></trkpt><trkpt lat="45.6732025" lon="8.8955239"><ele>263.2</ele><time>2026-04-02T15:14:59.539Z</time></trkpt><trkpt lat="45.6733146" lon="8.8954518"><ele>263.0</ele><time>2026-04-02T15:15:00.539Z</time></trkpt><trkpt lat="45.673435" lon="8.8953804"><ele>263.0</ele><time>2026-04-02T15:15:01.54Z</time></trkpt><trkpt lat="45.6735632" lon="8.8953263"><ele>263.0</ele><time>2026-04-02T15:15:02.54Z</time></trkpt><trkpt lat="45.673682" lon="8.8952744"><ele>263.0</ele><time>2026-04-02T15:15:03.538Z</time></trkpt><trkpt lat="45.6738074" lon="8.8952309"><ele>263.0</ele><time>2026-04-02T15:15:04.539Z</time></trkpt><trkpt lat="45.6739348" lon="8.8951875"><ele>263.75</ele><time>2026-04-02T15:15:05.538Z</time></trkpt><trkpt lat="45.6740608" lon="8.8951599"><ele>264.5</ele><time>2026-04-02T15:15:06.538Z</time></trkpt><trkpt lat="45.6741741" lon="8.8951136"><ele>265.25</ele><time>2026-04-02T15:15:07.538Z</time></trkpt><trkpt lat="45.6742897" lon="8.8950781"><ele>266.0</ele><time>2026-04-02T15:15:08.538Z</time></trkpt><trkpt lat="45.6744093" lon="8.895044"><ele>266.25</ele><time>2026-04-02T15:15:09.538Z</time></trkpt><trkpt lat="45.6745307" lon="8.89501"><ele>266.5</ele><time>2026-04-02T15:15:10.539Z</time></trkpt><trkpt lat="45.6746526" lon="8.8949638"><ele>266.75</ele><time>2026-04-02T15:15:11.539Z</time></trkpt><trkpt lat="45.6747779" lon="8.8949223"><ele>267.0</ele><time>2026-04-02T15:15:12.539Z</time></trkpt><trkpt lat="45.6749098" lon="8.8948775"><ele>267.0</ele><time>2026-04-02T15:15:13.539Z</time></trkpt><trkpt lat="45.6750493" lon="8.8948303"><ele>267.0</ele><time>2026-04-02T15:15:14.539Z</time></trkpt><trkpt lat="45.6751978" lon="8.8947894"><ele>267.0</ele><time>2026-04-02T15:15:15.539Z</time></trkpt><trkpt lat="45.675339" lon="8.8947504"><ele>267.0</ele><time>2026-04-02T15:15:16.539Z</time></trkpt><trkpt lat="45.6754823" lon="8.894709"><ele>266.5</ele><time>2026-04-02T15:15:17.539Z</time></trkpt><trkpt lat="45.6756255" lon="8.8946651"><ele>266.0</ele><time>2026-04-02T15:15:18.538Z</time></trkpt><trkpt lat="45.6757678" lon="8.894624"><ele>265.5</ele><time>2026-04-02T15:15:19.539Z</time></trkpt><trkpt lat="45.6759078" lon="8.8945788"><ele>265.0</ele><time>2026-04-02T15:15:20.539Z</time></trkpt><trkpt lat="45.6760474" lon="8.8945308"><ele>265.5</ele><time>2026-04-02T15:15:21.539Z</time></trkpt><trkpt lat="45.6761869" lon="8.894485"><ele>266.0</ele><time>2026-04-02T15:15:22.539Z</time></trkpt><trkpt lat="45.6763244" lon="8.8944409"><ele>266.5</ele><time>2026-04-02T15:15:23.539Z</time></trkpt><trkpt lat="45.6764626" lon="8.8944027"><ele>267.0</ele><time>2026-04-02T15:15:24.539Z</time></trkpt><trkpt lat="45.6766012" lon="8.8943615"><ele>267.0</ele><time>2026-04-02T15:15:25.538Z</time></trkpt><trkpt lat="45.6767377" lon="8.8943193"><ele>267.0</ele><time>2026-04-02T15:15:26.537Z</time></trkpt><trkpt lat="45.6768732" lon="8.894272"><ele>267.0</ele><time>2026-04-02T15:15:27.539Z</time></trkpt><trkpt lat="45.6770084" lon="8.8942314"><ele>267.0</ele><time>2026-04-02T15:15:28.538Z</time></trkpt><trkpt lat="45.6771468" lon="8.8941994"><ele>268.5</ele><time>2026-04-02T15:15:29.539Z</time></trkpt><trkpt lat="45.6772852" lon="8.894186"><ele>270.0</ele><time>2026-04-02T15:15:30.538Z</time></trkpt><trkpt lat="45.6774223" lon="8.8941964"><ele>271.5</ele><time>2026-04-02T15:15:31.538Z</time></trkpt><trkpt lat="45.6775676" lon="8.8942168"><ele>273.0</ele><time>2026-04-02T15:15:32.539Z</time></trkpt><trkpt lat="45.6777195" lon="8.8942404"><ele>274.25</ele><time>2026-04-02T15:15:33.538Z</time></trkpt><trkpt lat="45.6778685" lon="8.8942623"><ele>275.5</ele><time>2026-04-02T15:15:34.538Z</time></trkpt><trkpt lat="45.6780143" lon="8.8942803"><ele>276.75</ele><time>2026-04-02T15:15:35.537Z</time></trkpt><trkpt lat="45.6781641" lon="8.8942974"><ele>278.0</ele><time>2026-04-02T15:15:36.539Z</time></trkpt><trkpt lat="45.6783115" lon="8.8943175"><ele>278.0</ele><time>2026-04-02T15:15:37.539Z</time></trkpt><trkpt lat="45.6784532" lon="8.8943379"><ele>278.0</ele><time>2026-04-02T15:15:38.538Z</time></trkpt><trkpt lat="45.6785902" lon="8.8943628"><ele>278.0</ele><time>2026-04-02T15:15:39.538Z</time></trkpt><trkpt lat="45.6787278" lon="8.8943806"><ele>278.0</ele><time>2026-04-02T15:15:40.537Z</time></trkpt><trkpt lat="45.6788721" lon="8.8944051"><ele>277.6666666666667</ele><time>2026-04-02T15:15:41.539Z</time></trkpt><trkpt lat="45.6790166" lon="8.8944242"><ele>277.3333333333333</ele><time>2026-04-02T15:15:42.538Z</time></trkpt><trkpt lat="45.6791656" lon="8.8944435"><ele>277.0</ele><time>2026-04-02T15:15:43.539Z</time></trkpt><trkpt lat="45.6793214" lon="8.8944658"><ele>276.25</ele><time>2026-04-02T15:15:44.538Z</time></trkpt><trkpt lat="45.6794729" lon="8.8944878"><ele>275.5</ele><time>2026-04-02T15:15:45.539Z</time></trkpt><trkpt lat="45.6796198" lon="8.8945125"><ele>274.75</ele><time>2026-04-02T15:15:46.539Z</time></trkpt><trkpt lat="45.6797653" lon="8.894533"><ele>274.0</ele><time>2026-04-02T15:15:47.538Z</time></trkpt><trkpt lat="45.6799122" lon="8.8945537"><ele>274.0</ele><time>2026-04-02T15:15:48.539Z</time></trkpt><trkpt lat="45.6800672" lon="8.8945728"><ele>274.0</ele><time>2026-04-02T15:15:49.539Z</time></trkpt><trkpt lat="45.6802259" lon="8.8945924"><ele>274.0</ele><time>2026-04-02T15:15:50.538Z</time></trkpt><trkpt lat="45.6803795" lon="8.8945999"><ele>273.0</ele><time>2026-04-02T15:15:51.539Z</time></trkpt><trkpt lat="45.6805297" lon="8.8945974"><ele>272.0</ele><time>2026-04-02T15:15:52.538Z</time></trkpt><trkpt lat="45.6806817" lon="8.8945775"><ele>271.0</ele><time>2026-04-02T15:15:53.538Z</time></trkpt><trkpt lat="45.6808367" lon="8.8945474"><ele>271.0</ele><time>2026-04-02T15:15:54.539Z</time></trkpt><trkpt lat="45.6809954" lon="8.894509"><ele>271.0</ele><time>2026-04-02T15:15:55.539Z</time></trkpt><trkpt lat="45.6811475" lon="8.8944699"><ele>271.0</ele><time>2026-04-02T15:15:56.538Z</time></trkpt><trkpt lat="45.681302" lon="8.8944319"><ele>271.75</ele><time>2026-04-02T15:15:57.538Z</time></trkpt><trkpt lat="45.6814528" lon="8.8944013"><ele>272.5</ele><time>2026-04-02T15:15:58.538Z</time></trkpt><trkpt lat="45.6816008" lon="8.8943705"><ele>273.25</ele><time>2026-04-02T15:15:59.539Z</time></trkpt><trkpt lat="45.6817441" lon="8.8943379"><ele>274.0</ele><time>2026-04-02T15:16:00.539Z</time></trkpt><trkpt lat="45.6818889" lon="8.8943034"><ele>275.25</ele><time>2026-04-02T15:16:01.538Z</time></trkpt><trkpt lat="45.682033" lon="8.8942696"><ele>276.5</ele><time>2026-04-02T15:16:02.538Z</time></trkpt><trkpt lat="45.6821796" lon="8.894239"><ele>277.75</ele><time>2026-04-02T15:16:03.539Z</time></trkpt><trkpt lat="45.6823256" lon="8.8942058"><ele>279.0</ele><time>2026-04-02T15:16:04.539Z</time></trkpt><trkpt lat="45.6824779" lon="8.8941687"><ele>279.0</ele><time>2026-04-02T15:16:05.538Z</time></trkpt><trkpt lat="45.6826291" lon="8.8941312"><ele>279.0</ele><time>2026-04-02T15:16:06.537Z</time></trkpt><trkpt lat="45.6827853" lon="8.8940944"><ele>279.0</ele><time>2026-04-02T15:16:07.539Z</time></trkpt><trkpt lat="45.6829457" lon="8.8940571"><ele>279.6666666666667</ele><time>2026-04-02T15:16:08.538Z</time></trkpt><trkpt lat="45.6831055" lon="8.8940161"><ele>280.33333333333337</ele><time>2026-04-02T15:16:09.539Z</time></trkpt><trkpt lat="45.6832613" lon="8.893976"><ele>281.0</ele><time>2026-04-02T15:16:10.539Z</time></trkpt><trkpt lat="45.6834133" lon="8.8939343"><ele>281.0</ele><time>2026-04-02T15:16:11.538Z</time></trkpt><trkpt lat="45.6835593" lon="8.8938966"><ele>281.0</ele><time>2026-04-02T15:16:12.538Z</time></trkpt><trkpt lat="45.6837118" lon="8.8938644"><ele>281.0</ele><time>2026-04-02T15:16:13.539Z</time></trkpt><trkpt lat="45.6838649" lon="8.8938293"><ele>280.5</ele><time>2026-04-02T15:16:14.537Z</time></trkpt><trkpt lat="45.68401" lon="8.8937984"><ele>280.0</ele><time>2026-04-02T15:16:15.538Z</time></trkpt><trkpt lat="45.6841611" lon="8.8937651"><ele>279.5</ele><time>2026-04-02T15:16:16.539Z</time></trkpt><trkpt lat="45.6843082" lon="8.8937301"><ele>279.0</ele><time>2026-04-02T15:16:17.539Z</time></trkpt><trkpt lat="45.6844557" lon="8.8936883"><ele>278.6666666666667</ele><time>2026-04-02T15:16:18.538Z</time></trkpt><trkpt lat="45.6846061" lon="8.8936534"><ele>278.33333333333337</ele><time>2026-04-02T15:16:19.538Z</time></trkpt><trkpt lat="45.6847665" lon="8.8936153"><ele>278.0</ele><time>2026-04-02T15:16:20.539Z</time></trkpt><trkpt lat="45.6849261" lon="8.8935722"><ele>278.0</ele><time>2026-04-02T15:16:21.539Z</time></trkpt><trkpt lat="45.6850792" lon="8.8935349"><ele>278.0</ele><time>2026-04-02T15:16:22.538Z</time></trkpt><trkpt lat="45.6852284" lon="8.8935015"><ele>278.0</ele><time>2026-04-02T15:16:23.539Z</time></trkpt><trkpt lat="45.6853723" lon="8.8934651"><ele>278.5</ele><time>2026-04-02T15:16:24.539Z</time></trkpt><trkpt lat="45.6855166" lon="8.8934271"><ele>279.0</ele><time>2026-04-02T15:16:25.538Z</time></trkpt><trkpt lat="45.6856636" lon="8.8933888"><ele>279.5</ele><time>2026-04-02T15:16:26.537Z</time></trkpt><trkpt lat="45.6858113" lon="8.893356"><ele>280.0</ele><time>2026-04-02T15:16:27.538Z</time></trkpt><trkpt lat="45.685959" lon="8.8933211"><ele>280.0</ele><time>2026-04-02T15:16:28.539Z</time></trkpt><trkpt lat="45.6861026" lon="8.8932838"><ele>280.0</ele><time>2026-04-02T15:16:29.539Z</time></trkpt><trkpt lat="45.6862561" lon="8.8932503"><ele>280.0</ele><time>2026-04-02T15:16:30.538Z</time></trkpt><trkpt lat="45.6864102" lon="8.8932078"><ele>280.0</ele><time>2026-04-02T15:16:31.539Z</time></trkpt><trkpt lat="45.6865635" lon="8.8931716"><ele>280.0</ele><time>2026-04-02T15:16:32.539Z</time></trkpt><trkpt lat="45.6867183" lon="8.8931349"><ele>280.0</ele><time>2026-04-02T15:16:33.538Z</time></trkpt><trkpt lat="45.6868721" lon="8.8930996"><ele>280.5</ele><time>2026-04-02T15:16:34.538Z</time></trkpt><trkpt lat="45.6870188" lon="8.8930692"><ele>281.0</ele><time>2026-04-02T15:16:35.539Z</time></trkpt><trkpt lat="45.6871587" lon="8.8930386"><ele>281.5</ele><time>2026-04-02T15:16:36.539Z</time></trkpt><trkpt lat="45.6872959" lon="8.8930129"><ele>282.0</ele><time>2026-04-02T15:16:37.539Z</time></trkpt><trkpt lat="45.6874393" lon="8.8929863"><ele>282.0</ele><time>2026-04-02T15:16:38.539Z</time></trkpt><trkpt lat="45.6875829" lon="8.8929573"><ele>282.0</ele><time>2026-04-02T15:16:39.538Z</time></trkpt><trkpt lat="45.6877175" lon="8.8929322"><ele>282.0</ele><time>2026-04-02T15:16:40.539Z</time></trkpt><trkpt lat="45.6878411" lon="8.8929056"><ele>282.0</ele><time>2026-04-02T15:16:41.539Z</time></trkpt><trkpt lat="45.6879585" lon="8.8928814"><ele>282.0</ele><time>2026-04-02T15:16:42.538Z</time></trkpt><trkpt lat="45.6880755" lon="8.8928637"><ele>282.0</ele><time>2026-04-02T15:16:43.538Z</time></trkpt><trkpt lat="45.6881677" lon="8.8928435"><ele>282.0</ele><time>2026-04-02T15:16:44.538Z</time></trkpt><trkpt lat="45.6882603" lon="8.8928229"><ele>282.0</ele><time>2026-04-02T15:16:45.537Z</time></trkpt><trkpt lat="45.6883397" lon="8.892809"><ele>282.0</ele><time>2026-04-02T15:16:46.538Z</time></trkpt><trkpt lat="45.6884189" lon="8.8927902"><ele>282.0</ele><time>2026-04-02T15:16:47.538Z</time></trkpt><trkpt lat="45.6885011" lon="8.8927784"><ele>282.0</ele><time>2026-04-02T15:16:48.539Z</time></trkpt><trkpt lat="45.6885791" lon="8.8927627"><ele>282.0</ele><time>2026-04-02T15:16:49.538Z</time></trkpt><trkpt lat="45.6886501" lon="8.892747"><ele>282.0</ele><time>2026-04-02T15:16:50.539Z</time></trkpt><trkpt lat="45.6887293" lon="8.8927314"><ele>282.0</ele><time>2026-04-02T15:16:51.537Z</time></trkpt><trkpt lat="45.6888051" lon="8.8927175"><ele>282.0</ele><time>2026-04-02T15:16:52.539Z</time></trkpt><trkpt lat="45.6888787" lon="8.8926972"><ele>281.6666666666667</ele><time>2026-04-02T15:16:53.538Z</time></trkpt><trkpt lat="45.6889529" lon="8.8926658"><ele>281.3333333333333</ele><time>2026-04-02T15:16:54.539Z</time></trkpt><trkpt lat="45.6890275" lon="8.892623"><ele>281.0</ele><time>2026-04-02T15:16:55.539Z</time></trkpt><trkpt lat="45.6891071" lon="8.8925775"><ele>280.66666666666663</ele><time>2026-04-02T15:16:56.538Z</time></trkpt><trkpt lat="45.6891979" lon="8.892547"><ele>280.3333333333333</ele><time>2026-04-02T15:16:57.538Z</time></trkpt><trkpt lat="45.6892885" lon="8.8925481"><ele>280.0</ele><time>2026-04-02T15:16:58.538Z</time></trkpt><trkpt lat="45.6893832" lon="8.8925707"><ele>279.25</ele><time>2026-04-02T15:16:59.538Z</time></trkpt><trkpt lat="45.6894795" lon="8.8926279"><ele>278.5</ele><time>2026-04-02T15:17:00.538Z</time></trkpt><trkpt lat="45.6895691" lon="8.8927414"><ele>277.75</ele><time>2026-04-02T15:17:01.538Z</time></trkpt><trkpt lat="45.6896594" lon="8.8929127"><ele>277.0</ele><time>2026-04-02T15:17:02.538Z</time></trkpt><trkpt lat="45.6897442" lon="8.8930938"><ele>277.0</ele><time>2026-04-02T15:17:03.539Z</time></trkpt><trkpt lat="45.6898273" lon="8.8932814"><ele>277.0</ele><time>2026-04-02T15:17:04.538Z</time></trkpt><trkpt lat="45.6899104" lon="8.8934818"><ele>277.0</ele><time>2026-04-02T15:17:05.539Z</time></trkpt><trkpt lat="45.689998" lon="8.8936952"><ele>276.66666666666663</ele><time>2026-04-02T15:17:06.539Z</time></trkpt><trkpt lat="45.6900781" lon="8.893902"><ele>276.3333333333333</ele><time>2026-04-02T15:17:07.538Z</time></trkpt><trkpt lat="45.6901559" lon="8.8941026"><ele>276.0</ele><time>2026-04-02T15:17:08.539Z</time></trkpt><trkpt lat="45.6902318" lon="8.8943013"><ele>276.0</ele><time>2026-04-02T15:17:09.538Z</time></trkpt><trkpt lat="45.6903121" lon="8.8945011"><ele>276.0</ele><time>2026-04-02T15:17:10.539Z</time></trkpt><trkpt lat="45.6903895" lon="8.894704"><ele>276.0</ele><time>2026-04-02T15:17:11.538Z</time></trkpt><trkpt lat="45.6904699" lon="8.894912"><ele>277.0</ele><time>2026-04-02T15:17:12.538Z</time></trkpt><trkpt lat="45.6905423" lon="8.8951247"><ele>278.0</ele><time>2026-04-02T15:17:13.537Z</time></trkpt><trkpt lat="45.6906058" lon="8.8953261"><ele>279.0</ele><time>2026-04-02T15:17:14.539Z</time></trkpt><trkpt lat="45.6906607" lon="8.8955474"><ele>279.0</ele><time>2026-04-02T15:17:15.538Z</time></trkpt><trkpt lat="45.6907064" lon="8.8957761"><ele>279.0</ele><time>2026-04-02T15:17:16.538Z</time></trkpt><trkpt lat="45.6907491" lon="8.896008"><ele>279.0</ele><time>2026-04-02T15:17:17.539Z</time></trkpt><trkpt lat="45.6907928" lon="8.8962392"><ele>279.6666666666667</ele><time>2026-04-02T15:17:18.538Z</time></trkpt><trkpt lat="45.6908329" lon="8.8964748"><ele>280.33333333333337</ele><time>2026-04-02T15:17:19.538Z</time></trkpt><trkpt lat="45.6908653" lon="8.8967048"><ele>281.0</ele><time>2026-04-02T15:17:20.537Z</time></trkpt><trkpt lat="45.690898" lon="8.8969391"><ele>281.6666666666667</ele><time>2026-04-02T15:17:21.539Z</time></trkpt><trkpt lat="45.6909261" lon="8.8971717"><ele>282.3333333333333</ele><time>2026-04-02T15:17:22.539Z</time></trkpt><trkpt lat="45.6909526" lon="8.8974091"><ele>283.0</ele><time>2026-04-02T15:17:23.538Z</time></trkpt><trkpt lat="45.6909761" lon="8.8976446"><ele>283.66666666666663</ele><time>2026-04-02T15:17:24.537Z</time></trkpt><trkpt lat="45.6910004" lon="8.8978839"><ele>284.3333333333333</ele><time>2026-04-02T15:17:25.539Z</time></trkpt><trkpt lat="45.6910393" lon="8.898125"><ele>285.0</ele><time>2026-04-02T15:17:26.539Z</time></trkpt><trkpt lat="45.6910962" lon="8.8983608"><ele>285.3333333333333</ele><time>2026-04-02T15:17:27.539Z</time></trkpt><trkpt lat="45.691164" lon="8.8985848"><ele>285.66666666666663</ele><time>2026-04-02T15:17:28.538Z</time></trkpt><trkpt lat="45.6912343" lon="8.8987967"><ele>286.0</ele><time>2026-04-02T15:17:29.538Z</time></trkpt><trkpt lat="45.691307" lon="8.8990002"><ele>286.0</ele><time>2026-04-02T15:17:30.537Z</time></trkpt><trkpt lat="45.6913751" lon="8.8992069"><ele>286.0</ele><time>2026-04-02T15:17:31.539Z</time></trkpt><trkpt lat="45.6914496" lon="8.8994101"><ele>286.0</ele><time>2026-04-02T15:17:32.538Z</time></trkpt><trkpt lat="45.6915224" lon="8.8996188"><ele>285.0</ele><time>2026-04-02T15:17:33.538Z</time></trkpt><trkpt lat="45.6915945" lon="8.8998241"><ele>284.0</ele><time>2026-04-02T15:17:34.539Z</time></trkpt><trkpt lat="45.6916615" lon="8.9000234"><ele>283.0</ele><time>2026-04-02T15:17:35.538Z</time></trkpt><trkpt lat="45.6917297" lon="8.9002144"><ele>283.25</ele><time>2026-04-02T15:17:36.537Z</time></trkpt><trkpt lat="45.6917983" lon="8.9004038"><ele>283.5</ele><time>2026-04-02T15:17:37.537Z</time></trkpt><trkpt lat="45.6918671" lon="8.9005956"><ele>283.75</ele><time>2026-04-02T15:17:38.539Z</time></trkpt><trkpt lat="45.6919323" lon="8.900788"><ele>284.0</ele><time>2026-04-02T15:17:39.539Z</time></trkpt><trkpt lat="45.6919972" lon="8.90097"><ele>284.0</ele><time>2026-04-02T15:17:40.538Z</time></trkpt><trkpt lat="45.6920607" lon="8.9011431"><ele>284.0</ele><time>2026-04-02T15:17:41.538Z</time></trkpt><trkpt lat="45.6921255" lon="8.90131"><ele>284.0</ele><time>2026-04-02T15:17:42.538Z</time></trkpt><trkpt lat="45.6921798" lon="8.9014645"><ele>284.0</ele><time>2026-04-02T15:17:43.539Z</time></trkpt><trkpt lat="45.6922363" lon="8.9016222"><ele>283.5</ele><time>2026-04-02T15:17:44.538Z</time></trkpt><trkpt lat="45.6922927" lon="8.9017828"><ele>283.0</ele><time>2026-04-02T15:17:45.539Z</time></trkpt><trkpt lat="45.6923512" lon="8.9019422"><ele>282.5</ele><time>2026-04-02T15:17:46.539Z</time></trkpt><trkpt lat="45.692409" lon="8.9020995"><ele>282.0</ele><time>2026-04-02T15:17:47.539Z</time></trkpt><trkpt lat="45.6924648" lon="8.9022603"><ele>282.0</ele><time>2026-04-02T15:17:48.538Z</time></trkpt><trkpt lat="45.6925233" lon="8.9024257"><ele>282.0</ele><time>2026-04-02T15:17:49.538Z</time></trkpt><trkpt lat="45.6925739" lon="8.9025893"><ele>282.0</ele><time>2026-04-02T15:17:50.539Z</time></trkpt><trkpt lat="45.6926228" lon="8.9027618"><ele>282.0</ele><time>2026-04-02T15:17:51.539Z</time></trkpt><trkpt lat="45.6926694" lon="8.9029383"><ele>282.0</ele><time>2026-04-02T15:17:52.539Z</time></trkpt><trkpt lat="45.6927136" lon="8.9031169"><ele>282.0</ele><time>2026-04-02T15:17:53.538Z</time></trkpt><trkpt lat="45.692757" lon="8.9033023"><ele>282.0</ele><time>2026-04-02T15:17:54.539Z</time></trkpt><trkpt lat="45.6927997" lon="8.9034839"><ele>282.0</ele><time>2026-04-02T15:17:55.539Z</time></trkpt><trkpt lat="45.6928428" lon="8.903674"><ele>280.5</ele><time>2026-04-02T15:17:56.538Z</time></trkpt><trkpt lat="45.6928856" lon="8.9038728"><ele>279.0</ele><time>2026-04-02T15:17:57.537Z</time></trkpt><trkpt lat="45.6929253" lon="8.9040715"><ele>277.5</ele><time>2026-04-02T15:17:58.539Z</time></trkpt><trkpt lat="45.6929665" lon="8.9042755"><ele>276.0</ele><time>2026-04-02T15:17:59.538Z</time></trkpt><trkpt lat="45.6930028" lon="8.9044665"><ele>275.6666666666667</ele><time>2026-04-02T15:18:00.538Z</time></trkpt><trkpt lat="45.693042" lon="8.9046825"><ele>275.33333333333337</ele><time>2026-04-02T15:18:01.538Z</time></trkpt><trkpt lat="45.6930738" lon="8.9048972"><ele>275.0</ele><time>2026-04-02T15:18:02.539Z</time></trkpt><trkpt lat="45.6931051" lon="8.9051129"><ele>274.6666666666667</ele><time>2026-04-02T15:18:03.538Z</time></trkpt><trkpt lat="45.6931365" lon="8.9053323"><ele>274.3333333333333</ele><time>2026-04-02T15:18:04.539Z</time></trkpt><trkpt lat="45.6931647" lon="8.9055566"><ele>274.0</ele><time>2026-04-02T15:18:05.539Z</time></trkpt><trkpt lat="45.6931952" lon="8.905786"><ele>274.0</ele><time>2026-04-02T15:18:06.538Z</time></trkpt><trkpt lat="45.6932238" lon="8.9060004"><ele>274.0</ele><time>2026-04-02T15:18:07.539Z</time></trkpt><trkpt lat="45.6932493" lon="8.9062034"><ele>274.0</ele><time>2026-04-02T15:18:08.539Z</time></trkpt><trkpt lat="45.6932903" lon="8.9063978"><ele>274.0</ele><time>2026-04-02T15:18:09.539Z</time></trkpt><trkpt lat="45.6933406" lon="8.9065919"><ele>275.3333333333333</ele><time>2026-04-02T15:18:10.539Z</time></trkpt><trkpt lat="45.6933986" lon="8.9067854"><ele>276.6666666666667</ele><time>2026-04-02T15:18:11.539Z</time></trkpt><trkpt lat="45.6934621" lon="8.9069815"><ele>278.0</ele><time>2026-04-02T15:18:12.539Z</time></trkpt><trkpt lat="45.6935312" lon="8.9071768"><ele>277.75</ele><time>2026-04-02T15:18:13.539Z</time></trkpt><trkpt lat="45.6935974" lon="8.907365"><ele>277.5</ele><time>2026-04-02T15:18:14.537Z</time></trkpt><trkpt lat="45.6936616" lon="8.9075419"><ele>277.25</ele><time>2026-04-02T15:18:15.538Z</time></trkpt><trkpt lat="45.6937189" lon="8.9076939"><ele>277.0</ele><time>2026-04-02T15:18:16.538Z</time></trkpt><trkpt lat="45.6937662" lon="8.9078143"><ele>277.5</ele><time>2026-04-02T15:18:17.538Z</time></trkpt><trkpt lat="45.6938057" lon="8.9079064"><ele>278.0</ele><time>2026-04-02T15:18:18.537Z</time></trkpt><trkpt lat="45.6938678" lon="8.9080447"><ele>278.5</ele><time>2026-04-02T15:18:20.538Z</time></trkpt><trkpt lat="45.6939094" lon="8.9081657"><ele>279.0</ele><time>2026-04-02T15:18:22.537Z</time></trkpt><trkpt lat="45.6939309" lon="8.9082688"><ele>279.5</ele><time>2026-04-02T15:18:24.537Z</time></trkpt><trkpt lat="45.6939456" lon="8.9083861"><ele>280.0</ele><time>2026-04-02T15:18:27.538Z</time></trkpt><trkpt lat="45.6939548" lon="8.9085132"><ele>280.2</ele><time>2026-04-02T15:18:29.537Z</time></trkpt><trkpt lat="45.6939908" lon="8.9086437"><ele>280.4</ele><time>2026-04-02T15:18:31.538Z</time></trkpt><trkpt lat="45.6940808" lon="8.9087333"><ele>280.6</ele><time>2026-04-02T15:18:33.538Z</time></trkpt><trkpt lat="45.6941379" lon="8.9087727"><ele>280.8</ele><time>2026-04-02T15:18:34.538Z</time></trkpt><trkpt lat="45.6942429" lon="8.9088605"><ele>281.0</ele><time>2026-04-02T15:18:36.537Z</time></trkpt><trkpt lat="45.6943302" lon="8.9089758"><ele>281.0</ele><time>2026-04-02T15:18:38.538Z</time></trkpt><trkpt lat="45.6943736" lon="8.9090414"><ele>281.0</ele><time>2026-04-02T15:18:39.538Z</time></trkpt><trkpt lat="45.6944175" lon="8.9091135"><ele>281.0</ele><time>2026-04-02T15:18:40.537Z</time></trkpt><trkpt lat="45.6944596" lon="8.9091832"><ele>281.0</ele><time>2026-04-02T15:18:41.537Z</time></trkpt><trkpt lat="45.6945235" lon="8.9092814"><ele>281.0</ele><time>2026-04-02T15:18:42.537Z</time></trkpt><trkpt lat="45.6945782" lon="8.9093709"><ele>281.0</ele><time>2026-04-02T15:18:43.537Z</time></trkpt><trkpt lat="45.6946278" lon="8.9094605"><ele>281.1666666666667</ele><time>2026-04-02T15:18:44.538Z</time></trkpt><trkpt lat="45.6946735" lon="8.9095387"><ele>281.33333333333337</ele><time>2026-04-02T15:18:45.538Z</time></trkpt><trkpt lat="45.6947464" lon="8.9096586"><ele>281.5</ele><time>2026-04-02T15:18:47.537Z</time></trkpt><trkpt lat="45.694808" lon="8.9097484"><ele>281.6666666666667</ele><time>2026-04-02T15:18:49.538Z</time></trkpt><trkpt lat="45.6948619" lon="8.9098419"><ele>281.8333333333333</ele><time>2026-04-02T15:18:51.538Z</time></trkpt><trkpt lat="45.6949118" lon="8.9099217"><ele>282.0</ele><time>2026-04-02T15:18:53.538Z</time></trkpt><trkpt lat="45.6949921" lon="8.9100283"><ele>281.6</ele><time>2026-04-02T15:18:55.538Z</time></trkpt><trkpt lat="45.6950472" lon="8.9101054"><ele>281.2</ele><time>2026-04-02T15:18:56.537Z</time></trkpt><trkpt lat="45.695113" lon="8.9101987"><ele>280.8</ele><time>2026-04-02T15:18:57.537Z</time></trkpt><trkpt lat="45.6951922" lon="8.9102964"><ele>280.4</ele><time>2026-04-02T15:18:58.537Z</time></trkpt><trkpt lat="45.6952675" lon="8.9103948"><ele>280.0</ele><time>2026-04-02T15:18:59.537Z</time></trkpt><trkpt lat="45.6953365" lon="8.9104873"><ele>281.4</ele><time>2026-04-02T15:19:00.537Z</time></trkpt><trkpt lat="45.6954018" lon="8.9105667"><ele>282.8</ele><time>2026-04-02T15:19:01.538Z</time></trkpt><trkpt lat="45.6954593" lon="8.9106314"><ele>284.2</ele><time>2026-04-02T15:19:02.538Z</time></trkpt><trkpt lat="45.6955088" lon="8.9106896"><ele>285.6</ele><time>2026-04-02T15:19:03.537Z</time></trkpt><trkpt lat="45.6955917" lon="8.910786"><ele>287.0</ele><time>2026-04-02T15:19:05.538Z</time></trkpt><trkpt lat="45.6956885" lon="8.9108941"><ele>287.0</ele><time>2026-04-02T15:19:07.537Z</time></trkpt><trkpt lat="45.6957377" lon="8.9109518"><ele>287.0</ele><time>2026-04-02T15:19:08.537Z</time></trkpt><trkpt lat="45.6957869" lon="8.9110118"><ele>287.0</ele><time>2026-04-02T15:19:09.538Z</time></trkpt><trkpt lat="45.6958359" lon="8.911077"><ele>287.0</ele><time>2026-04-02T15:19:10.538Z</time></trkpt><trkpt lat="45.6958898" lon="8.9111424"><ele>287.0</ele><time>2026-04-02T15:19:11.538Z</time></trkpt><trkpt lat="45.6959408" lon="8.9112111"><ele>287.0</ele><time>2026-04-02T15:19:12.538Z</time></trkpt><trkpt lat="45.6959947" lon="8.9112837"><ele>287.0</ele><time>2026-04-02T15:19:13.538Z</time></trkpt><trkpt lat="45.6960524" lon="8.9113567"><ele>287.0</ele><time>2026-04-02T15:19:14.538Z</time></trkpt><trkpt lat="45.6961103" lon="8.9114348"><ele>287.0</ele><time>2026-04-02T15:19:15.538Z</time></trkpt><trkpt lat="45.6961704" lon="8.9115148"><ele>287.0</ele><time>2026-04-02T15:19:16.537Z</time></trkpt><trkpt lat="45.6962331" lon="8.9115936"><ele>287.0</ele><time>2026-04-02T15:19:17.537Z</time></trkpt><trkpt lat="45.6962908" lon="8.9116676"><ele>287.0</ele><time>2026-04-02T15:19:18.537Z</time></trkpt><trkpt lat="45.6963445" lon="8.9117405"><ele>287.0</ele><time>2026-04-02T15:19:19.537Z</time></trkpt><trkpt lat="45.6963954" lon="8.9118112"><ele>286.83333333333337</ele><time>2026-04-02T15:19:20.537Z</time></trkpt><trkpt lat="45.6964449" lon="8.9118833"><ele>286.6666666666667</ele><time>2026-04-02T15:19:21.537Z</time></trkpt><trkpt lat="45.696495" lon="8.9119493"><ele>286.5</ele><time>2026-04-02T15:19:22.537Z</time></trkpt><trkpt lat="45.6965503" lon="8.9120246"><ele>286.3333333333333</ele><time>2026-04-02T15:19:23.538Z</time></trkpt><trkpt lat="45.6966001" lon="8.9120992"><ele>286.16666666666663</ele><time>2026-04-02T15:19:24.538Z</time></trkpt><trkpt lat="45.6966933" lon="8.9122199"><ele>286.0</ele><time>2026-04-02T15:19:26.537Z</time></trkpt><trkpt lat="45.6967415" lon="8.9122847"><ele>286.0</ele><time>2026-04-02T15:19:27.537Z</time></trkpt><trkpt lat="45.696795" lon="8.9123522"><ele>286.0</ele><time>2026-04-02T15:19:28.537Z</time></trkpt><trkpt lat="45.6968475" lon="8.9124202"><ele>286.0</ele><time>2026-04-02T15:19:29.536Z</time></trkpt><trkpt lat="45.6968922" lon="8.9124889"><ele>286.0</ele><time>2026-04-02T15:19:30.537Z</time></trkpt><trkpt lat="45.6969647" lon="8.9125957"><ele>286.0</ele><time>2026-04-02T15:19:32.537Z</time></trkpt><trkpt lat="45.6970436" lon="8.9127056"><ele>286.0</ele><time>2026-04-02T15:19:34.537Z</time></trkpt><trkpt lat="45.697114" lon="8.9128279"><ele>286.2</ele><time>2026-04-02T15:19:36.536Z</time></trkpt><trkpt lat="45.6971507" lon="8.9129903"><ele>286.40000000000003</ele><time>2026-04-02T15:19:38.537Z</time></trkpt><trkpt lat="45.6971875" lon="8.913135"><ele>286.6</ele><time>2026-04-02T15:19:40.537Z</time></trkpt><trkpt lat="45.6972713" lon="8.9132406"><ele>286.8</ele><time>2026-04-02T15:19:42.537Z</time></trkpt><trkpt lat="45.6973326" lon="8.913271"><ele>287.0</ele><time>2026-04-02T15:19:43.537Z</time></trkpt><trkpt lat="45.6974014" lon="8.9133187"><ele>287.0</ele><time>2026-04-02T15:19:44.538Z</time></trkpt><trkpt lat="45.6974678" lon="8.9133953"><ele>287.0</ele><time>2026-04-02T15:19:45.538Z</time></trkpt><trkpt lat="45.6975304" lon="8.9134863"><ele>287.0</ele><time>2026-04-02T15:19:46.538Z</time></trkpt><trkpt lat="45.6975852" lon="8.9135763"><ele>287.0</ele><time>2026-04-02T15:19:47.538Z</time></trkpt><trkpt lat="45.6976347" lon="8.9136689"><ele>287.0</ele><time>2026-04-02T15:19:48.538Z</time></trkpt><trkpt lat="45.6976775" lon="8.9137514"><ele>287.0</ele><time>2026-04-02T15:19:49.538Z</time></trkpt><trkpt lat="45.6977185" lon="8.9138829"><ele>287.1666666666667</ele><time>2026-04-02T15:19:51.538Z</time></trkpt><trkpt lat="45.6977445" lon="8.9139705"><ele>287.33333333333337</ele><time>2026-04-02T15:19:53.537Z</time></trkpt><trkpt lat="45.6977686" lon="8.9140799"><ele>287.5</ele><time>2026-04-02T15:19:55.537Z</time></trkpt><trkpt lat="45.6978047" lon="8.9142216"><ele>287.6666666666667</ele><time>2026-04-02T15:19:57.538Z</time></trkpt><trkpt lat="45.6979084" lon="8.9143153"><ele>287.8333333333333</ele><time>2026-04-02T15:19:59.537Z</time></trkpt><trkpt lat="45.697979" lon="8.9143113"><ele>288.0</ele><time>2026-04-02T15:20:00.537Z</time></trkpt><trkpt lat="45.6980507" lon="8.9142741"><ele>288.2</ele><time>2026-04-02T15:20:01.538Z</time></trkpt><trkpt lat="45.6981069" lon="8.9142012"><ele>288.4</ele><time>2026-04-02T15:20:02.538Z</time></trkpt><trkpt lat="45.6981521" lon="8.9141008"><ele>288.59999999999997</ele><time>2026-04-02T15:20:03.537Z</time></trkpt><trkpt lat="45.6981935" lon="8.9139772"><ele>288.8</ele><time>2026-04-02T15:20:04.538Z</time></trkpt><trkpt lat="45.6982501" lon="8.9138362"><ele>289.0</ele><time>2026-04-02T15:20:05.538Z</time></trkpt><trkpt lat="45.6983182" lon="8.9137128"><ele>289.0</ele><time>2026-04-02T15:20:06.538Z</time></trkpt><trkpt lat="45.6983941" lon="8.9135806"><ele>289.0</ele><time>2026-04-02T15:20:07.538Z</time></trkpt><trkpt lat="45.6984849" lon="8.9134348"><ele>289.0</ele><time>2026-04-02T15:20:08.537Z</time></trkpt><trkpt lat="45.6985958" lon="8.9132746"><ele>289.0</ele><time>2026-04-02T15:20:09.537Z</time></trkpt><trkpt lat="45.6987048" lon="8.9131103"><ele>288.66666666666663</ele><time>2026-04-02T15:20:10.538Z</time></trkpt><trkpt lat="45.6988138" lon="8.9129479"><ele>288.3333333333333</ele><time>2026-04-02T15:20:11.537Z</time></trkpt><trkpt lat="45.6989321" lon="8.9127765"><ele>288.0</ele><time>2026-04-02T15:20:12.537Z</time></trkpt><trkpt lat="45.6990466" lon="8.9126109"><ele>288.25</ele><time>2026-04-02T15:20:13.537Z</time></trkpt><trkpt lat="45.6991535" lon="8.9124525"><ele>288.5</ele><time>2026-04-02T15:20:14.537Z</time></trkpt><trkpt lat="45.6992573" lon="8.9122969"><ele>288.75</ele><time>2026-04-02T15:20:15.537Z</time></trkpt><trkpt lat="45.6993574" lon="8.9121539"><ele>289.0</ele><time>2026-04-02T15:20:16.537Z</time></trkpt><trkpt lat="45.699452" lon="8.9120146"><ele>289.0</ele><time>2026-04-02T15:20:17.538Z</time></trkpt><trkpt lat="45.6995472" lon="8.9118799"><ele>289.0</ele><time>2026-04-02T15:20:18.538Z</time></trkpt><trkpt lat="45.6996388" lon="8.9117408"><ele>289.0</ele><time>2026-04-02T15:20:19.538Z</time></trkpt><trkpt lat="45.6997302" lon="8.9116099"><ele>289.0</ele><time>2026-04-02T15:20:20.538Z</time></trkpt><trkpt lat="45.6998156" lon="8.911486"><ele>289.2</ele><time>2026-04-02T15:20:21.538Z</time></trkpt><trkpt lat="45.699905" lon="8.9113704"><ele>289.4</ele><time>2026-04-02T15:20:22.536Z</time></trkpt><trkpt lat="45.6999773" lon="8.9112809"><ele>289.6</ele><time>2026-04-02T15:20:23.536Z</time></trkpt><trkpt lat="45.7000455" lon="8.9111953"><ele>289.8</ele><time>2026-04-02T15:20:24.537Z</time></trkpt><trkpt lat="45.7001083" lon="8.9111222"><ele>290.0</ele><time>2026-04-02T15:20:25.537Z</time></trkpt><trkpt lat="45.7001787" lon="8.9110564"><ele>290.2</ele><time>2026-04-02T15:20:26.537Z</time></trkpt><trkpt lat="45.7002529" lon="8.9109751"><ele>290.4</ele><time>2026-04-02T15:20:27.537Z</time></trkpt><trkpt lat="45.7003141" lon="8.9108561"><ele>290.6</ele><time>2026-04-02T15:20:28.538Z</time></trkpt><trkpt lat="45.7003765" lon="8.910717"><ele>290.8</ele><time>2026-04-02T15:20:29.537Z</time></trkpt><trkpt lat="45.7004554" lon="8.9105776"><ele>291.0</ele><time>2026-04-02T15:20:30.538Z</time></trkpt><trkpt lat="45.7005507" lon="8.9104315"><ele>291.0</ele><time>2026-04-02T15:20:31.537Z</time></trkpt><trkpt lat="45.7006599" lon="8.9102632"><ele>291.0</ele><time>2026-04-02T15:20:32.537Z</time></trkpt><trkpt lat="45.7007669" lon="8.9101115"><ele>291.0</ele><time>2026-04-02T15:20:33.537Z</time></trkpt><trkpt lat="45.7008767" lon="8.9099541"><ele>291.0</ele><time>2026-04-02T15:20:34.537Z</time></trkpt><trkpt lat="45.7009866" lon="8.909797"><ele>291.0</ele><time>2026-04-02T15:20:35.537Z</time></trkpt><trkpt lat="45.7010877" lon="8.9096536"><ele>291.0</ele><time>2026-04-02T15:20:36.537Z</time></trkpt><trkpt lat="45.7011784" lon="8.9095188"><ele>291.0</ele><time>2026-04-02T15:20:37.537Z</time></trkpt><trkpt lat="45.7012681" lon="8.9093925"><ele>291.25</ele><time>2026-04-02T15:20:38.538Z</time></trkpt><trkpt lat="45.7013539" lon="8.9092765"><ele>291.5</ele><time>2026-04-02T15:20:39.538Z</time></trkpt><trkpt lat="45.701438" lon="8.9091573"><ele>291.75</ele><time>2026-04-02T15:20:40.538Z</time></trkpt><trkpt lat="45.7015223" lon="8.9090367"><ele>292.0</ele><time>2026-04-02T15:20:41.538Z</time></trkpt><trkpt lat="45.7016067" lon="8.9089172"><ele>292.0</ele><time>2026-04-02T15:20:42.537Z</time></trkpt><trkpt lat="45.701685" lon="8.9088021"><ele>292.0</ele><time>2026-04-02T15:20:43.537Z</time></trkpt><trkpt lat="45.7017486" lon="8.9086993"><ele>292.0</ele><time>2026-04-02T15:20:44.538Z</time></trkpt><trkpt lat="45.701809" lon="8.9085977"><ele>292.0</ele><time>2026-04-02T15:20:45.538Z</time></trkpt><trkpt lat="45.7018776" lon="8.9084949"><ele>292.0</ele><time>2026-04-02T15:20:46.537Z</time></trkpt><trkpt lat="45.7019563" lon="8.9083876"><ele>291.75</ele><time>2026-04-02T15:20:47.538Z</time></trkpt><trkpt lat="45.7020427" lon="8.908266"><ele>291.5</ele><time>2026-04-02T15:20:48.538Z</time></trkpt><trkpt lat="45.7021368" lon="8.9081209"><ele>291.25</ele><time>2026-04-02T15:20:49.537Z</time></trkpt><trkpt lat="45.7022433" lon="8.9079628"><ele>291.0</ele><time>2026-04-02T15:20:50.537Z</time></trkpt><trkpt lat="45.7023455" lon="8.9078138"><ele>291.0</ele><time>2026-04-02T15:20:51.538Z</time></trkpt><trkpt lat="45.7024341" lon="8.9076899"><ele>291.0</ele><time>2026-04-02T15:20:52.537Z</time></trkpt><trkpt lat="45.70251" lon="8.9075793"><ele>291.0</ele><time>2026-04-02T15:20:53.538Z</time></trkpt><trkpt lat="45.702577" lon="8.9074799"><ele>291.0</ele><time>2026-04-02T15:20:54.538Z</time></trkpt><trkpt lat="45.7026337" lon="8.90739"><ele>291.0</ele><time>2026-04-02T15:20:55.538Z</time></trkpt><trkpt lat="45.7026891" lon="8.9072937"><ele>292.0</ele><time>2026-04-02T15:20:56.538Z</time></trkpt><trkpt lat="45.7027553" lon="8.9071898"><ele>293.0</ele><time>2026-04-02T15:20:57.537Z</time></trkpt><trkpt lat="45.7028327" lon="8.9070839"><ele>294.0</ele><time>2026-04-02T15:20:58.538Z</time></trkpt><trkpt lat="45.702908" lon="8.9069819"><ele>295.0</ele><time>2026-04-02T15:20:59.537Z</time></trkpt><trkpt lat="45.7029807" lon="8.9068786"><ele>296.0</ele><time>2026-04-02T15:21:00.537Z</time></trkpt><trkpt lat="45.703054" lon="8.9067691"><ele>295.2</ele><time>2026-04-02T15:21:01.538Z</time></trkpt><trkpt lat="45.7031359" lon="8.9066525"><ele>294.40000000000003</ele><time>2026-04-02T15:21:02.538Z</time></trkpt><trkpt lat="45.703216" lon="8.9065444"><ele>293.6</ele><time>2026-04-02T15:21:03.538Z</time></trkpt><trkpt lat="45.7032915" lon="8.9064327"><ele>292.8</ele><time>2026-04-02T15:21:04.537Z</time></trkpt><trkpt lat="45.7033401" lon="8.9063551"><ele>292.0</ele><time>2026-04-02T15:21:05.537Z</time></trkpt><trkpt lat="45.7034012" lon="8.9062648"><ele>292.0</ele><time>2026-04-02T15:21:06.538Z</time></trkpt><trkpt lat="45.7034636" lon="8.9061762"><ele>292.0</ele><time>2026-04-02T15:21:07.537Z</time></trkpt><trkpt lat="45.703526" lon="8.9060851"><ele>292.0</ele><time>2026-04-02T15:21:09.537Z</time></trkpt><trkpt lat="45.7035737" lon="8.9060122"><ele>292.0</ele><time>2026-04-02T15:21:10.536Z</time></trkpt><trkpt lat="45.7036291" lon="8.9059278"><ele>292.0</ele><time>2026-04-02T15:21:11.538Z</time></trkpt><trkpt lat="45.7036861" lon="8.9058434"><ele>292.0</ele><time>2026-04-02T15:21:12.538Z</time></trkpt><trkpt lat="45.7037368" lon="8.9057766"><ele>291.0</ele><time>2026-04-02T15:21:13.538Z</time></trkpt><trkpt lat="45.703825" lon="8.9056543"><ele>290.0</ele><time>2026-04-02T15:21:15.537Z</time></trkpt><trkpt lat="45.7039401" lon="8.9055675"><ele>289.0</ele><time>2026-04-02T15:21:17.538Z</time></trkpt><trkpt lat="45.7040115" lon="8.9055502"><ele>288.0</ele><time>2026-04-02T15:21:18.538Z</time></trkpt><trkpt lat="45.704079" lon="8.9055374"><ele>287.0</ele><time>2026-04-02T15:21:19.538Z</time></trkpt><trkpt lat="45.7041457" lon="8.9055101"><ele>287.0</ele><time>2026-04-02T15:21:20.538Z</time></trkpt><trkpt lat="45.7042029" lon="8.9054668"><ele>287.0</ele><time>2026-04-02T15:21:21.538Z</time></trkpt><trkpt lat="45.7042474" lon="8.9053946"><ele>287.0</ele><time>2026-04-02T15:21:22.537Z</time></trkpt><trkpt lat="45.7042681" lon="8.9052874"><ele>287.0</ele><time>2026-04-02T15:21:23.536Z</time></trkpt><trkpt lat="45.7042774" lon="8.9051693"><ele>287.0</ele><time>2026-04-02T15:21:24.538Z</time></trkpt><trkpt lat="45.7042938" lon="8.9050665"><ele>287.0</ele><time>2026-04-02T15:21:25.538Z</time></trkpt><trkpt lat="45.7043206" lon="8.9049741"><ele>287.0</ele><time>2026-04-02T15:21:26.537Z</time></trkpt><trkpt lat="45.7043613" lon="8.9048925"><ele>288.0</ele><time>2026-04-02T15:21:27.537Z</time></trkpt><trkpt lat="45.7044198" lon="8.9048036"><ele>289.0</ele><time>2026-04-02T15:21:28.538Z</time></trkpt><trkpt lat="45.7044886" lon="8.9047067"><ele>290.0</ele><time>2026-04-02T15:21:29.538Z</time></trkpt><trkpt lat="45.7045505" lon="8.9046069"><ele>291.0</ele><time>2026-04-02T15:21:30.537Z</time></trkpt><trkpt lat="45.70461" lon="8.9045146"><ele>292.0</ele><time>2026-04-02T15:21:31.536Z</time></trkpt><trkpt lat="45.7046686" lon="8.9044242"><ele>293.0</ele><time>2026-04-02T15:21:32.537Z</time></trkpt><trkpt lat="45.7047275" lon="8.9043316"><ele>292.5</ele><time>2026-04-02T15:21:33.537Z</time></trkpt><trkpt lat="45.7047887" lon="8.9042458"><ele>292.0</ele><time>2026-04-02T15:21:34.537Z</time></trkpt><trkpt lat="45.7048531" lon="8.9041537"><ele>291.5</ele><time>2026-04-02T15:21:35.537Z</time></trkpt><trkpt lat="45.7049097" lon="8.9040711"><ele>291.0</ele><time>2026-04-02T15:21:36.536Z</time></trkpt><trkpt lat="45.7049662" lon="8.9039968"><ele>290.5</ele><time>2026-04-02T15:21:37.535Z</time></trkpt><trkpt lat="45.7050176" lon="8.9039245"><ele>290.0</ele><time>2026-04-02T15:21:38.536Z</time></trkpt><trkpt lat="45.705075" lon="8.9038453"><ele>290.0</ele><time>2026-04-02T15:21:39.536Z</time></trkpt><trkpt lat="45.7051422" lon="8.9037611"><ele>290.0</ele><time>2026-04-02T15:21:40.537Z</time></trkpt><trkpt lat="45.7052174" lon="8.903676"><ele>290.0</ele><time>2026-04-02T15:21:41.537Z</time></trkpt><trkpt lat="45.7052919" lon="8.9035882"><ele>290.0</ele><time>2026-04-02T15:21:42.537Z</time></trkpt><trkpt lat="45.7053631" lon="8.9035099"><ele>290.0</ele><time>2026-04-02T15:21:43.536Z</time></trkpt><trkpt lat="45.7054376" lon="8.90344"><ele>290.8</ele><time>2026-04-02T15:21:44.536Z</time></trkpt><trkpt lat="45.7055132" lon="8.9033752"><ele>291.6</ele><time>2026-04-02T15:21:45.537Z</time></trkpt><trkpt lat="45.7055978" lon="8.9033092"><ele>292.4</ele><time>2026-04-02T15:21:46.537Z</time></trkpt><trkpt lat="45.705686" lon="8.9032439"><ele>293.2</ele><time>2026-04-02T15:21:47.537Z</time></trkpt><trkpt lat="45.7057755" lon="8.9031832"><ele>294.0</ele><time>2026-04-02T15:21:48.536Z</time></trkpt><trkpt lat="45.7058644" lon="8.9031242"><ele>294.0</ele><time>2026-04-02T15:21:49.537Z</time></trkpt><trkpt lat="45.7059574" lon="8.9030661"><ele>294.0</ele><time>2026-04-02T15:21:50.536Z</time></trkpt><trkpt lat="45.7060601" lon="8.9030052"><ele>294.0</ele><time>2026-04-02T15:21:51.537Z</time></trkpt><trkpt lat="45.7061631" lon="8.902957"><ele>294.0</ele><time>2026-04-02T15:21:52.536Z</time></trkpt><trkpt lat="45.7062558" lon="8.9029068"><ele>294.0</ele><time>2026-04-02T15:21:53.537Z</time></trkpt><trkpt lat="45.7063491" lon="8.9028597"><ele>293.75</ele><time>2026-04-02T15:21:54.537Z</time></trkpt><trkpt lat="45.7064482" lon="8.9028093"><ele>293.5</ele><time>2026-04-02T15:21:55.537Z</time></trkpt><trkpt lat="45.7065536" lon="8.9027608"><ele>293.25</ele><time>2026-04-02T15:21:56.536Z</time></trkpt><trkpt lat="45.706667" lon="8.9027041"><ele>293.0</ele><time>2026-04-02T15:21:57.536Z</time></trkpt><trkpt lat="45.7067745" lon="8.9026502"><ele>293.0</ele><time>2026-04-02T15:21:58.537Z</time></trkpt><trkpt lat="45.7068798" lon="8.9026039"><ele>293.0</ele><time>2026-04-02T15:21:59.537Z</time></trkpt><trkpt lat="45.7069829" lon="8.9025536"><ele>293.0</ele><time>2026-04-02T15:22:00.537Z</time></trkpt><trkpt lat="45.7070846" lon="8.9025011"><ele>293.0</ele><time>2026-04-02T15:22:01.536Z</time></trkpt><trkpt lat="45.7071875" lon="8.902454"><ele>293.0</ele><time>2026-04-02T15:22:02.537Z</time></trkpt><trkpt lat="45.7072859" lon="8.9024061"><ele>292.25</ele><time>2026-04-02T15:22:03.535Z</time></trkpt><trkpt lat="45.7073897" lon="8.9023538"><ele>291.5</ele><time>2026-04-02T15:22:04.537Z</time></trkpt><trkpt lat="45.7074961" lon="8.9023042"><ele>290.75</ele><time>2026-04-02T15:22:05.536Z</time></trkpt><trkpt lat="45.7076004" lon="8.9022521"><ele>290.0</ele><time>2026-04-02T15:22:06.537Z</time></trkpt><trkpt lat="45.7077112" lon="8.9021957"><ele>290.2</ele><time>2026-04-02T15:22:07.536Z</time></trkpt><trkpt lat="45.7078191" lon="8.9021389"><ele>290.4</ele><time>2026-04-02T15:22:08.536Z</time></trkpt><trkpt lat="45.7079222" lon="8.9020872"><ele>290.6</ele><time>2026-04-02T15:22:09.536Z</time></trkpt><trkpt lat="45.7080243" lon="8.9020373"><ele>290.8</ele><time>2026-04-02T15:22:10.536Z</time></trkpt><trkpt lat="45.7081238" lon="8.9019853"><ele>291.0</ele><time>2026-04-02T15:22:11.537Z</time></trkpt><trkpt lat="45.7082207" lon="8.9019359"><ele>291.0</ele><time>2026-04-02T15:22:12.536Z</time></trkpt><trkpt lat="45.7083137" lon="8.9018977"><ele>291.0</ele><time>2026-04-02T15:22:13.536Z</time></trkpt><trkpt lat="45.7084012" lon="8.9018607"><ele>291.0</ele><time>2026-04-02T15:22:14.535Z</time></trkpt><trkpt lat="45.7084812" lon="8.9018227"><ele>291.0</ele><time>2026-04-02T15:22:15.537Z</time></trkpt><trkpt lat="45.7085499" lon="8.9017879"><ele>291.0</ele><time>2026-04-02T15:22:16.537Z</time></trkpt><trkpt lat="45.7086127" lon="8.9017557"><ele>291.0</ele><time>2026-04-02T15:22:17.535Z</time></trkpt><trkpt lat="45.7086761" lon="8.901727"><ele>291.0</ele><time>2026-04-02T15:22:18.536Z</time></trkpt><trkpt lat="45.7087383" lon="8.9017084"><ele>291.0</ele><time>2026-04-02T15:22:19.537Z</time></trkpt><trkpt lat="45.7088039" lon="8.9017018"><ele>291.0</ele><time>2026-04-02T15:22:20.536Z</time></trkpt><trkpt lat="45.7088797" lon="8.9017134"><ele>291.0</ele><time>2026-04-02T15:22:21.537Z</time></trkpt><trkpt lat="45.708958" lon="8.9017278"><ele>291.0</ele><time>2026-04-02T15:22:22.537Z</time></trkpt><trkpt lat="45.7090278" lon="8.9017092"><ele>291.0</ele><time>2026-04-02T15:22:23.537Z</time></trkpt><trkpt lat="45.7091189" lon="8.9016072"><ele>291.0</ele><time>2026-04-02T15:22:25.537Z</time></trkpt><trkpt lat="45.7092017" lon="8.9014994"><ele>291.0</ele><time>2026-04-02T15:22:27.536Z</time></trkpt><trkpt lat="45.7093147" lon="8.9014101"><ele>291.0</ele><time>2026-04-02T15:22:29.536Z</time></trkpt><trkpt lat="45.709389" lon="8.9013671"><ele>291.0</ele><time>2026-04-02T15:22:30.537Z</time></trkpt><trkpt lat="45.7094715" lon="8.9013241"><ele>291.0</ele><time>2026-04-02T15:22:31.536Z</time></trkpt><trkpt lat="45.7095479" lon="8.9012844"><ele>291.2</ele><time>2026-04-02T15:22:32.537Z</time></trkpt><trkpt lat="45.7096358" lon="8.9012322"><ele>291.40000000000003</ele><time>2026-04-02T15:22:34.537Z</time></trkpt><trkpt lat="45.7096959" lon="8.9011878"><ele>291.6</ele><time>2026-04-02T15:22:37.537Z</time></trkpt><trkpt lat="45.7097694" lon="8.9011287"><ele>291.8</ele><time>2026-04-02T15:22:41.537Z</time></trkpt><trkpt lat="45.7098679" lon="8.9010615"><ele>292.0</ele><time>2026-04-02T15:22:43.537Z</time></trkpt><trkpt lat="45.7099808" lon="8.9010031"><ele>292.0</ele><time>2026-04-02T15:22:45.536Z</time></trkpt><trkpt lat="45.7100456" lon="8.9009774"><ele>292.0</ele><time>2026-04-02T15:22:46.536Z</time></trkpt><trkpt lat="45.7101176" lon="8.9009474"><ele>292.0</ele><time>2026-04-02T15:22:47.535Z</time></trkpt><trkpt lat="45.7101819" lon="8.9009234"><ele>292.0</ele><time>2026-04-02T15:22:48.537Z</time></trkpt><trkpt lat="45.7102497" lon="8.9008942"><ele>292.0</ele><time>2026-04-02T15:22:49.537Z</time></trkpt><trkpt lat="45.7103192" lon="8.9008655"><ele>292.0</ele><time>2026-04-02T15:22:50.537Z</time></trkpt><trkpt lat="45.71039" lon="8.9008313"><ele>292.0</ele><time>2026-04-02T15:22:51.536Z</time></trkpt><trkpt lat="45.7104621" lon="8.9007983"><ele>292.16666666666663</ele><time>2026-04-02T15:22:52.536Z</time></trkpt><trkpt lat="45.7105349" lon="8.9007677"><ele>292.3333333333333</ele><time>2026-04-02T15:22:53.537Z</time></trkpt><trkpt lat="45.7106077" lon="8.9007254"><ele>292.5</ele><time>2026-04-02T15:22:54.537Z</time></trkpt><trkpt lat="45.7106832" lon="8.9006891"><ele>292.6666666666667</ele><time>2026-04-02T15:22:55.536Z</time></trkpt><trkpt lat="45.7107622" lon="8.9006529"><ele>292.83333333333337</ele><time>2026-04-02T15:22:56.537Z</time></trkpt><trkpt lat="45.7108464" lon="8.9006117"><ele>293.0</ele><time>2026-04-02T15:22:57.536Z</time></trkpt><trkpt lat="45.7109323" lon="8.9005697"><ele>293.0</ele><time>2026-04-02T15:22:58.537Z</time></trkpt><trkpt lat="45.711027" lon="8.9005254"><ele>293.0</ele><time>2026-04-02T15:22:59.536Z</time></trkpt><trkpt lat="45.7111252" lon="8.9004829"><ele>293.0</ele><time>2026-04-02T15:23:00.536Z</time></trkpt><trkpt lat="45.7112227" lon="8.9004381"><ele>293.0</ele><time>2026-04-02T15:23:01.537Z</time></trkpt><trkpt lat="45.7113191" lon="8.9003915"><ele>293.0</ele><time>2026-04-02T15:23:02.537Z</time></trkpt><trkpt lat="45.7114183" lon="8.9003471"><ele>293.0</ele><time>2026-04-02T15:23:03.535Z</time></trkpt><trkpt lat="45.7115179" lon="8.9003006"><ele>293.0</ele><time>2026-04-02T15:23:04.535Z</time></trkpt><trkpt lat="45.7116087" lon="8.9002566"><ele>293.0</ele><time>2026-04-02T15:23:05.537Z</time></trkpt><trkpt lat="45.7116912" lon="8.900213"><ele>293.0</ele><time>2026-04-02T15:23:06.537Z</time></trkpt><trkpt lat="45.7117703" lon="8.9001745"><ele>293.0</ele><time>2026-04-02T15:23:07.536Z</time></trkpt><trkpt lat="45.7118409" lon="8.9001442"><ele>293.0</ele><time>2026-04-02T15:23:08.535Z</time></trkpt><trkpt lat="45.7119069" lon="8.9001132"><ele>293.1666666666667</ele><time>2026-04-02T15:23:09.537Z</time></trkpt><trkpt lat="45.7119711" lon="8.9000867"><ele>293.33333333333337</ele><time>2026-04-02T15:23:10.537Z</time></trkpt><trkpt lat="45.71208" lon="8.9000434"><ele>293.5</ele><time>2026-04-02T15:23:12.537Z</time></trkpt><trkpt lat="45.7121911" lon="8.8999924"><ele>293.6666666666667</ele><time>2026-04-02T15:23:14.537Z</time></trkpt><trkpt lat="45.7122669" lon="8.8999567"><ele>293.8333333333333</ele><time>2026-04-02T15:23:16.537Z</time></trkpt><trkpt lat="45.7123326" lon="8.8999271"><ele>294.0</ele><time>2026-04-02T15:23:18.535Z</time></trkpt><trkpt lat="45.7124106" lon="8.8998908"><ele>294.0</ele><time>2026-04-02T15:23:20.536Z</time></trkpt><trkpt lat="45.7124902" lon="8.8998571"><ele>294.0</ele><time>2026-04-02T15:23:22.537Z</time></trkpt><trkpt lat="45.7125819" lon="8.8998375"><ele>294.0</ele><time>2026-04-02T15:23:24.536Z</time></trkpt><trkpt lat="45.7126793" lon="8.8998531"><ele>294.0</ele><time>2026-04-02T15:23:26.536Z</time></trkpt><trkpt lat="45.7127404" lon="8.8998754"><ele>294.0</ele><time>2026-04-02T15:23:27.536Z</time></trkpt><trkpt lat="45.712864" lon="8.899888"><ele>294.1666666666667</ele><time>2026-04-02T15:23:29.535Z</time></trkpt><trkpt lat="45.7129184" lon="8.8998369"><ele>294.3333333333333</ele><time>2026-04-02T15:23:30.536Z</time></trkpt><trkpt lat="45.7129519" lon="8.8997412"><ele>294.5</ele><time>2026-04-02T15:23:31.536Z</time></trkpt><trkpt lat="45.7130106" lon="8.8995682"><ele>294.66666666666663</ele><time>2026-04-02T15:23:33.537Z</time></trkpt><trkpt lat="45.7130606" lon="8.8994761"><ele>294.8333333333333</ele><time>2026-04-02T15:23:34.536Z</time></trkpt><trkpt lat="45.7131177" lon="8.8993827"><ele>295.0</ele><time>2026-04-02T15:23:35.537Z</time></trkpt><trkpt lat="45.7131921" lon="8.8992799"><ele>295.0</ele><time>2026-04-02T15:23:36.537Z</time></trkpt><trkpt lat="45.7132888" lon="8.8991729"><ele>295.0</ele><time>2026-04-02T15:23:37.537Z</time></trkpt><trkpt lat="45.7133826" lon="8.8990814"><ele>295.0</ele><time>2026-04-02T15:23:38.537Z</time></trkpt><trkpt lat="45.7134706" lon="8.8990024"><ele>295.0</ele><time>2026-04-02T15:23:39.536Z</time></trkpt><trkpt lat="45.7135566" lon="8.8989173"><ele>295.0</ele><time>2026-04-02T15:23:40.537Z</time></trkpt><trkpt lat="45.7136426" lon="8.8988392"><ele>295.0</ele><time>2026-04-02T15:23:41.536Z</time></trkpt><trkpt lat="45.7137357" lon="8.8987628"><ele>295.0</ele><time>2026-04-02T15:23:42.535Z</time></trkpt><trkpt lat="45.7138331" lon="8.8986893"><ele>295.0</ele><time>2026-04-02T15:23:43.537Z</time></trkpt><trkpt lat="45.7139381" lon="8.898621"><ele>295.0</ele><time>2026-04-02T15:23:44.536Z</time></trkpt><trkpt lat="45.7140349" lon="8.8985634"><ele>295.0</ele><time>2026-04-02T15:23:45.536Z</time></trkpt><trkpt lat="45.7141262" lon="8.898522"><ele>295.0</ele><time>2026-04-02T15:23:46.537Z</time></trkpt><trkpt lat="45.7142161" lon="8.8984799"><ele>295.0</ele><time>2026-04-02T15:23:47.537Z</time></trkpt><trkpt lat="45.7143033" lon="8.8984472"><ele>295.0</ele><time>2026-04-02T15:23:48.537Z</time></trkpt><trkpt lat="45.7143897" lon="8.8984148"><ele>295.0</ele><time>2026-04-02T15:23:49.537Z</time></trkpt><trkpt lat="45.7144821" lon="8.8983772"><ele>295.0</ele><time>2026-04-02T15:23:50.536Z</time></trkpt><trkpt lat="45.7145756" lon="8.8983418"><ele>294.8</ele><time>2026-04-02T15:23:51.537Z</time></trkpt><trkpt lat="45.7146729" lon="8.8983056"><ele>294.6</ele><time>2026-04-02T15:23:52.537Z</time></trkpt><trkpt lat="45.7147679" lon="8.8982688"><ele>294.4</ele><time>2026-04-02T15:23:53.537Z</time></trkpt><trkpt lat="45.7148642" lon="8.8982332"><ele>294.2</ele><time>2026-04-02T15:23:54.537Z</time></trkpt><trkpt lat="45.7149506" lon="8.8982004"><ele>294.0</ele><time>2026-04-02T15:23:55.536Z</time></trkpt><trkpt lat="45.7150355" lon="8.8981715"><ele>294.0</ele><time>2026-04-02T15:23:56.536Z</time></trkpt><trkpt lat="45.715114" lon="8.8981382"><ele>294.0</ele><time>2026-04-02T15:23:57.537Z</time></trkpt><trkpt lat="45.7151952" lon="8.8981082"><ele>294.0</ele><time>2026-04-02T15:23:58.537Z</time></trkpt><trkpt lat="45.7152785" lon="8.8980802"><ele>294.0</ele><time>2026-04-02T15:23:59.536Z</time></trkpt><trkpt lat="45.7153644" lon="8.898047"><ele>294.0</ele><time>2026-04-02T15:24:00.536Z</time></trkpt><trkpt lat="45.7154542" lon="8.8980126"><ele>294.0</ele><time>2026-04-02T15:24:01.536Z</time></trkpt><trkpt lat="45.7155442" lon="8.897981"><ele>294.25</ele><time>2026-04-02T15:24:02.536Z</time></trkpt><trkpt lat="45.7156473" lon="8.8979388"><ele>294.5</ele><time>2026-04-02T15:24:03.537Z</time></trkpt><trkpt lat="45.7157559" lon="8.8979019"><ele>294.75</ele><time>2026-04-02T15:24:04.536Z</time></trkpt><trkpt lat="45.7158688" lon="8.8978602"><ele>295.0</ele><time>2026-04-02T15:24:05.537Z</time></trkpt><trkpt lat="45.7159863" lon="8.8978178"><ele>295.25</ele><time>2026-04-02T15:24:06.537Z</time></trkpt><trkpt lat="45.7161027" lon="8.8977754"><ele>295.5</ele><time>2026-04-02T15:24:07.537Z</time></trkpt><trkpt lat="45.7162197" lon="8.8977321"><ele>295.75</ele><time>2026-04-02T15:24:08.536Z</time></trkpt><trkpt lat="45.7163324" lon="8.8976935"><ele>296.0</ele><time>2026-04-02T15:24:09.537Z</time></trkpt><trkpt lat="45.7164455" lon="8.8976677"><ele>296.0</ele><time>2026-04-02T15:24:10.537Z</time></trkpt><trkpt lat="45.7165547" lon="8.8976408"><ele>296.0</ele><time>2026-04-02T15:24:11.537Z</time></trkpt><trkpt lat="45.7166585" lon="8.897621"><ele>296.0</ele><time>2026-04-02T15:24:12.536Z</time></trkpt><trkpt lat="45.7167563" lon="8.8976011"><ele>296.0</ele><time>2026-04-02T15:24:13.537Z</time></trkpt><trkpt lat="45.7168521" lon="8.8975885"><ele>296.0</ele><time>2026-04-02T15:24:14.536Z</time></trkpt><trkpt lat="45.716946" lon="8.8975758"><ele>296.2</ele><time>2026-04-02T15:24:15.537Z</time></trkpt><trkpt lat="45.7170437" lon="8.8975635"><ele>296.40000000000003</ele><time>2026-04-02T15:24:16.537Z</time></trkpt><trkpt lat="45.7171424" lon="8.8975567"><ele>296.6</ele><time>2026-04-02T15:24:17.536Z</time></trkpt><trkpt lat="45.7172367" lon="8.8975487"><ele>296.8</ele><time>2026-04-02T15:24:18.536Z</time></trkpt><trkpt lat="45.7173247" lon="8.8975416"><ele>297.0</ele><time>2026-04-02T15:24:19.537Z</time></trkpt><trkpt lat="45.7174057" lon="8.8975317"><ele>297.0</ele><time>2026-04-02T15:24:20.536Z</time></trkpt><trkpt lat="45.7174844" lon="8.8975263"><ele>297.0</ele><time>2026-04-02T15:24:21.536Z</time></trkpt><trkpt lat="45.7175573" lon="8.8975154"><ele>297.0</ele><time>2026-04-02T15:24:22.535Z</time></trkpt><trkpt lat="45.7176208" lon="8.8975101"><ele>297.0</ele><time>2026-04-02T15:24:23.537Z</time></trkpt><trkpt lat="45.7177183" lon="8.8975136"><ele>297.0</ele><time>2026-04-02T15:24:25.536Z</time></trkpt><trkpt lat="45.7177914" lon="8.897521"><ele>297.0</ele><time>2026-04-02T15:24:27.536Z</time></trkpt><trkpt lat="45.7178599" lon="8.8975166"><ele>297.0</ele><time>2026-04-02T15:24:36.537Z</time></trkpt><trkpt lat="45.7179563" lon="8.897553"><ele>297.0</ele><time>2026-04-02T15:24:38.537Z</time></trkpt><trkpt lat="45.7180318" lon="8.8975308"><ele>297.0</ele><time>2026-04-02T15:24:40.536Z</time></trkpt><trkpt lat="45.718116" lon="8.8974635"><ele>297.0</ele><time>2026-04-02T15:24:42.536Z</time></trkpt><trkpt lat="45.7182178" lon="8.8973977"><ele>297.0</ele><time>2026-04-02T15:24:44.536Z</time></trkpt><trkpt lat="45.7183393" lon="8.8973472"><ele>297.0</ele><time>2026-04-02T15:24:46.534Z</time></trkpt><trkpt lat="45.7184128" lon="8.8973134"><ele>297.0</ele><time>2026-04-02T15:24:47.536Z</time></trkpt><trkpt lat="45.7184828" lon="8.8972649"><ele>297.0</ele><time>2026-04-02T15:24:48.536Z</time></trkpt><trkpt lat="45.7185514" lon="8.8972104"><ele>297.0</ele><time>2026-04-02T15:24:49.536Z</time></trkpt><trkpt lat="45.7186182" lon="8.8971425"><ele>297.0</ele><time>2026-04-02T15:24:50.535Z</time></trkpt><trkpt lat="45.7186945" lon="8.8970684"><ele>297.0</ele><time>2026-04-02T15:24:51.536Z</time></trkpt><trkpt lat="45.7187791" lon="8.8969887"><ele>297.2</ele><time>2026-04-02T15:24:52.535Z</time></trkpt><trkpt lat="45.7188641" lon="8.8969038"><ele>297.4</ele><time>2026-04-02T15:24:53.536Z</time></trkpt><trkpt lat="45.7189449" lon="8.8968259"><ele>297.6</ele><time>2026-04-02T15:24:54.536Z</time></trkpt><trkpt lat="45.7190267" lon="8.896753"><ele>297.8</ele><time>2026-04-02T15:24:55.535Z</time></trkpt><trkpt lat="45.7191112" lon="8.8966778"><ele>298.0</ele><time>2026-04-02T15:24:56.535Z</time></trkpt><trkpt lat="45.7191931" lon="8.8966097"><ele>298.2</ele><time>2026-04-02T15:24:57.536Z</time></trkpt><trkpt lat="45.7192521" lon="8.8965552"><ele>298.4</ele><time>2026-04-02T15:24:58.535Z</time></trkpt><trkpt lat="45.7193354" lon="8.8964767"><ele>298.59999999999997</ele><time>2026-04-02T15:25:00.535Z</time></trkpt><trkpt lat="45.7194077" lon="8.8963985"><ele>298.8</ele><time>2026-04-02T15:25:02.535Z</time></trkpt><trkpt lat="45.7195167" lon="8.8962895"><ele>299.0</ele><time>2026-04-02T15:25:04.536Z</time></trkpt><trkpt lat="45.719586" lon="8.8962286"><ele>299.0</ele><time>2026-04-02T15:25:05.535Z</time></trkpt><trkpt lat="45.7196595" lon="8.8961607"><ele>299.0</ele><time>2026-04-02T15:25:06.536Z</time></trkpt><trkpt lat="45.7197355" lon="8.8960898"><ele>299.0</ele><time>2026-04-02T15:25:07.535Z</time></trkpt><trkpt lat="45.7198219" lon="8.8960138"><ele>299.0</ele><time>2026-04-02T15:25:08.536Z</time></trkpt><trkpt lat="45.7199101" lon="8.8959324"><ele>299.0</ele><time>2026-04-02T15:25:09.535Z</time></trkpt><trkpt lat="45.7200092" lon="8.8958426"><ele>299.0</ele><time>2026-04-02T15:25:10.535Z</time></trkpt><trkpt lat="45.720105" lon="8.8957566"><ele>299.0</ele><time>2026-04-02T15:25:11.536Z</time></trkpt><trkpt lat="45.7201988" lon="8.8956709"><ele>299.0</ele><time>2026-04-02T15:25:12.535Z</time></trkpt><trkpt lat="45.7202909" lon="8.895586"><ele>299.0</ele><time>2026-04-02T15:25:13.536Z</time></trkpt><trkpt lat="45.7203877" lon="8.8954959"><ele>299.0</ele><time>2026-04-02T15:25:14.536Z</time></trkpt><trkpt lat="45.7204892" lon="8.8954066"><ele>299.0</ele><time>2026-04-02T15:25:15.535Z</time></trkpt><trkpt lat="45.7205931" lon="8.8953117"><ele>299.0</ele><time>2026-04-02T15:25:16.535Z</time></trkpt><trkpt lat="45.720705" lon="8.8952079"><ele>299.0</ele><time>2026-04-02T15:25:17.536Z</time></trkpt><trkpt lat="45.7208204" lon="8.8950974"><ele>299.0</ele><time>2026-04-02T15:25:18.535Z</time></trkpt><trkpt lat="45.7209421" lon="8.894986"><ele>299.0</ele><time>2026-04-02T15:25:19.536Z</time></trkpt><trkpt lat="45.7210618" lon="8.8948774"><ele>299.0</ele><time>2026-04-02T15:25:20.536Z</time></trkpt><trkpt lat="45.7211854" lon="8.8947608"><ele>299.0</ele><time>2026-04-02T15:25:21.536Z</time></trkpt><trkpt lat="45.721308" lon="8.894644"><ele>299.0</ele><time>2026-04-02T15:25:22.536Z</time></trkpt><trkpt lat="45.7214346" lon="8.8945278"><ele>299.5</ele><time>2026-04-02T15:25:23.535Z</time></trkpt><trkpt lat="45.7215599" lon="8.8944093"><ele>300.0</ele><time>2026-04-02T15:25:24.536Z</time></trkpt><trkpt lat="45.7216896" lon="8.8942946"><ele>300.5</ele><time>2026-04-02T15:25:25.536Z</time></trkpt><trkpt lat="45.7218087" lon="8.8941834"><ele>301.0</ele><time>2026-04-02T15:25:26.536Z</time></trkpt><trkpt lat="45.7219177" lon="8.8940813"><ele>301.0</ele><time>2026-04-02T15:25:27.536Z</time></trkpt><trkpt lat="45.7220247" lon="8.8939842"><ele>301.0</ele><time>2026-04-02T15:25:28.535Z</time></trkpt><trkpt lat="45.7221246" lon="8.8938929"><ele>301.0</ele><time>2026-04-02T15:25:29.535Z</time></trkpt><trkpt lat="45.7222214" lon="8.893806"><ele>301.0</ele><time>2026-04-02T15:25:30.536Z</time></trkpt><trkpt lat="45.7223124" lon="8.8937357"><ele>301.0</ele><time>2026-04-02T15:25:31.536Z</time></trkpt><trkpt lat="45.7223977" lon="8.8936798"><ele>301.0</ele><time>2026-04-02T15:25:32.535Z</time></trkpt><trkpt lat="45.7224867" lon="8.8936658"><ele>301.0</ele><time>2026-04-02T15:25:33.536Z</time></trkpt><trkpt lat="45.7225776" lon="8.89369"><ele>301.0</ele><time>2026-04-02T15:25:34.536Z</time></trkpt><trkpt lat="45.7226695" lon="8.8937359"><ele>301.0</ele><time>2026-04-02T15:25:35.536Z</time></trkpt><trkpt lat="45.7227707" lon="8.8937561"><ele>301.5</ele><time>2026-04-02T15:25:36.536Z</time></trkpt><trkpt lat="45.7228696" lon="8.8936963"><ele>302.0</ele><time>2026-04-02T15:25:37.535Z</time></trkpt><trkpt lat="45.7229607" lon="8.8936404"><ele>302.5</ele><time>2026-04-02T15:25:38.534Z</time></trkpt><trkpt lat="45.7229708" lon="8.8934285"><ele>303.0</ele><time>2026-04-02T15:25:39.535Z</time></trkpt><trkpt lat="45.7229953" lon="8.8932746"><ele>301.75</ele><time>2026-04-02T15:25:40.536Z</time></trkpt><trkpt lat="45.7230527" lon="8.89312"><ele>300.5</ele><time>2026-04-02T15:25:41.536Z</time></trkpt><trkpt lat="45.723133" lon="8.8929772"><ele>299.25</ele><time>2026-04-02T15:25:42.536Z</time></trkpt><trkpt lat="45.723236" lon="8.8928554"><ele>298.0</ele><time>2026-04-02T15:25:43.534Z</time></trkpt><trkpt lat="45.7233417" lon="8.8927612"><ele>298.0</ele><time>2026-04-02T15:25:44.536Z</time></trkpt><trkpt lat="45.7234494" lon="8.8926606"><ele>298.0</ele><time>2026-04-02T15:25:45.536Z</time></trkpt><trkpt lat="45.723562" lon="8.892554"><ele>298.0</ele><time>2026-04-02T15:25:46.536Z</time></trkpt><trkpt lat="45.723677" lon="8.8924461"><ele>298.0</ele><time>2026-04-02T15:25:47.536Z</time></trkpt><trkpt lat="45.7237977" lon="8.8923374"><ele>299.0</ele><time>2026-04-02T15:25:48.536Z</time></trkpt><trkpt lat="45.7239224" lon="8.8922226"><ele>300.0</ele><time>2026-04-02T15:25:49.536Z</time></trkpt><trkpt lat="45.7240496" lon="8.8921058"><ele>301.0</ele><time>2026-04-02T15:25:50.535Z</time></trkpt><trkpt lat="45.7241733" lon="8.891995"><ele>302.0</ele><time>2026-04-02T15:25:51.536Z</time></trkpt><trkpt lat="45.7242919" lon="8.8918906"><ele>302.0</ele><time>2026-04-02T15:25:52.534Z</time></trkpt><trkpt lat="45.7244084" lon="8.8917886"><ele>302.0</ele><time>2026-04-02T15:25:53.536Z</time></trkpt><trkpt lat="45.7245238" lon="8.8916809"><ele>302.0</ele><time>2026-04-02T15:25:54.535Z</time></trkpt><trkpt lat="45.7246418" lon="8.8915665"><ele>302.0</ele><time>2026-04-02T15:25:55.536Z</time></trkpt><trkpt lat="45.7247617" lon="8.89145"><ele>302.0</ele><time>2026-04-02T15:25:56.534Z</time></trkpt><trkpt lat="45.724885" lon="8.8913324"><ele>302.0</ele><time>2026-04-02T15:25:57.535Z</time></trkpt><trkpt lat="45.725013" lon="8.8912194"><ele>302.0</ele><time>2026-04-02T15:25:58.536Z</time></trkpt><trkpt lat="45.7251376" lon="8.8911057"><ele>302.0</ele><time>2026-04-02T15:25:59.536Z</time></trkpt><trkpt lat="45.725261" lon="8.8909881"><ele>301.75</ele><time>2026-04-02T15:26:00.536Z</time></trkpt><trkpt lat="45.7253845" lon="8.890873"><ele>301.5</ele><time>2026-04-02T15:26:01.536Z</time></trkpt><trkpt lat="45.7255097" lon="8.8907577"><ele>301.25</ele><time>2026-04-02T15:26:02.535Z</time></trkpt><trkpt lat="45.7256342" lon="8.8906446"><ele>301.0</ele><time>2026-04-02T15:26:03.535Z</time></trkpt><trkpt lat="45.7257596" lon="8.8905265"><ele>301.0</ele><time>2026-04-02T15:26:04.536Z</time></trkpt><trkpt lat="45.7258863" lon="8.8904083"><ele>301.0</ele><time>2026-04-02T15:26:05.536Z</time></trkpt><trkpt lat="45.7260104" lon="8.8902916"><ele>301.0</ele><time>2026-04-02T15:26:06.536Z</time></trkpt><trkpt lat="45.7261353" lon="8.8901753"><ele>301.0</ele><time>2026-04-02T15:26:07.535Z</time></trkpt><trkpt lat="45.7262602" lon="8.8900537"><ele>301.0</ele><time>2026-04-02T15:26:08.536Z</time></trkpt><trkpt lat="45.7263861" lon="8.8899343"><ele>301.0</ele><time>2026-04-02T15:26:09.535Z</time></trkpt><trkpt lat="45.7265164" lon="8.8898133"><ele>301.0</ele><time>2026-04-02T15:26:10.536Z</time></trkpt><trkpt lat="45.7266389" lon="8.8896977"><ele>301.0</ele><time>2026-04-02T15:26:11.534Z</time></trkpt><trkpt lat="45.7267558" lon="8.8895916"><ele>301.0</ele><time>2026-04-02T15:26:12.536Z</time></trkpt><trkpt lat="45.7268633" lon="8.8894864"><ele>301.0</ele><time>2026-04-02T15:26:13.536Z</time></trkpt><trkpt lat="45.7269648" lon="8.8893893"><ele>301.0</ele><time>2026-04-02T15:26:14.535Z</time></trkpt><trkpt lat="45.7270607" lon="8.8893005"><ele>301.2</ele><time>2026-04-02T15:26:15.535Z</time></trkpt><trkpt lat="45.7271491" lon="8.8892154"><ele>301.40000000000003</ele><time>2026-04-02T15:26:16.535Z</time></trkpt><trkpt lat="45.727232" lon="8.8891357"><ele>301.6</ele><time>2026-04-02T15:26:17.534Z</time></trkpt><trkpt lat="45.7273098" lon="8.8890602"><ele>301.8</ele><time>2026-04-02T15:26:18.535Z</time></trkpt><trkpt lat="45.7273852" lon="8.8889856"><ele>302.0</ele><time>2026-04-02T15:26:19.536Z</time></trkpt><trkpt lat="45.727461" lon="8.8889113"><ele>302.0</ele><time>2026-04-02T15:26:20.534Z</time></trkpt><trkpt lat="45.7275411" lon="8.8888389"><ele>302.0</ele><time>2026-04-02T15:26:21.536Z</time></trkpt><trkpt lat="45.7276214" lon="8.8887631"><ele>302.0</ele><time>2026-04-02T15:26:22.535Z</time></trkpt><trkpt lat="45.7276946" lon="8.8886948"><ele>302.0</ele><time>2026-04-02T15:26:23.536Z</time></trkpt><trkpt lat="45.7277535" lon="8.888637"><ele>302.0</ele><time>2026-04-02T15:26:24.534Z</time></trkpt><trkpt lat="45.7278135" lon="8.8885775"><ele>302.0</ele><time>2026-04-02T15:26:25.535Z</time></trkpt><trkpt lat="45.7278834" lon="8.8885177"><ele>302.5</ele><time>2026-04-02T15:26:26.536Z</time></trkpt><trkpt lat="45.7279452" lon="8.8884589"><ele>303.0</ele><time>2026-04-02T15:26:27.535Z</time></trkpt><trkpt lat="45.7280531" lon="8.8883431"><ele>303.5</ele><time>2026-04-02T15:26:29.536Z</time></trkpt><trkpt lat="45.7281193" lon="8.8882856"><ele>304.0</ele><time>2026-04-02T15:26:30.536Z</time></trkpt><trkpt lat="45.7281863" lon="8.8882285"><ele>304.5</ele><time>2026-04-02T15:26:31.534Z</time></trkpt><trkpt lat="45.7282471" lon="8.8881743"><ele>305.0</ele><time>2026-04-02T15:26:32.536Z</time></trkpt><trkpt lat="45.7283053" lon="8.8881191"><ele>305.1666666666667</ele><time>2026-04-02T15:26:33.536Z</time></trkpt><trkpt lat="45.7283631" lon="8.8880726"><ele>305.33333333333337</ele><time>2026-04-02T15:26:34.535Z</time></trkpt><trkpt lat="45.7284518" lon="8.8879981"><ele>305.5</ele><time>2026-04-02T15:26:36.535Z</time></trkpt><trkpt lat="45.728516" lon="8.8879384"><ele>305.6666666666667</ele><time>2026-04-02T15:26:38.535Z</time></trkpt><trkpt lat="45.728586" lon="8.88787"><ele>305.8333333333333</ele><time>2026-04-02T15:26:40.536Z</time></trkpt><trkpt lat="45.7286554" lon="8.8878054"><ele>306.0</ele><time>2026-04-02T15:26:42.536Z</time></trkpt><trkpt lat="45.7287347" lon="8.8877393"><ele>306.0</ele><time>2026-04-02T15:26:45.534Z</time></trkpt><trkpt lat="45.7287914" lon="8.8876905"><ele>306.0</ele><time>2026-04-02T15:26:48.536Z</time></trkpt><trkpt lat="45.7288477" lon="8.8876284"><ele>306.0</ele><time>2026-04-02T15:26:52.536Z</time></trkpt><trkpt lat="45.7289122" lon="8.8875529"><ele>306.0</ele><time>2026-04-02T15:26:56.536Z</time></trkpt><trkpt lat="45.7289935" lon="8.8874751"><ele>306.0</ele><time>2026-04-02T15:26:58.535Z</time></trkpt><trkpt lat="45.729076" lon="8.8874119"><ele>306.0</ele><time>2026-04-02T15:27:00.535Z</time></trkpt><trkpt lat="45.7291547" lon="8.8873457"><ele>306.1666666666667</ele><time>2026-04-02T15:27:02.535Z</time></trkpt><trkpt lat="45.7292103" lon="8.8872936"><ele>306.3333333333333</ele><time>2026-04-02T15:27:05.536Z</time></trkpt><trkpt lat="45.7292766" lon="8.8872213"><ele>306.5</ele><time>2026-04-02T15:27:10.535Z</time></trkpt><trkpt lat="45.7293549" lon="8.887145"><ele>306.66666666666663</ele><time>2026-04-02T15:27:12.535Z</time></trkpt><trkpt lat="45.7294336" lon="8.8870763"><ele>306.8333333333333</ele><time>2026-04-02T15:27:14.535Z</time></trkpt><trkpt lat="45.7295149" lon="8.8870024"><ele>307.0</ele><time>2026-04-02T15:27:16.536Z</time></trkpt><trkpt lat="45.7295956" lon="8.8869291"><ele>307.16666666666663</ele><time>2026-04-02T15:27:18.536Z</time></trkpt><trkpt lat="45.7296846" lon="8.8868388"><ele>307.3333333333333</ele><time>2026-04-02T15:27:20.536Z</time></trkpt><trkpt lat="45.7297617" lon="8.8867627"><ele>307.5</ele><time>2026-04-02T15:27:22.536Z</time></trkpt><trkpt lat="45.7298209" lon="8.8867141"><ele>307.6666666666667</ele><time>2026-04-02T15:27:24.536Z</time></trkpt><trkpt lat="45.7298816" lon="8.886645"><ele>307.83333333333337</ele><time>2026-04-02T15:27:26.535Z</time></trkpt><trkpt lat="45.7299398" lon="8.8865832"><ele>308.0</ele><time>2026-04-02T15:27:29.535Z</time></trkpt><trkpt lat="45.7300147" lon="8.886503"><ele>308.0</ele><time>2026-04-02T15:27:39.535Z</time></trkpt><trkpt lat="45.7301112" lon="8.8864187"><ele>308.0</ele><time>2026-04-02T15:27:41.536Z</time></trkpt><trkpt lat="45.7301859" lon="8.8863345"><ele>308.0</ele><time>2026-04-02T15:27:43.536Z</time></trkpt><trkpt lat="45.730248" lon="8.8862691"><ele>308.0</ele><time>2026-04-02T15:27:45.535Z</time></trkpt><trkpt lat="45.7303118" lon="8.8862033"><ele>308.0</ele><time>2026-04-02T15:27:47.536Z</time></trkpt><trkpt lat="45.7303965" lon="8.8861375"><ele>308.33333333333337</ele><time>2026-04-02T15:27:49.535Z</time></trkpt><trkpt lat="45.7305" lon="8.8860837"><ele>308.6666666666667</ele><time>2026-04-02T15:27:51.535Z</time></trkpt><trkpt lat="45.73061" lon="8.886003"><ele>309.0</ele><time>2026-04-02T15:27:53.536Z</time></trkpt><trkpt lat="45.7306647" lon="8.8859522"><ele>309.3333333333333</ele><time>2026-04-02T15:27:54.536Z</time></trkpt><trkpt lat="45.7307244" lon="8.8859015"><ele>309.66666666666663</ele><time>2026-04-02T15:27:55.536Z</time></trkpt><trkpt lat="45.7307807" lon="8.885847"><ele>310.0</ele><time>2026-04-02T15:27:56.536Z</time></trkpt><trkpt lat="45.7308386" lon="8.8857934"><ele>310.0</ele><time>2026-04-02T15:27:57.534Z</time></trkpt><trkpt lat="45.7308986" lon="8.885743"><ele>310.0</ele><time>2026-04-02T15:27:58.535Z</time></trkpt><trkpt lat="45.7309561" lon="8.8856884"><ele>310.0</ele><time>2026-04-02T15:27:59.534Z</time></trkpt><trkpt lat="45.7310148" lon="8.8856341"><ele>310.0</ele><time>2026-04-02T15:28:00.535Z</time></trkpt><trkpt lat="45.7310762" lon="8.8855805"><ele>310.0</ele><time>2026-04-02T15:28:01.535Z</time></trkpt><trkpt lat="45.7311347" lon="8.8855263"><ele>310.0</ele><time>2026-04-02T15:28:02.534Z</time></trkpt><trkpt lat="45.7311938" lon="8.8854723"><ele>310.0</ele><time>2026-04-02T15:28:03.535Z</time></trkpt><trkpt lat="45.7312564" lon="8.8854233"><ele>310.0</ele><time>2026-04-02T15:28:04.535Z</time></trkpt><trkpt lat="45.7313176" lon="8.8853677"><ele>310.0</ele><time>2026-04-02T15:28:05.535Z</time></trkpt><trkpt lat="45.7313782" lon="8.885312"><ele>310.0</ele><time>2026-04-02T15:28:06.534Z</time></trkpt><trkpt lat="45.7314365" lon="8.8852623"><ele>310.0</ele><time>2026-04-02T15:28:07.533Z</time></trkpt><trkpt lat="45.7314922" lon="8.8852095"><ele>310.0</ele><time>2026-04-02T15:28:08.534Z</time></trkpt><trkpt lat="45.7315479" lon="8.8851572"><ele>310.0</ele><time>2026-04-02T15:28:09.535Z</time></trkpt><trkpt lat="45.7316027" lon="8.8851032"><ele>310.0</ele><time>2026-04-02T15:28:10.535Z</time></trkpt><trkpt lat="45.7316596" lon="8.8850432"><ele>310.0</ele><time>2026-04-02T15:28:11.535Z</time></trkpt><trkpt lat="45.7317228" lon="8.884984"><ele>310.0</ele><time>2026-04-02T15:28:12.535Z</time></trkpt><trkpt lat="45.7317882" lon="8.8849232"><ele>310.0</ele><time>2026-04-02T15:28:13.534Z</time></trkpt><trkpt lat="45.7318539" lon="8.8848607"><ele>310.0</ele><time>2026-04-02T15:28:14.535Z</time></trkpt><trkpt lat="45.7319234" lon="8.8847994"><ele>310.0</ele><time>2026-04-02T15:28:15.534Z</time></trkpt><trkpt lat="45.7319966" lon="8.8847371"><ele>310.0</ele><time>2026-04-02T15:28:16.534Z</time></trkpt><trkpt lat="45.7320694" lon="8.8846656"><ele>310.5</ele><time>2026-04-02T15:28:17.535Z</time></trkpt><trkpt lat="45.732147" lon="8.8845933"><ele>311.0</ele><time>2026-04-02T15:28:18.534Z</time></trkpt><trkpt lat="45.7322243" lon="8.8845242"><ele>311.5</ele><time>2026-04-02T15:28:19.534Z</time></trkpt><trkpt lat="45.7322932" lon="8.8844574"><ele>312.0</ele><time>2026-04-02T15:28:20.534Z</time></trkpt><trkpt lat="45.7323616" lon="8.8843901"><ele>312.5</ele><time>2026-04-02T15:28:21.535Z</time></trkpt><trkpt lat="45.7324241" lon="8.8843255"><ele>313.0</ele><time>2026-04-02T15:28:22.535Z</time></trkpt><trkpt lat="45.7324911" lon="8.8842649"><ele>313.0</ele><time>2026-04-02T15:28:24.533Z</time></trkpt><trkpt lat="45.7325699" lon="8.8842038"><ele>313.0</ele><time>2026-04-02T15:28:26.534Z</time></trkpt><trkpt lat="45.7326607" lon="8.8841317"><ele>313.0</ele><time>2026-04-02T15:28:28.534Z</time></trkpt><trkpt lat="45.7327714" lon="8.8840457"><ele>313.0</ele><time>2026-04-02T15:28:30.534Z</time></trkpt><trkpt lat="45.7328353" lon="8.8840082"><ele>313.0</ele><time>2026-04-02T15:28:31.535Z</time></trkpt><trkpt lat="45.7329053" lon="8.8839664"><ele>313.0</ele><time>2026-04-02T15:28:32.534Z</time></trkpt><trkpt lat="45.7329786" lon="8.8839291"><ele>313.0</ele><time>2026-04-02T15:28:33.534Z</time></trkpt><trkpt lat="45.7330581" lon="8.8838873"><ele>313.0</ele><time>2026-04-02T15:28:34.534Z</time></trkpt><trkpt lat="45.733137" lon="8.8838522"><ele>313.0</ele><time>2026-04-02T15:28:35.535Z</time></trkpt><trkpt lat="45.7332144" lon="8.8838223"><ele>313.0</ele><time>2026-04-02T15:28:36.534Z</time></trkpt><trkpt lat="45.733292" lon="8.8837929"><ele>313.0</ele><time>2026-04-02T15:28:37.535Z</time></trkpt><trkpt lat="45.7333749" lon="8.8837672"><ele>313.0</ele><time>2026-04-02T15:28:38.534Z</time></trkpt><trkpt lat="45.7334625" lon="8.8837472"><ele>313.0</ele><time>2026-04-02T15:28:39.534Z</time></trkpt><trkpt lat="45.7335564" lon="8.8837219"><ele>313.0</ele><time>2026-04-02T15:28:40.535Z</time></trkpt><trkpt lat="45.7336549" lon="8.8836931"><ele>313.0</ele><time>2026-04-02T15:28:41.534Z</time></trkpt><trkpt lat="45.7337598" lon="8.8836665"><ele>313.0</ele><time>2026-04-02T15:28:42.534Z</time></trkpt><trkpt lat="45.7338613" lon="8.8836398"><ele>313.6</ele><time>2026-04-02T15:28:43.534Z</time></trkpt><trkpt lat="45.733962" lon="8.8836194"><ele>314.20000000000005</ele><time>2026-04-02T15:28:44.534Z</time></trkpt><trkpt lat="45.7340621" lon="8.8835985"><ele>314.8</ele><time>2026-04-02T15:28:45.535Z</time></trkpt><trkpt lat="45.7341625" lon="8.8835764"><ele>315.40000000000003</ele><time>2026-04-02T15:28:46.535Z</time></trkpt><trkpt lat="45.734261" lon="8.8835576"><ele>316.0</ele><time>2026-04-02T15:28:47.535Z</time></trkpt><trkpt lat="45.7343623" lon="8.8835364"><ele>316.40000000000003</ele><time>2026-04-02T15:28:48.535Z</time></trkpt><trkpt lat="45.7344648" lon="8.8835148"><ele>316.8</ele><time>2026-04-02T15:28:49.534Z</time></trkpt><trkpt lat="45.7345735" lon="8.8834918"><ele>317.20000000000005</ele><time>2026-04-02T15:28:50.534Z</time></trkpt><trkpt lat="45.7346746" lon="8.8834696"><ele>317.6</ele><time>2026-04-02T15:28:51.534Z</time></trkpt><trkpt lat="45.7347751" lon="8.8834449"><ele>318.0</ele><time>2026-04-02T15:28:52.534Z</time></trkpt><trkpt lat="45.7348772" lon="8.8834196"><ele>316.8333333333333</ele><time>2026-04-02T15:28:53.535Z</time></trkpt><trkpt lat="45.7349808" lon="8.8833912"><ele>315.6666666666667</ele><time>2026-04-02T15:28:54.535Z</time></trkpt><trkpt lat="45.7350576" lon="8.8833779"><ele>314.5</ele><time>2026-04-02T15:28:55.534Z</time></trkpt><trkpt lat="45.7351488" lon="8.8833643"><ele>313.33333333333337</ele><time>2026-04-02T15:28:57.535Z</time></trkpt><trkpt lat="45.7352131" lon="8.8833392"><ele>312.1666666666667</ele><time>2026-04-02T15:29:20.535Z</time></trkpt><trkpt lat="45.7353196" lon="8.8833127"><ele>311.0</ele><time>2026-04-02T15:29:22.534Z</time></trkpt><trkpt lat="45.7353841" lon="8.8833075"><ele>311.0</ele><time>2026-04-02T15:29:23.535Z</time></trkpt><trkpt lat="45.7355175" lon="8.8832883"><ele>311.0</ele><time>2026-04-02T15:29:25.535Z</time></trkpt><trkpt lat="45.7356354" lon="8.8832753"><ele>311.0</ele><time>2026-04-02T15:29:26.535Z</time></trkpt><trkpt lat="45.7357261" lon="8.8832676"><ele>311.0</ele><time>2026-04-02T15:29:27.535Z</time></trkpt><trkpt lat="45.7358233" lon="8.8832611"><ele>311.0</ele><time>2026-04-02T15:29:28.534Z</time></trkpt><trkpt lat="45.735928" lon="8.8832374"><ele>311.0</ele><time>2026-04-02T15:29:29.535Z</time></trkpt><trkpt lat="45.7360446" lon="8.8831907"><ele>311.0</ele><time>2026-04-02T15:29:30.534Z</time></trkpt><trkpt lat="45.7361591" lon="8.8831462"><ele>311.0</ele><time>2026-04-02T15:29:31.533Z</time></trkpt><trkpt lat="45.7362707" lon="8.8831046"><ele>311.0</ele><time>2026-04-02T15:29:32.534Z</time></trkpt><trkpt lat="45.736383" lon="8.8830719"><ele>311.75</ele><time>2026-04-02T15:29:33.534Z</time></trkpt><trkpt lat="45.7365047" lon="8.8830418"><ele>312.5</ele><time>2026-04-02T15:29:34.534Z</time></trkpt><trkpt lat="45.7366363" lon="8.8830117"><ele>313.25</ele><time>2026-04-02T15:29:35.535Z</time></trkpt><trkpt lat="45.7367823" lon="8.8829795"><ele>314.0</ele><time>2026-04-02T15:29:36.535Z</time></trkpt><trkpt lat="45.7369206" lon="8.8829465"><ele>314.0</ele><time>2026-04-02T15:29:37.535Z</time></trkpt><trkpt lat="45.7370537" lon="8.8829169"><ele>314.0</ele><time>2026-04-02T15:29:38.534Z</time></trkpt><trkpt lat="45.737195" lon="8.8828856"><ele>314.0</ele><time>2026-04-02T15:29:39.534Z</time></trkpt><trkpt lat="45.7373351" lon="8.8828531"><ele>314.0</ele><time>2026-04-02T15:29:40.534Z</time></trkpt><trkpt lat="45.7374714" lon="8.8828219"><ele>314.0</ele><time>2026-04-02T15:29:41.534Z</time></trkpt><trkpt lat="45.7376131" lon="8.8827899"><ele>314.0</ele><time>2026-04-02T15:29:42.535Z</time></trkpt><trkpt lat="45.7377551" lon="8.8827588"><ele>314.0</ele><time>2026-04-02T15:29:43.535Z</time></trkpt><trkpt lat="45.7379045" lon="8.8827259"><ele>314.0</ele><time>2026-04-02T15:29:44.533Z</time></trkpt><trkpt lat="45.7380509" lon="8.882694"><ele>314.0</ele><time>2026-04-02T15:29:45.534Z</time></trkpt><trkpt lat="45.738195" lon="8.8826618"><ele>314.0</ele><time>2026-04-02T15:29:46.535Z</time></trkpt><trkpt lat="45.7383489" lon="8.8826255"><ele>314.0</ele><time>2026-04-02T15:29:47.535Z</time></trkpt><trkpt lat="45.738494" lon="8.8825912"><ele>314.0</ele><time>2026-04-02T15:29:48.534Z</time></trkpt><trkpt lat="45.7386393" lon="8.8825581"><ele>314.6666666666667</ele><time>2026-04-02T15:29:49.533Z</time></trkpt><trkpt lat="45.7387893" lon="8.8825248"><ele>315.3333333333333</ele><time>2026-04-02T15:29:50.533Z</time></trkpt><trkpt lat="45.738942" lon="8.882492"><ele>316.0</ele><time>2026-04-02T15:29:51.534Z</time></trkpt><trkpt lat="45.7391017" lon="8.8824577"><ele>316.0</ele><time>2026-04-02T15:29:52.534Z</time></trkpt><trkpt lat="45.7392561" lon="8.8824214"><ele>316.0</ele><time>2026-04-02T15:29:53.534Z</time></trkpt><trkpt lat="45.7393987" lon="8.8823839"><ele>316.0</ele><time>2026-04-02T15:29:54.534Z</time></trkpt><trkpt lat="45.739544" lon="8.882338"><ele>316.5</ele><time>2026-04-02T15:29:55.535Z</time></trkpt><trkpt lat="45.7396821" lon="8.8822812"><ele>317.0</ele><time>2026-04-02T15:29:56.535Z</time></trkpt><trkpt lat="45.7398144" lon="8.8822118"><ele>317.5</ele><time>2026-04-02T15:29:57.535Z</time></trkpt><trkpt lat="45.7399487" lon="8.8821247"><ele>318.0</ele><time>2026-04-02T15:29:58.534Z</time></trkpt><trkpt lat="45.7400841" lon="8.8820219"><ele>317.3333333333333</ele><time>2026-04-02T15:29:59.535Z</time></trkpt><trkpt lat="45.7402257" lon="8.8819081"><ele>316.66666666666663</ele><time>2026-04-02T15:30:00.534Z</time></trkpt><trkpt lat="45.7403639" lon="8.8817945"><ele>316.0</ele><time>2026-04-02T15:30:01.535Z</time></trkpt><trkpt lat="45.7404952" lon="8.8816848"><ele>316.0</ele><time>2026-04-02T15:30:02.535Z</time></trkpt><trkpt lat="45.7406358" lon="8.8815704"><ele>316.0</ele><time>2026-04-02T15:30:03.534Z</time></trkpt><trkpt lat="45.7407686" lon="8.8814597"><ele>316.0</ele><time>2026-04-02T15:30:04.534Z</time></trkpt><trkpt lat="45.7408899" lon="8.8813562"><ele>316.0</ele><time>2026-04-02T15:30:05.534Z</time></trkpt><trkpt lat="45.7410083" lon="8.8812549"><ele>316.0</ele><time>2026-04-02T15:30:06.535Z</time></trkpt><trkpt lat="45.7411242" lon="8.8811572"><ele>316.0</ele><time>2026-04-02T15:30:07.535Z</time></trkpt><trkpt lat="45.7412373" lon="8.8810633"><ele>316.0</ele><time>2026-04-02T15:30:08.534Z</time></trkpt><trkpt lat="45.7413407" lon="8.8809754"><ele>317.0</ele><time>2026-04-02T15:30:09.534Z</time></trkpt><trkpt lat="45.7414368" lon="8.8808935"><ele>318.0</ele><time>2026-04-02T15:30:10.534Z</time></trkpt><trkpt lat="45.7415397" lon="8.8808064"><ele>319.0</ele><time>2026-04-02T15:30:11.535Z</time></trkpt><trkpt lat="45.7416422" lon="8.880722"><ele>320.0</ele><time>2026-04-02T15:30:12.534Z</time></trkpt><trkpt lat="45.7417455" lon="8.880642"><ele>320.0</ele><time>2026-04-02T15:30:13.534Z</time></trkpt><trkpt lat="45.7418483" lon="8.8805709"><ele>320.0</ele><time>2026-04-02T15:30:14.535Z</time></trkpt><trkpt lat="45.741952" lon="8.880509"><ele>320.0</ele><time>2026-04-02T15:30:15.535Z</time></trkpt><trkpt lat="45.7420581" lon="8.8804578"><ele>320.0</ele><time>2026-04-02T15:30:16.535Z</time></trkpt><trkpt lat="45.7421658" lon="8.8804166"><ele>322.0</ele><time>2026-04-02T15:30:17.533Z</time></trkpt><trkpt lat="45.742274" lon="8.8803851"><ele>324.0</ele><time>2026-04-02T15:30:18.534Z</time></trkpt><trkpt lat="45.7423911" lon="8.8803603"><ele>326.0</ele><time>2026-04-02T15:30:19.534Z</time></trkpt><trkpt lat="45.7425044" lon="8.8803429"><ele>328.0</ele><time>2026-04-02T15:30:20.534Z</time></trkpt><trkpt lat="45.7426157" lon="8.88033"><ele>328.4</ele><time>2026-04-02T15:30:21.535Z</time></trkpt><trkpt lat="45.7427233" lon="8.8803185"><ele>328.79999999999995</ele><time>2026-04-02T15:30:22.535Z</time></trkpt><trkpt lat="45.7428311" lon="8.8803061"><ele>329.2</ele><time>2026-04-02T15:30:23.534Z</time></trkpt><trkpt lat="45.7429379" lon="8.880294"><ele>329.6</ele><time>2026-04-02T15:30:24.534Z</time></trkpt><trkpt lat="45.7430393" lon="8.8802827"><ele>330.0</ele><time>2026-04-02T15:30:25.534Z</time></trkpt><trkpt lat="45.743135" lon="8.8802724"><ele>330.0</ele><time>2026-04-02T15:30:26.535Z</time></trkpt><trkpt lat="45.7432313" lon="8.8802621"><ele>330.0</ele><time>2026-04-02T15:30:27.534Z</time></trkpt><trkpt lat="45.7433191" lon="8.8802529"><ele>330.0</ele><time>2026-04-02T15:30:28.534Z</time></trkpt><trkpt lat="45.7434033" lon="8.8802464"><ele>330.0</ele><time>2026-04-02T15:30:29.535Z</time></trkpt><trkpt lat="45.7434835" lon="8.8802354"><ele>330.0</ele><time>2026-04-02T15:30:30.535Z</time></trkpt><trkpt lat="45.7435719" lon="8.8802219"><ele>330.0</ele><time>2026-04-02T15:30:31.535Z</time></trkpt><trkpt lat="45.7436608" lon="8.8802046"><ele>328.6666666666667</ele><time>2026-04-02T15:30:32.535Z</time></trkpt><trkpt lat="45.7437475" lon="8.8801906"><ele>327.3333333333333</ele><time>2026-04-02T15:30:33.535Z</time></trkpt><trkpt lat="45.7438286" lon="8.8801808"><ele>326.0</ele><time>2026-04-02T15:30:34.535Z</time></trkpt><trkpt lat="45.7439112" lon="8.8801768"><ele>324.66666666666663</ele><time>2026-04-02T15:30:35.534Z</time></trkpt><trkpt lat="45.7439848" lon="8.8801821"><ele>323.3333333333333</ele><time>2026-04-02T15:30:36.535Z</time></trkpt><trkpt lat="45.7440539" lon="8.8801907"><ele>322.0</ele><time>2026-04-02T15:30:37.535Z</time></trkpt><trkpt lat="45.7441205" lon="8.8802062"><ele>322.0</ele><time>2026-04-02T15:30:38.534Z</time></trkpt><trkpt lat="45.7441935" lon="8.8802374"><ele>322.0</ele><time>2026-04-02T15:30:39.535Z</time></trkpt><trkpt lat="45.7442805" lon="8.8802666"><ele>322.0</ele><time>2026-04-02T15:30:40.535Z</time></trkpt><trkpt lat="45.7443745" lon="8.8802604"><ele>322.0</ele><time>2026-04-02T15:30:41.535Z</time></trkpt><trkpt lat="45.7444811" lon="8.8802195"><ele>322.0</ele><time>2026-04-02T15:30:42.535Z</time></trkpt><trkpt lat="45.7445965" lon="8.8801658"><ele>320.75</ele><time>2026-04-02T15:30:43.533Z</time></trkpt><trkpt lat="45.7447062" lon="8.880119"><ele>319.5</ele><time>2026-04-02T15:30:44.533Z</time></trkpt><trkpt lat="45.7448199" lon="8.8800764"><ele>318.25</ele><time>2026-04-02T15:30:45.534Z</time></trkpt><trkpt lat="45.7449352" lon="8.8800378"><ele>317.0</ele><time>2026-04-02T15:30:46.535Z</time></trkpt><trkpt lat="45.7450591" lon="8.8799973"><ele>316.75</ele><time>2026-04-02T15:30:47.535Z</time></trkpt><trkpt lat="45.7451853" lon="8.8799557"><ele>316.5</ele><time>2026-04-02T15:30:48.534Z</time></trkpt><trkpt lat="45.7452977" lon="8.8799166"><ele>316.25</ele><time>2026-04-02T15:30:49.533Z</time></trkpt><trkpt lat="45.745406" lon="8.8798786"><ele>316.0</ele><time>2026-04-02T15:30:50.534Z</time></trkpt><trkpt lat="45.7455111" lon="8.879843"><ele>316.0</ele><time>2026-04-02T15:30:51.535Z</time></trkpt><trkpt lat="45.745607" lon="8.8798097"><ele>316.0</ele><time>2026-04-02T15:30:52.535Z</time></trkpt><trkpt lat="45.7457022" lon="8.8797761"><ele>316.0</ele><time>2026-04-02T15:30:53.534Z</time></trkpt><trkpt lat="45.7457951" lon="8.8797442"><ele>316.0</ele><time>2026-04-02T15:30:54.535Z</time></trkpt><trkpt lat="45.745892" lon="8.8797099"><ele>316.0</ele><time>2026-04-02T15:30:55.533Z</time></trkpt><trkpt lat="45.7459926" lon="8.8796751"><ele>316.0</ele><time>2026-04-02T15:30:56.535Z</time></trkpt><trkpt lat="45.7460855" lon="8.8796445"><ele>316.0</ele><time>2026-04-02T15:30:57.535Z</time></trkpt><trkpt lat="45.7461803" lon="8.8796151"><ele>316.0</ele><time>2026-04-02T15:30:58.535Z</time></trkpt><trkpt lat="45.7462797" lon="8.8795868"><ele>316.0</ele><time>2026-04-02T15:30:59.534Z</time></trkpt><trkpt lat="45.7463791" lon="8.8795557"><ele>316.0</ele><time>2026-04-02T15:31:00.534Z</time></trkpt><trkpt lat="45.7464759" lon="8.8795221"><ele>316.0</ele><time>2026-04-02T15:31:01.535Z</time></trkpt><trkpt lat="45.7465652" lon="8.879491"><ele>316.0</ele><time>2026-04-02T15:31:02.535Z</time></trkpt><trkpt lat="45.7466524" lon="8.8794607"><ele>316.0</ele><time>2026-04-02T15:31:03.533Z</time></trkpt><trkpt lat="45.7467378" lon="8.8794278"><ele>316.0</ele><time>2026-04-02T15:31:04.534Z</time></trkpt><trkpt lat="45.7468179" lon="8.8793975"><ele>316.0</ele><time>2026-04-02T15:31:05.534Z</time></trkpt><trkpt lat="45.7469023" lon="8.8793689"><ele>316.0</ele><time>2026-04-02T15:31:06.534Z</time></trkpt><trkpt lat="45.7469821" lon="8.8793428"><ele>316.0</ele><time>2026-04-02T15:31:07.534Z</time></trkpt><trkpt lat="45.7470497" lon="8.8793206"><ele>316.0</ele><time>2026-04-02T15:31:08.534Z</time></trkpt><trkpt lat="45.74716" lon="8.8792794"><ele>316.0</ele><time>2026-04-02T15:31:10.534Z</time></trkpt><trkpt lat="45.7472775" lon="8.8792395"><ele>316.0</ele><time>2026-04-02T15:31:12.533Z</time></trkpt><trkpt lat="45.7473958" lon="8.8792003"><ele>316.0</ele><time>2026-04-02T15:31:14.533Z</time></trkpt><trkpt lat="45.7474974" lon="8.8791675"><ele>316.0</ele><time>2026-04-02T15:31:16.533Z</time></trkpt><trkpt lat="45.7475666" lon="8.879146"><ele>316.0</ele><time>2026-04-02T15:31:18.533Z</time></trkpt><trkpt lat="45.7476597" lon="8.8791144"><ele>316.0</ele><time>2026-04-02T15:31:21.534Z</time></trkpt><trkpt lat="45.7477493" lon="8.8790866"><ele>316.0</ele><time>2026-04-02T15:31:23.533Z</time></trkpt><trkpt lat="45.7478507" lon="8.8790577"><ele>316.0</ele><time>2026-04-02T15:31:25.534Z</time></trkpt><trkpt lat="45.7479807" lon="8.8790097"><ele>315.8</ele><time>2026-04-02T15:31:27.533Z</time></trkpt><trkpt lat="45.7480646" lon="8.8789817"><ele>315.6</ele><time>2026-04-02T15:31:28.534Z</time></trkpt><trkpt lat="45.7481543" lon="8.8789494"><ele>315.4</ele><time>2026-04-02T15:31:29.534Z</time></trkpt><trkpt lat="45.7482601" lon="8.8789078"><ele>315.2</ele><time>2026-04-02T15:31:30.533Z</time></trkpt><trkpt lat="45.7483672" lon="8.8788711"><ele>315.0</ele><time>2026-04-02T15:31:31.533Z</time></trkpt><trkpt lat="45.74847" lon="8.8788383"><ele>315.1666666666667</ele><time>2026-04-02T15:31:32.533Z</time></trkpt><trkpt lat="45.7485706" lon="8.8788055"><ele>315.3333333333333</ele><time>2026-04-02T15:31:33.534Z</time></trkpt><trkpt lat="45.7486575" lon="8.878777"><ele>315.5</ele><time>2026-04-02T15:31:34.533Z</time></trkpt><trkpt lat="45.7487301" lon="8.8787529"><ele>315.66666666666663</ele><time>2026-04-02T15:31:35.534Z</time></trkpt><trkpt lat="45.74883" lon="8.8787186"><ele>315.8333333333333</ele><time>2026-04-02T15:31:37.534Z</time></trkpt><trkpt lat="45.7489068" lon="8.8786917"><ele>316.0</ele><time>2026-04-02T15:31:39.534Z</time></trkpt><trkpt lat="45.7489762" lon="8.8786685"><ele>316.0</ele><time>2026-04-02T15:31:41.533Z</time></trkpt><trkpt lat="45.7490583" lon="8.8786359"><ele>316.0</ele><time>2026-04-02T15:31:43.532Z</time></trkpt><trkpt lat="45.749151" lon="8.8786019"><ele>316.0</ele><time>2026-04-02T15:31:45.533Z</time></trkpt><trkpt lat="45.7492522" lon="8.8785672"><ele>316.0</ele><time>2026-04-02T15:31:47.534Z</time></trkpt><trkpt lat="45.7493617" lon="8.8785299"><ele>316.0</ele><time>2026-04-02T15:31:49.534Z</time></trkpt><trkpt lat="45.7494709" lon="8.8784931"><ele>316.16666666666663</ele><time>2026-04-02T15:31:51.534Z</time></trkpt><trkpt lat="45.7495342" lon="8.8784738"><ele>316.3333333333333</ele><time>2026-04-02T15:31:52.533Z</time></trkpt><trkpt lat="45.7496002" lon="8.8784518"><ele>316.5</ele><time>2026-04-02T15:31:53.534Z</time></trkpt><trkpt lat="45.7496754" lon="8.8784258"><ele>316.6666666666667</ele><time>2026-04-02T15:31:54.533Z</time></trkpt><trkpt lat="45.7497591" lon="8.8783976"><ele>316.83333333333337</ele><time>2026-04-02T15:31:55.534Z</time></trkpt><trkpt lat="45.7498445" lon="8.8783707"><ele>317.0</ele><time>2026-04-02T15:31:56.533Z</time></trkpt><trkpt lat="45.7499313" lon="8.8783448"><ele>317.0</ele><time>2026-04-02T15:31:57.534Z</time></trkpt><trkpt lat="45.7500172" lon="8.8783167"><ele>317.0</ele><time>2026-04-02T15:31:58.532Z</time></trkpt><trkpt lat="45.7501066" lon="8.8782871"><ele>317.0</ele><time>2026-04-02T15:31:59.532Z</time></trkpt><trkpt lat="45.7501935" lon="8.8782569"><ele>317.0</ele><time>2026-04-02T15:32:00.533Z</time></trkpt><trkpt lat="45.7502719" lon="8.8782288"><ele>317.0</ele><time>2026-04-02T15:32:01.533Z</time></trkpt><trkpt lat="45.750352" lon="8.8782002"><ele>317.0</ele><time>2026-04-02T15:32:02.534Z</time></trkpt><trkpt lat="45.7504387" lon="8.8781707"><ele>317.33333333333337</ele><time>2026-04-02T15:32:03.532Z</time></trkpt><trkpt lat="45.7505308" lon="8.8781411"><ele>317.6666666666667</ele><time>2026-04-02T15:32:04.534Z</time></trkpt><trkpt lat="45.7506242" lon="8.8781163"><ele>318.0</ele><time>2026-04-02T15:32:05.534Z</time></trkpt><trkpt lat="45.7507095" lon="8.8780931"><ele>318.3333333333333</ele><time>2026-04-02T15:32:06.534Z</time></trkpt><trkpt lat="45.7507853" lon="8.8780709"><ele>318.66666666666663</ele><time>2026-04-02T15:32:07.533Z</time></trkpt><trkpt lat="45.7508546" lon="8.878053"><ele>319.0</ele><time>2026-04-02T15:32:08.533Z</time></trkpt><trkpt lat="45.7509668" lon="8.8780264"><ele>319.16666666666663</ele><time>2026-04-02T15:32:10.532Z</time></trkpt><trkpt lat="45.751093" lon="8.8779798"><ele>319.3333333333333</ele><time>2026-04-02T15:32:12.534Z</time></trkpt><trkpt lat="45.7511692" lon="8.8779464"><ele>319.5</ele><time>2026-04-02T15:32:13.534Z</time></trkpt><trkpt lat="45.7512461" lon="8.8779152"><ele>319.6666666666667</ele><time>2026-04-02T15:32:14.532Z</time></trkpt><trkpt lat="45.7513177" lon="8.8778869"><ele>319.83333333333337</ele><time>2026-04-02T15:32:15.533Z</time></trkpt><trkpt lat="45.7513984" lon="8.8778569"><ele>320.0</ele><time>2026-04-02T15:32:16.533Z</time></trkpt><trkpt lat="45.7514823" lon="8.8778308"><ele>320.0</ele><time>2026-04-02T15:32:17.532Z</time></trkpt><trkpt lat="45.7515695" lon="8.8778035"><ele>320.0</ele><time>2026-04-02T15:32:18.532Z</time></trkpt><trkpt lat="45.7516621" lon="8.8777737"><ele>320.0</ele><time>2026-04-02T15:32:19.534Z</time></trkpt><trkpt lat="45.7517552" lon="8.8777416"><ele>320.0</ele><time>2026-04-02T15:32:20.533Z</time></trkpt><trkpt lat="45.751848" lon="8.8777089"><ele>320.0</ele><time>2026-04-02T15:32:21.534Z</time></trkpt><trkpt lat="45.7519448" lon="8.877675"><ele>320.2</ele><time>2026-04-02T15:32:22.534Z</time></trkpt><trkpt lat="45.7520535" lon="8.877638"><ele>320.4</ele><time>2026-04-02T15:32:23.534Z</time></trkpt><trkpt lat="45.7521648" lon="8.8776007"><ele>320.6</ele><time>2026-04-02T15:32:24.534Z</time></trkpt><trkpt lat="45.7522641" lon="8.8775659"><ele>320.8</ele><time>2026-04-02T15:32:25.533Z</time></trkpt><trkpt lat="45.7523593" lon="8.8775331"><ele>321.0</ele><time>2026-04-02T15:32:26.533Z</time></trkpt><trkpt lat="45.7524564" lon="8.8774995"><ele>321.0</ele><time>2026-04-02T15:32:27.533Z</time></trkpt><trkpt lat="45.7525508" lon="8.8774675"><ele>321.0</ele><time>2026-04-02T15:32:28.534Z</time></trkpt><trkpt lat="45.7526438" lon="8.8774356"><ele>321.0</ele><time>2026-04-02T15:32:29.534Z</time></trkpt><trkpt lat="45.7527405" lon="8.8774025"><ele>321.0</ele><time>2026-04-02T15:32:30.534Z</time></trkpt><trkpt lat="45.7528382" lon="8.8773689"><ele>321.0</ele><time>2026-04-02T15:32:31.534Z</time></trkpt><trkpt lat="45.7529344" lon="8.8773359"><ele>321.0</ele><time>2026-04-02T15:32:32.534Z</time></trkpt><trkpt lat="45.753019" lon="8.8773057"><ele>321.0</ele><time>2026-04-02T15:32:33.533Z</time></trkpt><trkpt lat="45.7531005" lon="8.87728"><ele>321.0</ele><time>2026-04-02T15:32:34.534Z</time></trkpt><trkpt lat="45.7531801" lon="8.8772555"><ele>321.0</ele><time>2026-04-02T15:32:35.533Z</time></trkpt><trkpt lat="45.7532529" lon="8.8772318"><ele>321.0</ele><time>2026-04-02T15:32:36.533Z</time></trkpt><trkpt lat="45.7533179" lon="8.8772111"><ele>321.0</ele><time>2026-04-02T15:32:37.533Z</time></trkpt><trkpt lat="45.7533847" lon="8.8771892"><ele>321.0</ele><time>2026-04-02T15:32:38.534Z</time></trkpt><trkpt lat="45.7534565" lon="8.8771649"><ele>321.0</ele><time>2026-04-02T15:32:39.534Z</time></trkpt><trkpt lat="45.7535365" lon="8.8771368"><ele>321.0</ele><time>2026-04-02T15:32:40.534Z</time></trkpt><trkpt lat="45.7536121" lon="8.8771073"><ele>321.0</ele><time>2026-04-02T15:32:41.534Z</time></trkpt><trkpt lat="45.7536913" lon="8.877076"><ele>321.0</ele><time>2026-04-02T15:32:42.532Z</time></trkpt><trkpt lat="45.7537763" lon="8.8770431"><ele>321.0</ele><time>2026-04-02T15:32:43.534Z</time></trkpt><trkpt lat="45.7538609" lon="8.8770124"><ele>321.20000000000005</ele><time>2026-04-02T15:32:44.534Z</time></trkpt><trkpt lat="45.7539442" lon="8.8769818"><ele>321.40000000000003</ele><time>2026-04-02T15:32:45.533Z</time></trkpt><trkpt lat="45.754032" lon="8.8769473"><ele>321.6</ele><time>2026-04-02T15:32:46.534Z</time></trkpt><trkpt lat="45.7541239" lon="8.8769132"><ele>321.8</ele><time>2026-04-02T15:32:47.533Z</time></trkpt><trkpt lat="45.7542273" lon="8.8768799"><ele>322.0</ele><time>2026-04-02T15:32:48.533Z</time></trkpt><trkpt lat="45.7543355" lon="8.8768463"><ele>322.40000000000003</ele><time>2026-04-02T15:32:49.533Z</time></trkpt><trkpt lat="45.7544448" lon="8.8768158"><ele>322.8</ele><time>2026-04-02T15:32:50.533Z</time></trkpt><trkpt lat="45.7545563" lon="8.8767826"><ele>323.2</ele><time>2026-04-02T15:32:51.534Z</time></trkpt><trkpt lat="45.7546646" lon="8.8767502"><ele>323.6</ele><time>2026-04-02T15:32:52.533Z</time></trkpt><trkpt lat="45.7547698" lon="8.8767184"><ele>324.0</ele><time>2026-04-02T15:32:53.533Z</time></trkpt><trkpt lat="45.7548765" lon="8.8766865"><ele>324.0</ele><time>2026-04-02T15:32:54.533Z</time></trkpt><trkpt lat="45.7549801" lon="8.8766531"><ele>324.0</ele><time>2026-04-02T15:32:55.534Z</time></trkpt><trkpt lat="45.7550849" lon="8.876619"><ele>324.0</ele><time>2026-04-02T15:32:56.534Z</time></trkpt><trkpt lat="45.7551852" lon="8.8765864"><ele>324.0</ele><time>2026-04-02T15:32:57.534Z</time></trkpt><trkpt lat="45.7552946" lon="8.8765444"><ele>324.0</ele><time>2026-04-02T15:32:58.534Z</time></trkpt><trkpt lat="45.7554214" lon="8.876494"><ele>324.0</ele><time>2026-04-02T15:32:59.533Z</time></trkpt><trkpt lat="45.7555621" lon="8.8764413"><ele>324.0</ele><time>2026-04-02T15:33:00.533Z</time></trkpt><trkpt lat="45.7557086" lon="8.8763901"><ele>324.0</ele><time>2026-04-02T15:33:01.534Z</time></trkpt><trkpt lat="45.7558573" lon="8.8763414"><ele>324.0</ele><time>2026-04-02T15:33:02.533Z</time></trkpt><trkpt lat="45.7559958" lon="8.8762976"><ele>325.0</ele><time>2026-04-02T15:33:03.533Z</time></trkpt><trkpt lat="45.7561293" lon="8.8762559"><ele>326.0</ele><time>2026-04-02T15:33:04.533Z</time></trkpt><trkpt lat="45.7562522" lon="8.8762158"><ele>327.0</ele><time>2026-04-02T15:33:05.533Z</time></trkpt><trkpt lat="45.7563687" lon="8.8761764"><ele>328.0</ele><time>2026-04-02T15:33:06.534Z</time></trkpt><trkpt lat="45.7564907" lon="8.8761355"><ele>328.0</ele><time>2026-04-02T15:33:07.534Z</time></trkpt><trkpt lat="45.756608" lon="8.876096"><ele>328.0</ele><time>2026-04-02T15:33:08.533Z</time></trkpt><trkpt lat="45.7567226" lon="8.8760568"><ele>328.0</ele><time>2026-04-02T15:33:09.533Z</time></trkpt><trkpt lat="45.756841" lon="8.8760168"><ele>328.0</ele><time>2026-04-02T15:33:10.533Z</time></trkpt><trkpt lat="45.756957" lon="8.8759788"><ele>327.59999999999997</ele><time>2026-04-02T15:33:11.533Z</time></trkpt><trkpt lat="45.7570733" lon="8.87594"><ele>327.2</ele><time>2026-04-02T15:33:12.534Z</time></trkpt><trkpt lat="45.7571808" lon="8.8759037"><ele>326.8</ele><time>2026-04-02T15:33:13.534Z</time></trkpt><trkpt lat="45.7572804" lon="8.8758699"><ele>326.4</ele><time>2026-04-02T15:33:14.534Z</time></trkpt><trkpt lat="45.757384" lon="8.8758352"><ele>326.0</ele><time>2026-04-02T15:33:15.534Z</time></trkpt><trkpt lat="45.7574808" lon="8.8758022"><ele>326.0</ele><time>2026-04-02T15:33:16.534Z</time></trkpt><trkpt lat="45.7575693" lon="8.8757723"><ele>326.0</ele><time>2026-04-02T15:33:17.534Z</time></trkpt><trkpt lat="45.7576535" lon="8.8757419"><ele>326.0</ele><time>2026-04-02T15:33:18.534Z</time></trkpt><trkpt lat="45.7577299" lon="8.8757146"><ele>326.0</ele><time>2026-04-02T15:33:19.534Z</time></trkpt><trkpt lat="45.7577985" lon="8.8756898"><ele>326.0</ele><time>2026-04-02T15:33:20.534Z</time></trkpt><trkpt lat="45.7579199" lon="8.8756491"><ele>326.0</ele><time>2026-04-02T15:33:22.533Z</time></trkpt><trkpt lat="45.7579909" lon="8.8756251"><ele>326.0</ele><time>2026-04-02T15:33:23.532Z</time></trkpt><trkpt lat="45.7580686" lon="8.8755992"><ele>326.0</ele><time>2026-04-02T15:33:24.533Z</time></trkpt><trkpt lat="45.7581481" lon="8.8755732"><ele>326.0</ele><time>2026-04-02T15:33:25.534Z</time></trkpt><trkpt lat="45.7582334" lon="8.8755443"><ele>326.0</ele><time>2026-04-02T15:33:26.534Z</time></trkpt><trkpt lat="45.7583249" lon="8.875513"><ele>326.0</ele><time>2026-04-02T15:33:27.534Z</time></trkpt><trkpt lat="45.7584295" lon="8.8754841"><ele>326.0</ele><time>2026-04-02T15:33:28.534Z</time></trkpt><trkpt lat="45.7585399" lon="8.8754649"><ele>326.0</ele><time>2026-04-02T15:33:29.534Z</time></trkpt><trkpt lat="45.7586463" lon="8.8754576"><ele>326.0</ele><time>2026-04-02T15:33:30.533Z</time></trkpt><trkpt lat="45.7587611" lon="8.8754594"><ele>326.0</ele><time>2026-04-02T15:33:31.533Z</time></trkpt><trkpt lat="45.7588754" lon="8.875469"><ele>326.0</ele><time>2026-04-02T15:33:32.534Z</time></trkpt><trkpt lat="45.7589939" lon="8.8754841"><ele>326.0</ele><time>2026-04-02T15:33:33.533Z</time></trkpt><trkpt lat="45.7591301" lon="8.8755032"><ele>326.0</ele><time>2026-04-02T15:33:34.534Z</time></trkpt><trkpt lat="45.7592751" lon="8.8755274"><ele>326.0</ele><time>2026-04-02T15:33:35.534Z</time></trkpt><trkpt lat="45.7594232" lon="8.8755551"><ele>326.0</ele><time>2026-04-02T15:33:36.533Z</time></trkpt><trkpt lat="45.7595574" lon="8.8755812"><ele>326.0</ele><time>2026-04-02T15:33:37.534Z</time></trkpt><trkpt lat="45.7596825" lon="8.8756046"><ele>326.0</ele><time>2026-04-02T15:33:38.533Z</time></trkpt><trkpt lat="45.7598082" lon="8.8756291"><ele>326.0</ele><time>2026-04-02T15:33:39.534Z</time></trkpt><trkpt lat="45.7599242" lon="8.8756525"><ele>326.0</ele><time>2026-04-02T15:33:40.534Z</time></trkpt><trkpt lat="45.7600339" lon="8.8756741"><ele>326.0</ele><time>2026-04-02T15:33:41.534Z</time></trkpt><trkpt lat="45.7601494" lon="8.8756968"><ele>326.0</ele><time>2026-04-02T15:33:42.534Z</time></trkpt><trkpt lat="45.7602677" lon="8.8757217"><ele>326.0</ele><time>2026-04-02T15:33:43.534Z</time></trkpt><trkpt lat="45.7603939" lon="8.8757478"><ele>326.0</ele><time>2026-04-02T15:33:44.534Z</time></trkpt><trkpt lat="45.7605152" lon="8.8757717"><ele>325.25</ele><time>2026-04-02T15:33:45.533Z</time></trkpt><trkpt lat="45.7606351" lon="8.8757951"><ele>324.5</ele><time>2026-04-02T15:33:46.533Z</time></trkpt><trkpt lat="45.7607612" lon="8.8758189"><ele>323.75</ele><time>2026-04-02T15:33:47.533Z</time></trkpt><trkpt lat="45.7608849" lon="8.8758421"><ele>323.0</ele><time>2026-04-02T15:33:48.533Z</time></trkpt><trkpt lat="45.7610058" lon="8.8758654"><ele>323.25</ele><time>2026-04-02T15:33:49.533Z</time></trkpt><trkpt lat="45.7611295" lon="8.8758896"><ele>323.5</ele><time>2026-04-02T15:33:50.532Z</time></trkpt><trkpt lat="45.7612489" lon="8.8759137"><ele>323.75</ele><time>2026-04-02T15:33:51.533Z</time></trkpt><trkpt lat="45.761368" lon="8.8759357"><ele>324.0</ele><time>2026-04-02T15:33:52.533Z</time></trkpt><trkpt lat="45.761481" lon="8.8759572"><ele>324.75</ele><time>2026-04-02T15:33:53.533Z</time></trkpt><trkpt lat="45.7615905" lon="8.8759783"><ele>325.5</ele><time>2026-04-02T15:33:54.534Z</time></trkpt><trkpt lat="45.7617087" lon="8.8760013"><ele>326.25</ele><time>2026-04-02T15:33:55.534Z</time></trkpt><trkpt lat="45.7618261" lon="8.8760243"><ele>327.0</ele><time>2026-04-02T15:33:56.534Z</time></trkpt><trkpt lat="45.7619443" lon="8.8760474"><ele>328.0</ele><time>2026-04-02T15:33:57.533Z</time></trkpt><trkpt lat="45.7620729" lon="8.8760734"><ele>329.0</ele><time>2026-04-02T15:33:58.534Z</time></trkpt><trkpt lat="45.7622071" lon="8.8761013"><ele>330.0</ele><time>2026-04-02T15:33:59.534Z</time></trkpt><trkpt lat="45.7623436" lon="8.8761309"><ele>331.0</ele><time>2026-04-02T15:34:00.534Z</time></trkpt><trkpt lat="45.7624764" lon="8.8761579"><ele>331.0</ele><time>2026-04-02T15:34:01.533Z</time></trkpt><trkpt lat="45.7626066" lon="8.8761833"><ele>331.0</ele><time>2026-04-02T15:34:02.532Z</time></trkpt><trkpt lat="45.7627411" lon="8.8762082"><ele>331.0</ele><time>2026-04-02T15:34:03.533Z</time></trkpt><trkpt lat="45.7628681" lon="8.8762319"><ele>331.0</ele><time>2026-04-02T15:34:04.534Z</time></trkpt><trkpt lat="45.76299" lon="8.8762572"><ele>331.0</ele><time>2026-04-02T15:34:05.533Z</time></trkpt><trkpt lat="45.7631174" lon="8.8762842"><ele>331.0</ele><time>2026-04-02T15:34:06.534Z</time></trkpt><trkpt lat="45.7632476" lon="8.8763131"><ele>331.0</ele><time>2026-04-02T15:34:07.534Z</time></trkpt><trkpt lat="45.7633811" lon="8.8763417"><ele>331.0</ele><time>2026-04-02T15:34:08.534Z</time></trkpt><trkpt lat="45.7635136" lon="8.8763688"><ele>332.5</ele><time>2026-04-02T15:34:09.533Z</time></trkpt><trkpt lat="45.7636387" lon="8.87639"><ele>334.0</ele><time>2026-04-02T15:34:10.533Z</time></trkpt><trkpt lat="45.7637676" lon="8.8763982"><ele>335.5</ele><time>2026-04-02T15:34:11.534Z</time></trkpt><trkpt lat="45.7638908" lon="8.8763853"><ele>337.0</ele><time>2026-04-02T15:34:12.534Z</time></trkpt><trkpt lat="45.7640101" lon="8.8763507"><ele>337.0</ele><time>2026-04-02T15:34:13.534Z</time></trkpt><trkpt lat="45.7641333" lon="8.8762911"><ele>337.0</ele><time>2026-04-02T15:34:14.534Z</time></trkpt><trkpt lat="45.7642572" lon="8.876211"><ele>337.0</ele><time>2026-04-02T15:34:15.534Z</time></trkpt><trkpt lat="45.7643797" lon="8.8761199"><ele>337.0</ele><time>2026-04-02T15:34:16.533Z</time></trkpt><trkpt lat="45.7644938" lon="8.8760316"><ele>336.0</ele><time>2026-04-02T15:34:17.533Z</time></trkpt><trkpt lat="45.7646024" lon="8.8759546"><ele>335.0</ele><time>2026-04-02T15:34:18.533Z</time></trkpt><trkpt lat="45.7647215" lon="8.8758748"><ele>334.0</ele><time>2026-04-02T15:34:19.532Z</time></trkpt><trkpt lat="45.7648399" lon="8.875799"><ele>333.0</ele><time>2026-04-02T15:34:20.532Z</time></trkpt><trkpt lat="45.7649564" lon="8.8757267"><ele>333.0</ele><time>2026-04-02T15:34:21.533Z</time></trkpt><trkpt lat="45.7650794" lon="8.8756533"><ele>333.0</ele><time>2026-04-02T15:34:22.533Z</time></trkpt><trkpt lat="45.7652053" lon="8.8755808"><ele>333.0</ele><time>2026-04-02T15:34:23.533Z</time></trkpt><trkpt lat="45.765335" lon="8.8755064"><ele>333.0</ele><time>2026-04-02T15:34:24.533Z</time></trkpt><trkpt lat="45.7654624" lon="8.875436"><ele>335.0</ele><time>2026-04-02T15:34:25.532Z</time></trkpt><trkpt lat="45.7655871" lon="8.8753694"><ele>337.0</ele><time>2026-04-02T15:34:26.532Z</time></trkpt><trkpt lat="45.7657207" lon="8.8752977"><ele>339.0</ele><time>2026-04-02T15:34:27.532Z</time></trkpt><trkpt lat="45.7658518" lon="8.8752288"><ele>341.0</ele><time>2026-04-02T15:34:28.532Z</time></trkpt><trkpt lat="45.765975" lon="8.8751652"><ele>338.0</ele><time>2026-04-02T15:34:29.532Z</time></trkpt><trkpt lat="45.7660979" lon="8.8751021"><ele>335.0</ele><time>2026-04-02T15:34:30.531Z</time></trkpt><trkpt lat="45.7662163" lon="8.8750402"><ele>332.0</ele><time>2026-04-02T15:34:31.532Z</time></trkpt><trkpt lat="45.7663332" lon="8.874982"><ele>329.0</ele><time>2026-04-02T15:34:32.533Z</time></trkpt><trkpt lat="45.7664435" lon="8.8749279"><ele>329.0</ele><time>2026-04-02T15:34:33.533Z</time></trkpt><trkpt lat="45.7665459" lon="8.8748776"><ele>329.0</ele><time>2026-04-02T15:34:34.532Z</time></trkpt><trkpt lat="45.7666491" lon="8.8748252"><ele>329.0</ele><time>2026-04-02T15:34:35.533Z</time></trkpt><trkpt lat="45.7667444" lon="8.8747783"><ele>329.0</ele><time>2026-04-02T15:34:36.533Z</time></trkpt><trkpt lat="45.7668312" lon="8.8747356"><ele>329.0</ele><time>2026-04-02T15:34:37.532Z</time></trkpt><trkpt lat="45.7669207" lon="8.8746907"><ele>330.1666666666667</ele><time>2026-04-02T15:34:38.532Z</time></trkpt><trkpt lat="45.7670107" lon="8.8746446"><ele>331.33333333333337</ele><time>2026-04-02T15:34:39.532Z</time></trkpt><trkpt lat="45.7671028" lon="8.8745972"><ele>332.5</ele><time>2026-04-02T15:34:40.533Z</time></trkpt><trkpt lat="45.767189" lon="8.8745531"><ele>333.6666666666667</ele><time>2026-04-02T15:34:41.533Z</time></trkpt><trkpt lat="45.7672619" lon="8.8745175"><ele>334.8333333333333</ele><time>2026-04-02T15:34:42.533Z</time></trkpt><trkpt lat="45.7673358" lon="8.8744837"><ele>336.0</ele><time>2026-04-02T15:34:43.533Z</time></trkpt><trkpt lat="45.7674053" lon="8.8744535"><ele>336.0</ele><time>2026-04-02T15:34:44.533Z</time></trkpt><trkpt lat="45.7674715" lon="8.8744286"><ele>336.0</ele><time>2026-04-02T15:34:45.532Z</time></trkpt><trkpt lat="45.7675377" lon="8.8744081"><ele>336.0</ele><time>2026-04-02T15:34:46.532Z</time></trkpt><trkpt lat="45.7676013" lon="8.8743937"><ele>336.0</ele><time>2026-04-02T15:34:47.532Z</time></trkpt><trkpt lat="45.7676648" lon="8.8743823"><ele>336.0</ele><time>2026-04-02T15:34:48.533Z</time></trkpt><trkpt lat="45.7677861" lon="8.8743686"><ele>336.0</ele><time>2026-04-02T15:34:50.533Z</time></trkpt><trkpt lat="45.7678546" lon="8.8743617"><ele>337.0</ele><time>2026-04-02T15:34:51.533Z</time></trkpt><trkpt lat="45.7679274" lon="8.8743532"><ele>338.0</ele><time>2026-04-02T15:34:52.533Z</time></trkpt><trkpt lat="45.7679964" lon="8.8743456"><ele>339.0</ele><time>2026-04-02T15:34:53.531Z</time></trkpt><trkpt lat="45.7680649" lon="8.8743402"><ele>340.0</ele><time>2026-04-02T15:34:54.533Z</time></trkpt><trkpt lat="45.7681342" lon="8.874337"><ele>341.0</ele><time>2026-04-02T15:34:55.533Z</time></trkpt><trkpt lat="45.7682099" lon="8.8743438"><ele>342.0</ele><time>2026-04-02T15:34:56.532Z</time></trkpt><trkpt lat="45.7682913" lon="8.8743667"><ele>343.0</ele><time>2026-04-02T15:34:57.532Z</time></trkpt><trkpt lat="45.7683773" lon="8.8743847"><ele>343.0</ele><time>2026-04-02T15:34:58.533Z</time></trkpt><trkpt lat="45.7684745" lon="8.8743733"><ele>343.0</ele><time>2026-04-02T15:34:59.532Z</time></trkpt><trkpt lat="45.7685761" lon="8.8743329"><ele>343.0</ele><time>2026-04-02T15:35:00.533Z</time></trkpt><trkpt lat="45.7686857" lon="8.8743045"><ele>343.0</ele><time>2026-04-02T15:35:01.532Z</time></trkpt><trkpt lat="45.7688101" lon="8.8742878"><ele>343.0</ele><time>2026-04-02T15:35:02.533Z</time></trkpt><trkpt lat="45.7689319" lon="8.8742803"><ele>344.0</ele><time>2026-04-02T15:35:03.531Z</time></trkpt><trkpt lat="45.7690598" lon="8.8742766"><ele>345.0</ele><time>2026-04-02T15:35:04.533Z</time></trkpt><trkpt lat="45.7692004" lon="8.8742731"><ele>346.0</ele><time>2026-04-02T15:35:05.532Z</time></trkpt><trkpt lat="45.7693598" lon="8.8742691"><ele>347.0</ele><time>2026-04-02T15:35:06.532Z</time></trkpt><trkpt lat="45.7695376" lon="8.874269"><ele>348.33333333333337</ele><time>2026-04-02T15:35:07.532Z</time></trkpt><trkpt lat="45.7697016" lon="8.8742711"><ele>349.6666666666667</ele><time>2026-04-02T15:35:08.533Z</time></trkpt><trkpt lat="45.7698575" lon="8.8742751"><ele>351.0</ele><time>2026-04-02T15:35:09.531Z</time></trkpt><trkpt lat="45.7700187" lon="8.8742831"><ele>351.0</ele><time>2026-04-02T15:35:10.533Z</time></trkpt><trkpt lat="45.7701816" lon="8.8742941"><ele>351.0</ele><time>2026-04-02T15:35:11.533Z</time></trkpt><trkpt lat="45.7703503" lon="8.8743057"><ele>351.0</ele><time>2026-04-02T15:35:12.532Z</time></trkpt><trkpt lat="45.7705178" lon="8.8743187"><ele>349.3333333333333</ele><time>2026-04-02T15:35:13.532Z</time></trkpt><trkpt lat="45.7706783" lon="8.8743347"><ele>347.66666666666663</ele><time>2026-04-02T15:35:14.533Z</time></trkpt><trkpt lat="45.7708439" lon="8.8743526"><ele>346.0</ele><time>2026-04-02T15:35:15.533Z</time></trkpt><trkpt lat="45.7710039" lon="8.8743624"><ele>345.3333333333333</ele><time>2026-04-02T15:35:16.533Z</time></trkpt><trkpt lat="45.7711614" lon="8.8743525"><ele>344.6666666666667</ele><time>2026-04-02T15:35:17.532Z</time></trkpt><trkpt lat="45.7713313" lon="8.8743198"><ele>344.0</ele><time>2026-04-02T15:35:18.533Z</time></trkpt><trkpt lat="45.7715045" lon="8.8742656"><ele>334.0</ele><time>2026-04-02T15:35:19.532Z</time></trkpt><trkpt lat="45.7716907" lon="8.8742045"><ele>324.0</ele><time>2026-04-02T15:35:20.532Z</time></trkpt><trkpt lat="45.7718741" lon="8.8741466"><ele>314.0</ele><time>2026-04-02T15:35:21.532Z</time></trkpt><trkpt lat="45.7720468" lon="8.8740881"><ele>314.0</ele><time>2026-04-02T15:35:22.531Z</time></trkpt><trkpt lat="45.772225" lon="8.8740261"><ele>314.0</ele><time>2026-04-02T15:35:23.532Z</time></trkpt><trkpt lat="45.7723916" lon="8.87397"><ele>314.0</ele><time>2026-04-02T15:35:24.532Z</time></trkpt><trkpt lat="45.7725482" lon="8.8739166"><ele>313.33333333333337</ele><time>2026-04-02T15:35:25.532Z</time></trkpt><trkpt lat="45.7727026" lon="8.87387"><ele>312.6666666666667</ele><time>2026-04-02T15:35:26.532Z</time></trkpt><trkpt lat="45.7728524" lon="8.8738194"><ele>312.0</ele><time>2026-04-02T15:35:27.532Z</time></trkpt><trkpt lat="45.7729998" lon="8.8737688"><ele>312.0</ele><time>2026-04-02T15:35:28.532Z</time></trkpt><trkpt lat="45.7731384" lon="8.873722"><ele>312.0</ele><time>2026-04-02T15:35:29.533Z</time></trkpt><trkpt lat="45.7732678" lon="8.8736788"><ele>312.0</ele><time>2026-04-02T15:35:30.533Z</time></trkpt><trkpt lat="45.7734023" lon="8.8736338"><ele>312.0</ele><time>2026-04-02T15:35:31.531Z</time></trkpt><trkpt lat="45.7735339" lon="8.8735911"><ele>311.75</ele><time>2026-04-02T15:35:32.533Z</time></trkpt><trkpt lat="45.7736628" lon="8.8735495"><ele>311.5</ele><time>2026-04-02T15:35:33.533Z</time></trkpt><trkpt lat="45.7737941" lon="8.8735046"><ele>311.25</ele><time>2026-04-02T15:35:34.532Z</time></trkpt><trkpt lat="45.7739153" lon="8.8734477"><ele>311.0</ele><time>2026-04-02T15:35:35.532Z</time></trkpt><trkpt lat="45.7740265" lon="8.8733681"><ele>306.75</ele><time>2026-04-02T15:35:36.533Z</time></trkpt><trkpt lat="45.7741166" lon="8.8732673"><ele>302.5</ele><time>2026-04-02T15:35:37.532Z</time></trkpt><trkpt lat="45.774185" lon="8.8731424"><ele>298.25</ele><time>2026-04-02T15:35:38.533Z</time></trkpt><trkpt lat="45.7742345" lon="8.8729841"><ele>294.0</ele><time>2026-04-02T15:35:39.533Z</time></trkpt><trkpt lat="45.7742585" lon="8.8728209"><ele>294.0</ele><time>2026-04-02T15:35:40.533Z</time></trkpt><trkpt lat="45.7742676" lon="8.8726625"><ele>294.0</ele><time>2026-04-02T15:35:41.532Z</time></trkpt><trkpt lat="45.7742724" lon="8.8724982"><ele>294.0</ele><time>2026-04-02T15:35:42.532Z</time></trkpt><trkpt lat="45.7742799" lon="8.8723445"><ele>294.0</ele><time>2026-04-02T15:35:43.533Z</time></trkpt><trkpt lat="45.7743004" lon="8.8721889"><ele>294.0</ele><time>2026-04-02T15:35:44.533Z</time></trkpt><trkpt lat="45.7743463" lon="8.8720487"><ele>292.5</ele><time>2026-04-02T15:35:45.532Z</time></trkpt><trkpt lat="45.7744207" lon="8.8719233"><ele>291.0</ele><time>2026-04-02T15:35:46.533Z</time></trkpt><trkpt lat="45.7745195" lon="8.8718033"><ele>289.5</ele><time>2026-04-02T15:35:47.533Z</time></trkpt><trkpt lat="45.7746194" lon="8.8717037"><ele>288.0</ele><time>2026-04-02T15:35:48.533Z</time></trkpt><trkpt lat="45.7747138" lon="8.8716147"><ele>287.5</ele><time>2026-04-02T15:35:49.532Z</time></trkpt><trkpt lat="45.7748089" lon="8.8715259"><ele>287.0</ele><time>2026-04-02T15:35:50.533Z</time></trkpt><trkpt lat="45.7749053" lon="8.8714385"><ele>286.5</ele><time>2026-04-02T15:35:51.533Z</time></trkpt><trkpt lat="45.7750089" lon="8.871346"><ele>286.0</ele><time>2026-04-02T15:35:52.533Z</time></trkpt><trkpt lat="45.7751092" lon="8.871256"><ele>286.0</ele><time>2026-04-02T15:35:53.533Z</time></trkpt><trkpt lat="45.7752067" lon="8.8711655"><ele>286.0</ele><time>2026-04-02T15:35:54.532Z</time></trkpt><trkpt lat="45.7753108" lon="8.8710675"><ele>286.0</ele><time>2026-04-02T15:35:55.533Z</time></trkpt><trkpt lat="45.7754112" lon="8.8709736"><ele>286.0</ele><time>2026-04-02T15:35:56.533Z</time></trkpt><trkpt lat="45.7755056" lon="8.870885"><ele>285.40000000000003</ele><time>2026-04-02T15:35:57.533Z</time></trkpt><trkpt lat="45.7755974" lon="8.8707954"><ele>284.8</ele><time>2026-04-02T15:35:58.532Z</time></trkpt><trkpt lat="45.7756818" lon="8.8707106"><ele>284.20000000000005</ele><time>2026-04-02T15:35:59.532Z</time></trkpt><trkpt lat="45.7757597" lon="8.8706287"><ele>283.6</ele><time>2026-04-02T15:36:00.532Z</time></trkpt><trkpt lat="45.7758271" lon="8.8705588"><ele>283.0</ele><time>2026-04-02T15:36:01.531Z</time></trkpt><trkpt lat="45.7758861" lon="8.8705001"><ele>283.0</ele><time>2026-04-02T15:36:02.532Z</time></trkpt><trkpt lat="45.7759461" lon="8.8704481"><ele>283.0</ele><time>2026-04-02T15:36:03.532Z</time></trkpt><trkpt lat="45.7760073" lon="8.8704075"><ele>283.0</ele><time>2026-04-02T15:36:04.531Z</time></trkpt><trkpt lat="45.7760708" lon="8.8703802"><ele>283.0</ele><time>2026-04-02T15:36:05.532Z</time></trkpt><trkpt lat="45.7761484" lon="8.8703655"><ele>283.0</ele><time>2026-04-02T15:36:06.533Z</time></trkpt><trkpt lat="45.7762358" lon="8.8703639"><ele>283.0</ele><time>2026-04-02T15:36:07.533Z</time></trkpt><trkpt lat="45.7763298" lon="8.8703557"><ele>283.0</ele><time>2026-04-02T15:36:08.532Z</time></trkpt><trkpt lat="45.7764185" lon="8.8703222"><ele>283.0</ele><time>2026-04-02T15:36:09.533Z</time></trkpt><trkpt lat="45.7764932" lon="8.8702626"><ele>283.0</ele><time>2026-04-02T15:36:10.532Z</time></trkpt><trkpt lat="45.7765571" lon="8.8701754"><ele>283.0</ele><time>2026-04-02T15:36:11.533Z</time></trkpt><trkpt lat="45.7766012" lon="8.8700706"><ele>283.0</ele><time>2026-04-02T15:36:12.532Z</time></trkpt><trkpt lat="45.7766219" lon="8.8699585"><ele>283.0</ele><time>2026-04-02T15:36:13.532Z</time></trkpt><trkpt lat="45.7766215" lon="8.8698328"><ele>282.66666666666663</ele><time>2026-04-02T15:36:14.533Z</time></trkpt><trkpt lat="45.7765992" lon="8.8697134"><ele>282.3333333333333</ele><time>2026-04-02T15:36:15.532Z</time></trkpt><trkpt lat="45.7765657" lon="8.8696014"><ele>282.0</ele><time>2026-04-02T15:36:16.533Z</time></trkpt><trkpt lat="45.7765376" lon="8.8694984"><ele>281.6666666666667</ele><time>2026-04-02T15:36:17.532Z</time></trkpt><trkpt lat="45.7765232" lon="8.8693919"><ele>281.33333333333337</ele><time>2026-04-02T15:36:18.533Z</time></trkpt><trkpt lat="45.7765213" lon="8.8692845"><ele>281.0</ele><time>2026-04-02T15:36:19.532Z</time></trkpt><trkpt lat="45.7765143" lon="8.869185"><ele>280.83333333333337</ele><time>2026-04-02T15:36:20.533Z</time></trkpt><trkpt lat="45.7764924" lon="8.8690876"><ele>280.6666666666667</ele><time>2026-04-02T15:36:21.532Z</time></trkpt><trkpt lat="45.776456" lon="8.86899"><ele>280.5</ele><time>2026-04-02T15:36:22.532Z</time></trkpt><trkpt lat="45.7764116" lon="8.868891"><ele>280.3333333333333</ele><time>2026-04-02T15:36:23.533Z</time></trkpt><trkpt lat="45.7763624" lon="8.8687925"><ele>280.16666666666663</ele><time>2026-04-02T15:36:24.532Z</time></trkpt><trkpt lat="45.7763154" lon="8.8687003"><ele>280.0</ele><time>2026-04-02T15:36:25.533Z</time></trkpt><trkpt lat="45.776269" lon="8.8686111"><ele>280.0</ele><time>2026-04-02T15:36:26.533Z</time></trkpt><trkpt lat="45.7762193" lon="8.8685152"><ele>280.0</ele><time>2026-04-02T15:36:27.533Z</time></trkpt><trkpt lat="45.776171" lon="8.8684226"><ele>280.0</ele><time>2026-04-02T15:36:28.533Z</time></trkpt><trkpt lat="45.776126" lon="8.8683356"><ele>280.0</ele><time>2026-04-02T15:36:29.533Z</time></trkpt><trkpt lat="45.7760844" lon="8.8682473"><ele>280.0</ele><time>2026-04-02T15:36:30.533Z</time></trkpt><trkpt lat="45.7760482" lon="8.8681559"><ele>280.0</ele><time>2026-04-02T15:36:31.533Z</time></trkpt><trkpt lat="45.7760162" lon="8.8680578"><ele>279.85714285714283</ele><time>2026-04-02T15:36:32.533Z</time></trkpt><trkpt lat="45.7759938" lon="8.8679605"><ele>279.7142857142857</ele><time>2026-04-02T15:36:33.533Z</time></trkpt><trkpt lat="45.7759866" lon="8.8678624"><ele>279.57142857142856</ele><time>2026-04-02T15:36:34.532Z</time></trkpt><trkpt lat="45.7759941" lon="8.8677578"><ele>279.42857142857144</ele><time>2026-04-02T15:36:35.531Z</time></trkpt><trkpt lat="45.7760133" lon="8.8676526"><ele>279.2857142857143</ele><time>2026-04-02T15:36:36.533Z</time></trkpt><trkpt lat="45.7760476" lon="8.8675554"><ele>279.1428571428571</ele><time>2026-04-02T15:36:37.533Z</time></trkpt><trkpt lat="45.7760997" lon="8.867467"><ele>279.0</ele><time>2026-04-02T15:36:38.533Z</time></trkpt><trkpt lat="45.7761666" lon="8.86739"><ele>280.0</ele><time>2026-04-02T15:36:39.533Z</time></trkpt><trkpt lat="45.7762481" lon="8.8673278"><ele>281.0</ele><time>2026-04-02T15:36:40.533Z</time></trkpt><trkpt lat="45.7763342" lon="8.8672859"><ele>282.0</ele><time>2026-04-02T15:36:41.531Z</time></trkpt><trkpt lat="45.7764296" lon="8.8672512"><ele>283.0</ele><time>2026-04-02T15:36:42.532Z</time></trkpt><trkpt lat="45.7765364" lon="8.8672113"><ele>284.0</ele><time>2026-04-02T15:36:43.532Z</time></trkpt><trkpt lat="45.7766487" lon="8.8671708"><ele>284.0</ele><time>2026-04-02T15:36:44.532Z</time></trkpt><trkpt lat="45.7767601" lon="8.867132"><ele>284.0</ele><time>2026-04-02T15:36:45.532Z</time></trkpt><trkpt lat="45.7768752" lon="8.8670896"><ele>284.0</ele><time>2026-04-02T15:36:46.533Z</time></trkpt><trkpt lat="45.7769912" lon="8.8670474"><ele>284.0</ele><time>2026-04-02T15:36:47.532Z</time></trkpt><trkpt lat="45.7771048" lon="8.8670078"><ele>284.59999999999997</ele><time>2026-04-02T15:36:48.532Z</time></trkpt><trkpt lat="45.777202" lon="8.8669709"><ele>285.2</ele><time>2026-04-02T15:36:49.533Z</time></trkpt><trkpt lat="45.777298" lon="8.866934"><ele>285.79999999999995</ele><time>2026-04-02T15:36:50.533Z</time></trkpt><trkpt lat="45.7773931" lon="8.8668977"><ele>286.4</ele><time>2026-04-02T15:36:51.533Z</time></trkpt><trkpt lat="45.777478" lon="8.8668654"><ele>287.0</ele><time>2026-04-02T15:36:52.532Z</time></trkpt><trkpt lat="45.7775488" lon="8.8668382"><ele>287.0</ele><time>2026-04-02T15:36:53.533Z</time></trkpt><trkpt lat="45.7776449" lon="8.8667774"><ele>287.0</ele><time>2026-04-02T15:36:55.532Z</time></trkpt><trkpt lat="45.7776748" lon="8.8666945"><ele>287.0</ele><time>2026-04-02T15:36:57.533Z</time></trkpt><trkpt lat="45.777619" lon="8.8667488"><ele>287.0</ele><time>2026-04-02T15:41:26.531Z</time></trkpt><trkpt lat="45.7775361" lon="8.8668004"><ele>287.0</ele><time>2026-04-02T15:41:28.53Z</time></trkpt><trkpt lat="45.7774708" lon="8.8668292"><ele>287.0</ele><time>2026-04-02T15:41:29.53Z</time></trkpt><trkpt lat="45.7774023" lon="8.8668529"><ele>287.0</ele><time>2026-04-02T15:41:30.531Z</time></trkpt><trkpt lat="45.7773306" lon="8.8668786"><ele>287.0</ele><time>2026-04-02T15:41:31.53Z</time></trkpt><trkpt lat="45.7772575" lon="8.8669058"><ele>287.0</ele><time>2026-04-02T15:41:32.531Z</time></trkpt><trkpt lat="45.7771822" lon="8.8669341"><ele>287.0</ele><time>2026-04-02T15:41:33.53Z</time></trkpt><trkpt lat="45.7771" lon="8.8669646"><ele>287.0</ele><time>2026-04-02T15:41:34.531Z</time></trkpt><trkpt lat="45.7770102" lon="8.8669958"><ele>287.0</ele><time>2026-04-02T15:41:35.529Z</time></trkpt><trkpt lat="45.7769164" lon="8.8670279"><ele>286.5</ele><time>2026-04-02T15:41:36.53Z</time></trkpt><trkpt lat="45.7768307" lon="8.8670567"><ele>286.0</ele><time>2026-04-02T15:41:37.531Z</time></trkpt><trkpt lat="45.7767449" lon="8.8670838"><ele>285.5</ele><time>2026-04-02T15:41:38.531Z</time></trkpt><trkpt lat="45.7766602" lon="8.8671105"><ele>285.0</ele><time>2026-04-02T15:41:39.531Z</time></trkpt><trkpt lat="45.7765832" lon="8.8671369"><ele>284.5</ele><time>2026-04-02T15:41:40.531Z</time></trkpt><trkpt lat="45.7765076" lon="8.8671623"><ele>284.0</ele><time>2026-04-02T15:41:41.53Z</time></trkpt><trkpt lat="45.7764343" lon="8.8671901"><ele>284.0</ele><time>2026-04-02T15:41:42.53Z</time></trkpt><trkpt lat="45.776365" lon="8.8672173"><ele>284.0</ele><time>2026-04-02T15:41:43.531Z</time></trkpt><trkpt lat="45.7762949" lon="8.8672471"><ele>284.0</ele><time>2026-04-02T15:41:44.531Z</time></trkpt><trkpt lat="45.7762013" lon="8.8673008"><ele>284.0</ele><time>2026-04-02T15:41:46.531Z</time></trkpt><trkpt lat="45.7761287" lon="8.8673675"><ele>284.0</ele><time>2026-04-02T15:41:49.53Z</time></trkpt><trkpt lat="45.7760779" lon="8.8674415"><ele>284.0</ele><time>2026-04-02T15:41:51.531Z</time></trkpt><trkpt lat="45.77603" lon="8.8675206"><ele>283.1666666666667</ele><time>2026-04-02T15:41:53.531Z</time></trkpt><trkpt lat="45.7759927" lon="8.8676297"><ele>282.33333333333337</ele><time>2026-04-02T15:41:55.53Z</time></trkpt><trkpt lat="45.7759717" lon="8.8677242"><ele>281.5</ele><time>2026-04-02T15:41:57.53Z</time></trkpt><trkpt lat="45.775964" lon="8.86784"><ele>280.6666666666667</ele><time>2026-04-02T15:42:00.531Z</time></trkpt><trkpt lat="45.7759771" lon="8.8679751"><ele>279.8333333333333</ele><time>2026-04-02T15:42:02.531Z</time></trkpt><trkpt lat="45.7760127" lon="8.868108"><ele>279.0</ele><time>2026-04-02T15:42:04.531Z</time></trkpt><trkpt lat="45.776058" lon="8.8682261"><ele>279.0</ele><time>2026-04-02T15:42:06.531Z</time></trkpt><trkpt lat="45.7761215" lon="8.868355"><ele>279.0</ele><time>2026-04-02T15:42:08.53Z</time></trkpt><trkpt lat="45.7761884" lon="8.8684904"><ele>279.0</ele><time>2026-04-02T15:42:10.531Z</time></trkpt><trkpt lat="45.7762274" lon="8.8685635"><ele>279.0</ele><time>2026-04-02T15:42:11.531Z</time></trkpt><trkpt lat="45.7762911" lon="8.8686895"><ele>279.0</ele><time>2026-04-02T15:42:13.531Z</time></trkpt><trkpt lat="45.7763209" lon="8.8687761"><ele>279.1666666666667</ele><time>2026-04-02T15:42:15.53Z</time></trkpt><trkpt lat="45.7763451" lon="8.8688713"><ele>279.3333333333333</ele><time>2026-04-02T15:42:18.531Z</time></trkpt><trkpt lat="45.7763927" lon="8.8689698"><ele>279.5</ele><time>2026-04-02T15:42:20.53Z</time></trkpt><trkpt lat="45.7764373" lon="8.8690689"><ele>279.66666666666663</ele><time>2026-04-02T15:42:22.531Z</time></trkpt><trkpt lat="45.7764641" lon="8.8691694"><ele>279.8333333333333</ele><time>2026-04-02T15:42:24.529Z</time></trkpt><trkpt lat="45.7764648" lon="8.869261"><ele>280.0</ele><time>2026-04-02T15:42:26.531Z</time></trkpt><trkpt lat="45.7764251" lon="8.8693568"><ele>280.0</ele><time>2026-04-02T15:42:29.53Z</time></trkpt><trkpt lat="45.7763634" lon="8.8694037"><ele>280.0</ele><time>2026-04-02T15:42:32.53Z</time></trkpt><trkpt lat="45.7762799" lon="8.8693958"><ele>280.0</ele><time>2026-04-02T15:42:34.531Z</time></trkpt><trkpt lat="45.7762012" lon="8.8692745"><ele>280.0</ele><time>2026-04-02T15:42:36.53Z</time></trkpt><trkpt lat="45.7761722" lon="8.8691873"><ele>280.0</ele><time>2026-04-02T15:42:37.53Z</time></trkpt><trkpt lat="45.776143" lon="8.8690968"><ele>280.0</ele><time>2026-04-02T15:42:38.531Z</time></trkpt><trkpt lat="45.7761151" lon="8.8690052"><ele>280.0</ele><time>2026-04-02T15:42:39.53Z</time></trkpt><trkpt lat="45.7760897" lon="8.8689127"><ele>280.0</ele><time>2026-04-02T15:42:40.531Z</time></trkpt><trkpt lat="45.776049" lon="8.8687407"><ele>280.0</ele><time>2026-04-02T15:42:42.531Z</time></trkpt><trkpt lat="45.7760285" lon="8.8686497"><ele>280.0</ele><time>2026-04-02T15:42:43.53Z</time></trkpt><trkpt lat="45.7760059" lon="8.8685473"><ele>280.0</ele><time>2026-04-02T15:42:44.53Z</time></trkpt><trkpt lat="45.7759822" lon="8.8684412"><ele>280.0</ele><time>2026-04-02T15:42:45.53Z</time></trkpt><trkpt lat="45.7759566" lon="8.8683338"><ele>279.8333333333333</ele><time>2026-04-02T15:42:46.531Z</time></trkpt><trkpt lat="45.7759333" lon="8.8682289"><ele>279.66666666666663</ele><time>2026-04-02T15:42:47.53Z</time></trkpt><trkpt lat="45.77591" lon="8.8681197"><ele>279.5</ele><time>2026-04-02T15:42:48.531Z</time></trkpt><trkpt lat="45.7758856" lon="8.8680099"><ele>279.3333333333333</ele><time>2026-04-02T15:42:49.531Z</time></trkpt><trkpt lat="45.7758598" lon="8.8679025"><ele>279.1666666666667</ele><time>2026-04-02T15:42:50.53Z</time></trkpt><trkpt lat="45.7758318" lon="8.8677905"><ele>279.0</ele><time>2026-04-02T15:42:51.53Z</time></trkpt><trkpt lat="45.7758009" lon="8.8676797"><ele>279.0</ele><time>2026-04-02T15:42:52.53Z</time></trkpt><trkpt lat="45.7757661" lon="8.8675715"><ele>279.0</ele><time>2026-04-02T15:42:53.531Z</time></trkpt><trkpt lat="45.7757202" lon="8.867453"><ele>279.0</ele><time>2026-04-02T15:42:54.531Z</time></trkpt><trkpt lat="45.7756652" lon="8.8673238"><ele>279.0</ele><time>2026-04-02T15:42:55.53Z</time></trkpt><trkpt lat="45.7756088" lon="8.8671976"><ele>279.0</ele><time>2026-04-02T15:42:56.531Z</time></trkpt><trkpt lat="45.7755514" lon="8.8670755"><ele>279.0</ele><time>2026-04-02T15:42:57.53Z</time></trkpt><trkpt lat="45.7754932" lon="8.8669615"><ele>279.0</ele><time>2026-04-02T15:42:58.531Z</time></trkpt><trkpt lat="45.7754311" lon="8.8668472"><ele>279.0</ele><time>2026-04-02T15:42:59.53Z</time></trkpt><trkpt lat="45.7753686" lon="8.8667403"><ele>279.0</ele><time>2026-04-02T15:43:00.531Z</time></trkpt><trkpt lat="45.7753041" lon="8.8666426"><ele>279.0</ele><time>2026-04-02T15:43:01.53Z</time></trkpt><trkpt lat="45.7752328" lon="8.8665498"><ele>278.59999999999997</ele><time>2026-04-02T15:43:02.531Z</time></trkpt><trkpt lat="45.775158" lon="8.866463"><ele>278.2</ele><time>2026-04-02T15:43:03.53Z</time></trkpt><trkpt lat="45.7750814" lon="8.8663779"><ele>277.79999999999995</ele><time>2026-04-02T15:43:04.529Z</time></trkpt><trkpt lat="45.7749986" lon="8.8662931"><ele>277.4</ele><time>2026-04-02T15:43:05.53Z</time></trkpt><trkpt lat="45.7749081" lon="8.8662051"><ele>277.0</ele><time>2026-04-02T15:43:06.53Z</time></trkpt><trkpt lat="45.7748073" lon="8.8661102"><ele>277.0</ele><time>2026-04-02T15:43:07.53Z</time></trkpt><trkpt lat="45.7747136" lon="8.8660238"><ele>277.0</ele><time>2026-04-02T15:43:08.531Z</time></trkpt><trkpt lat="45.774629" lon="8.8659441"><ele>277.0</ele><time>2026-04-02T15:43:09.53Z</time></trkpt><trkpt lat="45.774546" lon="8.8658683"><ele>277.0</ele><time>2026-04-02T15:43:10.53Z</time></trkpt><trkpt lat="45.7744658" lon="8.8658026"><ele>277.0</ele><time>2026-04-02T15:43:11.53Z</time></trkpt><trkpt lat="45.7743914" lon="8.8657533"><ele>276.66666666666663</ele><time>2026-04-02T15:43:12.531Z</time></trkpt><trkpt lat="45.7743185" lon="8.8657149"><ele>276.3333333333333</ele><time>2026-04-02T15:43:13.531Z</time></trkpt><trkpt lat="45.7742483" lon="8.8656768"><ele>276.0</ele><time>2026-04-02T15:43:14.53Z</time></trkpt><trkpt lat="45.7741839" lon="8.8656196"><ele>275.6666666666667</ele><time>2026-04-02T15:43:15.53Z</time></trkpt><trkpt lat="45.7741439" lon="8.8655424"><ele>275.33333333333337</ele><time>2026-04-02T15:43:16.53Z</time></trkpt><trkpt lat="45.7741495" lon="8.8653632"><ele>275.0</ele><time>2026-04-02T15:43:18.53Z</time></trkpt><trkpt lat="45.7741837" lon="8.8652694"><ele>275.0</ele><time>2026-04-02T15:43:19.53Z</time></trkpt><trkpt lat="45.7742134" lon="8.8651629"><ele>275.0</ele><time>2026-04-02T15:43:20.53Z</time></trkpt><trkpt lat="45.7742155" lon="8.8650515"><ele>275.0</ele><time>2026-04-02T15:43:21.53Z</time></trkpt><trkpt lat="45.774195" lon="8.8649319"><ele>275.0</ele><time>2026-04-02T15:43:22.531Z</time></trkpt><trkpt lat="45.774167" lon="8.8647984"><ele>275.0</ele><time>2026-04-02T15:43:23.53Z</time></trkpt><trkpt lat="45.7741484" lon="8.8646565"><ele>275.0</ele><time>2026-04-02T15:43:24.53Z</time></trkpt><trkpt lat="45.7741218" lon="8.8645086"><ele>275.5</ele><time>2026-04-02T15:43:25.529Z</time></trkpt><trkpt lat="45.7740856" lon="8.8643584"><ele>276.0</ele><time>2026-04-02T15:43:26.531Z</time></trkpt><trkpt lat="45.7740369" lon="8.8642135"><ele>276.5</ele><time>2026-04-02T15:43:27.53Z</time></trkpt><trkpt lat="45.7739798" lon="8.8640699"><ele>277.0</ele><time>2026-04-02T15:43:28.53Z</time></trkpt><trkpt lat="45.7739197" lon="8.863929"><ele>277.5</ele><time>2026-04-02T15:43:29.53Z</time></trkpt><trkpt lat="45.7738577" lon="8.8637854"><ele>278.0</ele><time>2026-04-02T15:43:30.53Z</time></trkpt><trkpt lat="45.7737934" lon="8.8636351"><ele>278.5</ele><time>2026-04-02T15:43:31.531Z</time></trkpt><trkpt lat="45.7737315" lon="8.8634865"><ele>279.0</ele><time>2026-04-02T15:43:32.529Z</time></trkpt><trkpt lat="45.773672" lon="8.8633411"><ele>279.5</ele><time>2026-04-02T15:43:33.531Z</time></trkpt><trkpt lat="45.7736106" lon="8.8631909"><ele>280.0</ele><time>2026-04-02T15:43:34.531Z</time></trkpt><trkpt lat="45.7735499" lon="8.8630466"><ele>280.5</ele><time>2026-04-02T15:43:35.529Z</time></trkpt><trkpt lat="45.7734928" lon="8.8629101"><ele>281.0</ele><time>2026-04-02T15:43:36.53Z</time></trkpt><trkpt lat="45.7734391" lon="8.8627826"><ele>281.0</ele><time>2026-04-02T15:43:37.531Z</time></trkpt><trkpt lat="45.7733863" lon="8.8626576"><ele>281.0</ele><time>2026-04-02T15:43:38.531Z</time></trkpt><trkpt lat="45.7733326" lon="8.8625292"><ele>281.0</ele><time>2026-04-02T15:43:39.531Z</time></trkpt><trkpt lat="45.7732827" lon="8.8624092"><ele>281.0</ele><time>2026-04-02T15:43:40.531Z</time></trkpt><trkpt lat="45.7732357" lon="8.8622987"><ele>281.0</ele><time>2026-04-02T15:43:41.531Z</time></trkpt><trkpt lat="45.7731894" lon="8.862191"><ele>281.5</ele><time>2026-04-02T15:43:42.53Z</time></trkpt><trkpt lat="45.7731445" lon="8.8620898"><ele>282.0</ele><time>2026-04-02T15:43:43.531Z</time></trkpt><trkpt lat="45.7731025" lon="8.8619927"><ele>282.5</ele><time>2026-04-02T15:43:44.53Z</time></trkpt><trkpt lat="45.7730649" lon="8.8619089"><ele>283.0</ele><time>2026-04-02T15:43:45.531Z</time></trkpt><trkpt lat="45.7730271" lon="8.861831"><ele>283.5</ele><time>2026-04-02T15:43:46.531Z</time></trkpt><trkpt lat="45.7729881" lon="8.8617539"><ele>284.0</ele><time>2026-04-02T15:43:47.53Z</time></trkpt><trkpt lat="45.7729184" lon="8.8616274"><ele>284.1666666666667</ele><time>2026-04-02T15:43:49.531Z</time></trkpt><trkpt lat="45.7728425" lon="8.8615013"><ele>284.33333333333337</ele><time>2026-04-02T15:43:51.53Z</time></trkpt><trkpt lat="45.7728053" lon="8.8614241"><ele>284.5</ele><time>2026-04-02T15:43:52.529Z</time></trkpt><trkpt lat="45.7727729" lon="8.8613384"><ele>284.6666666666667</ele><time>2026-04-02T15:43:53.53Z</time></trkpt><trkpt lat="45.7727415" lon="8.8612369"><ele>284.8333333333333</ele><time>2026-04-02T15:43:54.53Z</time></trkpt><trkpt lat="45.7727075" lon="8.861118"><ele>285.0</ele><time>2026-04-02T15:43:55.53Z</time></trkpt><trkpt lat="45.7726788" lon="8.861015"><ele>285.0</ele><time>2026-04-02T15:43:56.53Z</time></trkpt><trkpt lat="45.772651" lon="8.8609225"><ele>285.0</ele><time>2026-04-02T15:43:57.53Z</time></trkpt><trkpt lat="45.7726173" lon="8.8608425"><ele>285.0</ele><time>2026-04-02T15:43:58.53Z</time></trkpt><trkpt lat="45.77258" lon="8.8607642"><ele>285.0</ele><time>2026-04-02T15:43:59.529Z</time></trkpt><trkpt lat="45.7725476" lon="8.8606825"><ele>285.0</ele><time>2026-04-02T15:44:00.529Z</time></trkpt><trkpt lat="45.7725201" lon="8.860594"><ele>285.0</ele><time>2026-04-02T15:44:01.529Z</time></trkpt><trkpt lat="45.7724931" lon="8.8604907"><ele>285.0</ele><time>2026-04-02T15:44:02.53Z</time></trkpt><trkpt lat="45.7724689" lon="8.8603697"><ele>285.0</ele><time>2026-04-02T15:44:03.53Z</time></trkpt><trkpt lat="45.7724513" lon="8.8602345"><ele>285.0</ele><time>2026-04-02T15:44:04.529Z</time></trkpt><trkpt lat="45.7724391" lon="8.8600938"><ele>285.0</ele><time>2026-04-02T15:44:05.529Z</time></trkpt><trkpt lat="45.7724315" lon="8.859954"><ele>285.0</ele><time>2026-04-02T15:44:06.529Z</time></trkpt><trkpt lat="45.772429" lon="8.8598147"><ele>285.0</ele><time>2026-04-02T15:44:07.53Z</time></trkpt><trkpt lat="45.7724318" lon="8.859678"><ele>286.2</ele><time>2026-04-02T15:44:08.53Z</time></trkpt><trkpt lat="45.7724372" lon="8.8595556"><ele>287.4</ele><time>2026-04-02T15:44:09.53Z</time></trkpt><trkpt lat="45.7724432" lon="8.8594275"><ele>288.6</ele><time>2026-04-02T15:44:10.53Z</time></trkpt><trkpt lat="45.7724501" lon="8.8592916"><ele>289.8</ele><time>2026-04-02T15:44:11.529Z</time></trkpt><trkpt lat="45.7724558" lon="8.8591561"><ele>291.0</ele><time>2026-04-02T15:44:12.528Z</time></trkpt><trkpt lat="45.77246" lon="8.8590205"><ele>291.2</ele><time>2026-04-02T15:44:13.53Z</time></trkpt><trkpt lat="45.7724647" lon="8.8588765"><ele>291.40000000000003</ele><time>2026-04-02T15:44:14.53Z</time></trkpt><trkpt lat="45.7724709" lon="8.8587294"><ele>291.6</ele><time>2026-04-02T15:44:15.53Z</time></trkpt><trkpt lat="45.7724784" lon="8.8585762"><ele>291.8</ele><time>2026-04-02T15:44:16.53Z</time></trkpt><trkpt lat="45.7724872" lon="8.8584265"><ele>292.0</ele><time>2026-04-02T15:44:17.53Z</time></trkpt><trkpt lat="45.7724979" lon="8.8582621"><ele>292.25</ele><time>2026-04-02T15:44:18.529Z</time></trkpt><trkpt lat="45.7725072" lon="8.8580763"><ele>292.5</ele><time>2026-04-02T15:44:19.53Z</time></trkpt><trkpt lat="45.7725164" lon="8.857883"><ele>292.75</ele><time>2026-04-02T15:44:20.53Z</time></trkpt><trkpt lat="45.7725244" lon="8.8577016"><ele>293.0</ele><time>2026-04-02T15:44:21.53Z</time></trkpt><trkpt lat="45.7725337" lon="8.8575117"><ele>295.25</ele><time>2026-04-02T15:44:22.53Z</time></trkpt><trkpt lat="45.7725473" lon="8.8573151"><ele>297.5</ele><time>2026-04-02T15:44:23.529Z</time></trkpt><trkpt lat="45.7725633" lon="8.8571051"><ele>299.75</ele><time>2026-04-02T15:44:24.529Z</time></trkpt><trkpt lat="45.7725803" lon="8.8569054"><ele>302.0</ele><time>2026-04-02T15:44:25.529Z</time></trkpt><trkpt lat="45.7725999" lon="8.8567095"><ele>302.0</ele><time>2026-04-02T15:44:26.53Z</time></trkpt><trkpt lat="45.77262" lon="8.8565117"><ele>302.0</ele><time>2026-04-02T15:44:27.53Z</time></trkpt><trkpt lat="45.772637" lon="8.8563197"><ele>302.0</ele><time>2026-04-02T15:44:28.529Z</time></trkpt><trkpt lat="45.7726539" lon="8.8561355"><ele>302.0</ele><time>2026-04-02T15:44:29.53Z</time></trkpt><trkpt lat="45.7726755" lon="8.8559444"><ele>306.75</ele><time>2026-04-02T15:44:30.529Z</time></trkpt><trkpt lat="45.7726977" lon="8.8557524"><ele>311.5</ele><time>2026-04-02T15:44:31.53Z</time></trkpt><trkpt lat="45.77272" lon="8.8555522"><ele>316.25</ele><time>2026-04-02T15:44:32.53Z</time></trkpt><trkpt lat="45.7727398" lon="8.8553642"><ele>321.0</ele><time>2026-04-02T15:44:33.529Z</time></trkpt><trkpt lat="45.7727596" lon="8.8551687"><ele>320.75</ele><time>2026-04-02T15:44:34.53Z</time></trkpt><trkpt lat="45.7727832" lon="8.8549637"><ele>320.5</ele><time>2026-04-02T15:44:35.529Z</time></trkpt><trkpt lat="45.7728068" lon="8.8547575"><ele>320.25</ele><time>2026-04-02T15:44:36.528Z</time></trkpt><trkpt lat="45.7728305" lon="8.8545477"><ele>320.0</ele><time>2026-04-02T15:44:37.529Z</time></trkpt><trkpt lat="45.7728546" lon="8.8543225"><ele>319.25</ele><time>2026-04-02T15:44:38.53Z</time></trkpt><trkpt lat="45.7728789" lon="8.8541095"><ele>318.5</ele><time>2026-04-02T15:44:39.53Z</time></trkpt><trkpt lat="45.7729032" lon="8.853898"><ele>317.75</ele><time>2026-04-02T15:44:40.53Z</time></trkpt><trkpt lat="45.7729241" lon="8.853703"><ele>317.0</ele><time>2026-04-02T15:44:41.53Z</time></trkpt><trkpt lat="45.7729441" lon="8.8535013"><ele>315.5</ele><time>2026-04-02T15:44:42.53Z</time></trkpt><trkpt lat="45.7729647" lon="8.8532924"><ele>314.0</ele><time>2026-04-02T15:44:43.53Z</time></trkpt><trkpt lat="45.7729802" lon="8.8530885"><ele>312.5</ele><time>2026-04-02T15:44:44.53Z</time></trkpt><trkpt lat="45.7729897" lon="8.8528899"><ele>311.0</ele><time>2026-04-02T15:44:45.529Z</time></trkpt><trkpt lat="45.7729908" lon="8.8526857"><ele>311.5</ele><time>2026-04-02T15:44:46.53Z</time></trkpt><trkpt lat="45.7729845" lon="8.8524809"><ele>312.0</ele><time>2026-04-02T15:44:47.53Z</time></trkpt><trkpt lat="45.7729732" lon="8.8522669"><ele>312.5</ele><time>2026-04-02T15:44:48.529Z</time></trkpt><trkpt lat="45.7729608" lon="8.8520676"><ele>313.0</ele><time>2026-04-02T15:44:49.529Z</time></trkpt><trkpt lat="45.7729478" lon="8.8518611"><ele>315.0</ele><time>2026-04-02T15:44:50.53Z</time></trkpt><trkpt lat="45.7729336" lon="8.8516484"><ele>317.0</ele><time>2026-04-02T15:44:51.53Z</time></trkpt><trkpt lat="45.7729205" lon="8.851442"><ele>319.0</ele><time>2026-04-02T15:44:52.529Z</time></trkpt><trkpt lat="45.7729072" lon="8.8512431"><ele>321.0</ele><time>2026-04-02T15:44:53.529Z</time></trkpt><trkpt lat="45.7728926" lon="8.8510381"><ele>324.25</ele><time>2026-04-02T15:44:54.53Z</time></trkpt><trkpt lat="45.7728762" lon="8.8508328"><ele>327.5</ele><time>2026-04-02T15:44:55.53Z</time></trkpt><trkpt lat="45.7728595" lon="8.8506258"><ele>330.75</ele><time>2026-04-02T15:44:56.53Z</time></trkpt><trkpt lat="45.7728447" lon="8.850418"><ele>334.0</ele><time>2026-04-02T15:44:57.53Z</time></trkpt><trkpt lat="45.772832" lon="8.8502109"><ele>335.25</ele><time>2026-04-02T15:44:58.528Z</time></trkpt><trkpt lat="45.7728202" lon="8.8500061"><ele>336.5</ele><time>2026-04-02T15:44:59.529Z</time></trkpt><trkpt lat="45.7728082" lon="8.849808"><ele>337.75</ele><time>2026-04-02T15:45:00.529Z</time></trkpt><trkpt lat="45.7727996" lon="8.849619"><ele>339.0</ele><time>2026-04-02T15:45:01.53Z</time></trkpt><trkpt lat="45.7727964" lon="8.8494229"><ele>339.5</ele><time>2026-04-02T15:45:02.53Z</time></trkpt><trkpt lat="45.7728015" lon="8.8492272"><ele>340.0</ele><time>2026-04-02T15:45:03.529Z</time></trkpt><trkpt lat="45.7728118" lon="8.8490275"><ele>340.5</ele><time>2026-04-02T15:45:04.529Z</time></trkpt><trkpt lat="45.7728323" lon="8.8488299"><ele>341.0</ele><time>2026-04-02T15:45:05.528Z</time></trkpt><trkpt lat="45.7728625" lon="8.8486306"><ele>340.75</ele><time>2026-04-02T15:45:06.529Z</time></trkpt><trkpt lat="45.7729022" lon="8.8484266"><ele>340.5</ele><time>2026-04-02T15:45:07.529Z</time></trkpt><trkpt lat="45.7729512" lon="8.8482313"><ele>340.25</ele><time>2026-04-02T15:45:08.529Z</time></trkpt><trkpt lat="45.773007" lon="8.8480473"><ele>340.0</ele><time>2026-04-02T15:45:09.53Z</time></trkpt><trkpt lat="45.7730725" lon="8.847859"><ele>340.0</ele><time>2026-04-02T15:45:10.529Z</time></trkpt><trkpt lat="45.773147" lon="8.8476752"><ele>340.0</ele><time>2026-04-02T15:45:11.53Z</time></trkpt><trkpt lat="45.7732313" lon="8.8474968"><ele>340.0</ele><time>2026-04-02T15:45:12.53Z</time></trkpt><trkpt lat="45.7733253" lon="8.8473222"><ele>341.0</ele><time>2026-04-02T15:45:13.53Z</time></trkpt><trkpt lat="45.7734314" lon="8.847155"><ele>342.0</ele><time>2026-04-02T15:45:14.53Z</time></trkpt><trkpt lat="45.7735498" lon="8.8469927"><ele>343.0</ele><time>2026-04-02T15:45:15.529Z</time></trkpt><trkpt lat="45.7736751" lon="8.8468422"><ele>347.3333333333333</ele><time>2026-04-02T15:45:16.53Z</time></trkpt><trkpt lat="45.7738031" lon="8.846702"><ele>351.6666666666667</ele><time>2026-04-02T15:45:17.53Z</time></trkpt><trkpt lat="45.7739325" lon="8.8465692"><ele>356.0</ele><time>2026-04-02T15:45:18.529Z</time></trkpt><trkpt lat="45.7740525" lon="8.8464486"><ele>356.0</ele><time>2026-04-02T15:45:19.529Z</time></trkpt><trkpt lat="45.7741678" lon="8.8463298"><ele>356.0</ele><time>2026-04-02T15:45:20.529Z</time></trkpt><trkpt lat="45.7742841" lon="8.8462119"><ele>356.0</ele><time>2026-04-02T15:45:21.53Z</time></trkpt><trkpt lat="45.774401" lon="8.8460949"><ele>356.0</ele><time>2026-04-02T15:45:22.529Z</time></trkpt><trkpt lat="45.7745219" lon="8.8459756"><ele>356.25</ele><time>2026-04-02T15:45:23.53Z</time></trkpt><trkpt lat="45.7746399" lon="8.8458566"><ele>356.5</ele><time>2026-04-02T15:45:24.53Z</time></trkpt><trkpt lat="45.7747547" lon="8.8457401"><ele>356.75</ele><time>2026-04-02T15:45:25.53Z</time></trkpt><trkpt lat="45.7748735" lon="8.8456186"><ele>357.0</ele><time>2026-04-02T15:45:26.53Z</time></trkpt><trkpt lat="45.77499" lon="8.8455002"><ele>357.0</ele><time>2026-04-02T15:45:27.529Z</time></trkpt><trkpt lat="45.775103" lon="8.8453852"><ele>357.0</ele><time>2026-04-02T15:45:28.529Z</time></trkpt><trkpt lat="45.7752109" lon="8.845275"><ele>357.0</ele><time>2026-04-02T15:45:29.53Z</time></trkpt><trkpt lat="45.7753131" lon="8.8451719"><ele>357.0</ele><time>2026-04-02T15:45:30.53Z</time></trkpt><trkpt lat="45.7754091" lon="8.8450756"><ele>357.20000000000005</ele><time>2026-04-02T15:45:31.529Z</time></trkpt><trkpt lat="45.7754971" lon="8.8449876"><ele>357.4</ele><time>2026-04-02T15:45:32.529Z</time></trkpt><trkpt lat="45.7755747" lon="8.8449081"><ele>357.6</ele><time>2026-04-02T15:45:33.53Z</time></trkpt><trkpt lat="45.7756538" lon="8.8448259"><ele>357.79999999999995</ele><time>2026-04-02T15:45:34.53Z</time></trkpt><trkpt lat="45.7757286" lon="8.8447511"><ele>358.0</ele><time>2026-04-02T15:45:35.53Z</time></trkpt><trkpt lat="45.7757986" lon="8.8446826"><ele>358.0</ele><time>2026-04-02T15:45:36.53Z</time></trkpt><trkpt lat="45.7758634" lon="8.8446165"><ele>358.0</ele><time>2026-04-02T15:45:37.53Z</time></trkpt><trkpt lat="45.7759234" lon="8.8445531"><ele>358.0</ele><time>2026-04-02T15:45:38.53Z</time></trkpt><trkpt lat="45.7759821" lon="8.8444929"><ele>358.0</ele><time>2026-04-02T15:45:39.53Z</time></trkpt><trkpt lat="45.7760355" lon="8.844439"><ele>358.0</ele><time>2026-04-02T15:45:40.53Z</time></trkpt><trkpt lat="45.7761372" lon="8.8443323"><ele>358.0</ele><time>2026-04-02T15:45:42.53Z</time></trkpt><trkpt lat="45.7761914" lon="8.8442713"><ele>358.3333333333333</ele><time>2026-04-02T15:45:43.529Z</time></trkpt><trkpt lat="45.776249" lon="8.8442062"><ele>358.66666666666663</ele><time>2026-04-02T15:45:44.529Z</time></trkpt><trkpt lat="45.7763092" lon="8.8441393"><ele>359.0</ele><time>2026-04-02T15:45:45.529Z</time></trkpt><trkpt lat="45.7763715" lon="8.8440693"><ele>359.3333333333333</ele><time>2026-04-02T15:45:46.53Z</time></trkpt><trkpt lat="45.7764374" lon="8.8439971"><ele>359.6666666666667</ele><time>2026-04-02T15:45:47.529Z</time></trkpt><trkpt lat="45.7765041" lon="8.8439259"><ele>360.0</ele><time>2026-04-02T15:45:48.53Z</time></trkpt><trkpt lat="45.7765682" lon="8.843857"><ele>360.0</ele><time>2026-04-02T15:45:49.53Z</time></trkpt><trkpt lat="45.7766328" lon="8.8437844"><ele>360.0</ele><time>2026-04-02T15:45:50.53Z</time></trkpt><trkpt lat="45.7766945" lon="8.84371"><ele>360.0</ele><time>2026-04-02T15:45:51.529Z</time></trkpt><trkpt lat="45.7767552" lon="8.8436316"><ele>360.0</ele><time>2026-04-02T15:45:52.529Z</time></trkpt><trkpt lat="45.7768154" lon="8.8435455"><ele>360.0</ele><time>2026-04-02T15:45:53.529Z</time></trkpt><trkpt lat="45.7768771" lon="8.8434564"><ele>360.0</ele><time>2026-04-02T15:45:54.53Z</time></trkpt><trkpt lat="45.7769429" lon="8.8433536"><ele>360.6666666666667</ele><time>2026-04-02T15:45:55.53Z</time></trkpt><trkpt lat="45.777009" lon="8.8432454"><ele>361.3333333333333</ele><time>2026-04-02T15:45:56.529Z</time></trkpt><trkpt lat="45.7770653" lon="8.8431429"><ele>362.0</ele><time>2026-04-02T15:45:57.529Z</time></trkpt><trkpt lat="45.7771167" lon="8.8430459"><ele>362.66666666666663</ele><time>2026-04-02T15:45:58.529Z</time></trkpt><trkpt lat="45.7771605" lon="8.8429558"><ele>363.3333333333333</ele><time>2026-04-02T15:45:59.529Z</time></trkpt><trkpt lat="45.7771991" lon="8.8428727"><ele>364.0</ele><time>2026-04-02T15:46:00.529Z</time></trkpt><trkpt lat="45.7772335" lon="8.842794"><ele>364.0</ele><time>2026-04-02T15:46:01.53Z</time></trkpt><trkpt lat="45.777267" lon="8.8427144"><ele>364.0</ele><time>2026-04-02T15:46:02.53Z</time></trkpt><trkpt lat="45.7773237" lon="8.8425665"><ele>364.0</ele><time>2026-04-02T15:46:04.529Z</time></trkpt><trkpt lat="45.777375" lon="8.8424029"><ele>364.0</ele><time>2026-04-02T15:46:06.529Z</time></trkpt><trkpt lat="45.7774046" lon="8.842307"><ele>364.0</ele><time>2026-04-02T15:46:07.53Z</time></trkpt><trkpt lat="45.777435" lon="8.8422044"><ele>364.42857142857144</ele><time>2026-04-02T15:46:08.528Z</time></trkpt><trkpt lat="45.7774614" lon="8.8421078"><ele>364.8571428571429</ele><time>2026-04-02T15:46:09.529Z</time></trkpt><trkpt lat="45.7774851" lon="8.8420146"><ele>365.2857142857143</ele><time>2026-04-02T15:46:10.53Z</time></trkpt><trkpt lat="45.7775081" lon="8.8419199"><ele>365.7142857142857</ele><time>2026-04-02T15:46:11.529Z</time></trkpt><trkpt lat="45.7775322" lon="8.8418155"><ele>366.14285714285717</ele><time>2026-04-02T15:46:12.529Z</time></trkpt><trkpt lat="45.7775581" lon="8.8417104"><ele>366.57142857142856</ele><time>2026-04-02T15:46:13.53Z</time></trkpt><trkpt lat="45.7775849" lon="8.8416047"><ele>367.0</ele><time>2026-04-02T15:46:14.529Z</time></trkpt><trkpt lat="45.7776115" lon="8.841496"><ele>367.16666666666663</ele><time>2026-04-02T15:46:15.528Z</time></trkpt><trkpt lat="45.7776373" lon="8.8413851"><ele>367.3333333333333</ele><time>2026-04-02T15:46:16.53Z</time></trkpt><trkpt lat="45.777664" lon="8.841274"><ele>367.5</ele><time>2026-04-02T15:46:17.529Z</time></trkpt><trkpt lat="45.7776902" lon="8.8411622"><ele>367.6666666666667</ele><time>2026-04-02T15:46:18.529Z</time></trkpt><trkpt lat="45.7777175" lon="8.8410433"><ele>367.83333333333337</ele><time>2026-04-02T15:46:19.53Z</time></trkpt><trkpt lat="45.7777423" lon="8.8409253"><ele>368.0</ele><time>2026-04-02T15:46:20.528Z</time></trkpt><trkpt lat="45.7777652" lon="8.8408102"><ele>368.0</ele><time>2026-04-02T15:46:21.529Z</time></trkpt><trkpt lat="45.7777901" lon="8.8406899"><ele>368.0</ele><time>2026-04-02T15:46:22.529Z</time></trkpt><trkpt lat="45.7778175" lon="8.8405666"><ele>368.0</ele><time>2026-04-02T15:46:23.53Z</time></trkpt><trkpt lat="45.7778476" lon="8.8404362"><ele>368.0</ele><time>2026-04-02T15:46:24.528Z</time></trkpt><trkpt lat="45.7778799" lon="8.8402936"><ele>368.0</ele><time>2026-04-02T15:46:25.53Z</time></trkpt><trkpt lat="45.7779122" lon="8.8401494"><ele>368.1666666666667</ele><time>2026-04-02T15:46:26.53Z</time></trkpt><trkpt lat="45.7779435" lon="8.8400101"><ele>368.33333333333337</ele><time>2026-04-02T15:46:27.529Z</time></trkpt><trkpt lat="45.7779726" lon="8.8398907"><ele>368.5</ele><time>2026-04-02T15:46:28.53Z</time></trkpt><trkpt lat="45.7779997" lon="8.8397914"><ele>368.6666666666667</ele><time>2026-04-02T15:46:29.529Z</time></trkpt><trkpt lat="45.7780339" lon="8.8397059"><ele>368.8333333333333</ele><time>2026-04-02T15:46:30.529Z</time></trkpt><trkpt lat="45.7780862" lon="8.8396385"><ele>369.0</ele><time>2026-04-02T15:46:31.53Z</time></trkpt><trkpt lat="45.7781524" lon="8.8395947"><ele>369.0</ele><time>2026-04-02T15:46:32.529Z</time></trkpt><trkpt lat="45.7782261" lon="8.8395627"><ele>369.0</ele><time>2026-04-02T15:46:33.53Z</time></trkpt><trkpt lat="45.7782988" lon="8.8395221"><ele>369.0</ele><time>2026-04-02T15:46:34.529Z</time></trkpt><trkpt lat="45.7783679" lon="8.8394654"><ele>369.0</ele><time>2026-04-02T15:46:35.53Z</time></trkpt><trkpt lat="45.7784221" lon="8.8393862"><ele>369.0</ele><time>2026-04-02T15:46:36.53Z</time></trkpt><trkpt lat="45.7784582" lon="8.8392884"><ele>369.0</ele><time>2026-04-02T15:46:37.528Z</time></trkpt><trkpt lat="45.7784821" lon="8.8391713"><ele>369.4</ele><time>2026-04-02T15:46:38.53Z</time></trkpt><trkpt lat="45.7784993" lon="8.8390409"><ele>369.79999999999995</ele><time>2026-04-02T15:46:39.529Z</time></trkpt><trkpt lat="45.7785093" lon="8.8388944"><ele>370.20000000000005</ele><time>2026-04-02T15:46:40.53Z</time></trkpt><trkpt lat="45.7785198" lon="8.8387497"><ele>370.6</ele><time>2026-04-02T15:46:41.529Z</time></trkpt><trkpt lat="45.7785309" lon="8.8386032"><ele>371.0</ele><time>2026-04-02T15:46:42.53Z</time></trkpt><trkpt lat="45.7785437" lon="8.8384511"><ele>372.6</ele><time>2026-04-02T15:46:43.528Z</time></trkpt><trkpt lat="45.7785576" lon="8.8383021"><ele>374.20000000000005</ele><time>2026-04-02T15:46:44.529Z</time></trkpt><trkpt lat="45.7785745" lon="8.8381568"><ele>375.79999999999995</ele><time>2026-04-02T15:46:45.53Z</time></trkpt><trkpt lat="45.7786002" lon="8.8380062"><ele>377.4</ele><time>2026-04-02T15:46:46.53Z</time></trkpt><trkpt lat="45.778639" lon="8.8378592"><ele>379.0</ele><time>2026-04-02T15:46:47.529Z</time></trkpt><trkpt lat="45.7786922" lon="8.8377174"><ele>380.0</ele><time>2026-04-02T15:46:48.53Z</time></trkpt><trkpt lat="45.7787565" lon="8.8375818"><ele>381.0</ele><time>2026-04-02T15:46:49.53Z</time></trkpt><trkpt lat="45.7788316" lon="8.837446"><ele>382.0</ele><time>2026-04-02T15:46:50.53Z</time></trkpt><trkpt lat="45.7789158" lon="8.8373039"><ele>383.0</ele><time>2026-04-02T15:46:51.529Z</time></trkpt><trkpt lat="45.7790033" lon="8.837159"><ele>383.0</ele><time>2026-04-02T15:46:52.529Z</time></trkpt><trkpt lat="45.7790924" lon="8.8370157"><ele>383.0</ele><time>2026-04-02T15:46:53.53Z</time></trkpt><trkpt lat="45.7791883" lon="8.836865"><ele>383.0</ele><time>2026-04-02T15:46:54.53Z</time></trkpt><trkpt lat="45.7792829" lon="8.8367177"><ele>383.0</ele><time>2026-04-02T15:46:55.528Z</time></trkpt><trkpt lat="45.7793717" lon="8.8365798"><ele>385.0</ele><time>2026-04-02T15:46:56.53Z</time></trkpt><trkpt lat="45.7794547" lon="8.836454"><ele>387.0</ele><time>2026-04-02T15:46:57.53Z</time></trkpt><trkpt lat="45.7795331" lon="8.8363387"><ele>389.0</ele><time>2026-04-02T15:46:58.529Z</time></trkpt><trkpt lat="45.7796046" lon="8.8362302"><ele>391.0</ele><time>2026-04-02T15:46:59.529Z</time></trkpt><trkpt lat="45.779662" lon="8.8361335"><ele>393.0</ele><time>2026-04-02T15:47:00.53Z</time></trkpt><trkpt lat="45.7797088" lon="8.8360496"><ele>392.6666666666667</ele><time>2026-04-02T15:47:01.529Z</time></trkpt><trkpt lat="45.7797553" lon="8.8359606"><ele>392.33333333333337</ele><time>2026-04-02T15:47:02.528Z</time></trkpt><trkpt lat="45.779807" lon="8.8358656"><ele>392.0</ele><time>2026-04-02T15:47:03.53Z</time></trkpt><trkpt lat="45.779873" lon="8.8357802"><ele>391.6666666666667</ele><time>2026-04-02T15:47:04.529Z</time></trkpt><trkpt lat="45.7799547" lon="8.8357211"><ele>391.33333333333337</ele><time>2026-04-02T15:47:05.529Z</time></trkpt><trkpt lat="45.7800412" lon="8.8356992"><ele>391.0</ele><time>2026-04-02T15:47:06.529Z</time></trkpt><trkpt lat="45.7801345" lon="8.8357072"><ele>391.1666666666667</ele><time>2026-04-02T15:47:07.53Z</time></trkpt><trkpt lat="45.7802182" lon="8.8357304"><ele>391.33333333333337</ele><time>2026-04-02T15:47:08.529Z</time></trkpt><trkpt lat="45.7802924" lon="8.8357555"><ele>391.5</ele><time>2026-04-02T15:47:09.53Z</time></trkpt><trkpt lat="45.7803578" lon="8.8357831"><ele>391.66666666666663</ele><time>2026-04-02T15:47:10.529Z</time></trkpt><trkpt lat="45.7804516" lon="8.8358303"><ele>391.8333333333333</ele><time>2026-04-02T15:47:12.53Z</time></trkpt><trkpt lat="45.7805179" lon="8.835857"><ele>392.0</ele><time>2026-04-02T15:47:14.529Z</time></trkpt><trkpt lat="45.7805752" lon="8.8359338"><ele>392.8333333333333</ele><time>2026-04-02T15:47:17.529Z</time></trkpt><trkpt lat="45.7805813" lon="8.8360356"><ele>393.66666666666663</ele><time>2026-04-02T15:47:19.53Z</time></trkpt><trkpt lat="45.7805798" lon="8.836144"><ele>394.5</ele><time>2026-04-02T15:47:21.528Z</time></trkpt><trkpt lat="45.7805823" lon="8.8362716"><ele>395.33333333333337</ele><time>2026-04-02T15:47:24.529Z</time></trkpt><trkpt lat="45.7805829" lon="8.836389"><ele>396.1666666666667</ele><time>2026-04-02T15:47:26.529Z</time></trkpt><trkpt lat="45.7805815" lon="8.836508"><ele>397.0</ele><time>2026-04-02T15:47:28.529Z</time></trkpt><trkpt lat="45.7805851" lon="8.836624"><ele>397.0</ele><time>2026-04-02T15:47:30.529Z</time></trkpt><trkpt lat="45.7805857" lon="8.8367158"><ele>397.0</ele><time>2026-04-02T15:47:32.529Z</time></trkpt><trkpt lat="45.7805866" lon="8.8368138"><ele>397.0</ele><time>2026-04-02T15:47:35.528Z</time></trkpt><trkpt lat="45.7805677" lon="8.8369148"><ele>397.0</ele><time>2026-04-02T15:47:39.529Z</time></trkpt><trkpt lat="45.7804916" lon="8.8369411"><ele>397.0</ele><time>2026-04-02T15:47:42.528Z</time></trkpt><trkpt lat="45.7804075" lon="8.8368908"><ele>397.0</ele><time>2026-04-02T15:47:45.528Z</time></trkpt><trkpt lat="45.7803672" lon="8.8369622"><ele>397.0</ele><time>2026-04-02T15:47:48.529Z</time></trkpt><trkpt lat="45.7804538" lon="8.8369795"><ele>397.00000000000006</ele><time>2026-04-02T15:47:51.529Z</time></trkpt><trkpt lat="45.7805172" lon="8.8369544"><ele>397.0</ele><time>2026-04-02T15:47:53.528Z</time></trkpt><trkpt lat="45.7805854" lon="8.8369393"><ele>397.0</ele><time>2026-04-02T15:48:15.528Z</time></trkpt><trkpt lat="45.7806058" lon="8.8368444"><ele>397.0</ele><time>2026-04-02T15:48:17.528Z</time></trkpt><trkpt lat="45.7806089" lon="8.8367097"><ele>397.00000000000006</ele><time>2026-04-02T15:48:19.529Z</time></trkpt><trkpt lat="45.7806048" lon="8.8365722"><ele>397.0</ele><time>2026-04-02T15:48:21.528Z</time></trkpt><trkpt lat="45.7806077" lon="8.8364183"><ele>397.0</ele><time>2026-04-02T15:48:23.528Z</time></trkpt><trkpt lat="45.7806115" lon="8.8362436"><ele>397.0</ele><time>2026-04-02T15:48:25.528Z</time></trkpt><trkpt lat="45.7806135" lon="8.8360716"><ele>397.0</ele><time>2026-04-02T15:48:27.527Z</time></trkpt><trkpt lat="45.7806151" lon="8.8359617"><ele>397.0</ele><time>2026-04-02T15:48:29.528Z</time></trkpt><trkpt lat="45.7806118" lon="8.835797"><ele>397.0</ele><time>2026-04-02T15:48:31.528Z</time></trkpt><trkpt lat="45.7806149" lon="8.8356903"><ele>396.1666666666667</ele><time>2026-04-02T15:48:32.528Z</time></trkpt><trkpt lat="45.7806191" lon="8.8355765"><ele>395.33333333333337</ele><time>2026-04-02T15:48:33.528Z</time></trkpt><trkpt lat="45.7806236" lon="8.8354635"><ele>394.5</ele><time>2026-04-02T15:48:34.528Z</time></trkpt><trkpt lat="45.7806285" lon="8.8353504"><ele>393.66666666666663</ele><time>2026-04-02T15:48:35.529Z</time></trkpt><trkpt lat="45.7806351" lon="8.8352492"><ele>392.8333333333333</ele><time>2026-04-02T15:48:36.528Z</time></trkpt><trkpt lat="45.7806442" lon="8.8351545"><ele>392.0</ele><time>2026-04-02T15:48:37.528Z</time></trkpt><trkpt lat="45.780659" lon="8.8350015"><ele>391.6</ele><time>2026-04-02T15:48:39.529Z</time></trkpt><trkpt lat="45.7806839" lon="8.834822"><ele>391.20000000000005</ele><time>2026-04-02T15:48:41.528Z</time></trkpt><trkpt lat="45.7807057" lon="8.8347146"><ele>390.8</ele><time>2026-04-02T15:48:42.528Z</time></trkpt><trkpt lat="45.7807329" lon="8.8345912"><ele>390.4</ele><time>2026-04-02T15:48:43.528Z</time></trkpt><trkpt lat="45.7807625" lon="8.8344696"><ele>390.0</ele><time>2026-04-02T15:48:44.528Z</time></trkpt><trkpt lat="45.7807955" lon="8.8343462"><ele>389.5</ele><time>2026-04-02T15:48:45.528Z</time></trkpt><trkpt lat="45.7808297" lon="8.8342337"><ele>389.0</ele><time>2026-04-02T15:48:46.528Z</time></trkpt><trkpt lat="45.7808623" lon="8.8341284"><ele>388.5</ele><time>2026-04-02T15:48:47.528Z</time></trkpt><trkpt lat="45.7808946" lon="8.8340254"><ele>388.0</ele><time>2026-04-02T15:48:48.528Z</time></trkpt><trkpt lat="45.7809239" lon="8.8339286"><ele>387.5</ele><time>2026-04-02T15:48:49.528Z</time></trkpt><trkpt lat="45.7809554" lon="8.8338293"><ele>387.0</ele><time>2026-04-02T15:48:50.529Z</time></trkpt><trkpt lat="45.780988" lon="8.8337284"><ele>387.1666666666667</ele><time>2026-04-02T15:48:51.529Z</time></trkpt><trkpt lat="45.7810189" lon="8.8336301"><ele>387.33333333333337</ele><time>2026-04-02T15:48:52.527Z</time></trkpt><trkpt lat="45.7810507" lon="8.8335289"><ele>387.5</ele><time>2026-04-02T15:48:53.528Z</time></trkpt><trkpt lat="45.7810831" lon="8.8334265"><ele>387.6666666666667</ele><time>2026-04-02T15:48:54.527Z</time></trkpt><trkpt lat="45.781116" lon="8.8333236"><ele>387.83333333333337</ele><time>2026-04-02T15:48:55.528Z</time></trkpt><trkpt lat="45.7811509" lon="8.833216"><ele>388.0</ele><time>2026-04-02T15:48:56.529Z</time></trkpt><trkpt lat="45.7811812" lon="8.8331176"><ele>387.6666666666667</ele><time>2026-04-02T15:48:57.529Z</time></trkpt><trkpt lat="45.7812102" lon="8.8330213"><ele>387.33333333333337</ele><time>2026-04-02T15:48:58.529Z</time></trkpt><trkpt lat="45.7812409" lon="8.8329257"><ele>387.0</ele><time>2026-04-02T15:48:59.529Z</time></trkpt><trkpt lat="45.7812706" lon="8.8328285"><ele>386.66666666666663</ele><time>2026-04-02T15:49:00.529Z</time></trkpt><trkpt lat="45.7813038" lon="8.8327214"><ele>386.3333333333333</ele><time>2026-04-02T15:49:01.528Z</time></trkpt><trkpt lat="45.7813394" lon="8.8326069"><ele>386.0</ele><time>2026-04-02T15:49:02.528Z</time></trkpt><trkpt lat="45.781378" lon="8.8324824"><ele>385.20000000000005</ele><time>2026-04-02T15:49:03.528Z</time></trkpt><trkpt lat="45.7814191" lon="8.8323513"><ele>384.40000000000003</ele><time>2026-04-02T15:49:04.528Z</time></trkpt><trkpt lat="45.7814583" lon="8.8322318"><ele>383.6</ele><time>2026-04-02T15:49:05.528Z</time></trkpt><trkpt lat="45.7814986" lon="8.8321063"><ele>382.8</ele><time>2026-04-02T15:49:06.528Z</time></trkpt><trkpt lat="45.7815417" lon="8.8319691"><ele>382.0</ele><time>2026-04-02T15:49:07.529Z</time></trkpt><trkpt lat="45.7815845" lon="8.8318336"><ele>381.75</ele><time>2026-04-02T15:49:08.528Z</time></trkpt><trkpt lat="45.7816311" lon="8.831686"><ele>381.5</ele><time>2026-04-02T15:49:09.529Z</time></trkpt><trkpt lat="45.7816803" lon="8.8315317"><ele>381.25</ele><time>2026-04-02T15:49:10.528Z</time></trkpt><trkpt lat="45.7817318" lon="8.8313743"><ele>381.0</ele><time>2026-04-02T15:49:11.529Z</time></trkpt><trkpt lat="45.7817826" lon="8.831216"><ele>381.0</ele><time>2026-04-02T15:49:12.528Z</time></trkpt><trkpt lat="45.7818297" lon="8.8310679"><ele>381.0</ele><time>2026-04-02T15:49:13.528Z</time></trkpt><trkpt lat="45.7818775" lon="8.8309169"><ele>381.0</ele><time>2026-04-02T15:49:14.528Z</time></trkpt><trkpt lat="45.7819285" lon="8.8307558"><ele>381.0</ele><time>2026-04-02T15:49:15.528Z</time></trkpt><trkpt lat="45.7819775" lon="8.8306"><ele>380.25</ele><time>2026-04-02T15:49:16.527Z</time></trkpt><trkpt lat="45.7820295" lon="8.8304372"><ele>379.5</ele><time>2026-04-02T15:49:17.527Z</time></trkpt><trkpt lat="45.7820802" lon="8.8302791"><ele>378.75</ele><time>2026-04-02T15:49:18.528Z</time></trkpt><trkpt lat="45.7821271" lon="8.8301262"><ele>378.0</ele><time>2026-04-02T15:49:19.528Z</time></trkpt><trkpt lat="45.7821716" lon="8.8299756"><ele>377.75</ele><time>2026-04-02T15:49:20.529Z</time></trkpt><trkpt lat="45.7822131" lon="8.8298242"><ele>377.5</ele><time>2026-04-02T15:49:21.529Z</time></trkpt><trkpt lat="45.7822532" lon="8.8296704"><ele>377.25</ele><time>2026-04-02T15:49:22.529Z</time></trkpt><trkpt lat="45.782291" lon="8.8295042"><ele>377.0</ele><time>2026-04-02T15:49:23.528Z</time></trkpt><trkpt lat="45.7823215" lon="8.8293431"><ele>376.25</ele><time>2026-04-02T15:49:24.528Z</time></trkpt><trkpt lat="45.7823507" lon="8.829175"><ele>375.5</ele><time>2026-04-02T15:49:25.528Z</time></trkpt><trkpt lat="45.782375" lon="8.8290119"><ele>374.75</ele><time>2026-04-02T15:49:26.529Z</time></trkpt><trkpt lat="45.782398" lon="8.8288568"><ele>374.0</ele><time>2026-04-02T15:49:27.528Z</time></trkpt><trkpt lat="45.7824218" lon="8.8287106"><ele>374.0</ele><time>2026-04-02T15:49:28.528Z</time></trkpt><trkpt lat="45.7824443" lon="8.8285711"><ele>374.0</ele><time>2026-04-02T15:49:29.528Z</time></trkpt><trkpt lat="45.7824667" lon="8.8284279"><ele>374.0</ele><time>2026-04-02T15:49:30.529Z</time></trkpt><trkpt lat="45.7824901" lon="8.8282726"><ele>374.0</ele><time>2026-04-02T15:49:31.528Z</time></trkpt><trkpt lat="45.7825139" lon="8.8281255"><ele>374.0</ele><time>2026-04-02T15:49:32.528Z</time></trkpt><trkpt lat="45.7825356" lon="8.82798"><ele>373.2</ele><time>2026-04-02T15:49:33.529Z</time></trkpt><trkpt lat="45.7825554" lon="8.8278414"><ele>372.4</ele><time>2026-04-02T15:49:34.528Z</time></trkpt><trkpt lat="45.7825741" lon="8.8277063"><ele>371.6</ele><time>2026-04-02T15:49:35.527Z</time></trkpt><trkpt lat="45.7825939" lon="8.8275685"><ele>370.8</ele><time>2026-04-02T15:49:36.529Z</time></trkpt><trkpt lat="45.782612" lon="8.8274356"><ele>370.0</ele><time>2026-04-02T15:49:37.529Z</time></trkpt><trkpt lat="45.7826302" lon="8.827308"><ele>369.99999999999994</ele><time>2026-04-02T15:49:38.529Z</time></trkpt><trkpt lat="45.7826486" lon="8.8271893"><ele>370.0</ele><time>2026-04-02T15:49:39.529Z</time></trkpt><trkpt lat="45.7826647" lon="8.8270895"><ele>370.0</ele><time>2026-04-02T15:49:40.529Z</time></trkpt><trkpt lat="45.78268" lon="8.8269989"><ele>370.0</ele><time>2026-04-02T15:49:41.529Z</time></trkpt><trkpt lat="45.7826941" lon="8.8268943"><ele>370.0</ele><time>2026-04-02T15:49:42.528Z</time></trkpt><trkpt lat="45.7827093" lon="8.8267964"><ele>369.99999999999994</ele><time>2026-04-02T15:49:43.528Z</time></trkpt><trkpt lat="45.7827264" lon="8.8266946"><ele>370.0</ele><time>2026-04-02T15:49:44.529Z</time></trkpt><trkpt lat="45.7827402" lon="8.8265578"><ele>371.16666666666663</ele><time>2026-04-02T15:49:45.529Z</time></trkpt><trkpt lat="45.7827601" lon="8.8264308"><ele>372.3333333333333</ele><time>2026-04-02T15:49:46.529Z</time></trkpt><trkpt lat="45.7827794" lon="8.8262966"><ele>373.5</ele><time>2026-04-02T15:49:47.529Z</time></trkpt><trkpt lat="45.7827961" lon="8.8261742"><ele>374.6666666666667</ele><time>2026-04-02T15:49:48.529Z</time></trkpt><trkpt lat="45.7828136" lon="8.8260604"><ele>375.83333333333337</ele><time>2026-04-02T15:49:49.528Z</time></trkpt><trkpt lat="45.7828287" lon="8.8259571"><ele>377.0</ele><time>2026-04-02T15:49:50.528Z</time></trkpt><trkpt lat="45.7828413" lon="8.8258563"><ele>377.83333333333337</ele><time>2026-04-02T15:49:51.528Z</time></trkpt><trkpt lat="45.7828551" lon="8.8257545"><ele>378.6666666666667</ele><time>2026-04-02T15:49:52.528Z</time></trkpt><trkpt lat="45.7828689" lon="8.825654"><ele>379.5</ele><time>2026-04-02T15:49:53.528Z</time></trkpt><trkpt lat="45.7828807" lon="8.8255627"><ele>380.3333333333333</ele><time>2026-04-02T15:49:54.529Z</time></trkpt><trkpt lat="45.7829028" lon="8.8254244"><ele>381.16666666666663</ele><time>2026-04-02T15:49:56.529Z</time></trkpt><trkpt lat="45.7829241" lon="8.8253293"><ele>382.0</ele><time>2026-04-02T15:49:58.529Z</time></trkpt><trkpt lat="45.7829431" lon="8.8252195"><ele>382.3333333333333</ele><time>2026-04-02T15:50:02.528Z</time></trkpt><trkpt lat="45.7829507" lon="8.8251072"><ele>382.66666666666663</ele><time>2026-04-02T15:50:53.528Z</time></trkpt><trkpt lat="45.7829689" lon="8.8249753"><ele>383.0</ele><time>2026-04-02T15:50:56.527Z</time></trkpt><trkpt lat="45.782979" lon="8.8248694"><ele>383.3333333333333</ele><time>2026-04-02T15:50:58.528Z</time></trkpt><trkpt lat="45.78301" lon="8.824781"><ele>383.6666666666667</ele><time>2026-04-02T15:51:00.528Z</time></trkpt><trkpt lat="45.7830945" lon="8.8247705"><ele>384.0</ele><time>2026-04-02T15:51:02.528Z</time></trkpt><trkpt lat="45.783205" lon="8.8248332"><ele>384.0</ele><time>2026-04-02T15:51:04.528Z</time></trkpt><trkpt lat="45.7832675" lon="8.824879"><ele>384.0</ele><time>2026-04-02T15:51:05.527Z</time></trkpt><trkpt lat="45.7833414" lon="8.8249329"><ele>384.0</ele><time>2026-04-02T15:51:06.527Z</time></trkpt><trkpt lat="45.7834266" lon="8.8250004"><ele>384.0</ele><time>2026-04-02T15:51:07.527Z</time></trkpt><trkpt lat="45.7835128" lon="8.8250685"><ele>384.0</ele><time>2026-04-02T15:51:08.527Z</time></trkpt><trkpt lat="45.7836047" lon="8.8251415"><ele>382.25</ele><time>2026-04-02T15:51:09.527Z</time></trkpt><trkpt lat="45.783704" lon="8.8252207"><ele>380.5</ele><time>2026-04-02T15:51:10.527Z</time></trkpt><trkpt lat="45.7838092" lon="8.8253073"><ele>378.75</ele><time>2026-04-02T15:51:11.528Z</time></trkpt><trkpt lat="45.7839143" lon="8.8253966"><ele>377.0</ele><time>2026-04-02T15:51:12.527Z</time></trkpt><trkpt lat="45.7840191" lon="8.8254875"><ele>377.0</ele><time>2026-04-02T15:51:13.527Z</time></trkpt><trkpt lat="45.7841261" lon="8.8255828"><ele>377.0</ele><time>2026-04-02T15:51:14.528Z</time></trkpt><trkpt lat="45.7842369" lon="8.8256809"><ele>377.0</ele><time>2026-04-02T15:51:15.528Z</time></trkpt><trkpt lat="45.7843506" lon="8.8257799"><ele>377.0</ele><time>2026-04-02T15:51:16.528Z</time></trkpt><trkpt lat="45.7844692" lon="8.8258773"><ele>375.25</ele><time>2026-04-02T15:51:17.528Z</time></trkpt><trkpt lat="45.7845906" lon="8.8259715"><ele>373.5</ele><time>2026-04-02T15:51:18.528Z</time></trkpt><trkpt lat="45.7847146" lon="8.8260631"><ele>371.75</ele><time>2026-04-02T15:51:19.527Z</time></trkpt><trkpt lat="45.784835" lon="8.8261504"><ele>370.0</ele><time>2026-04-02T15:51:20.527Z</time></trkpt><trkpt lat="45.7849557" lon="8.8262302"><ele>370.0</ele><time>2026-04-02T15:51:21.526Z</time></trkpt><trkpt lat="45.7850774" lon="8.8263015"><ele>370.0</ele><time>2026-04-02T15:51:22.528Z</time></trkpt><trkpt lat="45.7852062" lon="8.8263668"><ele>370.0</ele><time>2026-04-02T15:51:23.528Z</time></trkpt><trkpt lat="45.7853345" lon="8.826428"><ele>370.0</ele><time>2026-04-02T15:51:24.527Z</time></trkpt><trkpt lat="45.785467" lon="8.8264818"><ele>369.25</ele><time>2026-04-02T15:51:25.528Z</time></trkpt><trkpt lat="45.7855974" lon="8.8265181"><ele>368.5</ele><time>2026-04-02T15:51:26.528Z</time></trkpt><trkpt lat="45.7857242" lon="8.8265501"><ele>367.75</ele><time>2026-04-02T15:51:27.528Z</time></trkpt><trkpt lat="45.785849" lon="8.8265842"><ele>367.0</ele><time>2026-04-02T15:51:28.528Z</time></trkpt><trkpt lat="45.7859782" lon="8.8266189"><ele>366.5</ele><time>2026-04-02T15:51:29.528Z</time></trkpt><trkpt lat="45.7861108" lon="8.8266535"><ele>366.0</ele><time>2026-04-02T15:51:30.527Z</time></trkpt><trkpt lat="45.7862493" lon="8.8266883"><ele>365.5</ele><time>2026-04-02T15:51:31.528Z</time></trkpt><trkpt lat="45.7863889" lon="8.8267225"><ele>365.0</ele><time>2026-04-02T15:51:32.528Z</time></trkpt><trkpt lat="45.7865227" lon="8.826757"><ele>365.0</ele><time>2026-04-02T15:51:33.527Z</time></trkpt><trkpt lat="45.7866557" lon="8.8267969"><ele>365.0</ele><time>2026-04-02T15:51:34.526Z</time></trkpt><trkpt lat="45.7867854" lon="8.8268425"><ele>365.0</ele><time>2026-04-02T15:51:35.527Z</time></trkpt><trkpt lat="45.7869144" lon="8.8268964"><ele>365.0</ele><time>2026-04-02T15:51:36.528Z</time></trkpt><trkpt lat="45.787042" lon="8.8269604"><ele>366.25</ele><time>2026-04-02T15:51:37.528Z</time></trkpt><trkpt lat="45.7871697" lon="8.8270301"><ele>367.5</ele><time>2026-04-02T15:51:38.528Z</time></trkpt><trkpt lat="45.787299" lon="8.8271014"><ele>368.75</ele><time>2026-04-02T15:51:39.528Z</time></trkpt><trkpt lat="45.787431" lon="8.8271745"><ele>370.0</ele><time>2026-04-02T15:51:40.528Z</time></trkpt><trkpt lat="45.7875642" lon="8.8272509"><ele>367.25</ele><time>2026-04-02T15:51:41.526Z</time></trkpt><trkpt lat="45.7876941" lon="8.8273254"><ele>364.5</ele><time>2026-04-02T15:51:42.528Z</time></trkpt><trkpt lat="45.7878249" lon="8.8274005"><ele>361.75</ele><time>2026-04-02T15:51:43.528Z</time></trkpt><trkpt lat="45.7879565" lon="8.827477"><ele>359.0</ele><time>2026-04-02T15:51:44.528Z</time></trkpt><trkpt lat="45.788083" lon="8.8275596"><ele>359.5</ele><time>2026-04-02T15:51:45.527Z</time></trkpt><trkpt lat="45.7882042" lon="8.8276443"><ele>360.0</ele><time>2026-04-02T15:51:46.527Z</time></trkpt><trkpt lat="45.7883235" lon="8.8277273"><ele>360.5</ele><time>2026-04-02T15:51:47.527Z</time></trkpt><trkpt lat="45.7884374" lon="8.8278105"><ele>361.0</ele><time>2026-04-02T15:51:48.527Z</time></trkpt><trkpt lat="45.7885435" lon="8.8278879"><ele>359.5</ele><time>2026-04-02T15:51:49.528Z</time></trkpt><trkpt lat="45.7886414" lon="8.8279613"><ele>358.0</ele><time>2026-04-02T15:51:50.527Z</time></trkpt><trkpt lat="45.7887265" lon="8.828028"><ele>356.5</ele><time>2026-04-02T15:51:51.528Z</time></trkpt><trkpt lat="45.7887961" lon="8.8280861"><ele>355.0</ele><time>2026-04-02T15:51:52.528Z</time></trkpt><trkpt lat="45.7888523" lon="8.8281331"><ele>353.5</ele><time>2026-04-02T15:51:53.528Z</time></trkpt><trkpt lat="45.7889126" lon="8.8281668"><ele>352.0</ele><time>2026-04-02T15:51:54.528Z</time></trkpt><trkpt lat="45.7889815" lon="8.8281982"><ele>352.0</ele><time>2026-04-02T15:51:55.527Z</time></trkpt><trkpt lat="45.789052" lon="8.8282549"><ele>352.0</ele><time>2026-04-02T15:51:56.526Z</time></trkpt><trkpt lat="45.7891176" lon="8.8283442"><ele>352.0</ele><time>2026-04-02T15:51:57.527Z</time></trkpt><trkpt lat="45.7891766" lon="8.8284581"><ele>352.0</ele><time>2026-04-02T15:51:58.528Z</time></trkpt><trkpt lat="45.7892363" lon="8.8285974"><ele>352.0</ele><time>2026-04-02T15:51:59.528Z</time></trkpt><trkpt lat="45.7892941" lon="8.8287322"><ele>351.75</ele><time>2026-04-02T15:52:00.527Z</time></trkpt><trkpt lat="45.7893587" lon="8.8288655"><ele>351.5</ele><time>2026-04-02T15:52:01.526Z</time></trkpt><trkpt lat="45.7894295" lon="8.8289982"><ele>351.25</ele><time>2026-04-02T15:52:02.528Z</time></trkpt><trkpt lat="45.7895118" lon="8.8291305"><ele>351.0</ele><time>2026-04-02T15:52:03.528Z</time></trkpt><trkpt lat="45.7896075" lon="8.8292629"><ele>352.75</ele><time>2026-04-02T15:52:04.527Z</time></trkpt><trkpt lat="45.7897102" lon="8.8293953"><ele>354.5</ele><time>2026-04-02T15:52:05.527Z</time></trkpt><trkpt lat="45.7898114" lon="8.8295205"><ele>356.25</ele><time>2026-04-02T15:52:06.528Z</time></trkpt><trkpt lat="45.7899142" lon="8.8296415"><ele>358.0</ele><time>2026-04-02T15:52:07.527Z</time></trkpt><trkpt lat="45.7900183" lon="8.8297583"><ele>358.0</ele><time>2026-04-02T15:52:08.528Z</time></trkpt><trkpt lat="45.7901252" lon="8.8298726"><ele>358.0</ele><time>2026-04-02T15:52:09.526Z</time></trkpt><trkpt lat="45.7902341" lon="8.8299867"><ele>358.0</ele><time>2026-04-02T15:52:10.528Z</time></trkpt><trkpt lat="45.7903459" lon="8.8300988"><ele>358.0</ele><time>2026-04-02T15:52:11.527Z</time></trkpt><trkpt lat="45.7904601" lon="8.8302065"><ele>358.25</ele><time>2026-04-02T15:52:12.526Z</time></trkpt><trkpt lat="45.7905788" lon="8.8303104"><ele>358.5</ele><time>2026-04-02T15:52:13.527Z</time></trkpt><trkpt lat="45.7906989" lon="8.8304086"><ele>358.75</ele><time>2026-04-02T15:52:14.528Z</time></trkpt><trkpt lat="45.7908237" lon="8.8305025"><ele>359.0</ele><time>2026-04-02T15:52:15.528Z</time></trkpt><trkpt lat="45.7909534" lon="8.830591"><ele>356.5</ele><time>2026-04-02T15:52:16.528Z</time></trkpt><trkpt lat="45.7910848" lon="8.8306782"><ele>354.0</ele><time>2026-04-02T15:52:17.527Z</time></trkpt><trkpt lat="45.7912178" lon="8.8307669"><ele>351.5</ele><time>2026-04-02T15:52:18.528Z</time></trkpt><trkpt lat="45.7913522" lon="8.8308572"><ele>349.0</ele><time>2026-04-02T15:52:19.527Z</time></trkpt><trkpt lat="45.791487" lon="8.8309491"><ele>350.0</ele><time>2026-04-02T15:52:20.526Z</time></trkpt><trkpt lat="45.7916232" lon="8.8310408"><ele>351.0</ele><time>2026-04-02T15:52:21.527Z</time></trkpt><trkpt lat="45.7917593" lon="8.8311322"><ele>352.0</ele><time>2026-04-02T15:52:22.528Z</time></trkpt><trkpt lat="45.7918936" lon="8.8312207"><ele>353.0</ele><time>2026-04-02T15:52:23.527Z</time></trkpt><trkpt lat="45.7920322" lon="8.8313051"><ele>353.0</ele><time>2026-04-02T15:52:24.528Z</time></trkpt><trkpt lat="45.7921742" lon="8.8313812"><ele>353.0</ele><time>2026-04-02T15:52:25.528Z</time></trkpt><trkpt lat="45.7923215" lon="8.8314522"><ele>353.0</ele><time>2026-04-02T15:52:26.528Z</time></trkpt><trkpt lat="45.7924774" lon="8.8315244"><ele>353.0</ele><time>2026-04-02T15:52:27.527Z</time></trkpt><trkpt lat="45.7926244" lon="8.8315922"><ele>353.0</ele><time>2026-04-02T15:52:28.528Z</time></trkpt><trkpt lat="45.7927724" lon="8.831659"><ele>353.0</ele><time>2026-04-02T15:52:29.528Z</time></trkpt><trkpt lat="45.7929166" lon="8.8317245"><ele>352.25</ele><time>2026-04-02T15:52:30.528Z</time></trkpt><trkpt lat="45.7930515" lon="8.8317919"><ele>351.5</ele><time>2026-04-02T15:52:31.527Z</time></trkpt><trkpt lat="45.793192" lon="8.8318719"><ele>350.75</ele><time>2026-04-02T15:52:32.527Z</time></trkpt><trkpt lat="45.7933274" lon="8.831962"><ele>350.0</ele><time>2026-04-02T15:52:33.528Z</time></trkpt><trkpt lat="45.7934618" lon="8.8320638"><ele>350.6666666666667</ele><time>2026-04-02T15:52:34.527Z</time></trkpt><trkpt lat="45.793601" lon="8.8321784"><ele>351.3333333333333</ele><time>2026-04-02T15:52:35.527Z</time></trkpt><trkpt lat="45.7937326" lon="8.8322929"><ele>352.0</ele><time>2026-04-02T15:52:36.528Z</time></trkpt><trkpt lat="45.7938695" lon="8.83242"><ele>352.0</ele><time>2026-04-02T15:52:37.528Z</time></trkpt><trkpt lat="45.7940061" lon="8.8325489"><ele>352.0</ele><time>2026-04-02T15:52:38.528Z</time></trkpt><trkpt lat="45.7941324" lon="8.8326693"><ele>352.0</ele><time>2026-04-02T15:52:39.528Z</time></trkpt><trkpt lat="45.7942566" lon="8.8327918"><ele>352.5</ele><time>2026-04-02T15:52:40.528Z</time></trkpt><trkpt lat="45.7943707" lon="8.8329078"><ele>353.0</ele><time>2026-04-02T15:52:41.528Z</time></trkpt><trkpt lat="45.7944817" lon="8.8330207"><ele>353.5</ele><time>2026-04-02T15:52:42.527Z</time></trkpt><trkpt lat="45.7945945" lon="8.8331338"><ele>354.0</ele><time>2026-04-02T15:52:43.528Z</time></trkpt><trkpt lat="45.7947016" lon="8.8332391"><ele>354.0</ele><time>2026-04-02T15:52:44.527Z</time></trkpt><trkpt lat="45.7948135" lon="8.8333487"><ele>354.0</ele><time>2026-04-02T15:52:45.528Z</time></trkpt><trkpt lat="45.7949214" lon="8.8334532"><ele>354.0</ele><time>2026-04-02T15:52:46.528Z</time></trkpt><trkpt lat="45.7950205" lon="8.8335496"><ele>354.0</ele><time>2026-04-02T15:52:47.527Z</time></trkpt><trkpt lat="45.7951166" lon="8.833644"><ele>355.6666666666667</ele><time>2026-04-02T15:52:48.528Z</time></trkpt><trkpt lat="45.7951965" lon="8.8337235"><ele>357.3333333333333</ele><time>2026-04-02T15:52:49.527Z</time></trkpt><trkpt lat="45.7952683" lon="8.8337927"><ele>359.0</ele><time>2026-04-02T15:52:50.528Z</time></trkpt><trkpt lat="45.7953342" lon="8.8338524"><ele>360.66666666666663</ele><time>2026-04-02T15:52:51.528Z</time></trkpt><trkpt lat="45.795389" lon="8.8339006"><ele>362.3333333333333</ele><time>2026-04-02T15:52:52.528Z</time></trkpt><trkpt lat="45.7954845" lon="8.8339878"><ele>364.0</ele><time>2026-04-02T15:52:54.527Z</time></trkpt><trkpt lat="45.7955591" lon="8.8340688"><ele>364.0</ele><time>2026-04-02T15:52:56.528Z</time></trkpt><trkpt lat="45.7956167" lon="8.8341371"><ele>364.0</ele><time>2026-04-02T15:52:58.527Z</time></trkpt><trkpt lat="45.7956815" lon="8.8342154"><ele>364.0</ele><time>2026-04-02T15:53:01.527Z</time></trkpt><trkpt lat="45.7957379" lon="8.8342962"><ele>364.0</ele><time>2026-04-02T15:53:04.527Z</time></trkpt><trkpt lat="45.795831" lon="8.8343699"><ele>364.0</ele><time>2026-04-02T15:53:24.528Z</time></trkpt><trkpt lat="45.7958872" lon="8.8344132"><ele>364.0</ele><time>2026-04-02T15:53:25.528Z</time></trkpt><trkpt lat="45.7959462" lon="8.8344534"><ele>363.8333333333333</ele><time>2026-04-02T15:53:26.524Z</time></trkpt><trkpt lat="45.7960082" lon="8.8344978"><ele>363.66666666666663</ele><time>2026-04-02T15:53:27.527Z</time></trkpt><trkpt lat="45.7960762" lon="8.8345439"><ele>363.5</ele><time>2026-04-02T15:53:28.527Z</time></trkpt><trkpt lat="45.7961564" lon="8.8345947"><ele>363.3333333333333</ele><time>2026-04-02T15:53:29.528Z</time></trkpt><trkpt lat="45.7962412" lon="8.8346487"><ele>363.1666666666667</ele><time>2026-04-02T15:53:30.527Z</time></trkpt><trkpt lat="45.7963233" lon="8.834703"><ele>363.0</ele><time>2026-04-02T15:53:31.528Z</time></trkpt><trkpt lat="45.7964085" lon="8.834758"><ele>363.0</ele><time>2026-04-02T15:53:32.527Z</time></trkpt><trkpt lat="45.796503" lon="8.8348074"><ele>363.0</ele><time>2026-04-02T15:53:33.527Z</time></trkpt><trkpt lat="45.796603" lon="8.8348434"><ele>363.0</ele><time>2026-04-02T15:53:34.528Z</time></trkpt><trkpt lat="45.7967156" lon="8.8348491"><ele>363.0</ele><time>2026-04-02T15:53:35.527Z</time></trkpt><trkpt lat="45.7968222" lon="8.8348222"><ele>363.0</ele><time>2026-04-02T15:53:36.527Z</time></trkpt><trkpt lat="45.7969149" lon="8.8347741"><ele>364.3333333333333</ele><time>2026-04-02T15:53:37.527Z</time></trkpt><trkpt lat="45.7969913" lon="8.8347127"><ele>365.6666666666667</ele><time>2026-04-02T15:53:38.527Z</time></trkpt><trkpt lat="45.7970602" lon="8.8346393"><ele>367.0</ele><time>2026-04-02T15:53:39.527Z</time></trkpt><trkpt lat="45.7971225" lon="8.8345602"><ele>368.33333333333337</ele><time>2026-04-02T15:53:40.528Z</time></trkpt><trkpt lat="45.7971732" lon="8.8344894"><ele>369.6666666666667</ele><time>2026-04-02T15:53:41.527Z</time></trkpt><trkpt lat="45.797219" lon="8.8344214"><ele>371.0</ele><time>2026-04-02T15:53:42.528Z</time></trkpt><trkpt lat="45.797262" lon="8.8343532"><ele>370.5</ele><time>2026-04-02T15:53:43.527Z</time></trkpt><trkpt lat="45.7973093" lon="8.8342776"><ele>370.0</ele><time>2026-04-02T15:53:44.528Z</time></trkpt><trkpt lat="45.7973626" lon="8.8341931"><ele>369.5</ele><time>2026-04-02T15:53:45.528Z</time></trkpt><trkpt lat="45.7974196" lon="8.8341021"><ele>369.0</ele><time>2026-04-02T15:53:46.527Z</time></trkpt><trkpt lat="45.7974801" lon="8.8340054"><ele>368.5</ele><time>2026-04-02T15:53:47.528Z</time></trkpt><trkpt lat="45.7975443" lon="8.8339125"><ele>368.0</ele><time>2026-04-02T15:53:48.527Z</time></trkpt><trkpt lat="45.7976186" lon="8.8338218"><ele>369.79999999999995</ele><time>2026-04-02T15:53:49.527Z</time></trkpt><trkpt lat="45.7977041" lon="8.8337338"><ele>371.6</ele><time>2026-04-02T15:53:50.527Z</time></trkpt><trkpt lat="45.7977907" lon="8.8336643"><ele>373.4</ele><time>2026-04-02T15:53:51.528Z</time></trkpt><trkpt lat="45.797883" lon="8.8336138"><ele>375.20000000000005</ele><time>2026-04-02T15:53:52.527Z</time></trkpt><trkpt lat="45.7979755" lon="8.8335849"><ele>377.0</ele><time>2026-04-02T15:53:53.527Z</time></trkpt><trkpt lat="45.7980736" lon="8.8335684"><ele>377.0</ele><time>2026-04-02T15:53:54.527Z</time></trkpt><trkpt lat="45.7981819" lon="8.8335593"><ele>377.0</ele><time>2026-04-02T15:53:55.527Z</time></trkpt><trkpt lat="45.7982842" lon="8.8335573"><ele>377.0</ele><time>2026-04-02T15:53:56.527Z</time></trkpt><trkpt lat="45.7983829" lon="8.8335597"><ele>377.0</ele><time>2026-04-02T15:53:57.528Z</time></trkpt><trkpt lat="45.7984785" lon="8.8335619"><ele>377.0</ele><time>2026-04-02T15:53:58.528Z</time></trkpt><trkpt lat="45.7985755" lon="8.8335642"><ele>375.0</ele><time>2026-04-02T15:53:59.528Z</time></trkpt><trkpt lat="45.7986738" lon="8.8335674"><ele>373.0</ele><time>2026-04-02T15:54:00.527Z</time></trkpt><trkpt lat="45.7987736" lon="8.8335701"><ele>371.0</ele><time>2026-04-02T15:54:01.528Z</time></trkpt><trkpt lat="45.7988756" lon="8.8335728"><ele>369.0</ele><time>2026-04-02T15:54:02.528Z</time></trkpt><trkpt lat="45.7989797" lon="8.8335769"><ele>367.0</ele><time>2026-04-02T15:54:03.528Z</time></trkpt><trkpt lat="45.7990748" lon="8.8335804"><ele>367.0</ele><time>2026-04-02T15:54:04.527Z</time></trkpt><trkpt lat="45.7991679" lon="8.8335831"><ele>367.0</ele><time>2026-04-02T15:54:05.528Z</time></trkpt><trkpt lat="45.799256" lon="8.8335842"><ele>367.0</ele><time>2026-04-02T15:54:06.528Z</time></trkpt><trkpt lat="45.7993447" lon="8.8335853"><ele>367.0</ele><time>2026-04-02T15:54:07.528Z</time></trkpt><trkpt lat="45.7994354" lon="8.8335873"><ele>367.0</ele><time>2026-04-02T15:54:08.528Z</time></trkpt><trkpt lat="45.7995297" lon="8.8335886"><ele>365.8</ele><time>2026-04-02T15:54:09.528Z</time></trkpt><trkpt lat="45.7996253" lon="8.8335936"><ele>364.6</ele><time>2026-04-02T15:54:10.528Z</time></trkpt><trkpt lat="45.7997209" lon="8.8335996"><ele>363.40000000000003</ele><time>2026-04-02T15:54:11.528Z</time></trkpt><trkpt lat="45.7998091" lon="8.8336043"><ele>362.20000000000005</ele><time>2026-04-02T15:54:12.528Z</time></trkpt><trkpt lat="45.7998999" lon="8.8336069"><ele>361.0</ele><time>2026-04-02T15:54:13.528Z</time></trkpt><trkpt lat="45.7999917" lon="8.833613"><ele>361.0</ele><time>2026-04-02T15:54:14.528Z</time></trkpt><trkpt lat="45.8000811" lon="8.8336291"><ele>361.0</ele><time>2026-04-02T15:54:15.527Z</time></trkpt><trkpt lat="45.8001694" lon="8.8336644"><ele>361.0</ele><time>2026-04-02T15:54:16.528Z</time></trkpt><trkpt lat="45.8002543" lon="8.8337202"><ele>361.0</ele><time>2026-04-02T15:54:17.528Z</time></trkpt><trkpt lat="45.8003299" lon="8.8337895"><ele>361.0</ele><time>2026-04-02T15:54:18.527Z</time></trkpt><trkpt lat="45.8004013" lon="8.8338657"><ele>361.2857142857143</ele><time>2026-04-02T15:54:19.527Z</time></trkpt><trkpt lat="45.8004682" lon="8.8339283"><ele>361.57142857142856</ele><time>2026-04-02T15:54:20.527Z</time></trkpt><trkpt lat="45.8005394" lon="8.8339737"><ele>361.85714285714283</ele><time>2026-04-02T15:54:21.528Z</time></trkpt><trkpt lat="45.8006107" lon="8.8339895"><ele>362.1428571428571</ele><time>2026-04-02T15:54:22.528Z</time></trkpt><trkpt lat="45.8006791" lon="8.8339726"><ele>362.42857142857144</ele><time>2026-04-02T15:54:23.527Z</time></trkpt><trkpt lat="45.8007416" lon="8.8339334"><ele>362.71428571428567</ele><time>2026-04-02T15:54:24.527Z</time></trkpt><trkpt lat="45.8008051" lon="8.83389"><ele>363.0</ele><time>2026-04-02T15:54:25.527Z</time></trkpt><trkpt lat="45.8008761" lon="8.8338565"><ele>363.0</ele><time>2026-04-02T15:54:26.526Z</time></trkpt><trkpt lat="45.8009496" lon="8.833837"><ele>363.0</ele><time>2026-04-02T15:54:27.527Z</time></trkpt><trkpt lat="45.8010199" lon="8.8338303"><ele>363.0</ele><time>2026-04-02T15:54:28.526Z</time></trkpt><trkpt lat="45.8010872" lon="8.8338358"><ele>363.0</ele><time>2026-04-02T15:54:29.528Z</time></trkpt><trkpt lat="45.8012007" lon="8.8338637"><ele>363.0</ele><time>2026-04-02T15:54:31.527Z</time></trkpt><trkpt lat="45.8012879" lon="8.8339122"><ele>363.0</ele><time>2026-04-02T15:54:33.528Z</time></trkpt><trkpt lat="45.8013566" lon="8.8339673"><ele>363.0</ele><time>2026-04-02T15:54:35.526Z</time></trkpt><trkpt lat="45.801432" lon="8.8340537"><ele>363.0</ele><time>2026-04-02T15:54:37.528Z</time></trkpt><trkpt lat="45.8015045" lon="8.8341483"><ele>363.0</ele><time>2026-04-02T15:54:39.528Z</time></trkpt><trkpt lat="45.8015853" lon="8.8341907"><ele>363.0</ele><time>2026-04-02T15:54:41.528Z</time></trkpt><trkpt lat="45.8017028" lon="8.8342186"><ele>363.0</ele><time>2026-04-02T15:54:43.527Z</time></trkpt><trkpt lat="45.8017719" lon="8.8342508"><ele>363.59999999999997</ele><time>2026-04-02T15:54:44.527Z</time></trkpt><trkpt lat="45.8018475" lon="8.8342966"><ele>364.2</ele><time>2026-04-02T15:54:45.528Z</time></trkpt><trkpt lat="45.8019315" lon="8.8343586"><ele>364.8</ele><time>2026-04-02T15:54:46.527Z</time></trkpt><trkpt lat="45.8020164" lon="8.834425"><ele>365.4</ele><time>2026-04-02T15:54:47.528Z</time></trkpt><trkpt lat="45.8021007" lon="8.8344894"><ele>366.0</ele><time>2026-04-02T15:54:48.528Z</time></trkpt><trkpt lat="45.8021876" lon="8.8345528"><ele>367.6</ele><time>2026-04-02T15:54:49.528Z</time></trkpt><trkpt lat="45.802276" lon="8.8346211"><ele>369.20000000000005</ele><time>2026-04-02T15:54:50.528Z</time></trkpt><trkpt lat="45.8023672" lon="8.8346966"><ele>370.79999999999995</ele><time>2026-04-02T15:54:51.528Z</time></trkpt><trkpt lat="45.8024561" lon="8.8347818"><ele>372.4</ele><time>2026-04-02T15:54:52.526Z</time></trkpt><trkpt lat="45.8025364" lon="8.8348863"><ele>374.0</ele><time>2026-04-02T15:54:53.528Z</time></trkpt><trkpt lat="45.8026065" lon="8.8350161"><ele>374.5</ele><time>2026-04-02T15:54:54.528Z</time></trkpt><trkpt lat="45.8026599" lon="8.8351703"><ele>375.0</ele><time>2026-04-02T15:54:55.528Z</time></trkpt><trkpt lat="45.8027042" lon="8.8353476"><ele>375.5</ele><time>2026-04-02T15:54:56.527Z</time></trkpt><trkpt lat="45.8027431" lon="8.8355189"><ele>376.0</ele><time>2026-04-02T15:54:57.527Z</time></trkpt><trkpt lat="45.8027796" lon="8.8356794"><ele>376.6</ele><time>2026-04-02T15:54:58.527Z</time></trkpt><trkpt lat="45.8028102" lon="8.8358237"><ele>377.20000000000005</ele><time>2026-04-02T15:54:59.526Z</time></trkpt><trkpt lat="45.8028382" lon="8.8359567"><ele>377.79999999999995</ele><time>2026-04-02T15:55:00.528Z</time></trkpt><trkpt lat="45.8028722" lon="8.8360817"><ele>378.4</ele><time>2026-04-02T15:55:01.528Z</time></trkpt><trkpt lat="45.8029284" lon="8.8361847"><ele>379.0</ele><time>2026-04-02T15:55:02.528Z</time></trkpt><trkpt lat="45.8030184" lon="8.8362729"><ele>380.5</ele><time>2026-04-02T15:55:03.527Z</time></trkpt><trkpt lat="45.8031295" lon="8.8363392"><ele>382.0</ele><time>2026-04-02T15:55:04.526Z</time></trkpt><trkpt lat="45.803259" lon="8.8363809"><ele>383.5</ele><time>2026-04-02T15:55:05.527Z</time></trkpt><trkpt lat="45.8033866" lon="8.8364128"><ele>385.0</ele><time>2026-04-02T15:55:06.526Z</time></trkpt><trkpt lat="45.803513" lon="8.8364447"><ele>385.0</ele><time>2026-04-02T15:55:07.527Z</time></trkpt><trkpt lat="45.8036408" lon="8.8364768"><ele>385.0</ele><time>2026-04-02T15:55:08.527Z</time></trkpt><trkpt lat="45.8037719" lon="8.8365075"><ele>385.0</ele><time>2026-04-02T15:55:09.526Z</time></trkpt><trkpt lat="45.8039065" lon="8.8365378"><ele>385.0</ele><time>2026-04-02T15:55:10.526Z</time></trkpt><trkpt lat="45.8040434" lon="8.8365692"><ele>385.0</ele><time>2026-04-02T15:55:11.526Z</time></trkpt><trkpt lat="45.8041971" lon="8.8366048"><ele>385.0</ele><time>2026-04-02T15:55:12.526Z</time></trkpt><trkpt lat="45.8043486" lon="8.8366411"><ele>385.0</ele><time>2026-04-02T15:55:13.527Z</time></trkpt><trkpt lat="45.8044916" lon="8.8366815"><ele>385.5</ele><time>2026-04-02T15:55:14.525Z</time></trkpt><trkpt lat="45.8046327" lon="8.8367276"><ele>386.0</ele><time>2026-04-02T15:55:15.527Z</time></trkpt><trkpt lat="45.8047632" lon="8.8367779"><ele>386.5</ele><time>2026-04-02T15:55:16.526Z</time></trkpt><trkpt lat="45.8048981" lon="8.8368289"><ele>387.0</ele><time>2026-04-02T15:55:17.526Z</time></trkpt><trkpt lat="45.8050376" lon="8.8368757"><ele>388.5</ele><time>2026-04-02T15:55:18.527Z</time></trkpt><trkpt lat="45.8051687" lon="8.8369124"><ele>390.0</ele><time>2026-04-02T15:55:19.527Z</time></trkpt><trkpt lat="45.8053066" lon="8.8369458"><ele>391.5</ele><time>2026-04-02T15:55:20.526Z</time></trkpt><trkpt lat="45.8054403" lon="8.8369728"><ele>393.0</ele><time>2026-04-02T15:55:21.526Z</time></trkpt><trkpt lat="45.8055759" lon="8.8369923"><ele>393.0</ele><time>2026-04-02T15:55:22.526Z</time></trkpt><trkpt lat="45.8057223" lon="8.837004"><ele>393.0</ele><time>2026-04-02T15:55:23.526Z</time></trkpt><trkpt lat="45.8058641" lon="8.8370063"><ele>393.0</ele><time>2026-04-02T15:55:24.527Z</time></trkpt><trkpt lat="45.8060133" lon="8.8370018"><ele>393.0</ele><time>2026-04-02T15:55:25.527Z</time></trkpt><trkpt lat="45.8061604" lon="8.8369933"><ele>393.0</ele><time>2026-04-02T15:55:26.527Z</time></trkpt><trkpt lat="45.8062999" lon="8.8369883"><ele>393.0</ele><time>2026-04-02T15:55:27.526Z</time></trkpt><trkpt lat="45.806446" lon="8.8369778"><ele>393.0</ele><time>2026-04-02T15:55:28.526Z</time></trkpt><trkpt lat="45.8065872" lon="8.8369553"><ele>393.0</ele><time>2026-04-02T15:55:29.526Z</time></trkpt><trkpt lat="45.8067306" lon="8.8369224"><ele>392.79999999999995</ele><time>2026-04-02T15:55:30.526Z</time></trkpt><trkpt lat="45.806868" lon="8.8368857"><ele>392.6</ele><time>2026-04-02T15:55:31.527Z</time></trkpt><trkpt lat="45.8069884" lon="8.8368537"><ele>392.4</ele><time>2026-04-02T15:55:32.526Z</time></trkpt><trkpt lat="45.8070921" lon="8.8368249"><ele>392.20000000000005</ele><time>2026-04-02T15:55:33.527Z</time></trkpt><trkpt lat="45.8071707" lon="8.8368019"><ele>392.0</ele><time>2026-04-02T15:55:34.526Z</time></trkpt><trkpt lat="45.807233" lon="8.8367821"><ele>391.40000000000003</ele><time>2026-04-02T15:55:35.526Z</time></trkpt><trkpt lat="45.807323" lon="8.8367527"><ele>390.8</ele><time>2026-04-02T15:55:37.525Z</time></trkpt><trkpt lat="45.807407" lon="8.836717"><ele>390.2</ele><time>2026-04-02T15:55:39.526Z</time></trkpt><trkpt lat="45.8075" lon="8.8366741"><ele>389.6</ele><time>2026-04-02T15:55:41.526Z</time></trkpt><trkpt lat="45.8076247" lon="8.8366297"><ele>389.0</ele><time>2026-04-02T15:55:43.527Z</time></trkpt><trkpt lat="45.8076933" lon="8.8366086"><ele>389.0</ele><time>2026-04-02T15:55:44.525Z</time></trkpt><trkpt lat="45.8077675" lon="8.8365858"><ele>389.0</ele><time>2026-04-02T15:55:45.527Z</time></trkpt><trkpt lat="45.8078407" lon="8.8365655"><ele>389.0</ele><time>2026-04-02T15:55:46.526Z</time></trkpt><trkpt lat="45.8079081" lon="8.836545"><ele>389.0</ele><time>2026-04-02T15:55:47.527Z</time></trkpt><trkpt lat="45.8079762" lon="8.8365248"><ele>389.0</ele><time>2026-04-02T15:55:48.527Z</time></trkpt><trkpt lat="45.808048" lon="8.8365041"><ele>389.0</ele><time>2026-04-02T15:55:49.526Z</time></trkpt><trkpt lat="45.8081227" lon="8.8364864"><ele>389.0</ele><time>2026-04-02T15:55:50.526Z</time></trkpt><trkpt lat="45.8081854" lon="8.8364744"><ele>389.0</ele><time>2026-04-02T15:55:51.526Z</time></trkpt><trkpt lat="45.8082946" lon="8.8364418"><ele>389.0</ele><time>2026-04-02T15:55:53.526Z</time></trkpt><trkpt lat="45.808409" lon="8.8364044"><ele>389.0</ele><time>2026-04-02T15:55:55.527Z</time></trkpt><trkpt lat="45.8085139" lon="8.8363683"><ele>389.0</ele><time>2026-04-02T15:55:57.527Z</time></trkpt><trkpt lat="45.8086059" lon="8.8363374"><ele>389.0</ele><time>2026-04-02T15:55:59.527Z</time></trkpt><trkpt lat="45.8086756" lon="8.8363431"><ele>388.99999999999994</ele><time>2026-04-02T15:56:01.526Z</time></trkpt><trkpt lat="45.8087334" lon="8.8364057"><ele>389.0</ele><time>2026-04-02T15:56:04.526Z</time></trkpt><trkpt lat="45.8087191" lon="8.8365095"><ele>389.0</ele><time>2026-04-02T15:56:07.527Z</time></trkpt><trkpt lat="45.8086594" lon="8.8365772"><ele>389.0</ele><time>2026-04-02T15:56:10.527Z</time></trkpt><trkpt lat="45.8085993" lon="8.8366293"><ele>388.99999999999994</ele><time>2026-04-02T15:56:12.526Z</time></trkpt><trkpt lat="45.8085239" lon="8.836697"><ele>389.0</ele><time>2026-04-02T15:56:14.527Z</time></trkpt><trkpt lat="45.8084213" lon="8.8367891"><ele>390.3333333333333</ele><time>2026-04-02T15:56:16.526Z</time></trkpt><trkpt lat="45.808315" lon="8.8368803"><ele>391.66666666666663</ele><time>2026-04-02T15:56:18.527Z</time></trkpt><trkpt lat="45.8082556" lon="8.8369334"><ele>393.0</ele><time>2026-04-02T15:56:19.525Z</time></trkpt><trkpt lat="45.8081916" lon="8.8369892"><ele>394.33333333333337</ele><time>2026-04-02T15:56:20.526Z</time></trkpt><trkpt lat="45.8081278" lon="8.8370465"><ele>395.6666666666667</ele><time>2026-04-02T15:56:21.527Z</time></trkpt><trkpt lat="45.8080701" lon="8.8370979"><ele>397.0</ele><time>2026-04-02T15:56:22.526Z</time></trkpt><trkpt lat="45.8079688" lon="8.8371871"><ele>397.0</ele><time>2026-04-02T15:56:24.526Z</time></trkpt><trkpt lat="45.8078957" lon="8.8372461"><ele>397.0</ele><time>2026-04-02T15:56:26.527Z</time></trkpt><trkpt lat="45.8078362" lon="8.8373024"><ele>397.0</ele><time>2026-04-02T15:56:30.527Z</time></trkpt><trkpt lat="45.8077516" lon="8.8373815"><ele>397.0</ele><time>2026-04-02T15:56:33.527Z</time></trkpt><trkpt lat="45.8076686" lon="8.8374611"><ele>397.0</ele><time>2026-04-02T15:56:35.527Z</time></trkpt><trkpt lat="45.807579" lon="8.8375576"><ele>397.1666666666667</ele><time>2026-04-02T15:56:37.526Z</time></trkpt><trkpt lat="45.8075022" lon="8.8376309"><ele>397.33333333333337</ele><time>2026-04-02T15:56:39.525Z</time></trkpt><trkpt lat="45.8074446" lon="8.8376857"><ele>397.5</ele><time>2026-04-02T15:56:41.525Z</time></trkpt><trkpt lat="45.8073895" lon="8.8377402"><ele>397.66666666666663</ele><time>2026-04-02T15:56:44.527Z</time></trkpt><trkpt lat="45.8073243" lon="8.8378019"><ele>397.8333333333333</ele><time>2026-04-02T15:56:56.526Z</time></trkpt><trkpt lat="45.807268" lon="8.8378627"><ele>398.0</ele><time>2026-04-02T15:57:09.526Z</time></trkpt><trkpt lat="45.807263" lon="8.8379942"><ele>398.0</ele><time>2026-04-02T15:57:12.527Z</time></trkpt><trkpt lat="45.8072983" lon="8.838112"><ele>398.0</ele><time>2026-04-02T15:57:14.527Z</time></trkpt><trkpt lat="45.8073419" lon="8.8382673"><ele>398.0</ele><time>2026-04-02T15:57:16.527Z</time></trkpt><trkpt lat="45.8073807" lon="8.8384282"><ele>398.0</ele><time>2026-04-02T15:57:18.526Z</time></trkpt><trkpt lat="45.8073956" lon="8.8385199"><ele>398.0</ele><time>2026-04-02T15:57:19.527Z</time></trkpt><trkpt lat="45.8074096" lon="8.8386303"><ele>398.3333333333333</ele><time>2026-04-02T15:57:20.526Z</time></trkpt><trkpt lat="45.8074169" lon="8.8387571"><ele>398.66666666666663</ele><time>2026-04-02T15:57:21.526Z</time></trkpt><trkpt lat="45.8074179" lon="8.8388925"><ele>399.0</ele><time>2026-04-02T15:57:22.525Z</time></trkpt><trkpt lat="45.8074184" lon="8.839018"><ele>399.33333333333337</ele><time>2026-04-02T15:57:23.527Z</time></trkpt><trkpt lat="45.8074209" lon="8.8391428"><ele>399.6666666666667</ele><time>2026-04-02T15:57:24.526Z</time></trkpt><trkpt lat="45.8074294" lon="8.8392699"><ele>400.0</ele><time>2026-04-02T15:57:25.527Z</time></trkpt><trkpt lat="45.8074434" lon="8.8393997"><ele>401.00000000000006</ele><time>2026-04-02T15:57:26.525Z</time></trkpt><trkpt lat="45.8074587" lon="8.8395278"><ele>402.0</ele><time>2026-04-02T15:57:27.526Z</time></trkpt><trkpt lat="45.8074755" lon="8.8396593"><ele>403.0</ele><time>2026-04-02T15:57:28.526Z</time></trkpt><trkpt lat="45.8074889" lon="8.8397769"><ele>404.0</ele><time>2026-04-02T15:57:29.527Z</time></trkpt><trkpt lat="45.8074934" lon="8.8398903"><ele>405.00000000000006</ele><time>2026-04-02T15:57:30.527Z</time></trkpt><trkpt lat="45.8074847" lon="8.840013"><ele>406.0</ele><time>2026-04-02T15:57:31.526Z</time></trkpt><trkpt lat="45.8074673" lon="8.8401316"><ele>406.20000000000005</ele><time>2026-04-02T15:57:32.527Z</time></trkpt><trkpt lat="45.8074475" lon="8.840255"><ele>406.40000000000003</ele><time>2026-04-02T15:57:33.526Z</time></trkpt><trkpt lat="45.8074258" lon="8.840379"><ele>406.6</ele><time>2026-04-02T15:57:34.526Z</time></trkpt><trkpt lat="45.8074036" lon="8.8405016"><ele>406.8</ele><time>2026-04-02T15:57:35.526Z</time></trkpt><trkpt lat="45.8073797" lon="8.8406326"><ele>407.0</ele><time>2026-04-02T15:57:36.527Z</time></trkpt><trkpt lat="45.8073562" lon="8.8407617"><ele>406.99999999999994</ele><time>2026-04-02T15:57:37.526Z</time></trkpt><trkpt lat="45.8073353" lon="8.8408867"><ele>407.0</ele><time>2026-04-02T15:57:38.527Z</time></trkpt><trkpt lat="45.8073131" lon="8.8410095"><ele>407.0</ele><time>2026-04-02T15:57:39.527Z</time></trkpt><trkpt lat="45.8072952" lon="8.8411031"><ele>407.0</ele><time>2026-04-02T15:57:40.526Z</time></trkpt><trkpt lat="45.8072704" lon="8.8412411"><ele>406.99999999999994</ele><time>2026-04-02T15:57:42.526Z</time></trkpt><trkpt lat="45.8072485" lon="8.8413525"><ele>407.0</ele><time>2026-04-02T15:57:44.527Z</time></trkpt><trkpt lat="45.807226" lon="8.8414668"><ele>407.16666666666663</ele><time>2026-04-02T15:57:46.526Z</time></trkpt><trkpt lat="45.807206" lon="8.8415797"><ele>407.3333333333333</ele><time>2026-04-02T15:57:48.526Z</time></trkpt><trkpt lat="45.8071914" lon="8.8416947"><ele>407.5</ele><time>2026-04-02T15:57:51.527Z</time></trkpt><trkpt lat="45.8071816" lon="8.8418089"><ele>407.66666666666663</ele><time>2026-04-02T15:58:11.526Z</time></trkpt><trkpt lat="45.8071708" lon="8.841911"><ele>407.8333333333333</ele><time>2026-04-02T15:58:13.527Z</time></trkpt><trkpt lat="45.8071523" lon="8.8420047"><ele>408.0</ele><time>2026-04-02T15:58:15.526Z</time></trkpt><trkpt lat="45.8071194" lon="8.8421429"><ele>408.0</ele><time>2026-04-02T15:58:24.526Z</time></trkpt><trkpt lat="45.8070844" lon="8.8422951"><ele>408.0</ele><time>2026-04-02T15:58:26.525Z</time></trkpt><trkpt lat="45.8070368" lon="8.8424636"><ele>408.0</ele><time>2026-04-02T15:58:28.527Z</time></trkpt><trkpt lat="45.8070055" lon="8.8425573"><ele>408.0</ele><time>2026-04-02T15:58:29.526Z</time></trkpt><trkpt lat="45.8069678" lon="8.8426705"><ele>408.0</ele><time>2026-04-02T15:58:30.527Z</time></trkpt><trkpt lat="45.8069218" lon="8.8427951"><ele>408.0</ele><time>2026-04-02T15:58:31.527Z</time></trkpt><trkpt lat="45.8068764" lon="8.8429201"><ele>408.0</ele><time>2026-04-02T15:58:32.526Z</time></trkpt><trkpt lat="45.8068332" lon="8.8430504"><ele>408.0</ele><time>2026-04-02T15:58:33.526Z</time></trkpt><trkpt lat="45.8067923" lon="8.8431951"><ele>408.0</ele><time>2026-04-02T15:58:34.527Z</time></trkpt><trkpt lat="45.8067512" lon="8.8433564"><ele>408.0</ele><time>2026-04-02T15:58:35.527Z</time></trkpt><trkpt lat="45.8067088" lon="8.843513"><ele>408.0</ele><time>2026-04-02T15:58:36.526Z</time></trkpt><trkpt lat="45.8066595" lon="8.8436705"><ele>408.0</ele><time>2026-04-02T15:58:37.526Z</time></trkpt><trkpt lat="45.8066052" lon="8.8438186"><ele>408.0</ele><time>2026-04-02T15:58:38.527Z</time></trkpt><trkpt lat="45.806546" lon="8.8439616"><ele>408.0</ele><time>2026-04-02T15:58:39.527Z</time></trkpt><trkpt lat="45.8064844" lon="8.8441"><ele>408.0</ele><time>2026-04-02T15:58:40.527Z</time></trkpt><trkpt lat="45.8064283" lon="8.8442461"><ele>408.0</ele><time>2026-04-02T15:58:41.527Z</time></trkpt><trkpt lat="45.8063787" lon="8.8443912"><ele>408.0</ele><time>2026-04-02T15:58:42.526Z</time></trkpt><trkpt lat="45.8063323" lon="8.8445419"><ele>408.0</ele><time>2026-04-02T15:58:43.526Z</time></trkpt><trkpt lat="45.8062909" lon="8.8446814"><ele>408.0</ele><time>2026-04-02T15:58:44.526Z</time></trkpt><trkpt lat="45.8062456" lon="8.8448215"><ele>407.2</ele><time>2026-04-02T15:58:45.526Z</time></trkpt><trkpt lat="45.8061974" lon="8.8449544"><ele>406.4</ele><time>2026-04-02T15:58:46.527Z</time></trkpt><trkpt lat="45.8061481" lon="8.8450821"><ele>405.59999999999997</ele><time>2026-04-02T15:58:47.525Z</time></trkpt><trkpt lat="45.806095" lon="8.8452197"><ele>404.79999999999995</ele><time>2026-04-02T15:58:48.527Z</time></trkpt><trkpt lat="45.80604" lon="8.8453575"><ele>404.0</ele><time>2026-04-02T15:58:49.526Z</time></trkpt><trkpt lat="45.8059848" lon="8.8454947"><ele>403.0</ele><time>2026-04-02T15:58:50.527Z</time></trkpt><trkpt lat="45.8059267" lon="8.845634"><ele>402.0</ele><time>2026-04-02T15:58:51.527Z</time></trkpt><trkpt lat="45.8058705" lon="8.8457631"><ele>401.0</ele><time>2026-04-02T15:58:52.527Z</time></trkpt><trkpt lat="45.8058116" lon="8.8458957"><ele>400.0</ele><time>2026-04-02T15:58:53.527Z</time></trkpt><trkpt lat="45.8057507" lon="8.8460278"><ele>399.0</ele><time>2026-04-02T15:58:54.527Z</time></trkpt><trkpt lat="45.8056938" lon="8.8461523"><ele>399.0</ele><time>2026-04-02T15:58:55.527Z</time></trkpt><trkpt lat="45.8056363" lon="8.8462795"><ele>399.0</ele><time>2026-04-02T15:58:56.527Z</time></trkpt><trkpt lat="45.8055837" lon="8.8463934"><ele>399.0</ele><time>2026-04-02T15:58:57.526Z</time></trkpt><trkpt lat="45.8055329" lon="8.8465025"><ele>399.0</ele><time>2026-04-02T15:58:58.527Z</time></trkpt><trkpt lat="45.8054797" lon="8.8466088"><ele>399.0</ele><time>2026-04-02T15:58:59.526Z</time></trkpt><trkpt lat="45.805429" lon="8.846706"><ele>399.1666666666667</ele><time>2026-04-02T15:59:00.526Z</time></trkpt><trkpt lat="45.8053779" lon="8.8468074"><ele>399.33333333333337</ele><time>2026-04-02T15:59:01.527Z</time></trkpt><trkpt lat="45.8053244" lon="8.846909"><ele>399.5</ele><time>2026-04-02T15:59:02.526Z</time></trkpt><trkpt lat="45.8052692" lon="8.8470081"><ele>399.6666666666667</ele><time>2026-04-02T15:59:03.527Z</time></trkpt><trkpt lat="45.8052125" lon="8.8471037"><ele>399.83333333333337</ele><time>2026-04-02T15:59:04.526Z</time></trkpt><trkpt lat="45.8051572" lon="8.8471937"><ele>400.0</ele><time>2026-04-02T15:59:05.527Z</time></trkpt><trkpt lat="45.8051059" lon="8.8472821"><ele>399.4</ele><time>2026-04-02T15:59:06.527Z</time></trkpt><trkpt lat="45.8050671" lon="8.8473747"><ele>398.8</ele><time>2026-04-02T15:59:07.527Z</time></trkpt><trkpt lat="45.8050236" lon="8.8475198"><ele>398.20000000000005</ele><time>2026-04-02T15:59:09.527Z</time></trkpt><trkpt lat="45.8049809" lon="8.8476334"><ele>397.6</ele><time>2026-04-02T15:59:11.526Z</time></trkpt><trkpt lat="45.8049267" lon="8.8477316"><ele>397.0</ele><time>2026-04-02T15:59:13.526Z</time></trkpt><trkpt lat="45.8049323" lon="8.8478568"><ele>397.00000000000006</ele><time>2026-04-02T15:59:15.527Z</time></trkpt><trkpt lat="45.8050282" lon="8.8478981"><ele>397.0</ele><time>2026-04-02T15:59:17.526Z</time></trkpt><trkpt lat="45.8051479" lon="8.8478961"><ele>397.0</ele><time>2026-04-02T15:59:19.527Z</time></trkpt><trkpt lat="45.8052113" lon="8.8479078"><ele>397.0</ele><time>2026-04-02T15:59:20.527Z</time></trkpt><trkpt lat="45.8052758" lon="8.8479252"><ele>397.00000000000006</ele><time>2026-04-02T15:59:21.526Z</time></trkpt><trkpt lat="45.8053432" lon="8.8479492"><ele>397.0</ele><time>2026-04-02T15:59:22.527Z</time></trkpt><trkpt lat="45.8054182" lon="8.8479893"><ele>397.1666666666667</ele><time>2026-04-02T15:59:23.527Z</time></trkpt><trkpt lat="45.8055033" lon="8.8480421"><ele>397.33333333333337</ele><time>2026-04-02T15:59:24.527Z</time></trkpt><trkpt lat="45.8055801" lon="8.8480955"><ele>397.5</ele><time>2026-04-02T15:59:25.526Z</time></trkpt><trkpt lat="45.8056528" lon="8.8481437"><ele>397.66666666666663</ele><time>2026-04-02T15:59:26.527Z</time></trkpt><trkpt lat="45.8057352" lon="8.8481993"><ele>397.8333333333333</ele><time>2026-04-02T15:59:27.527Z</time></trkpt><trkpt lat="45.8058168" lon="8.8482644"><ele>398.0</ele><time>2026-04-02T15:59:28.526Z</time></trkpt><trkpt lat="45.8059072" lon="8.8483408"><ele>398.0</ele><time>2026-04-02T15:59:29.526Z</time></trkpt><trkpt lat="45.8060091" lon="8.8484243"><ele>398.0</ele><time>2026-04-02T15:59:30.527Z</time></trkpt><trkpt lat="45.8061088" lon="8.8485071"><ele>398.0</ele><time>2026-04-02T15:59:31.525Z</time></trkpt><trkpt lat="45.8062046" lon="8.848589"><ele>398.0</ele><time>2026-04-02T15:59:32.526Z</time></trkpt><trkpt lat="45.8062977" lon="8.8486696"><ele>398.0</ele><time>2026-04-02T15:59:33.527Z</time></trkpt><trkpt lat="45.8063907" lon="8.8487514"><ele>398.0</ele><time>2026-04-02T15:59:34.527Z</time></trkpt><trkpt lat="45.8064831" lon="8.8488363"><ele>398.0</ele><time>2026-04-02T15:59:35.527Z</time></trkpt><trkpt lat="45.8065727" lon="8.8489234"><ele>398.0</ele><time>2026-04-02T15:59:36.527Z</time></trkpt><trkpt lat="45.8066597" lon="8.8490146"><ele>398.0</ele><time>2026-04-02T15:59:37.526Z</time></trkpt><trkpt lat="45.806745" lon="8.8491117"><ele>399.0</ele><time>2026-04-02T15:59:38.526Z</time></trkpt><trkpt lat="45.8068282" lon="8.849211"><ele>400.0</ele><time>2026-04-02T15:59:39.525Z</time></trkpt><trkpt lat="45.8069053" lon="8.8493042"><ele>401.0</ele><time>2026-04-02T15:59:40.526Z</time></trkpt><trkpt lat="45.8069782" lon="8.8493782"><ele>402.0</ele><time>2026-04-02T15:59:41.527Z</time></trkpt><trkpt lat="45.807056" lon="8.8494161"><ele>403.0</ele><time>2026-04-02T15:59:42.527Z</time></trkpt><trkpt lat="45.8071387" lon="8.8494077"><ele>403.0</ele><time>2026-04-02T15:59:43.527Z</time></trkpt><trkpt lat="45.8072263" lon="8.8493779"><ele>403.0</ele><time>2026-04-02T15:59:44.527Z</time></trkpt><trkpt lat="45.807315" lon="8.8493831"><ele>403.0</ele><time>2026-04-02T15:59:45.526Z</time></trkpt><trkpt lat="45.8074093" lon="8.8494169"><ele>403.0</ele><time>2026-04-02T15:59:46.526Z</time></trkpt><trkpt lat="45.8074912" lon="8.8494754"><ele>403.0</ele><time>2026-04-02T15:59:47.525Z</time></trkpt><trkpt lat="45.8075594" lon="8.8495409"><ele>403.00000000000006</ele><time>2026-04-02T15:59:48.526Z</time></trkpt><trkpt lat="45.8076097" lon="8.8496065"><ele>403.0</ele><time>2026-04-02T15:59:49.525Z</time></trkpt><trkpt lat="45.8076819" lon="8.8496742"><ele>403.0</ele><time>2026-04-02T15:59:50.526Z</time></trkpt><trkpt lat="45.8077478" lon="8.8497312"><ele>403.0</ele><time>2026-04-02T15:59:51.525Z</time></trkpt><trkpt lat="45.8078169" lon="8.8497863"><ele>403.00000000000006</ele><time>2026-04-02T15:59:52.525Z</time></trkpt><trkpt lat="45.8078849" lon="8.8498465"><ele>403.0</ele><time>2026-04-02T15:59:53.525Z</time></trkpt><trkpt lat="45.8079568" lon="8.8499059"><ele>402.2</ele><time>2026-04-02T15:59:54.526Z</time></trkpt><trkpt lat="45.8080351" lon="8.8499544"><ele>401.4</ele><time>2026-04-02T15:59:55.526Z</time></trkpt><trkpt lat="45.8081142" lon="8.8499871"><ele>400.59999999999997</ele><time>2026-04-02T15:59:56.526Z</time></trkpt><trkpt lat="45.8082066" lon="8.8499999"><ele>399.79999999999995</ele><time>2026-04-02T15:59:57.524Z</time></trkpt><trkpt lat="45.8083089" lon="8.8499833"><ele>399.0</ele><time>2026-04-02T15:59:58.526Z</time></trkpt><trkpt lat="45.808413" lon="8.8499335"><ele>397.25</ele><time>2026-04-02T15:59:59.526Z</time></trkpt><trkpt lat="45.8085234" lon="8.8498601"><ele>395.5</ele><time>2026-04-02T16:00:00.525Z</time></trkpt><trkpt lat="45.808626" lon="8.8497879"><ele>393.75</ele><time>2026-04-02T16:00:01.525Z</time></trkpt><trkpt lat="45.808726" lon="8.8497162"><ele>392.0</ele><time>2026-04-02T16:00:02.525Z</time></trkpt><trkpt lat="45.8088278" lon="8.8496437"><ele>392.0</ele><time>2026-04-02T16:00:03.525Z</time></trkpt><trkpt lat="45.8089227" lon="8.8495737"><ele>392.0</ele><time>2026-04-02T16:00:04.526Z</time></trkpt><trkpt lat="45.8090233" lon="8.8495012"><ele>392.0</ele><time>2026-04-02T16:00:05.526Z</time></trkpt><trkpt lat="45.8091258" lon="8.8494264"><ele>392.0</ele><time>2026-04-02T16:00:06.526Z</time></trkpt><trkpt lat="45.8092292" lon="8.8493516"><ele>392.0</ele><time>2026-04-02T16:00:07.525Z</time></trkpt><trkpt lat="45.8093426" lon="8.849271"><ele>392.0</ele><time>2026-04-02T16:00:08.525Z</time></trkpt><trkpt lat="45.8094595" lon="8.849186"><ele>392.0</ele><time>2026-04-02T16:00:09.525Z</time></trkpt><trkpt lat="45.8095744" lon="8.8491022"><ele>392.0</ele><time>2026-04-02T16:00:10.526Z</time></trkpt><trkpt lat="45.8096861" lon="8.8490198"><ele>392.0</ele><time>2026-04-02T16:00:11.525Z</time></trkpt><trkpt lat="45.8097993" lon="8.8489362"><ele>392.0</ele><time>2026-04-02T16:00:12.526Z</time></trkpt><trkpt lat="45.8099141" lon="8.8488548"><ele>392.0</ele><time>2026-04-02T16:00:13.525Z</time></trkpt><trkpt lat="45.8100268" lon="8.8487758"><ele>392.0</ele><time>2026-04-02T16:00:14.526Z</time></trkpt><trkpt lat="45.8101393" lon="8.8486959"><ele>391.75</ele><time>2026-04-02T16:00:15.526Z</time></trkpt><trkpt lat="45.8102526" lon="8.8486158"><ele>391.5</ele><time>2026-04-02T16:00:16.526Z</time></trkpt><trkpt lat="45.8103631" lon="8.8485398"><ele>391.25</ele><time>2026-04-02T16:00:17.526Z</time></trkpt><trkpt lat="45.8104693" lon="8.8484662"><ele>391.0</ele><time>2026-04-02T16:00:18.526Z</time></trkpt><trkpt lat="45.8105714" lon="8.8483918"><ele>391.0</ele><time>2026-04-02T16:00:19.526Z</time></trkpt><trkpt lat="45.8106741" lon="8.8483178"><ele>391.0</ele><time>2026-04-02T16:00:20.525Z</time></trkpt><trkpt lat="45.8107746" lon="8.8482454"><ele>391.0</ele><time>2026-04-02T16:00:21.526Z</time></trkpt><trkpt lat="45.8108694" lon="8.8481781"><ele>391.0</ele><time>2026-04-02T16:00:22.525Z</time></trkpt><trkpt lat="45.8109706" lon="8.8481082"><ele>391.0</ele><time>2026-04-02T16:00:23.526Z</time></trkpt><trkpt lat="45.8110664" lon="8.8480377"><ele>387.4</ele><time>2026-04-02T16:00:24.526Z</time></trkpt><trkpt lat="45.8111638" lon="8.8479653"><ele>383.8</ele><time>2026-04-02T16:00:25.526Z</time></trkpt><trkpt lat="45.8112601" lon="8.8478954"><ele>380.2</ele><time>2026-04-02T16:00:26.526Z</time></trkpt><trkpt lat="45.8113597" lon="8.8478231"><ele>376.59999999999997</ele><time>2026-04-02T16:00:27.526Z</time></trkpt><trkpt lat="45.8114633" lon="8.8477497"><ele>373.0</ele><time>2026-04-02T16:00:28.524Z</time></trkpt><trkpt lat="45.8115703" lon="8.8476729"><ele>374.0</ele><time>2026-04-02T16:00:29.525Z</time></trkpt><trkpt lat="45.8116805" lon="8.8475935"><ele>375.0</ele><time>2026-04-02T16:00:30.526Z</time></trkpt><trkpt lat="45.8117872" lon="8.8475174"><ele>376.0</ele><time>2026-04-02T16:00:31.525Z</time></trkpt><trkpt lat="45.8118982" lon="8.8474388"><ele>377.0</ele><time>2026-04-02T16:00:32.526Z</time></trkpt><trkpt lat="45.8119966" lon="8.84737"><ele>377.0</ele><time>2026-04-02T16:00:33.525Z</time></trkpt><trkpt lat="45.8120882" lon="8.8473062"><ele>377.0</ele><time>2026-04-02T16:00:34.525Z</time></trkpt><trkpt lat="45.8121736" lon="8.847245"><ele>377.0</ele><time>2026-04-02T16:00:35.526Z</time></trkpt><trkpt lat="45.8122531" lon="8.8471848"><ele>377.0</ele><time>2026-04-02T16:00:36.524Z</time></trkpt><trkpt lat="45.8123299" lon="8.8471302"><ele>377.0</ele><time>2026-04-02T16:00:37.526Z</time></trkpt><trkpt lat="45.8124031" lon="8.84708"><ele>377.0</ele><time>2026-04-02T16:00:38.525Z</time></trkpt><trkpt lat="45.8124717" lon="8.8470383"><ele>377.0</ele><time>2026-04-02T16:00:39.526Z</time></trkpt><trkpt lat="45.8125571" lon="8.8470083"><ele>377.0</ele><time>2026-04-02T16:00:40.526Z</time></trkpt><trkpt lat="45.8126532" lon="8.8470019"><ele>377.0</ele><time>2026-04-02T16:00:41.526Z</time></trkpt><trkpt lat="45.8127574" lon="8.8470181"><ele>377.0</ele><time>2026-04-02T16:00:42.525Z</time></trkpt><trkpt lat="45.812861" lon="8.847054"><ele>375.0</ele><time>2026-04-02T16:00:43.525Z</time></trkpt><trkpt lat="45.8129646" lon="8.8470947"><ele>373.0</ele><time>2026-04-02T16:00:44.526Z</time></trkpt><trkpt lat="45.8130732" lon="8.8471176"><ele>371.0</ele><time>2026-04-02T16:00:45.524Z</time></trkpt><trkpt lat="45.8131816" lon="8.8471124"><ele>369.0</ele><time>2026-04-02T16:00:46.525Z</time></trkpt><trkpt lat="45.8132812" lon="8.8470775"><ele>367.0</ele><time>2026-04-02T16:00:47.526Z</time></trkpt><trkpt lat="45.8133794" lon="8.8470097"><ele>367.0</ele><time>2026-04-02T16:00:48.525Z</time></trkpt><trkpt lat="45.8134734" lon="8.8469276"><ele>367.0</ele><time>2026-04-02T16:00:49.525Z</time></trkpt><trkpt lat="45.8135669" lon="8.8468414"><ele>367.0</ele><time>2026-04-02T16:00:50.525Z</time></trkpt><trkpt lat="45.8136578" lon="8.8467566"><ele>367.0</ele><time>2026-04-02T16:00:51.526Z</time></trkpt><trkpt lat="45.813747" lon="8.8466743"><ele>367.0</ele><time>2026-04-02T16:00:52.526Z</time></trkpt><trkpt lat="45.8138386" lon="8.8465925"><ele>367.3333333333333</ele><time>2026-04-02T16:00:53.526Z</time></trkpt><trkpt lat="45.8139196" lon="8.8465188"><ele>367.66666666666663</ele><time>2026-04-02T16:00:54.526Z</time></trkpt><trkpt lat="45.8139967" lon="8.8464654"><ele>368.0</ele><time>2026-04-02T16:00:55.526Z</time></trkpt><trkpt lat="45.8140842" lon="8.8464445"><ele>368.3333333333333</ele><time>2026-04-02T16:00:56.525Z</time></trkpt><trkpt lat="45.8141664" lon="8.8464656"><ele>368.6666666666667</ele><time>2026-04-02T16:00:57.525Z</time></trkpt><trkpt lat="45.8142377" lon="8.8465238"><ele>369.0</ele><time>2026-04-02T16:00:58.524Z</time></trkpt><trkpt lat="45.8142981" lon="8.8466132"><ele>369.0</ele><time>2026-04-02T16:00:59.526Z</time></trkpt><trkpt lat="45.8143538" lon="8.84672"><ele>369.0</ele><time>2026-04-02T16:01:00.526Z</time></trkpt><trkpt lat="45.8144118" lon="8.8468408"><ele>369.0</ele><time>2026-04-02T16:01:01.525Z</time></trkpt><trkpt lat="45.8144728" lon="8.8469674"><ele>369.0</ele><time>2026-04-02T16:01:02.525Z</time></trkpt><trkpt lat="45.8145325" lon="8.8470953"><ele>369.0</ele><time>2026-04-02T16:01:03.525Z</time></trkpt><trkpt lat="45.8145973" lon="8.8472353"><ele>368.79999999999995</ele><time>2026-04-02T16:01:04.525Z</time></trkpt><trkpt lat="45.8146588" lon="8.8473697"><ele>368.59999999999997</ele><time>2026-04-02T16:01:05.525Z</time></trkpt><trkpt lat="45.814718" lon="8.8474988"><ele>368.4</ele><time>2026-04-02T16:01:06.525Z</time></trkpt><trkpt lat="45.8147733" lon="8.8476174"><ele>368.2</ele><time>2026-04-02T16:01:07.526Z</time></trkpt><trkpt lat="45.814825" lon="8.8477264"><ele>368.0</ele><time>2026-04-02T16:01:08.525Z</time></trkpt><trkpt lat="45.8148711" lon="8.8478251"><ele>367.83333333333337</ele><time>2026-04-02T16:01:09.525Z</time></trkpt><trkpt lat="45.8149118" lon="8.8479152"><ele>367.6666666666667</ele><time>2026-04-02T16:01:10.525Z</time></trkpt><trkpt lat="45.8149465" lon="8.8479937"><ele>367.5</ele><time>2026-04-02T16:01:11.526Z</time></trkpt><trkpt lat="45.8149788" lon="8.8480721"><ele>367.3333333333333</ele><time>2026-04-02T16:01:12.525Z</time></trkpt><trkpt lat="45.8150271" lon="8.8482136"><ele>367.16666666666663</ele><time>2026-04-02T16:01:14.524Z</time></trkpt><trkpt lat="45.8150624" lon="8.8483304"><ele>367.0</ele><time>2026-04-02T16:01:16.525Z</time></trkpt><trkpt lat="45.8151004" lon="8.848411"><ele>367.20000000000005</ele><time>2026-04-02T16:01:18.526Z</time></trkpt><trkpt lat="45.8151533" lon="8.8485133"><ele>367.4</ele><time>2026-04-02T16:01:20.525Z</time></trkpt><trkpt lat="45.8151892" lon="8.8485989"><ele>367.6</ele><time>2026-04-02T16:01:22.526Z</time></trkpt><trkpt lat="45.8152376" lon="8.8486619"><ele>367.79999999999995</ele><time>2026-04-02T16:02:15.525Z</time></trkpt><trkpt lat="45.8153421" lon="8.8486551"><ele>368.0</ele><time>2026-04-02T16:02:17.526Z</time></trkpt><trkpt lat="45.815439" lon="8.8485233"><ele>368.79999999999995</ele><time>2026-04-02T16:02:19.525Z</time></trkpt><trkpt lat="45.81549" lon="8.8484364"><ele>369.6</ele><time>2026-04-02T16:02:20.525Z</time></trkpt><trkpt lat="45.8155502" lon="8.8483321"><ele>370.4</ele><time>2026-04-02T16:02:21.525Z</time></trkpt><trkpt lat="45.8156053" lon="8.8482338"><ele>371.20000000000005</ele><time>2026-04-02T16:02:22.526Z</time></trkpt><trkpt lat="45.8156678" lon="8.8481248"><ele>372.0</ele><time>2026-04-02T16:02:23.526Z</time></trkpt><trkpt lat="45.8157323" lon="8.8480134"><ele>372.0</ele><time>2026-04-02T16:02:24.524Z</time></trkpt><trkpt lat="45.8158026" lon="8.8478931"><ele>372.0</ele><time>2026-04-02T16:02:25.525Z</time></trkpt><trkpt lat="45.8158776" lon="8.8477683"><ele>372.0</ele><time>2026-04-02T16:02:26.526Z</time></trkpt><trkpt lat="45.815951" lon="8.8476499"><ele>372.0</ele><time>2026-04-02T16:02:27.525Z</time></trkpt><trkpt lat="45.8160239" lon="8.847534"><ele>372.0</ele><time>2026-04-02T16:02:28.526Z</time></trkpt><trkpt lat="45.8160989" lon="8.8474149"><ele>371.75</ele><time>2026-04-02T16:02:29.526Z</time></trkpt><trkpt lat="45.8161739" lon="8.8472929"><ele>371.5</ele><time>2026-04-02T16:02:30.524Z</time></trkpt><trkpt lat="45.8162499" lon="8.8471731"><ele>371.25</ele><time>2026-04-02T16:02:31.526Z</time></trkpt><trkpt lat="45.8163335" lon="8.8470454"><ele>371.0</ele><time>2026-04-02T16:02:32.526Z</time></trkpt><trkpt lat="45.8164145" lon="8.846919"><ele>371.25</ele><time>2026-04-02T16:02:33.525Z</time></trkpt><trkpt lat="45.8164947" lon="8.8467908"><ele>371.5</ele><time>2026-04-02T16:02:34.525Z</time></trkpt><trkpt lat="45.8165715" lon="8.8466671"><ele>371.75</ele><time>2026-04-02T16:02:35.525Z</time></trkpt><trkpt lat="45.8166454" lon="8.8465466"><ele>372.0</ele><time>2026-04-02T16:02:36.525Z</time></trkpt><trkpt lat="45.8167183" lon="8.8464294"><ele>372.0</ele><time>2026-04-02T16:02:37.526Z</time></trkpt><trkpt lat="45.8167912" lon="8.8463121"><ele>372.0</ele><time>2026-04-02T16:02:38.526Z</time></trkpt><trkpt lat="45.8168585" lon="8.8462042"><ele>372.0</ele><time>2026-04-02T16:02:39.526Z</time></trkpt><trkpt lat="45.8169257" lon="8.846097"><ele>372.0</ele><time>2026-04-02T16:02:40.525Z</time></trkpt><trkpt lat="45.8169853" lon="8.8459996"><ele>372.0</ele><time>2026-04-02T16:02:41.526Z</time></trkpt><trkpt lat="45.8170397" lon="8.8459114"><ele>372.3333333333333</ele><time>2026-04-02T16:02:42.524Z</time></trkpt><trkpt lat="45.8170912" lon="8.8458293"><ele>372.6666666666667</ele><time>2026-04-02T16:02:43.526Z</time></trkpt><trkpt lat="45.8171402" lon="8.8457543"><ele>373.0</ele><time>2026-04-02T16:02:44.526Z</time></trkpt><trkpt lat="45.8171844" lon="8.845682"><ele>373.33333333333337</ele><time>2026-04-02T16:02:45.525Z</time></trkpt><trkpt lat="45.8172267" lon="8.8456141"><ele>373.6666666666667</ele><time>2026-04-02T16:02:46.526Z</time></trkpt><trkpt lat="45.8172939" lon="8.8455149"><ele>374.0</ele><time>2026-04-02T16:02:48.526Z</time></trkpt><trkpt lat="45.8173501" lon="8.8454256"><ele>374.0</ele><time>2026-04-02T16:02:51.526Z</time></trkpt><trkpt lat="45.8173872" lon="8.8453507"><ele>374.0</ele><time>2026-04-02T16:02:55.526Z</time></trkpt><trkpt lat="45.8174301" lon="8.8452825"><ele>374.0</ele><time>2026-04-02T16:02:58.526Z</time></trkpt><trkpt lat="45.8174832" lon="8.8451747"><ele>374.0</ele><time>2026-04-02T16:03:11.526Z</time></trkpt><trkpt lat="45.8175383" lon="8.8450861"><ele>374.0</ele><time>2026-04-02T16:03:14.526Z</time></trkpt><trkpt lat="45.8175951" lon="8.8450056"><ele>374.0</ele><time>2026-04-02T16:03:16.525Z</time></trkpt><trkpt lat="45.8176574" lon="8.8449124"><ele>374.0</ele><time>2026-04-02T16:03:18.526Z</time></trkpt><trkpt lat="45.8177284" lon="8.8447993"><ele>374.0</ele><time>2026-04-02T16:03:20.525Z</time></trkpt><trkpt lat="45.8177819" lon="8.8447104"><ele>374.0</ele><time>2026-04-02T16:03:22.526Z</time></trkpt><trkpt lat="45.8178302" lon="8.8446362"><ele>374.0</ele><time>2026-04-02T16:03:26.526Z</time></trkpt><trkpt lat="45.8178847" lon="8.8445593"><ele>374.0</ele><time>2026-04-02T16:03:32.526Z</time></trkpt><trkpt lat="45.8179323" lon="8.8444599"><ele>374.0</ele><time>2026-04-02T16:03:38.524Z</time></trkpt><trkpt lat="45.8179955" lon="8.8443809"><ele>374.0</ele><time>2026-04-02T16:03:40.526Z</time></trkpt><trkpt lat="45.8180621" lon="8.8442978"><ele>374.0</ele><time>2026-04-02T16:03:42.525Z</time></trkpt><trkpt lat="45.8181246" lon="8.8442154"><ele>374.0</ele><time>2026-04-02T16:03:44.526Z</time></trkpt><trkpt lat="45.81818" lon="8.8441256"><ele>374.0</ele><time>2026-04-02T16:03:46.526Z</time></trkpt><trkpt lat="45.8182309" lon="8.8440522"><ele>374.0</ele><time>2026-04-02T16:03:49.526Z</time></trkpt><trkpt lat="45.8182803" lon="8.8439717"><ele>374.0</ele><time>2026-04-02T16:03:54.526Z</time></trkpt><trkpt lat="45.8183228" lon="8.8438795"><ele>374.1666666666667</ele><time>2026-04-02T16:03:57.526Z</time></trkpt><trkpt lat="45.8183627" lon="8.8437789"><ele>374.33333333333337</ele><time>2026-04-02T16:04:01.526Z</time></trkpt><trkpt lat="45.8184198" lon="8.8436731"><ele>374.5</ele><time>2026-04-02T16:04:04.526Z</time></trkpt><trkpt lat="45.8184713" lon="8.8435923"><ele>374.6666666666667</ele><time>2026-04-02T16:04:06.525Z</time></trkpt><trkpt lat="45.8185242" lon="8.8434991"><ele>374.8333333333333</ele><time>2026-04-02T16:04:08.526Z</time></trkpt><trkpt lat="45.8185735" lon="8.8434002"><ele>375.0</ele><time>2026-04-02T16:04:10.526Z</time></trkpt><trkpt lat="45.8186228" lon="8.8433171"><ele>375.0</ele><time>2026-04-02T16:04:12.526Z</time></trkpt><trkpt lat="45.8186824" lon="8.8432187"><ele>375.0</ele><time>2026-04-02T16:04:14.525Z</time></trkpt><trkpt lat="45.8187554" lon="8.8430981"><ele>375.0</ele><time>2026-04-02T16:04:16.525Z</time></trkpt><trkpt lat="45.8188349" lon="8.8429733"><ele>375.0</ele><time>2026-04-02T16:04:18.525Z</time></trkpt><trkpt lat="45.8189133" lon="8.8428485"><ele>375.0</ele><time>2026-04-02T16:04:20.526Z</time></trkpt><trkpt lat="45.8189837" lon="8.8427374"><ele>375.2</ele><time>2026-04-02T16:04:22.526Z</time></trkpt><trkpt lat="45.8190598" lon="8.8426181"><ele>375.4</ele><time>2026-04-02T16:04:24.526Z</time></trkpt><trkpt lat="45.8191318" lon="8.8425055"><ele>375.6</ele><time>2026-04-02T16:04:26.525Z</time></trkpt><trkpt lat="45.8192017" lon="8.8423936"><ele>375.8</ele><time>2026-04-02T16:04:28.525Z</time></trkpt><trkpt lat="45.8192795" lon="8.8422695"><ele>376.0</ele><time>2026-04-02T16:04:30.525Z</time></trkpt><trkpt lat="45.8193549" lon="8.8421485"><ele>376.16666666666663</ele><time>2026-04-02T16:04:32.524Z</time></trkpt><trkpt lat="45.8194222" lon="8.8420349"><ele>376.3333333333333</ele><time>2026-04-02T16:04:34.525Z</time></trkpt><trkpt lat="45.819489" lon="8.8419282"><ele>376.5</ele><time>2026-04-02T16:04:36.524Z</time></trkpt><trkpt lat="45.8195392" lon="8.8418499"><ele>376.6666666666667</ele><time>2026-04-02T16:04:38.525Z</time></trkpt><trkpt lat="45.8195931" lon="8.8417628"><ele>376.83333333333337</ele><time>2026-04-02T16:04:40.525Z</time></trkpt><trkpt lat="45.8196528" lon="8.8416689"><ele>377.0</ele><time>2026-04-02T16:04:42.524Z</time></trkpt><trkpt lat="45.8197184" lon="8.8415638"><ele>377.0</ele><time>2026-04-02T16:04:44.524Z</time></trkpt><trkpt lat="45.8198017" lon="8.8414381"><ele>377.0</ele><time>2026-04-02T16:04:46.524Z</time></trkpt><trkpt lat="45.8198753" lon="8.8413301"><ele>377.0</ele><time>2026-04-02T16:04:48.524Z</time></trkpt><trkpt lat="45.819933" lon="8.8412403"><ele>377.0</ele><time>2026-04-02T16:04:50.524Z</time></trkpt><trkpt lat="45.8199901" lon="8.841148"><ele>377.0</ele><time>2026-04-02T16:04:52.525Z</time></trkpt><trkpt lat="45.8200339" lon="8.8410534"><ele>376.83333333333337</ele><time>2026-04-02T16:04:54.524Z</time></trkpt><trkpt lat="45.820087" lon="8.8409331"><ele>376.6666666666667</ele><time>2026-04-02T16:04:56.524Z</time></trkpt><trkpt lat="45.8201427" lon="8.8408282"><ele>376.5</ele><time>2026-04-02T16:04:58.525Z</time></trkpt><trkpt lat="45.8201887" lon="8.8407498"><ele>376.3333333333333</ele><time>2026-04-02T16:05:00.525Z</time></trkpt><trkpt lat="45.8202452" lon="8.8406561"><ele>376.16666666666663</ele><time>2026-04-02T16:05:02.524Z</time></trkpt><trkpt lat="45.8203015" lon="8.8405749"><ele>376.0</ele><time>2026-04-02T16:05:04.524Z</time></trkpt><trkpt lat="45.8203634" lon="8.8404768"><ele>376.0</ele><time>2026-04-02T16:05:07.524Z</time></trkpt><trkpt lat="45.8204055" lon="8.8404021"><ele>376.0</ele><time>2026-04-02T16:05:09.524Z</time></trkpt><trkpt lat="45.8204515" lon="8.8403148"><ele>376.0</ele><time>2026-04-02T16:05:11.525Z</time></trkpt><trkpt lat="45.8205066" lon="8.8402441"><ele>376.0</ele><time>2026-04-02T16:05:13.524Z</time></trkpt><trkpt lat="45.8205685" lon="8.8401525"><ele>376.0</ele><time>2026-04-02T16:05:16.524Z</time></trkpt><trkpt lat="45.8206214" lon="8.8400838"><ele>376.0</ele><time>2026-04-02T16:05:59.524Z</time></trkpt><trkpt lat="45.8206744" lon="8.840025"><ele>376.0</ele><time>2026-04-02T16:06:02.524Z</time></trkpt><trkpt lat="45.8207382" lon="8.8399329"><ele>376.0</ele><time>2026-04-02T16:06:04.524Z</time></trkpt><trkpt lat="45.8208178" lon="8.8398096"><ele>376.0</ele><time>2026-04-02T16:06:06.524Z</time></trkpt><trkpt lat="45.8208619" lon="8.8397421"><ele>376.0</ele><time>2026-04-02T16:06:07.524Z</time></trkpt><trkpt lat="45.8209137" lon="8.8396641"><ele>376.0</ele><time>2026-04-02T16:06:08.523Z</time></trkpt><trkpt lat="45.8209674" lon="8.8395841"><ele>376.0</ele><time>2026-04-02T16:06:09.525Z</time></trkpt><trkpt lat="45.8210209" lon="8.8394981"><ele>376.0</ele><time>2026-04-02T16:06:10.524Z</time></trkpt><trkpt lat="45.8210813" lon="8.8394014"><ele>376.16666666666663</ele><time>2026-04-02T16:06:11.524Z</time></trkpt><trkpt lat="45.8211401" lon="8.8393052"><ele>376.3333333333333</ele><time>2026-04-02T16:06:12.525Z</time></trkpt><trkpt lat="45.8211934" lon="8.8392207"><ele>376.5</ele><time>2026-04-02T16:06:13.525Z</time></trkpt><trkpt lat="45.8212375" lon="8.8391514"><ele>376.6666666666667</ele><time>2026-04-02T16:06:14.525Z</time></trkpt><trkpt lat="45.8213063" lon="8.8390729"><ele>376.83333333333337</ele><time>2026-04-02T16:06:16.524Z</time></trkpt><trkpt lat="45.821372" lon="8.8390355"><ele>377.0</ele><time>2026-04-02T16:06:20.525Z</time></trkpt><trkpt lat="45.8214327" lon="8.8390052"><ele>377.1666666666667</ele><time>2026-04-02T16:06:22.524Z</time></trkpt><trkpt lat="45.8215484" lon="8.8389407"><ele>377.33333333333337</ele><time>2026-04-02T16:06:24.525Z</time></trkpt><trkpt lat="45.821614" lon="8.8389085"><ele>377.5</ele><time>2026-04-02T16:06:25.524Z</time></trkpt><trkpt lat="45.821684" lon="8.8388759"><ele>377.6666666666667</ele><time>2026-04-02T16:06:26.525Z</time></trkpt><trkpt lat="45.8217649" lon="8.8388376"><ele>377.8333333333333</ele><time>2026-04-02T16:06:27.525Z</time></trkpt><trkpt lat="45.8218494" lon="8.8387979"><ele>378.0</ele><time>2026-04-02T16:06:28.524Z</time></trkpt><trkpt lat="45.8219377" lon="8.838755"><ele>378.0</ele><time>2026-04-02T16:06:29.524Z</time></trkpt><trkpt lat="45.8220186" lon="8.8387179"><ele>378.0</ele><time>2026-04-02T16:06:30.525Z</time></trkpt><trkpt lat="45.8220908" lon="8.8386896"><ele>378.0</ele><time>2026-04-02T16:06:31.525Z</time></trkpt><trkpt lat="45.8221625" lon="8.8386626"><ele>378.0</ele><time>2026-04-02T16:06:32.525Z</time></trkpt><trkpt lat="45.8222305" lon="8.8386363"><ele>378.0</ele><time>2026-04-02T16:06:33.525Z</time></trkpt><trkpt lat="45.8222973" lon="8.8386131"><ele>378.0</ele><time>2026-04-02T16:06:34.525Z</time></trkpt><trkpt lat="45.8223739" lon="8.838584"><ele>378.0</ele><time>2026-04-02T16:06:35.524Z</time></trkpt><trkpt lat="45.8224514" lon="8.8385524"><ele>378.0</ele><time>2026-04-02T16:06:36.524Z</time></trkpt><trkpt lat="45.8225274" lon="8.8385207"><ele>378.0</ele><time>2026-04-02T16:06:37.523Z</time></trkpt><trkpt lat="45.8226042" lon="8.8384894"><ele>378.0</ele><time>2026-04-02T16:06:38.523Z</time></trkpt><trkpt lat="45.8226785" lon="8.8384612"><ele>378.0</ele><time>2026-04-02T16:06:39.523Z</time></trkpt><trkpt lat="45.822757" lon="8.8384325"><ele>378.0</ele><time>2026-04-02T16:06:40.525Z</time></trkpt><trkpt lat="45.8228288" lon="8.8384068"><ele>378.3333333333333</ele><time>2026-04-02T16:06:41.525Z</time></trkpt><trkpt lat="45.8228933" lon="8.8383857"><ele>378.6666666666667</ele><time>2026-04-02T16:06:42.524Z</time></trkpt><trkpt lat="45.8229563" lon="8.8383634"><ele>379.0</ele><time>2026-04-02T16:06:43.525Z</time></trkpt><trkpt lat="45.8230667" lon="8.8383323"><ele>379.33333333333337</ele><time>2026-04-02T16:06:45.525Z</time></trkpt><trkpt lat="45.8231458" lon="8.838307"><ele>379.6666666666667</ele><time>2026-04-02T16:06:47.525Z</time></trkpt><trkpt lat="45.823223" lon="8.8383223"><ele>380.0</ele><time>2026-04-02T16:06:50.524Z</time></trkpt><trkpt lat="45.823279" lon="8.8384227"><ele>379.6</ele><time>2026-04-02T16:06:53.525Z</time></trkpt><trkpt lat="45.8232979" lon="8.8385695"><ele>379.2</ele><time>2026-04-02T16:06:55.524Z</time></trkpt><trkpt lat="45.8233209" lon="8.8387389"><ele>378.79999999999995</ele><time>2026-04-02T16:06:57.525Z</time></trkpt><trkpt lat="45.8233344" lon="8.8388375"><ele>378.4</ele><time>2026-04-02T16:06:58.524Z</time></trkpt><trkpt lat="45.8233467" lon="8.838949"><ele>378.0</ele><time>2026-04-02T16:06:59.525Z</time></trkpt><trkpt lat="45.8233618" lon="8.8390766"><ele>378.0</ele><time>2026-04-02T16:07:00.525Z</time></trkpt><trkpt lat="45.8233759" lon="8.8391979"><ele>378.0</ele><time>2026-04-02T16:07:01.524Z</time></trkpt><trkpt lat="45.8233898" lon="8.8393103"><ele>378.0</ele><time>2026-04-02T16:07:02.525Z</time></trkpt><trkpt lat="45.823403" lon="8.8394197"><ele>378.0</ele><time>2026-04-02T16:07:03.524Z</time></trkpt><trkpt lat="45.8234229" lon="8.8395211"><ele>378.0</ele><time>2026-04-02T16:07:04.525Z</time></trkpt><trkpt lat="45.8234599" lon="8.8396005"><ele>378.0</ele><time>2026-04-02T16:07:05.525Z</time></trkpt><trkpt lat="45.8235204" lon="8.8396644"><ele>374.8333333333333</ele><time>2026-04-02T16:07:06.524Z</time></trkpt><trkpt lat="45.8235967" lon="8.8396928"><ele>371.6666666666667</ele><time>2026-04-02T16:07:07.524Z</time></trkpt><trkpt lat="45.8236812" lon="8.8396817"><ele>368.5</ele><time>2026-04-02T16:07:08.524Z</time></trkpt><trkpt lat="45.8237649" lon="8.839632"><ele>365.33333333333337</ele><time>2026-04-02T16:07:09.524Z</time></trkpt><trkpt lat="45.8238448" lon="8.8395634"><ele>362.1666666666667</ele><time>2026-04-02T16:07:10.525Z</time></trkpt><trkpt lat="45.8239295" lon="8.8394868"><ele>359.0</ele><time>2026-04-02T16:07:11.524Z</time></trkpt><trkpt lat="45.8240147" lon="8.839403"><ele>359.0</ele><time>2026-04-02T16:07:12.525Z</time></trkpt><trkpt lat="45.8240964" lon="8.8393253"><ele>359.0</ele><time>2026-04-02T16:07:13.524Z</time></trkpt><trkpt lat="45.8241778" lon="8.8392516"><ele>359.0</ele><time>2026-04-02T16:07:14.525Z</time></trkpt><trkpt lat="45.8242561" lon="8.8391783"><ele>359.0</ele><time>2026-04-02T16:07:15.523Z</time></trkpt><trkpt lat="45.8243291" lon="8.839115"><ele>359.0</ele><time>2026-04-02T16:07:16.524Z</time></trkpt><trkpt lat="45.8243926" lon="8.8390691"><ele>359.0</ele><time>2026-04-02T16:07:17.525Z</time></trkpt><trkpt lat="45.8244709" lon="8.839049"><ele>360.1666666666667</ele><time>2026-04-02T16:07:19.523Z</time></trkpt><trkpt lat="45.824536" lon="8.8390737"><ele>361.33333333333337</ele><time>2026-04-02T16:07:25.524Z</time></trkpt><trkpt lat="45.8245985" lon="8.8389846"><ele>362.5</ele><time>2026-04-02T16:07:28.525Z</time></trkpt><trkpt lat="45.8246846" lon="8.8389165"><ele>363.6666666666667</ele><time>2026-04-02T16:07:30.524Z</time></trkpt><trkpt lat="45.8247739" lon="8.8388705"><ele>364.8333333333333</ele><time>2026-04-02T16:07:32.525Z</time></trkpt><trkpt lat="45.8248679" lon="8.838834"><ele>366.0</ele><time>2026-04-02T16:07:34.524Z</time></trkpt><trkpt lat="45.8249298" lon="8.838814"><ele>366.0</ele><time>2026-04-02T16:07:35.523Z</time></trkpt><trkpt lat="45.8250535" lon="8.8387829"><ele>366.0</ele><time>2026-04-02T16:07:37.525Z</time></trkpt><trkpt lat="45.8251193" lon="8.8387679"><ele>366.0</ele><time>2026-04-02T16:07:38.524Z</time></trkpt><trkpt lat="45.8251943" lon="8.8387482"><ele>366.0</ele><time>2026-04-02T16:07:39.524Z</time></trkpt><trkpt lat="45.8252736" lon="8.8387236"><ele>366.0</ele><time>2026-04-02T16:07:40.525Z</time></trkpt><trkpt lat="45.8253584" lon="8.8386885"><ele>366.0</ele><time>2026-04-02T16:07:41.525Z</time></trkpt><trkpt lat="45.8254419" lon="8.8386437"><ele>365.8</ele><time>2026-04-02T16:07:42.525Z</time></trkpt><trkpt lat="45.8255225" lon="8.8385892"><ele>365.6</ele><time>2026-04-02T16:07:43.524Z</time></trkpt><trkpt lat="45.8256027" lon="8.8385241"><ele>365.4</ele><time>2026-04-02T16:07:44.524Z</time></trkpt><trkpt lat="45.8256823" lon="8.8384524"><ele>365.2</ele><time>2026-04-02T16:07:45.524Z</time></trkpt><trkpt lat="45.8257625" lon="8.8383866"><ele>365.0</ele><time>2026-04-02T16:07:46.524Z</time></trkpt><trkpt lat="45.8258504" lon="8.8383251"><ele>365.6</ele><time>2026-04-02T16:07:47.523Z</time></trkpt><trkpt lat="45.8259352" lon="8.8382662"><ele>366.2</ele><time>2026-04-02T16:07:48.524Z</time></trkpt><trkpt lat="45.8260237" lon="8.8382102"><ele>366.79999999999995</ele><time>2026-04-02T16:07:49.525Z</time></trkpt><trkpt lat="45.82611" lon="8.8381564"><ele>367.4</ele><time>2026-04-02T16:07:50.524Z</time></trkpt><trkpt lat="45.8261955" lon="8.838101"><ele>368.0</ele><time>2026-04-02T16:07:51.525Z</time></trkpt><trkpt lat="45.8262757" lon="8.8380502"><ele>368.1666666666667</ele><time>2026-04-02T16:07:52.525Z</time></trkpt><trkpt lat="45.8263418" lon="8.838005"><ele>368.33333333333337</ele><time>2026-04-02T16:07:53.524Z</time></trkpt><trkpt lat="45.8264371" lon="8.8379965"><ele>368.5</ele><time>2026-04-02T16:07:55.524Z</time></trkpt><trkpt lat="45.8264813" lon="8.8381278"><ele>368.6666666666667</ele><time>2026-04-02T16:07:57.525Z</time></trkpt><trkpt lat="45.8264901" lon="8.8382242"><ele>368.8333333333333</ele><time>2026-04-02T16:07:58.525Z</time></trkpt><trkpt lat="45.8264992" lon="8.8383262"><ele>369.0</ele><time>2026-04-02T16:07:59.525Z</time></trkpt><trkpt lat="45.8265062" lon="8.838444"><ele>368.3333333333333</ele><time>2026-04-02T16:08:00.524Z</time></trkpt><trkpt lat="45.826521" lon="8.8385686"><ele>367.6666666666667</ele><time>2026-04-02T16:08:01.524Z</time></trkpt><trkpt lat="45.8265275" lon="8.8386774"><ele>367.0</ele><time>2026-04-02T16:08:02.524Z</time></trkpt><trkpt lat="45.8265348" lon="8.8387772"><ele>366.33333333333337</ele><time>2026-04-02T16:08:03.524Z</time></trkpt><trkpt lat="45.8265424" lon="8.8389314"><ele>365.6666666666667</ele><time>2026-04-02T16:08:05.525Z</time></trkpt><trkpt lat="45.8266093" lon="8.8390062"><ele>365.0</ele><time>2026-04-02T16:08:07.524Z</time></trkpt><trkpt lat="45.826736" lon="8.8389919"><ele>365.0</ele><time>2026-04-02T16:08:09.525Z</time></trkpt><trkpt lat="45.8268009" lon="8.8389828"><ele>365.0</ele><time>2026-04-02T16:08:10.525Z</time></trkpt><trkpt lat="45.8268728" lon="8.8389768"><ele>365.0</ele><time>2026-04-02T16:08:11.525Z</time></trkpt><trkpt lat="45.8269395" lon="8.8389692"><ele>365.0</ele><time>2026-04-02T16:08:12.524Z</time></trkpt><trkpt lat="45.8270507" lon="8.8389748"><ele>365.0</ele><time>2026-04-02T16:08:14.525Z</time></trkpt><trkpt lat="45.8271236" lon="8.8389927"><ele>365.0</ele><time>2026-04-02T16:08:16.525Z</time></trkpt><trkpt lat="45.8271971" lon="8.8388965"><ele>365.0</ele><time>2026-04-02T16:08:22.524Z</time></trkpt><trkpt lat="45.8272128" lon="8.8387094"><ele>365.0</ele><time>2026-04-02T16:08:24.525Z</time></trkpt><trkpt lat="45.8272184" lon="8.83861"><ele>365.0</ele><time>2026-04-02T16:08:25.524Z</time></trkpt><trkpt lat="45.8272237" lon="8.8385102"><ele>365.0</ele><time>2026-04-02T16:08:26.525Z</time></trkpt><trkpt lat="45.8272326" lon="8.8384077"><ele>365.0</ele><time>2026-04-02T16:08:27.525Z</time></trkpt><trkpt lat="45.827242" lon="8.8382958"><ele>365.0</ele><time>2026-04-02T16:08:28.525Z</time></trkpt><trkpt lat="45.8272524" lon="8.8381729"><ele>365.5</ele><time>2026-04-02T16:08:29.523Z</time></trkpt><trkpt lat="45.8272644" lon="8.838039"><ele>366.0</ele><time>2026-04-02T16:08:30.524Z</time></trkpt><trkpt lat="45.8272738" lon="8.8379159"><ele>366.5</ele><time>2026-04-02T16:08:31.525Z</time></trkpt><trkpt lat="45.827286" lon="8.8377901"><ele>367.0</ele><time>2026-04-02T16:08:32.525Z</time></trkpt><trkpt lat="45.8273011" lon="8.8376796"><ele>367.5</ele><time>2026-04-02T16:08:33.525Z</time></trkpt><trkpt lat="45.8273149" lon="8.8375827"><ele>368.0</ele><time>2026-04-02T16:08:34.525Z</time></trkpt><trkpt lat="45.8273486" lon="8.8374404"><ele>367.79999999999995</ele><time>2026-04-02T16:08:36.523Z</time></trkpt><trkpt lat="45.827392" lon="8.837366"><ele>367.6</ele><time>2026-04-02T16:08:41.525Z</time></trkpt><trkpt lat="45.8274709" lon="8.8374235"><ele>367.4</ele><time>2026-04-02T16:08:45.524Z</time></trkpt><trkpt lat="45.8275582" lon="8.8375352"><ele>367.20000000000005</ele><time>2026-04-02T16:08:47.524Z</time></trkpt><trkpt lat="45.8276076" lon="8.8376008"><ele>367.0</ele><time>2026-04-02T16:08:48.525Z</time></trkpt><trkpt lat="45.8276976" lon="8.8377142"><ele>367.0</ele><time>2026-04-02T16:08:50.524Z</time></trkpt><trkpt lat="45.8277477" lon="8.8377737"><ele>367.0</ele><time>2026-04-02T16:08:51.522Z</time></trkpt><trkpt lat="45.8278085" lon="8.8378467"><ele>367.0</ele><time>2026-04-02T16:08:52.523Z</time></trkpt><trkpt lat="45.8278785" lon="8.8379312"><ele>367.0</ele><time>2026-04-02T16:08:53.522Z</time></trkpt><trkpt lat="45.8279452" lon="8.8380173"><ele>367.0</ele><time>2026-04-02T16:08:54.524Z</time></trkpt><trkpt lat="45.8280176" lon="8.8381122"><ele>367.0</ele><time>2026-04-02T16:08:55.523Z</time></trkpt><trkpt lat="45.8281027" lon="8.83822"><ele>367.0</ele><time>2026-04-02T16:08:56.523Z</time></trkpt><trkpt lat="45.8281943" lon="8.8383346"><ele>367.0</ele><time>2026-04-02T16:08:57.524Z</time></trkpt><trkpt lat="45.8282843" lon="8.8384472"><ele>367.0</ele><time>2026-04-02T16:08:58.523Z</time></trkpt><trkpt lat="45.8283715" lon="8.8385568"><ele>367.0</ele><time>2026-04-02T16:08:59.522Z</time></trkpt><trkpt lat="45.8284593" lon="8.8386661"><ele>366.0</ele><time>2026-04-02T16:09:00.524Z</time></trkpt><trkpt lat="45.828549" lon="8.8387777"><ele>365.0</ele><time>2026-04-02T16:09:01.523Z</time></trkpt><trkpt lat="45.8286383" lon="8.8388924"><ele>364.0</ele><time>2026-04-02T16:09:02.523Z</time></trkpt><trkpt lat="45.8287358" lon="8.8390163"><ele>363.0</ele><time>2026-04-02T16:09:03.522Z</time></trkpt><trkpt lat="45.828835" lon="8.8391438"><ele>363.0</ele><time>2026-04-02T16:09:04.524Z</time></trkpt><trkpt lat="45.8289281" lon="8.8392658"><ele>363.0</ele><time>2026-04-02T16:09:05.523Z</time></trkpt><trkpt lat="45.8290154" lon="8.8393842"><ele>363.0</ele><time>2026-04-02T16:09:06.524Z</time></trkpt><trkpt lat="45.8291015" lon="8.8394964"><ele>363.0</ele><time>2026-04-02T16:09:07.524Z</time></trkpt><trkpt lat="45.8291865" lon="8.839604"><ele>362.4</ele><time>2026-04-02T16:09:08.523Z</time></trkpt><trkpt lat="45.8292662" lon="8.839705"><ele>361.79999999999995</ele><time>2026-04-02T16:09:09.524Z</time></trkpt><trkpt lat="45.8293427" lon="8.8397946"><ele>361.2</ele><time>2026-04-02T16:09:10.523Z</time></trkpt><trkpt lat="45.8294272" lon="8.8398574"><ele>360.6</ele><time>2026-04-02T16:09:11.524Z</time></trkpt><trkpt lat="45.8295305" lon="8.8398731"><ele>360.0</ele><time>2026-04-02T16:09:12.523Z</time></trkpt><trkpt lat="45.8296345" lon="8.8398363"><ele>357.75</ele><time>2026-04-02T16:09:13.523Z</time></trkpt><trkpt lat="45.8297433" lon="8.8397482"><ele>355.5</ele><time>2026-04-02T16:09:14.523Z</time></trkpt><trkpt lat="45.8298477" lon="8.8396365"><ele>353.25</ele><time>2026-04-02T16:09:15.524Z</time></trkpt><trkpt lat="45.8299473" lon="8.8395215"><ele>351.0</ele><time>2026-04-02T16:09:16.523Z</time></trkpt><trkpt lat="45.8300508" lon="8.8394124"><ele>350.5</ele><time>2026-04-02T16:09:17.523Z</time></trkpt><trkpt lat="45.8301491" lon="8.8393119"><ele>350.0</ele><time>2026-04-02T16:09:18.522Z</time></trkpt><trkpt lat="45.8302469" lon="8.8392061"><ele>349.5</ele><time>2026-04-02T16:09:19.523Z</time></trkpt><trkpt lat="45.8303438" lon="8.8390946"><ele>349.0</ele><time>2026-04-02T16:09:20.523Z</time></trkpt><trkpt lat="45.8304413" lon="8.838996"><ele>349.0</ele><time>2026-04-02T16:09:21.524Z</time></trkpt><trkpt lat="45.8305492" lon="8.8389169"><ele>349.0</ele><time>2026-04-02T16:09:22.522Z</time></trkpt><trkpt lat="45.83067" lon="8.838865"><ele>349.0</ele><time>2026-04-02T16:09:23.524Z</time></trkpt><trkpt lat="45.830798" lon="8.8388482"><ele>349.0</ele><time>2026-04-02T16:09:24.524Z</time></trkpt><trkpt lat="45.8309252" lon="8.8388669"><ele>348.5</ele><time>2026-04-02T16:09:25.523Z</time></trkpt><trkpt lat="45.8310444" lon="8.8389224"><ele>348.0</ele><time>2026-04-02T16:09:26.523Z</time></trkpt><trkpt lat="45.8311463" lon="8.8390137"><ele>347.5</ele><time>2026-04-02T16:09:27.523Z</time></trkpt><trkpt lat="45.8312301" lon="8.8391544"><ele>347.0</ele><time>2026-04-02T16:09:28.523Z</time></trkpt><trkpt lat="45.8313051" lon="8.8393203"><ele>346.33333333333337</ele><time>2026-04-02T16:09:29.523Z</time></trkpt><trkpt lat="45.8313781" lon="8.8395063"><ele>345.6666666666667</ele><time>2026-04-02T16:09:30.524Z</time></trkpt><trkpt lat="45.8314503" lon="8.8397058"><ele>345.0</ele><time>2026-04-02T16:09:31.524Z</time></trkpt><trkpt lat="45.8315218" lon="8.8398954"><ele>345.0</ele><time>2026-04-02T16:09:32.524Z</time></trkpt><trkpt lat="45.8315886" lon="8.8400747"><ele>345.0</ele><time>2026-04-02T16:09:33.524Z</time></trkpt><trkpt lat="45.8316491" lon="8.8402406"><ele>345.0</ele><time>2026-04-02T16:09:34.523Z</time></trkpt><trkpt lat="45.8317022" lon="8.840385"><ele>345.0</ele><time>2026-04-02T16:09:35.523Z</time></trkpt><trkpt lat="45.831746" lon="8.8405152"><ele>344.6</ele><time>2026-04-02T16:09:36.523Z</time></trkpt><trkpt lat="45.8317716" lon="8.8406237"><ele>344.2</ele><time>2026-04-02T16:09:37.524Z</time></trkpt><trkpt lat="45.8317764" lon="8.8407919"><ele>343.79999999999995</ele><time>2026-04-02T16:09:39.523Z</time></trkpt><trkpt lat="45.8317786" lon="8.8409605"><ele>343.4</ele><time>2026-04-02T16:09:41.523Z</time></trkpt><trkpt lat="45.8318439" lon="8.841103"><ele>343.0</ele><time>2026-04-02T16:09:43.523Z</time></trkpt><trkpt lat="45.831965" lon="8.8411327"><ele>343.2</ele><time>2026-04-02T16:09:45.524Z</time></trkpt><trkpt lat="45.8320299" lon="8.8410806"><ele>343.4</ele><time>2026-04-02T16:09:46.523Z</time></trkpt><trkpt lat="45.8320972" lon="8.8409799"><ele>343.59999999999997</ele><time>2026-04-02T16:09:47.523Z</time></trkpt><trkpt lat="45.8321617" lon="8.8408829"><ele>343.79999999999995</ele><time>2026-04-02T16:09:48.523Z</time></trkpt><trkpt lat="45.8322457" lon="8.8407879"><ele>344.0</ele><time>2026-04-02T16:09:49.523Z</time></trkpt><trkpt lat="45.8323467" lon="8.8407011"><ele>344.0</ele><time>2026-04-02T16:09:50.524Z</time></trkpt><trkpt lat="45.8324595" lon="8.8406115"><ele>344.0</ele><time>2026-04-02T16:09:51.524Z</time></trkpt><trkpt lat="45.8325955" lon="8.8404997"><ele>344.0</ele><time>2026-04-02T16:09:52.523Z</time></trkpt><trkpt lat="45.832724" lon="8.8403848"><ele>344.0</ele><time>2026-04-02T16:09:53.523Z</time></trkpt><trkpt lat="45.832855" lon="8.8402558"><ele>345.0</ele><time>2026-04-02T16:09:54.524Z</time></trkpt><trkpt lat="45.8329888" lon="8.8401142"><ele>346.0</ele><time>2026-04-02T16:09:55.523Z</time></trkpt><trkpt lat="45.8331288" lon="8.8399571"><ele>347.0</ele><time>2026-04-02T16:09:56.523Z</time></trkpt><trkpt lat="45.8332687" lon="8.8397979"><ele>347.0</ele><time>2026-04-02T16:09:57.524Z</time></trkpt><trkpt lat="45.8334025" lon="8.8396444"><ele>347.0</ele><time>2026-04-02T16:09:58.524Z</time></trkpt><trkpt lat="45.8335305" lon="8.8394966"><ele>347.0</ele><time>2026-04-02T16:09:59.524Z</time></trkpt><trkpt lat="45.8336667" lon="8.8393374"><ele>347.0</ele><time>2026-04-02T16:10:00.524Z</time></trkpt><trkpt lat="45.8338004" lon="8.8391806"><ele>347.0</ele><time>2026-04-02T16:10:01.523Z</time></trkpt><trkpt lat="45.833927" lon="8.8390302"><ele>347.0</ele><time>2026-04-02T16:10:02.524Z</time></trkpt><trkpt lat="45.8340435" lon="8.8388906"><ele>347.0</ele><time>2026-04-02T16:10:03.524Z</time></trkpt><trkpt lat="45.8341485" lon="8.8387637"><ele>347.0</ele><time>2026-04-02T16:10:04.524Z</time></trkpt><trkpt lat="45.8342428" lon="8.8386527"><ele>347.0</ele><time>2026-04-02T16:10:05.524Z</time></trkpt><trkpt lat="45.8343295" lon="8.8385631"><ele>347.0</ele><time>2026-04-02T16:10:06.523Z</time></trkpt><trkpt lat="45.8344134" lon="8.8385041"><ele>347.6</ele><time>2026-04-02T16:10:07.523Z</time></trkpt><trkpt lat="45.8345093" lon="8.838469"><ele>348.20000000000005</ele><time>2026-04-02T16:10:08.523Z</time></trkpt><trkpt lat="45.8346062" lon="8.8384171"><ele>348.8</ele><time>2026-04-02T16:10:09.524Z</time></trkpt><trkpt lat="45.8346866" lon="8.8383194"><ele>349.4</ele><time>2026-04-02T16:10:10.522Z</time></trkpt><trkpt lat="45.8347561" lon="8.8381827"><ele>350.0</ele><time>2026-04-02T16:10:11.524Z</time></trkpt><trkpt lat="45.8348412" lon="8.8380534"><ele>351.0</ele><time>2026-04-02T16:10:12.524Z</time></trkpt><trkpt lat="45.8349541" lon="8.8379415"><ele>352.0</ele><time>2026-04-02T16:10:13.524Z</time></trkpt><trkpt lat="45.8350831" lon="8.837849"><ele>353.0</ele><time>2026-04-02T16:10:14.524Z</time></trkpt><trkpt lat="45.8352177" lon="8.8377794"><ele>354.0</ele><time>2026-04-02T16:10:15.524Z</time></trkpt><trkpt lat="45.8353653" lon="8.8377274"><ele>354.0</ele><time>2026-04-02T16:10:16.523Z</time></trkpt><trkpt lat="45.8355177" lon="8.8376965"><ele>354.0</ele><time>2026-04-02T16:10:17.524Z</time></trkpt><trkpt lat="45.8356773" lon="8.8376845"><ele>354.0</ele><time>2026-04-02T16:10:18.524Z</time></trkpt><trkpt lat="45.8358449" lon="8.8376756"><ele>358.0</ele><time>2026-04-02T16:10:19.524Z</time></trkpt><trkpt lat="45.8360153" lon="8.8376738"><ele>362.0</ele><time>2026-04-02T16:10:20.523Z</time></trkpt><trkpt lat="45.836192" lon="8.83767"><ele>366.0</ele><time>2026-04-02T16:10:21.524Z</time></trkpt><trkpt lat="45.8363557" lon="8.8376561"><ele>363.3333333333333</ele><time>2026-04-02T16:10:22.524Z</time></trkpt><trkpt lat="45.8365155" lon="8.8376178"><ele>360.66666666666663</ele><time>2026-04-02T16:10:23.522Z</time></trkpt><trkpt lat="45.8366741" lon="8.8375499"><ele>358.0</ele><time>2026-04-02T16:10:24.523Z</time></trkpt><trkpt lat="45.8368233" lon="8.8374502"><ele>364.3333333333333</ele><time>2026-04-02T16:10:25.524Z</time></trkpt><trkpt lat="45.8369646" lon="8.8373122"><ele>370.6666666666667</ele><time>2026-04-02T16:10:26.522Z</time></trkpt><trkpt lat="45.8370949" lon="8.8371375"><ele>377.0</ele><time>2026-04-02T16:10:27.522Z</time></trkpt><trkpt lat="45.8372068" lon="8.8369267"><ele>376.0</ele><time>2026-04-02T16:10:28.523Z</time></trkpt><trkpt lat="45.8372888" lon="8.8366987"><ele>375.0</ele><time>2026-04-02T16:10:29.523Z</time></trkpt><trkpt lat="45.8373432" lon="8.8364607"><ele>374.0</ele><time>2026-04-02T16:10:30.523Z</time></trkpt><trkpt lat="45.837379" lon="8.8362028"><ele>373.0</ele><time>2026-04-02T16:10:31.524Z</time></trkpt><trkpt lat="45.8374063" lon="8.8359316"><ele>372.0</ele><time>2026-04-02T16:10:32.523Z</time></trkpt><trkpt lat="45.8374311" lon="8.835679"><ele>371.0</ele><time>2026-04-02T16:10:33.523Z</time></trkpt><trkpt lat="45.8374625" lon="8.8354304"><ele>371.0</ele><time>2026-04-02T16:10:34.523Z</time></trkpt><trkpt lat="45.8375056" lon="8.8351821"><ele>371.0</ele><time>2026-04-02T16:10:35.524Z</time></trkpt><trkpt lat="45.8375615" lon="8.8349394"><ele>371.0</ele><time>2026-04-02T16:10:36.524Z</time></trkpt><trkpt lat="45.8376313" lon="8.834698"><ele>375.6666666666667</ele><time>2026-04-02T16:10:37.524Z</time></trkpt><trkpt lat="45.837713" lon="8.8344589"><ele>380.33333333333337</ele><time>2026-04-02T16:10:38.524Z</time></trkpt><trkpt lat="45.8377988" lon="8.8342262"><ele>385.0</ele><time>2026-04-02T16:10:39.523Z</time></trkpt><trkpt lat="45.837893" lon="8.833976"><ele>385.0</ele><time>2026-04-02T16:10:40.524Z</time></trkpt><trkpt lat="45.837987" lon="8.8337277"><ele>385.0</ele><time>2026-04-02T16:10:41.524Z</time></trkpt><trkpt lat="45.8380827" lon="8.8334758"><ele>385.0</ele><time>2026-04-02T16:10:42.523Z</time></trkpt><trkpt lat="45.8381827" lon="8.8332165"><ele>385.6666666666667</ele><time>2026-04-02T16:10:43.523Z</time></trkpt><trkpt lat="45.8382855" lon="8.8329529"><ele>386.33333333333337</ele><time>2026-04-02T16:10:44.523Z</time></trkpt><trkpt lat="45.8383888" lon="8.8326874"><ele>387.0</ele><time>2026-04-02T16:10:45.524Z</time></trkpt><trkpt lat="45.8384864" lon="8.8324332"><ele>387.0</ele><time>2026-04-02T16:10:46.524Z</time></trkpt><trkpt lat="45.8385817" lon="8.8321854"><ele>387.0</ele><time>2026-04-02T16:10:47.524Z</time></trkpt><trkpt lat="45.8386784" lon="8.8319387"><ele>387.0</ele><time>2026-04-02T16:10:48.523Z</time></trkpt><trkpt lat="45.838768" lon="8.8317084"><ele>385.3333333333333</ele><time>2026-04-02T16:10:49.524Z</time></trkpt><trkpt lat="45.8388511" lon="8.8314896"><ele>383.66666666666663</ele><time>2026-04-02T16:10:50.523Z</time></trkpt><trkpt lat="45.8389397" lon="8.831259"><ele>382.0</ele><time>2026-04-02T16:10:51.524Z</time></trkpt><trkpt lat="45.8390233" lon="8.8310402"><ele>379.0</ele><time>2026-04-02T16:10:52.524Z</time></trkpt><trkpt lat="45.8391031" lon="8.8308221"><ele>376.0</ele><time>2026-04-02T16:10:53.523Z</time></trkpt><trkpt lat="45.8391752" lon="8.8306103"><ele>373.0</ele><time>2026-04-02T16:10:54.523Z</time></trkpt><trkpt lat="45.8392415" lon="8.8303881"><ele>373.0</ele><time>2026-04-02T16:10:55.523Z</time></trkpt><trkpt lat="45.8392918" lon="8.8301662"><ele>373.0</ele><time>2026-04-02T16:10:56.523Z</time></trkpt><trkpt lat="45.8393263" lon="8.8299582"><ele>373.0</ele><time>2026-04-02T16:10:57.524Z</time></trkpt><trkpt lat="45.8393464" lon="8.8297619"><ele>375.25</ele><time>2026-04-02T16:10:58.523Z</time></trkpt><trkpt lat="45.8393521" lon="8.8295531"><ele>377.5</ele><time>2026-04-02T16:10:59.522Z</time></trkpt><trkpt lat="45.839346" lon="8.829358"><ele>379.75</ele><time>2026-04-02T16:11:00.523Z</time></trkpt><trkpt lat="45.8393321" lon="8.8291753"><ele>382.0</ele><time>2026-04-02T16:11:01.522Z</time></trkpt><trkpt lat="45.839308" lon="8.8290097"><ele>377.5</ele><time>2026-04-02T16:11:02.524Z</time></trkpt><trkpt lat="45.8392706" lon="8.8288347"><ele>373.0</ele><time>2026-04-02T16:11:03.523Z</time></trkpt><trkpt lat="45.8392206" lon="8.8286464"><ele>368.5</ele><time>2026-04-02T16:11:04.523Z</time></trkpt><trkpt lat="45.8391707" lon="8.8284672"><ele>364.0</ele><time>2026-04-02T16:11:05.523Z</time></trkpt><trkpt lat="45.8391229" lon="8.8283041"><ele>363.79999999999995</ele><time>2026-04-02T16:11:06.523Z</time></trkpt><trkpt lat="45.8390818" lon="8.8281723"><ele>363.59999999999997</ele><time>2026-04-02T16:11:07.523Z</time></trkpt><trkpt lat="45.8390474" lon="8.8280671"><ele>363.4</ele><time>2026-04-02T16:11:08.523Z</time></trkpt><trkpt lat="45.8390052" lon="8.8279211"><ele>363.2</ele><time>2026-04-02T16:11:10.523Z</time></trkpt><trkpt lat="45.838987" lon="8.8277758"><ele>363.0</ele><time>2026-04-02T16:11:12.523Z</time></trkpt><trkpt lat="45.8389949" lon="8.8276407"><ele>363.59999999999997</ele><time>2026-04-02T16:11:14.524Z</time></trkpt><trkpt lat="45.8389955" lon="8.8274725"><ele>364.2</ele><time>2026-04-02T16:11:16.523Z</time></trkpt><trkpt lat="45.8389659" lon="8.8273182"><ele>364.8</ele><time>2026-04-02T16:11:18.524Z</time></trkpt><trkpt lat="45.8389649" lon="8.8271399"><ele>365.4</ele><time>2026-04-02T16:11:20.524Z</time></trkpt><trkpt lat="45.8389924" lon="8.8270584"><ele>366.0</ele><time>2026-04-02T16:11:21.523Z</time></trkpt><trkpt lat="45.8390359" lon="8.8269844"><ele>366.0</ele><time>2026-04-02T16:11:22.524Z</time></trkpt><trkpt lat="45.8390965" lon="8.8268921"><ele>366.0</ele><time>2026-04-02T16:11:23.524Z</time></trkpt><trkpt lat="45.8391582" lon="8.8268029"><ele>366.0</ele><time>2026-04-02T16:11:24.523Z</time></trkpt><trkpt lat="45.83922" lon="8.8267156"><ele>366.0</ele><time>2026-04-02T16:11:25.524Z</time></trkpt><trkpt lat="45.8392823" lon="8.8266279"><ele>366.0</ele><time>2026-04-02T16:11:26.523Z</time></trkpt><trkpt lat="45.8393515" lon="8.8265333"><ele>366.0</ele><time>2026-04-02T16:11:27.524Z</time></trkpt><trkpt lat="45.8394312" lon="8.8264271"><ele>366.25</ele><time>2026-04-02T16:11:28.523Z</time></trkpt><trkpt lat="45.8395176" lon="8.8263176"><ele>366.5</ele><time>2026-04-02T16:11:29.523Z</time></trkpt><trkpt lat="45.8396057" lon="8.8262146"><ele>366.75</ele><time>2026-04-02T16:11:30.524Z</time></trkpt><trkpt lat="45.8396979" lon="8.8261163"><ele>367.0</ele><time>2026-04-02T16:11:31.523Z</time></trkpt><trkpt lat="45.8397918" lon="8.8260231"><ele>368.0</ele><time>2026-04-02T16:11:32.524Z</time></trkpt><trkpt lat="45.8398876" lon="8.8259335"><ele>369.0</ele><time>2026-04-02T16:11:33.522Z</time></trkpt><trkpt lat="45.8399866" lon="8.8258462"><ele>370.0</ele><time>2026-04-02T16:11:34.522Z</time></trkpt><trkpt lat="45.8401006" lon="8.8257492"><ele>371.0</ele><time>2026-04-02T16:11:35.524Z</time></trkpt><trkpt lat="45.8402203" lon="8.8256443"><ele>371.0</ele><time>2026-04-02T16:11:36.523Z</time></trkpt><trkpt lat="45.8403355" lon="8.825545"><ele>371.0</ele><time>2026-04-02T16:11:37.523Z</time></trkpt><trkpt lat="45.840453" lon="8.8254392"><ele>371.0</ele><time>2026-04-02T16:11:38.523Z</time></trkpt><trkpt lat="45.8405706" lon="8.8253348"><ele>371.0</ele><time>2026-04-02T16:11:39.523Z</time></trkpt><trkpt lat="45.8406901" lon="8.8252284"><ele>372.0</ele><time>2026-04-02T16:11:40.524Z</time></trkpt><trkpt lat="45.8408108" lon="8.8251233"><ele>373.0</ele><time>2026-04-02T16:11:41.524Z</time></trkpt><trkpt lat="45.8409313" lon="8.82502"><ele>374.0</ele><time>2026-04-02T16:11:42.524Z</time></trkpt><trkpt lat="45.8410476" lon="8.8249202"><ele>375.0</ele><time>2026-04-02T16:11:43.524Z</time></trkpt><trkpt lat="45.8411725" lon="8.8248147"><ele>376.5</ele><time>2026-04-02T16:11:44.524Z</time></trkpt><trkpt lat="45.8412934" lon="8.8247135"><ele>378.0</ele><time>2026-04-02T16:11:45.524Z</time></trkpt><trkpt lat="45.8414071" lon="8.8246168"><ele>379.5</ele><time>2026-04-02T16:11:46.523Z</time></trkpt><trkpt lat="45.8415158" lon="8.8245239"><ele>381.0</ele><time>2026-04-02T16:11:47.523Z</time></trkpt><trkpt lat="45.8416234" lon="8.8244344"><ele>381.0</ele><time>2026-04-02T16:11:48.524Z</time></trkpt><trkpt lat="45.8417372" lon="8.8243542"><ele>381.0</ele><time>2026-04-02T16:11:49.524Z</time></trkpt><trkpt lat="45.8418549" lon="8.8243059"><ele>381.0</ele><time>2026-04-02T16:11:50.524Z</time></trkpt><trkpt lat="45.8419723" lon="8.824294"><ele>381.0</ele><time>2026-04-02T16:11:51.523Z</time></trkpt><trkpt lat="45.8420961" lon="8.8243255"><ele>381.75</ele><time>2026-04-02T16:11:52.523Z</time></trkpt><trkpt lat="45.8422099" lon="8.8244049"><ele>382.5</ele><time>2026-04-02T16:11:53.523Z</time></trkpt><trkpt lat="45.8423091" lon="8.8245208"><ele>383.25</ele><time>2026-04-02T16:11:54.523Z</time></trkpt><trkpt lat="45.8424061" lon="8.8246624"><ele>384.0</ele><time>2026-04-02T16:11:55.524Z</time></trkpt><trkpt lat="45.8424903" lon="8.824799"><ele>384.0</ele><time>2026-04-02T16:11:56.524Z</time></trkpt><trkpt lat="45.8425671" lon="8.8249334"><ele>384.0</ele><time>2026-04-02T16:11:57.524Z</time></trkpt><trkpt lat="45.842638" lon="8.8250685"><ele>384.0</ele><time>2026-04-02T16:11:58.524Z</time></trkpt><trkpt lat="45.8427018" lon="8.825206"><ele>384.0</ele><time>2026-04-02T16:11:59.524Z</time></trkpt><trkpt lat="45.842764" lon="8.8253597"><ele>385.25</ele><time>2026-04-02T16:12:00.524Z</time></trkpt><trkpt lat="45.8428206" lon="8.8255134"><ele>386.5</ele><time>2026-04-02T16:12:01.523Z</time></trkpt><trkpt lat="45.8428679" lon="8.8256652"><ele>387.75</ele><time>2026-04-02T16:12:02.524Z</time></trkpt><trkpt lat="45.8429149" lon="8.8258282"><ele>389.0</ele><time>2026-04-02T16:12:03.523Z</time></trkpt><trkpt lat="45.8429613" lon="8.8259874"><ele>389.0</ele><time>2026-04-02T16:12:04.524Z</time></trkpt><trkpt lat="45.8430127" lon="8.8261452"><ele>389.0</ele><time>2026-04-02T16:12:05.523Z</time></trkpt><trkpt lat="45.8430737" lon="8.8262994"><ele>389.0</ele><time>2026-04-02T16:12:06.524Z</time></trkpt><trkpt lat="45.8431453" lon="8.8264408"><ele>389.0</ele><time>2026-04-02T16:12:07.524Z</time></trkpt><trkpt lat="45.8432363" lon="8.8265804"><ele>389.0</ele><time>2026-04-02T16:12:08.523Z</time></trkpt><trkpt lat="45.8433325" lon="8.8267045"><ele>389.0</ele><time>2026-04-02T16:12:09.524Z</time></trkpt><trkpt lat="45.8434307" lon="8.826823"><ele>389.0</ele><time>2026-04-02T16:12:10.523Z</time></trkpt><trkpt lat="45.8435307" lon="8.8269358"><ele>389.0</ele><time>2026-04-02T16:12:11.523Z</time></trkpt><trkpt lat="45.8436312" lon="8.8270447"><ele>388.5</ele><time>2026-04-02T16:12:12.524Z</time></trkpt><trkpt lat="45.843733" lon="8.8271537"><ele>388.0</ele><time>2026-04-02T16:12:13.524Z</time></trkpt><trkpt lat="45.843835" lon="8.8272642"><ele>387.5</ele><time>2026-04-02T16:12:14.524Z</time></trkpt><trkpt lat="45.8439321" lon="8.8273702"><ele>387.0</ele><time>2026-04-02T16:12:15.523Z</time></trkpt><trkpt lat="45.8440332" lon="8.82748"><ele>387.0</ele><time>2026-04-02T16:12:16.523Z</time></trkpt><trkpt lat="45.8441308" lon="8.8275808"><ele>387.0</ele><time>2026-04-02T16:12:17.524Z</time></trkpt><trkpt lat="45.8442297" lon="8.8276753"><ele>387.0</ele><time>2026-04-02T16:12:18.523Z</time></trkpt><trkpt lat="45.8443336" lon="8.8277651"><ele>387.0</ele><time>2026-04-02T16:12:19.524Z</time></trkpt><trkpt lat="45.8444414" lon="8.8278428"><ele>389.0</ele><time>2026-04-02T16:12:20.523Z</time></trkpt><trkpt lat="45.844546" lon="8.8279062"><ele>391.0</ele><time>2026-04-02T16:12:21.524Z</time></trkpt><trkpt lat="45.8446402" lon="8.8279575"><ele>393.0</ele><time>2026-04-02T16:12:22.524Z</time></trkpt><trkpt lat="45.8447293" lon="8.8279999"><ele>395.0</ele><time>2026-04-02T16:12:23.524Z</time></trkpt><trkpt lat="45.8448122" lon="8.8280382"><ele>397.0</ele><time>2026-04-02T16:12:24.524Z</time></trkpt><trkpt lat="45.8448925" lon="8.8280776"><ele>397.00000000000006</ele><time>2026-04-02T16:12:25.524Z</time></trkpt><trkpt lat="45.8449662" lon="8.8281268"><ele>397.0</ele><time>2026-04-02T16:12:26.524Z</time></trkpt><trkpt lat="45.8450297" lon="8.8281876"><ele>397.0</ele><time>2026-04-02T16:12:27.523Z</time></trkpt><trkpt lat="45.8450861" lon="8.8282666"><ele>397.0</ele><time>2026-04-02T16:12:28.523Z</time></trkpt><trkpt lat="45.8451297" lon="8.8283671"><ele>397.00000000000006</ele><time>2026-04-02T16:12:29.522Z</time></trkpt><trkpt lat="45.8451594" lon="8.8284809"><ele>397.0</ele><time>2026-04-02T16:12:30.523Z</time></trkpt><trkpt lat="45.8451802" lon="8.8286126"><ele>397.40000000000003</ele><time>2026-04-02T16:12:31.522Z</time></trkpt><trkpt lat="45.845201" lon="8.8287596"><ele>397.8</ele><time>2026-04-02T16:12:32.524Z</time></trkpt><trkpt lat="45.8452322" lon="8.8289116"><ele>398.2</ele><time>2026-04-02T16:12:33.523Z</time></trkpt><trkpt lat="45.8452779" lon="8.8290524"><ele>398.6</ele><time>2026-04-02T16:12:34.524Z</time></trkpt><trkpt lat="45.8453392" lon="8.8291746"><ele>399.0</ele><time>2026-04-02T16:12:35.524Z</time></trkpt><trkpt lat="45.8454147" lon="8.8292654"><ele>399.79999999999995</ele><time>2026-04-02T16:12:36.524Z</time></trkpt><trkpt lat="45.8455022" lon="8.829329"><ele>400.59999999999997</ele><time>2026-04-02T16:12:37.523Z</time></trkpt><trkpt lat="45.8455997" lon="8.8293756"><ele>401.4</ele><time>2026-04-02T16:12:38.524Z</time></trkpt><trkpt lat="45.8457018" lon="8.8294136"><ele>402.2</ele><time>2026-04-02T16:12:39.524Z</time></trkpt><trkpt lat="45.8458165" lon="8.8294558"><ele>403.0</ele><time>2026-04-02T16:12:40.524Z</time></trkpt><trkpt lat="45.8459334" lon="8.8295022"><ele>403.79999999999995</ele><time>2026-04-02T16:12:41.523Z</time></trkpt><trkpt lat="45.8460517" lon="8.829548"><ele>404.6</ele><time>2026-04-02T16:12:42.524Z</time></trkpt><trkpt lat="45.8461625" lon="8.8295909"><ele>405.4</ele><time>2026-04-02T16:12:43.523Z</time></trkpt><trkpt lat="45.846265" lon="8.8296194"><ele>406.20000000000005</ele><time>2026-04-02T16:12:44.523Z</time></trkpt><trkpt lat="45.8463624" lon="8.829619"><ele>407.0</ele><time>2026-04-02T16:12:45.524Z</time></trkpt><trkpt lat="45.8464566" lon="8.8295778"><ele>407.0</ele><time>2026-04-02T16:12:46.524Z</time></trkpt><trkpt lat="45.8465407" lon="8.8295024"><ele>407.0</ele><time>2026-04-02T16:12:47.523Z</time></trkpt><trkpt lat="45.8466147" lon="8.8293881"><ele>407.0</ele><time>2026-04-02T16:12:48.523Z</time></trkpt><trkpt lat="45.8466629" lon="8.8292521"><ele>407.0</ele><time>2026-04-02T16:12:49.524Z</time></trkpt><trkpt lat="45.8466856" lon="8.8290963"><ele>407.0</ele><time>2026-04-02T16:12:50.524Z</time></trkpt><trkpt lat="45.846689" lon="8.8289111"><ele>406.5</ele><time>2026-04-02T16:12:51.524Z</time></trkpt><trkpt lat="45.8466788" lon="8.8287159"><ele>406.0</ele><time>2026-04-02T16:12:52.523Z</time></trkpt><trkpt lat="45.8466629" lon="8.8285122"><ele>405.5</ele><time>2026-04-02T16:12:53.523Z</time></trkpt><trkpt lat="45.8466449" lon="8.8283151"><ele>405.0</ele><time>2026-04-02T16:12:54.523Z</time></trkpt><trkpt lat="45.8466281" lon="8.828127"><ele>404.5</ele><time>2026-04-02T16:12:55.524Z</time></trkpt><trkpt lat="45.8466119" lon="8.82793"><ele>404.0</ele><time>2026-04-02T16:12:56.524Z</time></trkpt><trkpt lat="45.8466065" lon="8.8277412"><ele>403.5</ele><time>2026-04-02T16:12:57.522Z</time></trkpt><trkpt lat="45.8466274" lon="8.8275486"><ele>403.0</ele><time>2026-04-02T16:12:58.523Z</time></trkpt><trkpt lat="45.8466772" lon="8.827358"><ele>403.0</ele><time>2026-04-02T16:12:59.523Z</time></trkpt><trkpt lat="45.8467522" lon="8.8271753"><ele>403.0</ele><time>2026-04-02T16:13:00.523Z</time></trkpt><trkpt lat="45.8468378" lon="8.8269996"><ele>403.0</ele><time>2026-04-02T16:13:01.523Z</time></trkpt><trkpt lat="45.846916" lon="8.8268257"><ele>403.0</ele><time>2026-04-02T16:13:02.523Z</time></trkpt><trkpt lat="45.8469829" lon="8.8266536"><ele>406.0</ele><time>2026-04-02T16:13:03.523Z</time></trkpt><trkpt lat="45.8470453" lon="8.8264744"><ele>409.0</ele><time>2026-04-02T16:13:04.524Z</time></trkpt><trkpt lat="45.8470889" lon="8.8262994"><ele>412.0</ele><time>2026-04-02T16:13:05.524Z</time></trkpt><trkpt lat="45.8471115" lon="8.8261169"><ele>415.0</ele><time>2026-04-02T16:13:06.524Z</time></trkpt><trkpt lat="45.8471138" lon="8.8259441"><ele>415.0</ele><time>2026-04-02T16:13:07.523Z</time></trkpt><trkpt lat="45.8471113" lon="8.825785"><ele>415.0</ele><time>2026-04-02T16:13:08.523Z</time></trkpt><trkpt lat="45.8471229" lon="8.8256368"><ele>415.0</ele><time>2026-04-02T16:13:09.522Z</time></trkpt><trkpt lat="45.8471594" lon="8.8254942"><ele>415.0</ele><time>2026-04-02T16:13:10.523Z</time></trkpt><trkpt lat="45.8472208" lon="8.825367"><ele>415.0</ele><time>2026-04-02T16:13:11.523Z</time></trkpt><trkpt lat="45.8473097" lon="8.8252593"><ele>415.0</ele><time>2026-04-02T16:13:12.524Z</time></trkpt><trkpt lat="45.8474211" lon="8.8252021"><ele>415.0</ele><time>2026-04-02T16:13:13.523Z</time></trkpt><trkpt lat="45.847666" lon="8.825265"><ele>415.0</ele><time>2026-04-02T16:13:15.524Z</time></trkpt><trkpt lat="45.8477774" lon="8.8253696"><ele>412.75</ele><time>2026-04-02T16:13:16.524Z</time></trkpt><trkpt lat="45.8478876" lon="8.8254957"><ele>410.5</ele><time>2026-04-02T16:13:17.524Z</time></trkpt><trkpt lat="45.8479929" lon="8.8256157"><ele>408.25</ele><time>2026-04-02T16:13:18.524Z</time></trkpt><trkpt lat="45.8480958" lon="8.8257352"><ele>406.0</ele><time>2026-04-02T16:13:19.523Z</time></trkpt><trkpt lat="45.8482023" lon="8.825855"><ele>406.0</ele><time>2026-04-02T16:13:20.524Z</time></trkpt><trkpt lat="45.8483096" lon="8.8259703"><ele>406.0</ele><time>2026-04-02T16:13:21.524Z</time></trkpt><trkpt lat="45.8484237" lon="8.8260843"><ele>406.0</ele><time>2026-04-02T16:13:22.523Z</time></trkpt><trkpt lat="45.848545" lon="8.8261948"><ele>406.0</ele><time>2026-04-02T16:13:23.523Z</time></trkpt><trkpt lat="45.8486711" lon="8.8263021"><ele>408.75</ele><time>2026-04-02T16:13:24.524Z</time></trkpt><trkpt lat="45.8488014" lon="8.8263872"><ele>411.5</ele><time>2026-04-02T16:13:25.523Z</time></trkpt><trkpt lat="45.8489232" lon="8.8264729"><ele>414.25</ele><time>2026-04-02T16:13:26.523Z</time></trkpt><trkpt lat="45.8490549" lon="8.8265475"><ele>417.0</ele><time>2026-04-02T16:13:27.523Z</time></trkpt><trkpt lat="45.8492032" lon="8.8266009"><ele>415.66666666666663</ele><time>2026-04-02T16:13:28.524Z</time></trkpt><trkpt lat="45.8493561" lon="8.8266316"><ele>414.3333333333333</ele><time>2026-04-02T16:13:29.523Z</time></trkpt><trkpt lat="45.8495166" lon="8.8266542"><ele>413.0</ele><time>2026-04-02T16:13:30.524Z</time></trkpt><trkpt lat="45.8496744" lon="8.8266729"><ele>413.0</ele><time>2026-04-02T16:13:31.522Z</time></trkpt><trkpt lat="45.8498252" lon="8.8266897"><ele>413.0</ele><time>2026-04-02T16:13:32.523Z</time></trkpt><trkpt lat="45.8499674" lon="8.8267073"><ele>413.0</ele><time>2026-04-02T16:13:33.523Z</time></trkpt><trkpt lat="45.8501029" lon="8.8267192"><ele>413.0</ele><time>2026-04-02T16:13:34.523Z</time></trkpt><trkpt lat="45.8502276" lon="8.826716"><ele>421.25</ele><time>2026-04-02T16:13:35.523Z</time></trkpt><trkpt lat="45.8503569" lon="8.8266852"><ele>429.5</ele><time>2026-04-02T16:13:36.523Z</time></trkpt><trkpt lat="45.8504749" lon="8.8266168"><ele>437.75</ele><time>2026-04-02T16:13:37.523Z</time></trkpt><trkpt lat="45.8505799" lon="8.8265113"><ele>446.0</ele><time>2026-04-02T16:13:38.523Z</time></trkpt><trkpt lat="45.8506682" lon="8.8263682"><ele>446.0</ele><time>2026-04-02T16:13:39.523Z</time></trkpt><trkpt lat="45.8507388" lon="8.8261993"><ele>446.0</ele><time>2026-04-02T16:13:40.522Z</time></trkpt><trkpt lat="45.8507903" lon="8.8260072"><ele>446.0</ele><time>2026-04-02T16:13:41.522Z</time></trkpt><trkpt lat="45.8508321" lon="8.8258014"><ele>446.0</ele><time>2026-04-02T16:13:42.521Z</time></trkpt><trkpt lat="45.8508691" lon="8.8255926"><ele>445.0</ele><time>2026-04-02T16:13:43.523Z</time></trkpt><trkpt lat="45.8509086" lon="8.825362"><ele>444.0</ele><time>2026-04-02T16:13:44.523Z</time></trkpt><trkpt lat="45.850949" lon="8.8251394"><ele>443.0</ele><time>2026-04-02T16:13:45.523Z</time></trkpt><trkpt lat="45.8509908" lon="8.8249312"><ele>455.3333333333333</ele><time>2026-04-02T16:13:46.522Z</time></trkpt><trkpt lat="45.8510461" lon="8.8247211"><ele>467.66666666666663</ele><time>2026-04-02T16:13:47.522Z</time></trkpt><trkpt lat="45.8511127" lon="8.824526"><ele>480.0</ele><time>2026-04-02T16:13:48.523Z</time></trkpt><trkpt lat="45.8511885" lon="8.8243291"><ele>473.0</ele><time>2026-04-02T16:13:49.521Z</time></trkpt><trkpt lat="45.8512679" lon="8.8241267"><ele>466.0</ele><time>2026-04-02T16:13:50.522Z</time></trkpt><trkpt lat="45.851344" lon="8.8239272"><ele>459.0</ele><time>2026-04-02T16:13:51.521Z</time></trkpt><trkpt lat="45.8514164" lon="8.8237264"><ele>459.0</ele><time>2026-04-02T16:13:52.523Z</time></trkpt><trkpt lat="45.8514786" lon="8.8235434"><ele>459.0</ele><time>2026-04-02T16:13:53.522Z</time></trkpt><trkpt lat="45.8515342" lon="8.8233764"><ele>459.0</ele><time>2026-04-02T16:13:54.522Z</time></trkpt><trkpt lat="45.8515944" lon="8.8232045"><ele>459.0</ele><time>2026-04-02T16:13:55.521Z</time></trkpt><trkpt lat="45.8516606" lon="8.8230486"><ele>455.5</ele><time>2026-04-02T16:13:56.522Z</time></trkpt><trkpt lat="45.8518261" lon="8.8231225"><ele>452.0</ele><time>2026-04-02T16:13:57.523Z</time></trkpt><trkpt lat="45.8519146" lon="8.8230115"><ele>448.5</ele><time>2026-04-02T16:13:58.523Z</time></trkpt><trkpt lat="45.8520256" lon="8.8230105"><ele>445.0</ele><time>2026-04-02T16:13:59.523Z</time></trkpt><trkpt lat="45.8521641" lon="8.8230295"><ele>445.0</ele><time>2026-04-02T16:14:00.523Z</time></trkpt><trkpt lat="45.8523125" lon="8.8230513"><ele>445.0</ele><time>2026-04-02T16:14:01.522Z</time></trkpt><trkpt lat="45.8524695" lon="8.8230875"><ele>445.0</ele><time>2026-04-02T16:14:02.523Z</time></trkpt><trkpt lat="45.8526359" lon="8.8231235"><ele>441.6666666666667</ele><time>2026-04-02T16:14:03.523Z</time></trkpt><trkpt lat="45.8528049" lon="8.8231493"><ele>438.33333333333337</ele><time>2026-04-02T16:14:04.523Z</time></trkpt><trkpt lat="45.8529624" lon="8.8231766"><ele>435.0</ele><time>2026-04-02T16:14:05.522Z</time></trkpt><trkpt lat="45.8531148" lon="8.8231959"><ele>435.0</ele><time>2026-04-02T16:14:06.523Z</time></trkpt><trkpt lat="45.8532675" lon="8.8232106"><ele>435.0</ele><time>2026-04-02T16:14:07.522Z</time></trkpt><trkpt lat="45.8534288" lon="8.8232291"><ele>435.0</ele><time>2026-04-02T16:14:08.523Z</time></trkpt><trkpt lat="45.8535899" lon="8.8232493"><ele>435.66666666666663</ele><time>2026-04-02T16:14:09.522Z</time></trkpt><trkpt lat="45.8537483" lon="8.8232594"><ele>436.3333333333333</ele><time>2026-04-02T16:14:10.522Z</time></trkpt><trkpt lat="45.8539015" lon="8.8232604"><ele>437.0</ele><time>2026-04-02T16:14:11.523Z</time></trkpt><trkpt lat="45.8540475" lon="8.8232463"><ele>437.0</ele><time>2026-04-02T16:14:12.521Z</time></trkpt><trkpt lat="45.8541923" lon="8.8232249"><ele>437.0</ele><time>2026-04-02T16:14:13.522Z</time></trkpt><trkpt lat="45.8543323" lon="8.8231965"><ele>437.0</ele><time>2026-04-02T16:14:14.523Z</time></trkpt><trkpt lat="45.8544706" lon="8.8231617"><ele>437.0</ele><time>2026-04-02T16:14:15.523Z</time></trkpt><trkpt lat="45.8546042" lon="8.8231212"><ele>439.5</ele><time>2026-04-02T16:14:16.522Z</time></trkpt><trkpt lat="45.8547343" lon="8.8230833"><ele>442.0</ele><time>2026-04-02T16:14:17.523Z</time></trkpt><trkpt lat="45.8548699" lon="8.8230629"><ele>444.5</ele><time>2026-04-02T16:14:18.523Z</time></trkpt><trkpt lat="45.8550088" lon="8.8230634"><ele>447.0</ele><time>2026-04-02T16:14:19.523Z</time></trkpt><trkpt lat="45.8551487" lon="8.8230862"><ele>447.25</ele><time>2026-04-02T16:14:20.522Z</time></trkpt><trkpt lat="45.8552904" lon="8.8231415"><ele>447.5</ele><time>2026-04-02T16:14:21.521Z</time></trkpt><trkpt lat="45.8554165" lon="8.8232302"><ele>447.75</ele><time>2026-04-02T16:14:22.523Z</time></trkpt><trkpt lat="45.85554" lon="8.8233565"><ele>448.0</ele><time>2026-04-02T16:14:23.521Z</time></trkpt><trkpt lat="45.8556573" lon="8.8235143"><ele>450.6666666666667</ele><time>2026-04-02T16:14:24.522Z</time></trkpt><trkpt lat="45.8557638" lon="8.8236909"><ele>453.33333333333337</ele><time>2026-04-02T16:14:25.522Z</time></trkpt><trkpt lat="45.8558736" lon="8.8238802"><ele>456.0</ele><time>2026-04-02T16:14:26.523Z</time></trkpt><trkpt lat="45.8559816" lon="8.8240698"><ele>456.0</ele><time>2026-04-02T16:14:27.523Z</time></trkpt><trkpt lat="45.8560835" lon="8.8242528"><ele>456.0</ele><time>2026-04-02T16:14:28.522Z</time></trkpt><trkpt lat="45.8561875" lon="8.824428"><ele>456.0</ele><time>2026-04-02T16:14:29.523Z</time></trkpt><trkpt lat="45.8562996" lon="8.824587"><ele>455.33333333333337</ele><time>2026-04-02T16:14:30.523Z</time></trkpt><trkpt lat="45.856433" lon="8.8247242"><ele>454.6666666666667</ele><time>2026-04-02T16:14:31.522Z</time></trkpt><trkpt lat="45.8565911" lon="8.824836"><ele>454.0</ele><time>2026-04-02T16:14:32.522Z</time></trkpt><trkpt lat="45.8567588" lon="8.8249123"><ele>458.0</ele><time>2026-04-02T16:14:33.522Z</time></trkpt><trkpt lat="45.8569312" lon="8.8249566"><ele>462.0</ele><time>2026-04-02T16:14:34.522Z</time></trkpt><trkpt lat="45.8571155" lon="8.8249856"><ele>466.0</ele><time>2026-04-02T16:14:35.523Z</time></trkpt><trkpt lat="45.8572877" lon="8.8250123"><ele>466.0</ele><time>2026-04-02T16:14:36.523Z</time></trkpt><trkpt lat="45.8574548" lon="8.8250489"><ele>466.0</ele><time>2026-04-02T16:14:37.523Z</time></trkpt><trkpt lat="45.8576196" lon="8.8251041"><ele>466.0</ele><time>2026-04-02T16:14:38.523Z</time></trkpt><trkpt lat="45.8577777" lon="8.825173"><ele>469.33333333333337</ele><time>2026-04-02T16:14:39.522Z</time></trkpt><trkpt lat="45.8579458" lon="8.8252524"><ele>472.66666666666663</ele><time>2026-04-02T16:14:40.523Z</time></trkpt><trkpt lat="45.858106" lon="8.8253447"><ele>476.0</ele><time>2026-04-02T16:14:41.522Z</time></trkpt><trkpt lat="45.8582481" lon="8.8254617"><ele>476.0</ele><time>2026-04-02T16:14:42.522Z</time></trkpt><trkpt lat="45.858387" lon="8.8256062"><ele>476.0</ele><time>2026-04-02T16:14:43.521Z</time></trkpt><trkpt lat="45.8585054" lon="8.8257596"><ele>476.0</ele><time>2026-04-02T16:14:44.523Z</time></trkpt><trkpt lat="45.8586247" lon="8.8259312"><ele>472.3333333333333</ele><time>2026-04-02T16:14:45.523Z</time></trkpt><trkpt lat="45.8587354" lon="8.8261143"><ele>468.66666666666663</ele><time>2026-04-02T16:14:46.522Z</time></trkpt><trkpt lat="45.8588402" lon="8.8262968"><ele>465.0</ele><time>2026-04-02T16:14:47.523Z</time></trkpt><trkpt lat="45.8589481" lon="8.8264868"><ele>465.0</ele><time>2026-04-02T16:14:48.523Z</time></trkpt><trkpt lat="45.8590497" lon="8.8266655"><ele>465.0</ele><time>2026-04-02T16:14:49.522Z</time></trkpt><trkpt lat="45.8591487" lon="8.8268391"><ele>465.0</ele><time>2026-04-02T16:14:50.523Z</time></trkpt><trkpt lat="45.8592581" lon="8.8270213"><ele>464.66666666666663</ele><time>2026-04-02T16:14:51.523Z</time></trkpt><trkpt lat="45.8593743" lon="8.8271866"><ele>464.3333333333333</ele><time>2026-04-02T16:14:52.522Z</time></trkpt><trkpt lat="45.8595079" lon="8.8273322"><ele>464.0</ele><time>2026-04-02T16:14:53.523Z</time></trkpt><trkpt lat="45.8596557" lon="8.8274543"><ele>464.0</ele><time>2026-04-02T16:14:54.522Z</time></trkpt><trkpt lat="45.8598116" lon="8.8275545"><ele>464.0</ele><time>2026-04-02T16:14:55.523Z</time></trkpt><trkpt lat="45.8599777" lon="8.8276453"><ele>464.0</ele><time>2026-04-02T16:14:56.523Z</time></trkpt><trkpt lat="45.8601321" lon="8.8277387"><ele>465.3333333333333</ele><time>2026-04-02T16:14:57.523Z</time></trkpt><trkpt lat="45.8602774" lon="8.8278503"><ele>466.66666666666663</ele><time>2026-04-02T16:14:58.523Z</time></trkpt><trkpt lat="45.8604157" lon="8.8279787"><ele>468.0</ele><time>2026-04-02T16:14:59.522Z</time></trkpt><trkpt lat="45.8605507" lon="8.8281198"><ele>468.0</ele><time>2026-04-02T16:15:00.522Z</time></trkpt><trkpt lat="45.8606831" lon="8.8282664"><ele>468.0</ele><time>2026-04-02T16:15:01.522Z</time></trkpt><trkpt lat="45.8608065" lon="8.8284078"><ele>468.0</ele><time>2026-04-02T16:15:02.523Z</time></trkpt><trkpt lat="45.8609303" lon="8.8285528"><ele>473.0</ele><time>2026-04-02T16:15:03.522Z</time></trkpt><trkpt lat="45.8610599" lon="8.8287045"><ele>478.0</ele><time>2026-04-02T16:15:04.522Z</time></trkpt><trkpt lat="45.8611862" lon="8.8288531"><ele>483.0</ele><time>2026-04-02T16:15:05.522Z</time></trkpt><trkpt lat="45.8613117" lon="8.8290037"><ele>483.0</ele><time>2026-04-02T16:15:06.523Z</time></trkpt><trkpt lat="45.8614383" lon="8.8291537"><ele>483.0</ele><time>2026-04-02T16:15:07.523Z</time></trkpt><trkpt lat="45.8615653" lon="8.8293031"><ele>483.0</ele><time>2026-04-02T16:15:08.523Z</time></trkpt><trkpt lat="45.8616932" lon="8.8294567"><ele>488.66666666666663</ele><time>2026-04-02T16:15:09.523Z</time></trkpt><trkpt lat="45.8618084" lon="8.8296214"><ele>494.3333333333333</ele><time>2026-04-02T16:15:10.523Z</time></trkpt><trkpt lat="45.8619121" lon="8.8298158"><ele>500.0</ele><time>2026-04-02T16:15:11.522Z</time></trkpt><trkpt lat="45.862001" lon="8.8300377"><ele>492.66666666666663</ele><time>2026-04-02T16:15:12.523Z</time></trkpt><trkpt lat="45.8620752" lon="8.8302653"><ele>485.33333333333337</ele><time>2026-04-02T16:15:13.523Z</time></trkpt><trkpt lat="45.8621387" lon="8.8304966"><ele>478.0</ele><time>2026-04-02T16:15:14.523Z</time></trkpt><trkpt lat="45.8621945" lon="8.8307236"><ele>478.0</ele><time>2026-04-02T16:15:15.522Z</time></trkpt><trkpt lat="45.8622486" lon="8.8309434"><ele>478.0</ele><time>2026-04-02T16:15:16.523Z</time></trkpt><trkpt lat="45.8623014" lon="8.8311596"><ele>478.0</ele><time>2026-04-02T16:15:17.523Z</time></trkpt><trkpt lat="45.8623522" lon="8.8313719"><ele>475.33333333333337</ele><time>2026-04-02T16:15:18.522Z</time></trkpt><trkpt lat="45.8624091" lon="8.8315935"><ele>472.66666666666663</ele><time>2026-04-02T16:15:19.522Z</time></trkpt><trkpt lat="45.8624875" lon="8.8318161"><ele>470.0</ele><time>2026-04-02T16:15:20.523Z</time></trkpt><trkpt lat="45.8625906" lon="8.8320148"><ele>471.0</ele><time>2026-04-02T16:15:21.522Z</time></trkpt><trkpt lat="45.8627108" lon="8.8321782"><ele>472.0</ele><time>2026-04-02T16:15:22.523Z</time></trkpt><trkpt lat="45.8628495" lon="8.8323122"><ele>473.0</ele><time>2026-04-02T16:15:23.522Z</time></trkpt><trkpt lat="45.8629983" lon="8.832406"><ele>473.0</ele><time>2026-04-02T16:15:24.523Z</time></trkpt><trkpt lat="45.8631591" lon="8.8324582"><ele>473.0</ele><time>2026-04-02T16:15:25.523Z</time></trkpt><trkpt lat="45.8633274" lon="8.832472"><ele>473.0</ele><time>2026-04-02T16:15:26.523Z</time></trkpt><trkpt lat="45.8634966" lon="8.8324506"><ele>472.66666666666663</ele><time>2026-04-02T16:15:27.523Z</time></trkpt><trkpt lat="45.8636847" lon="8.8324098"><ele>472.33333333333337</ele><time>2026-04-02T16:15:28.523Z</time></trkpt><trkpt lat="45.8638583" lon="8.8323692"><ele>472.0</ele><time>2026-04-02T16:15:29.523Z</time></trkpt><trkpt lat="45.864017" lon="8.832333"><ele>472.0</ele><time>2026-04-02T16:15:30.523Z</time></trkpt><trkpt lat="45.8641783" lon="8.8323016"><ele>472.0</ele><time>2026-04-02T16:15:31.522Z</time></trkpt><trkpt lat="45.864336" lon="8.8322808"><ele>472.0</ele><time>2026-04-02T16:15:32.523Z</time></trkpt><trkpt lat="45.8644955" lon="8.8322746"><ele>472.0</ele><time>2026-04-02T16:15:33.523Z</time></trkpt><trkpt lat="45.8646613" lon="8.8322843"><ele>472.0</ele><time>2026-04-02T16:15:34.522Z</time></trkpt><trkpt lat="45.8648265" lon="8.8323066"><ele>472.0</ele><time>2026-04-02T16:15:35.523Z</time></trkpt><trkpt lat="45.8650083" lon="8.8323367"><ele>472.6666666666667</ele><time>2026-04-02T16:15:36.523Z</time></trkpt><trkpt lat="45.8651888" lon="8.8323676"><ele>473.33333333333337</ele><time>2026-04-02T16:15:37.522Z</time></trkpt><trkpt lat="45.8653711" lon="8.8323996"><ele>474.0</ele><time>2026-04-02T16:15:38.523Z</time></trkpt><trkpt lat="45.865555" lon="8.8324302"><ele>474.0</ele><time>2026-04-02T16:15:39.522Z</time></trkpt><trkpt lat="45.865735" lon="8.8324621"><ele>474.0</ele><time>2026-04-02T16:15:40.523Z</time></trkpt><trkpt lat="45.8659099" lon="8.8324955"><ele>474.0</ele><time>2026-04-02T16:15:41.522Z</time></trkpt><trkpt lat="45.8660751" lon="8.8325281"><ele>475.66666666666663</ele><time>2026-04-02T16:15:42.522Z</time></trkpt><trkpt lat="45.8662414" lon="8.8325588"><ele>477.3333333333333</ele><time>2026-04-02T16:15:43.523Z</time></trkpt><trkpt lat="45.8664158" lon="8.8325901"><ele>479.0</ele><time>2026-04-02T16:15:44.523Z</time></trkpt><trkpt lat="45.8665869" lon="8.8326198"><ele>479.3333333333333</ele><time>2026-04-02T16:15:45.523Z</time></trkpt><trkpt lat="45.8667584" lon="8.8326498"><ele>479.66666666666663</ele><time>2026-04-02T16:15:46.522Z</time></trkpt><trkpt lat="45.8669325" lon="8.832682"><ele>480.0</ele><time>2026-04-02T16:15:47.522Z</time></trkpt><trkpt lat="45.8671077" lon="8.8327161"><ele>478.66666666666663</ele><time>2026-04-02T16:15:48.522Z</time></trkpt><trkpt lat="45.8672828" lon="8.8327506"><ele>477.3333333333333</ele><time>2026-04-02T16:15:49.523Z</time></trkpt><trkpt lat="45.8674532" lon="8.8327825"><ele>476.0</ele><time>2026-04-02T16:15:50.522Z</time></trkpt><trkpt lat="45.8676296" lon="8.8328146"><ele>476.0</ele><time>2026-04-02T16:15:51.521Z</time></trkpt><trkpt lat="45.8678104" lon="8.8328471"><ele>476.0</ele><time>2026-04-02T16:15:52.522Z</time></trkpt><trkpt lat="45.8679874" lon="8.8328797"><ele>476.0</ele><time>2026-04-02T16:15:53.523Z</time></trkpt><trkpt lat="45.8681659" lon="8.8329127"><ele>476.0</ele><time>2026-04-02T16:15:54.522Z</time></trkpt><trkpt lat="45.8683453" lon="8.8329468"><ele>476.0</ele><time>2026-04-02T16:15:55.523Z</time></trkpt><trkpt lat="45.8685266" lon="8.8329814"><ele>476.0</ele><time>2026-04-02T16:15:56.521Z</time></trkpt><trkpt lat="45.8687099" lon="8.8330163"><ele>476.66666666666663</ele><time>2026-04-02T16:15:57.523Z</time></trkpt><trkpt lat="45.8688878" lon="8.8330493"><ele>477.33333333333337</ele><time>2026-04-02T16:15:58.523Z</time></trkpt><trkpt lat="45.8690724" lon="8.8330835"><ele>478.0</ele><time>2026-04-02T16:15:59.522Z</time></trkpt><trkpt lat="45.8692627" lon="8.8331142"><ele>478.0</ele><time>2026-04-02T16:16:00.522Z</time></trkpt><trkpt lat="45.8694484" lon="8.8331455"><ele>478.0</ele><time>2026-04-02T16:16:01.523Z</time></trkpt><trkpt lat="45.869631" lon="8.8331775"><ele>478.0</ele><time>2026-04-02T16:16:02.523Z</time></trkpt><trkpt lat="45.8698145" lon="8.8332127"><ele>478.0</ele><time>2026-04-02T16:16:03.522Z</time></trkpt><trkpt lat="45.8699968" lon="8.8332485"><ele>478.0</ele><time>2026-04-02T16:16:04.522Z</time></trkpt><trkpt lat="45.8701764" lon="8.833281"><ele>478.0</ele><time>2026-04-02T16:16:05.523Z</time></trkpt><trkpt lat="45.870349" lon="8.8333162"><ele>479.0</ele><time>2026-04-02T16:16:06.521Z</time></trkpt><trkpt lat="45.8705071" lon="8.8333618"><ele>480.0</ele><time>2026-04-02T16:16:07.523Z</time></trkpt><trkpt lat="45.8706694" lon="8.8334304"><ele>481.0</ele><time>2026-04-02T16:16:08.523Z</time></trkpt><trkpt lat="45.8708221" lon="8.8335194"><ele>482.6666666666667</ele><time>2026-04-02T16:16:09.522Z</time></trkpt><trkpt lat="45.8709629" lon="8.8336356"><ele>484.33333333333337</ele><time>2026-04-02T16:16:10.522Z</time></trkpt><trkpt lat="45.8711044" lon="8.8337876"><ele>486.0</ele><time>2026-04-02T16:16:11.523Z</time></trkpt><trkpt lat="45.871235" lon="8.8339549"><ele>486.0</ele><time>2026-04-02T16:16:12.522Z</time></trkpt><trkpt lat="45.8713638" lon="8.8341384"><ele>486.0</ele><time>2026-04-02T16:16:13.522Z</time></trkpt><trkpt lat="45.8714915" lon="8.8343302"><ele>486.0</ele><time>2026-04-02T16:16:14.522Z</time></trkpt><trkpt lat="45.8716104" lon="8.8345142"><ele>486.66666666666663</ele><time>2026-04-02T16:16:15.522Z</time></trkpt><trkpt lat="45.8717363" lon="8.834703"><ele>487.3333333333333</ele><time>2026-04-02T16:16:16.521Z</time></trkpt><trkpt lat="45.8718623" lon="8.8348743"><ele>488.0</ele><time>2026-04-02T16:16:17.523Z</time></trkpt><trkpt lat="45.8719918" lon="8.835029"><ele>487.3333333333333</ele><time>2026-04-02T16:16:18.523Z</time></trkpt><trkpt lat="45.8721373" lon="8.8351802"><ele>486.66666666666663</ele><time>2026-04-02T16:16:19.523Z</time></trkpt><trkpt lat="45.8722851" lon="8.8353093"><ele>486.0</ele><time>2026-04-02T16:16:20.523Z</time></trkpt><trkpt lat="45.8724396" lon="8.8354248"><ele>486.0</ele><time>2026-04-02T16:16:21.523Z</time></trkpt><trkpt lat="45.8725999" lon="8.8355266"><ele>486.0</ele><time>2026-04-02T16:16:22.521Z</time></trkpt><trkpt lat="45.872761" lon="8.8356068"><ele>486.0</ele><time>2026-04-02T16:16:23.522Z</time></trkpt><trkpt lat="45.8729394" lon="8.8356775"><ele>485.0</ele><time>2026-04-02T16:16:24.522Z</time></trkpt><trkpt lat="45.8731181" lon="8.8357325"><ele>484.0</ele><time>2026-04-02T16:16:25.523Z</time></trkpt><trkpt lat="45.8733" lon="8.8357737"><ele>483.0</ele><time>2026-04-02T16:16:26.523Z</time></trkpt><trkpt lat="45.8734801" lon="8.8358064"><ele>483.0</ele><time>2026-04-02T16:16:27.522Z</time></trkpt><trkpt lat="45.8736593" lon="8.8358352"><ele>483.0</ele><time>2026-04-02T16:16:28.522Z</time></trkpt><trkpt lat="45.873836" lon="8.8358671"><ele>483.0</ele><time>2026-04-02T16:16:29.523Z</time></trkpt><trkpt lat="45.8740051" lon="8.8358974"><ele>483.0</ele><time>2026-04-02T16:16:30.523Z</time></trkpt><trkpt lat="45.8741755" lon="8.8359274"><ele>483.0</ele><time>2026-04-02T16:16:31.523Z</time></trkpt><trkpt lat="45.8743547" lon="8.8359578"><ele>483.0</ele><time>2026-04-02T16:16:32.523Z</time></trkpt><trkpt lat="45.8745287" lon="8.8359885"><ele>482.0</ele><time>2026-04-02T16:16:33.522Z</time></trkpt><trkpt lat="45.874704" lon="8.8360177"><ele>481.0</ele><time>2026-04-02T16:16:34.522Z</time></trkpt><trkpt lat="45.8748794" lon="8.8360445"><ele>480.0</ele><time>2026-04-02T16:16:35.522Z</time></trkpt><trkpt lat="45.8750565" lon="8.8360712"><ele>478.0</ele><time>2026-04-02T16:16:36.523Z</time></trkpt><trkpt lat="45.8752337" lon="8.8360971"><ele>476.0</ele><time>2026-04-02T16:16:37.522Z</time></trkpt><trkpt lat="45.8754049" lon="8.8361252"><ele>474.0</ele><time>2026-04-02T16:16:38.522Z</time></trkpt><trkpt lat="45.8755819" lon="8.836151"><ele>474.0</ele><time>2026-04-02T16:16:39.523Z</time></trkpt><trkpt lat="45.875765" lon="8.8361787"><ele>474.0</ele><time>2026-04-02T16:16:40.523Z</time></trkpt><trkpt lat="45.875941" lon="8.8362097"><ele>474.0</ele><time>2026-04-02T16:16:41.523Z</time></trkpt><trkpt lat="45.8761183" lon="8.8362418"><ele>472.33333333333337</ele><time>2026-04-02T16:16:42.522Z</time></trkpt><trkpt lat="45.8762959" lon="8.8362734"><ele>470.6666666666667</ele><time>2026-04-02T16:16:43.522Z</time></trkpt><trkpt lat="45.8764729" lon="8.836305"><ele>469.0</ele><time>2026-04-02T16:16:44.521Z</time></trkpt><trkpt lat="45.8766511" lon="8.8363356"><ele>469.0</ele><time>2026-04-02T16:16:45.523Z</time></trkpt><trkpt lat="45.8768234" lon="8.8363648"><ele>469.0</ele><time>2026-04-02T16:16:46.522Z</time></trkpt><trkpt lat="45.8770018" lon="8.8363949"><ele>469.0</ele><time>2026-04-02T16:16:47.522Z</time></trkpt><trkpt lat="45.8771876" lon="8.8364252"><ele>469.0</ele><time>2026-04-02T16:16:48.523Z</time></trkpt><trkpt lat="45.8773682" lon="8.8364536"><ele>469.0</ele><time>2026-04-02T16:16:49.521Z</time></trkpt><trkpt lat="45.8775469" lon="8.8364823"><ele>469.0</ele><time>2026-04-02T16:16:50.523Z</time></trkpt><trkpt lat="45.8777267" lon="8.8365117"><ele>468.6666666666667</ele><time>2026-04-02T16:16:51.522Z</time></trkpt><trkpt lat="45.8779054" lon="8.836541"><ele>468.33333333333337</ele><time>2026-04-02T16:16:52.522Z</time></trkpt><trkpt lat="45.8780799" lon="8.8365719"><ele>468.0</ele><time>2026-04-02T16:16:53.523Z</time></trkpt><trkpt lat="45.8782501" lon="8.8366017"><ele>468.0</ele><time>2026-04-02T16:16:54.521Z</time></trkpt><trkpt lat="45.8784142" lon="8.8366277"><ele>468.0</ele><time>2026-04-02T16:16:55.523Z</time></trkpt><trkpt lat="45.8785897" lon="8.8366542"><ele>468.0</ele><time>2026-04-02T16:16:56.522Z</time></trkpt><trkpt lat="45.8787613" lon="8.8366804"><ele>469.0</ele><time>2026-04-02T16:16:57.522Z</time></trkpt><trkpt lat="45.8789286" lon="8.8367084"><ele>470.0</ele><time>2026-04-02T16:16:58.522Z</time></trkpt><trkpt lat="45.8791093" lon="8.8367395"><ele>471.0</ele><time>2026-04-02T16:16:59.522Z</time></trkpt><trkpt lat="45.8792844" lon="8.8367711"><ele>469.0</ele><time>2026-04-02T16:17:00.523Z</time></trkpt><trkpt lat="45.8794627" lon="8.8368022"><ele>467.0</ele><time>2026-04-02T16:17:01.522Z</time></trkpt><trkpt lat="45.87964" lon="8.8368287"><ele>465.0</ele><time>2026-04-02T16:17:02.522Z</time></trkpt><trkpt lat="45.8798117" lon="8.8368419"><ele>465.33333333333337</ele><time>2026-04-02T16:17:03.522Z</time></trkpt><trkpt lat="45.8799949" lon="8.8368375"><ele>465.6666666666667</ele><time>2026-04-02T16:17:04.522Z</time></trkpt><trkpt lat="45.8801714" lon="8.8368102"><ele>466.0</ele><time>2026-04-02T16:17:05.523Z</time></trkpt><trkpt lat="45.8803434" lon="8.8367656"><ele>466.0</ele><time>2026-04-02T16:17:06.523Z</time></trkpt><trkpt lat="45.8805265" lon="8.8366962"><ele>466.0</ele><time>2026-04-02T16:17:07.523Z</time></trkpt><trkpt lat="45.8807043" lon="8.8366104"><ele>466.0</ele><time>2026-04-02T16:17:08.523Z</time></trkpt><trkpt lat="45.8808828" lon="8.8365142"><ele>468.6666666666667</ele><time>2026-04-02T16:17:09.522Z</time></trkpt><trkpt lat="45.8810573" lon="8.8364139"><ele>471.33333333333337</ele><time>2026-04-02T16:17:10.522Z</time></trkpt><trkpt lat="45.8812252" lon="8.8363174"><ele>474.0</ele><time>2026-04-02T16:17:11.522Z</time></trkpt><trkpt lat="45.8814013" lon="8.8362178"><ele>474.0</ele><time>2026-04-02T16:17:12.523Z</time></trkpt><trkpt lat="45.8815676" lon="8.8361207"><ele>474.0</ele><time>2026-04-02T16:17:13.523Z</time></trkpt><trkpt lat="45.8817314" lon="8.8360244"><ele>474.0</ele><time>2026-04-02T16:17:14.523Z</time></trkpt><trkpt lat="45.8818924" lon="8.8359282"><ele>471.66666666666663</ele><time>2026-04-02T16:17:15.523Z</time></trkpt><trkpt lat="45.8820525" lon="8.835831"><ele>469.3333333333333</ele><time>2026-04-02T16:17:16.523Z</time></trkpt><trkpt lat="45.8822118" lon="8.8357349"><ele>467.0</ele><time>2026-04-02T16:17:17.522Z</time></trkpt><trkpt lat="45.8823676" lon="8.8356415"><ele>467.0</ele><time>2026-04-02T16:17:18.521Z</time></trkpt><trkpt lat="45.8825266" lon="8.835545"><ele>467.0</ele><time>2026-04-02T16:17:19.523Z</time></trkpt><trkpt lat="45.8826896" lon="8.8354464"><ele>467.0</ele><time>2026-04-02T16:17:20.522Z</time></trkpt><trkpt lat="45.8828492" lon="8.8353524"><ele>467.3333333333333</ele><time>2026-04-02T16:17:21.523Z</time></trkpt><trkpt lat="45.8830086" lon="8.8352601"><ele>467.66666666666663</ele><time>2026-04-02T16:17:22.521Z</time></trkpt><trkpt lat="45.8831677" lon="8.8351656"><ele>468.0</ele><time>2026-04-02T16:17:23.522Z</time></trkpt><trkpt lat="45.883326" lon="8.8350695"><ele>468.33333333333337</ele><time>2026-04-02T16:17:24.522Z</time></trkpt><trkpt lat="45.883484" lon="8.834972"><ele>468.6666666666667</ele><time>2026-04-02T16:17:25.522Z</time></trkpt><trkpt lat="45.8836388" lon="8.8348786"><ele>469.0</ele><time>2026-04-02T16:17:26.522Z</time></trkpt><trkpt lat="45.883802" lon="8.8347862"><ele>469.0</ele><time>2026-04-02T16:17:27.523Z</time></trkpt><trkpt lat="45.8839762" lon="8.8346996"><ele>469.0</ele><time>2026-04-02T16:17:28.523Z</time></trkpt><trkpt lat="45.8841536" lon="8.8346303"><ele>469.0</ele><time>2026-04-02T16:17:29.522Z</time></trkpt><trkpt lat="45.8843362" lon="8.8345765"><ele>472.33333333333337</ele><time>2026-04-02T16:17:30.522Z</time></trkpt><trkpt lat="45.884524" lon="8.8345308"><ele>475.66666666666663</ele><time>2026-04-02T16:17:31.523Z</time></trkpt><trkpt lat="45.8847134" lon="8.8344888"><ele>479.0</ele><time>2026-04-02T16:17:32.523Z</time></trkpt><trkpt lat="45.8848995" lon="8.8344493"><ele>479.0</ele><time>2026-04-02T16:17:33.523Z</time></trkpt><trkpt lat="45.8850819" lon="8.8344117"><ele>479.0</ele><time>2026-04-02T16:17:34.521Z</time></trkpt><trkpt lat="45.8852535" lon="8.8343741"><ele>479.0</ele><time>2026-04-02T16:17:35.523Z</time></trkpt><trkpt lat="45.8854342" lon="8.8343315"><ele>478.66666666666663</ele><time>2026-04-02T16:17:36.522Z</time></trkpt><trkpt lat="45.8856072" lon="8.8342794"><ele>478.33333333333337</ele><time>2026-04-02T16:17:37.523Z</time></trkpt><trkpt lat="45.8857744" lon="8.834211"><ele>478.0</ele><time>2026-04-02T16:17:38.523Z</time></trkpt><trkpt lat="45.8859531" lon="8.8341179"><ele>478.0</ele><time>2026-04-02T16:17:39.522Z</time></trkpt><trkpt lat="45.8861245" lon="8.8340104"><ele>478.0</ele><time>2026-04-02T16:17:40.523Z</time></trkpt><trkpt lat="45.8862979" lon="8.8338878"><ele>478.0</ele><time>2026-04-02T16:17:41.522Z</time></trkpt><trkpt lat="45.886468" lon="8.8337588"><ele>478.0</ele><time>2026-04-02T16:17:42.522Z</time></trkpt><trkpt lat="45.8866263" lon="8.833633"><ele>478.0</ele><time>2026-04-02T16:17:43.523Z</time></trkpt><trkpt lat="45.8867899" lon="8.8335023"><ele>478.0</ele><time>2026-04-02T16:17:44.523Z</time></trkpt><trkpt lat="45.8869444" lon="8.8333791"><ele>477.0</ele><time>2026-04-02T16:17:45.523Z</time></trkpt><trkpt lat="45.887095" lon="8.8332601"><ele>476.0</ele><time>2026-04-02T16:17:46.522Z</time></trkpt><trkpt lat="45.8872419" lon="8.8331433"><ele>475.0</ele><time>2026-04-02T16:17:47.523Z</time></trkpt><trkpt lat="45.8873876" lon="8.8330266"><ele>475.0</ele><time>2026-04-02T16:17:48.522Z</time></trkpt><trkpt lat="45.8875328" lon="8.83291"><ele>475.0</ele><time>2026-04-02T16:17:49.523Z</time></trkpt><trkpt lat="45.8876733" lon="8.8327967"><ele>475.0</ele><time>2026-04-02T16:17:50.522Z</time></trkpt><trkpt lat="45.8878165" lon="8.8326802"><ele>472.33333333333337</ele><time>2026-04-02T16:17:51.523Z</time></trkpt><trkpt lat="45.8879658" lon="8.8325589"><ele>469.66666666666663</ele><time>2026-04-02T16:17:52.522Z</time></trkpt><trkpt lat="45.8881119" lon="8.8324426"><ele>467.0</ele><time>2026-04-02T16:17:53.522Z</time></trkpt><trkpt lat="45.8882584" lon="8.8323258"><ele>467.0</ele><time>2026-04-02T16:17:54.523Z</time></trkpt><trkpt lat="45.8884044" lon="8.8322052"><ele>467.0</ele><time>2026-04-02T16:17:55.523Z</time></trkpt><trkpt lat="45.8885514" lon="8.8320807"><ele>467.0</ele><time>2026-04-02T16:17:56.523Z</time></trkpt><trkpt lat="45.8886992" lon="8.8319558"><ele>467.3333333333333</ele><time>2026-04-02T16:17:57.523Z</time></trkpt><trkpt lat="45.8888452" lon="8.8318369"><ele>467.66666666666663</ele><time>2026-04-02T16:17:58.523Z</time></trkpt><trkpt lat="45.8889981" lon="8.8317151"><ele>468.0</ele><time>2026-04-02T16:17:59.523Z</time></trkpt><trkpt lat="45.8891602" lon="8.8315886"><ele>470.66666666666663</ele><time>2026-04-02T16:18:00.523Z</time></trkpt><trkpt lat="45.8893168" lon="8.8314646"><ele>473.3333333333333</ele><time>2026-04-02T16:18:01.522Z</time></trkpt><trkpt lat="45.8894712" lon="8.8313402"><ele>476.0</ele><time>2026-04-02T16:18:02.522Z</time></trkpt><trkpt lat="45.8896188" lon="8.8312225"><ele>476.0</ele><time>2026-04-02T16:18:03.523Z</time></trkpt><trkpt lat="45.8897619" lon="8.8311091"><ele>476.0</ele><time>2026-04-02T16:18:04.522Z</time></trkpt><trkpt lat="45.889901" lon="8.830999"><ele>476.0</ele><time>2026-04-02T16:18:05.522Z</time></trkpt><trkpt lat="45.8900377" lon="8.8308975"><ele>475.3333333333333</ele><time>2026-04-02T16:18:06.523Z</time></trkpt><trkpt lat="45.8901831" lon="8.8308"><ele>474.66666666666663</ele><time>2026-04-02T16:18:07.523Z</time></trkpt><trkpt lat="45.8903403" lon="8.8307089"><ele>474.0</ele><time>2026-04-02T16:18:08.523Z</time></trkpt><trkpt lat="45.8905009" lon="8.8306315"><ele>474.0</ele><time>2026-04-02T16:18:09.522Z</time></trkpt><trkpt lat="45.8906629" lon="8.8305681"><ele>474.0</ele><time>2026-04-02T16:18:10.523Z</time></trkpt><trkpt lat="45.8908395" lon="8.830514"><ele>474.0</ele><time>2026-04-02T16:18:11.523Z</time></trkpt><trkpt lat="45.8910184" lon="8.8304748"><ele>474.0</ele><time>2026-04-02T16:18:12.523Z</time></trkpt><trkpt lat="45.8912029" lon="8.8304476"><ele>474.0</ele><time>2026-04-02T16:18:13.521Z</time></trkpt><trkpt lat="45.8913886" lon="8.8304265"><ele>474.0</ele><time>2026-04-02T16:18:14.522Z</time></trkpt><trkpt lat="45.8915648" lon="8.8304042"><ele>474.0</ele><time>2026-04-02T16:18:15.522Z</time></trkpt><trkpt lat="45.8917494" lon="8.830378"><ele>474.0</ele><time>2026-04-02T16:18:16.522Z</time></trkpt><trkpt lat="45.8919246" lon="8.8303522"><ele>474.0</ele><time>2026-04-02T16:18:17.523Z</time></trkpt><trkpt lat="45.8920909" lon="8.8303311"><ele>474.0</ele><time>2026-04-02T16:18:18.523Z</time></trkpt><trkpt lat="45.8922631" lon="8.8303117"><ele>474.0</ele><time>2026-04-02T16:18:19.523Z</time></trkpt><trkpt lat="45.892424" lon="8.8302919"><ele>474.0</ele><time>2026-04-02T16:18:20.522Z</time></trkpt><trkpt lat="45.8925817" lon="8.8302715"><ele>475.66666666666663</ele><time>2026-04-02T16:18:21.522Z</time></trkpt><trkpt lat="45.8927338" lon="8.8302511"><ele>477.3333333333333</ele><time>2026-04-02T16:18:22.523Z</time></trkpt><trkpt lat="45.8928912" lon="8.8302241"><ele>479.0</ele><time>2026-04-02T16:18:23.522Z</time></trkpt><trkpt lat="45.8930554" lon="8.8301829"><ele>476.3333333333333</ele><time>2026-04-02T16:18:24.522Z</time></trkpt><trkpt lat="45.8932111" lon="8.8301313"><ele>473.66666666666663</ele><time>2026-04-02T16:18:25.523Z</time></trkpt><trkpt lat="45.8933764" lon="8.8300741"><ele>471.0</ele><time>2026-04-02T16:18:26.522Z</time></trkpt><trkpt lat="45.8935452" lon="8.8300113"><ele>471.0</ele><time>2026-04-02T16:18:27.523Z</time></trkpt><trkpt lat="45.8937053" lon="8.8299443"><ele>471.0</ele><time>2026-04-02T16:18:28.521Z</time></trkpt><trkpt lat="45.8938592" lon="8.829871"><ele>471.0</ele><time>2026-04-02T16:18:29.522Z</time></trkpt><trkpt lat="45.8940023" lon="8.829791"><ele>471.0</ele><time>2026-04-02T16:18:30.522Z</time></trkpt><trkpt lat="45.8941442" lon="8.8296974"><ele>471.0</ele><time>2026-04-02T16:18:31.522Z</time></trkpt><trkpt lat="45.8942829" lon="8.8295959"><ele>471.0</ele><time>2026-04-02T16:18:32.523Z</time></trkpt><trkpt lat="45.8944119" lon="8.8294958"><ele>472.66666666666663</ele><time>2026-04-02T16:18:33.522Z</time></trkpt><trkpt lat="45.8945389" lon="8.8294076"><ele>474.3333333333333</ele><time>2026-04-02T16:18:34.522Z</time></trkpt><trkpt lat="45.8946837" lon="8.8293328"><ele>476.0</ele><time>2026-04-02T16:18:35.523Z</time></trkpt><trkpt lat="45.8948347" lon="8.8292798"><ele>472.66666666666663</ele><time>2026-04-02T16:18:36.522Z</time></trkpt><trkpt lat="45.8949921" lon="8.8292417"><ele>469.33333333333337</ele><time>2026-04-02T16:18:37.523Z</time></trkpt><trkpt lat="45.8951506" lon="8.8292118"><ele>466.0</ele><time>2026-04-02T16:18:38.523Z</time></trkpt><trkpt lat="45.8953183" lon="8.8291813"><ele>466.0</ele><time>2026-04-02T16:18:39.523Z</time></trkpt><trkpt lat="45.8954918" lon="8.8291419"><ele>466.0</ele><time>2026-04-02T16:18:40.522Z</time></trkpt><trkpt lat="45.8956481" lon="8.8290779"><ele>466.0</ele><time>2026-04-02T16:18:41.522Z</time></trkpt><trkpt lat="45.8957861" lon="8.8289933"><ele>470.6666666666667</ele><time>2026-04-02T16:18:42.523Z</time></trkpt><trkpt lat="45.8959231" lon="8.8288732"><ele>475.33333333333337</ele><time>2026-04-02T16:18:43.522Z</time></trkpt><trkpt lat="45.8960495" lon="8.8287359"><ele>480.0</ele><time>2026-04-02T16:18:44.523Z</time></trkpt><trkpt lat="45.8961766" lon="8.8286025"><ele>480.0</ele><time>2026-04-02T16:18:45.521Z</time></trkpt><trkpt lat="45.8963062" lon="8.8284912"><ele>480.0</ele><time>2026-04-02T16:18:46.523Z</time></trkpt><trkpt lat="45.8964482" lon="8.8283945"><ele>480.0</ele><time>2026-04-02T16:18:47.522Z</time></trkpt><trkpt lat="45.8966048" lon="8.828313"><ele>475.0</ele><time>2026-04-02T16:18:48.523Z</time></trkpt><trkpt lat="45.8967655" lon="8.8282553"><ele>470.0</ele><time>2026-04-02T16:18:49.523Z</time></trkpt><trkpt lat="45.8969177" lon="8.8282171"><ele>465.0</ele><time>2026-04-02T16:18:50.522Z</time></trkpt><trkpt lat="45.8970739" lon="8.8281862"><ele>465.0</ele><time>2026-04-02T16:18:51.522Z</time></trkpt><trkpt lat="45.8972187" lon="8.8281589"><ele>465.0</ele><time>2026-04-02T16:18:52.523Z</time></trkpt><trkpt lat="45.8973576" lon="8.828127"><ele>465.0</ele><time>2026-04-02T16:18:53.522Z</time></trkpt><trkpt lat="45.8974878" lon="8.8280853"><ele>465.0</ele><time>2026-04-02T16:18:54.523Z</time></trkpt><trkpt lat="45.8976216" lon="8.828028"><ele>465.25</ele><time>2026-04-02T16:18:55.522Z</time></trkpt><trkpt lat="45.897761" lon="8.8279587"><ele>465.5</ele><time>2026-04-02T16:18:56.522Z</time></trkpt><trkpt lat="45.8978925" lon="8.8278837"><ele>465.75</ele><time>2026-04-02T16:18:57.523Z</time></trkpt><trkpt lat="45.8980319" lon="8.8277979"><ele>466.0</ele><time>2026-04-02T16:18:58.523Z</time></trkpt><trkpt lat="45.8981686" lon="8.8277153"><ele>465.25</ele><time>2026-04-02T16:18:59.523Z</time></trkpt><trkpt lat="45.8983043" lon="8.8276301"><ele>464.5</ele><time>2026-04-02T16:19:00.523Z</time></trkpt><trkpt lat="45.8984384" lon="8.8275425"><ele>463.75</ele><time>2026-04-02T16:19:01.523Z</time></trkpt><trkpt lat="45.8985698" lon="8.8274567"><ele>463.0</ele><time>2026-04-02T16:19:02.523Z</time></trkpt><trkpt lat="45.8987047" lon="8.8273689"><ele>463.0</ele><time>2026-04-02T16:19:03.523Z</time></trkpt><trkpt lat="45.898845" lon="8.8272773"><ele>463.0</ele><time>2026-04-02T16:19:04.523Z</time></trkpt><trkpt lat="45.8989804" lon="8.8271888"><ele>463.0</ele><time>2026-04-02T16:19:05.522Z</time></trkpt><trkpt lat="45.8991162" lon="8.8271026"><ele>463.0</ele><time>2026-04-02T16:19:06.522Z</time></trkpt><trkpt lat="45.899252" lon="8.8270179"><ele>463.0</ele><time>2026-04-02T16:19:07.523Z</time></trkpt><trkpt lat="45.899386" lon="8.8269337"><ele>463.0</ele><time>2026-04-02T16:19:08.523Z</time></trkpt><trkpt lat="45.8995188" lon="8.8268489"><ele>463.0</ele><time>2026-04-02T16:19:09.523Z</time></trkpt><trkpt lat="45.8996464" lon="8.826767"><ele>463.0</ele><time>2026-04-02T16:19:10.522Z</time></trkpt><trkpt lat="45.8997754" lon="8.8266817"><ele>463.0</ele><time>2026-04-02T16:19:11.522Z</time></trkpt><trkpt lat="45.899903" lon="8.8266"><ele>463.0</ele><time>2026-04-02T16:19:12.522Z</time></trkpt><trkpt lat="45.9000194" lon="8.826527"><ele>463.0</ele><time>2026-04-02T16:19:13.523Z</time></trkpt><trkpt lat="45.9001258" lon="8.8264595"><ele>463.59999999999997</ele><time>2026-04-02T16:19:14.522Z</time></trkpt><trkpt lat="45.9002256" lon="8.8263947"><ele>464.19999999999993</ele><time>2026-04-02T16:19:15.522Z</time></trkpt><trkpt lat="45.9003167" lon="8.8263384"><ele>464.8</ele><time>2026-04-02T16:19:16.522Z</time></trkpt><trkpt lat="45.9004002" lon="8.8262883"><ele>465.4</ele><time>2026-04-02T16:19:17.523Z</time></trkpt><trkpt lat="45.900476" lon="8.8262429"><ele>466.0</ele><time>2026-04-02T16:19:18.522Z</time></trkpt><trkpt lat="45.9005477" lon="8.8262055"><ele>466.00000000000006</ele><time>2026-04-02T16:19:19.523Z</time></trkpt><trkpt lat="45.9006258" lon="8.8261858"><ele>466.0</ele><time>2026-04-02T16:19:20.522Z</time></trkpt><trkpt lat="45.9006972" lon="8.8261894"><ele>466.0</ele><time>2026-04-02T16:19:21.522Z</time></trkpt><trkpt lat="45.900766" lon="8.8261829"><ele>466.0</ele><time>2026-04-02T16:19:22.522Z</time></trkpt><trkpt lat="45.9008437" lon="8.8260324"><ele>466.00000000000006</ele><time>2026-04-02T16:19:24.523Z</time></trkpt><trkpt lat="45.9008469" lon="8.8259"><ele>466.0</ele><time>2026-04-02T16:19:25.521Z</time></trkpt><trkpt lat="45.9008435" lon="8.8257447"><ele>464.5</ele><time>2026-04-02T16:19:26.523Z</time></trkpt><trkpt lat="45.9008484" lon="8.825592"><ele>463.0</ele><time>2026-04-02T16:19:27.523Z</time></trkpt><trkpt lat="45.9008408" lon="8.8254226"><ele>461.5</ele><time>2026-04-02T16:19:28.521Z</time></trkpt><trkpt lat="45.9008303" lon="8.8252512"><ele>460.0</ele><time>2026-04-02T16:19:29.521Z</time></trkpt><trkpt lat="45.9008263" lon="8.8250884"><ele>459.75</ele><time>2026-04-02T16:19:30.523Z</time></trkpt><trkpt lat="45.9008422" lon="8.8249087"><ele>459.5</ele><time>2026-04-02T16:19:31.522Z</time></trkpt><trkpt lat="45.9008814" lon="8.8247303"><ele>459.25</ele><time>2026-04-02T16:19:32.523Z</time></trkpt><trkpt lat="45.9009327" lon="8.824565"><ele>459.0</ele><time>2026-04-02T16:19:33.522Z</time></trkpt><trkpt lat="45.9009941" lon="8.8244141"><ele>459.5</ele><time>2026-04-02T16:19:34.522Z</time></trkpt><trkpt lat="45.9010672" lon="8.8242794"><ele>460.0</ele><time>2026-04-02T16:19:35.523Z</time></trkpt><trkpt lat="45.9011566" lon="8.8241492"><ele>460.5</ele><time>2026-04-02T16:19:36.522Z</time></trkpt><trkpt lat="45.901256" lon="8.8240371"><ele>461.0</ele><time>2026-04-02T16:19:37.523Z</time></trkpt><trkpt lat="45.9013639" lon="8.8239385"><ele>461.0</ele><time>2026-04-02T16:19:38.522Z</time></trkpt><trkpt lat="45.9014739" lon="8.8238466"><ele>461.0</ele><time>2026-04-02T16:19:39.523Z</time></trkpt><trkpt lat="45.9015787" lon="8.8237532"><ele>461.0</ele><time>2026-04-02T16:19:40.522Z</time></trkpt><trkpt lat="45.901681" lon="8.8236628"><ele>461.0</ele><time>2026-04-02T16:19:41.523Z</time></trkpt><trkpt lat="45.9017777" lon="8.8235847"><ele>461.0</ele><time>2026-04-02T16:19:42.522Z</time></trkpt><trkpt lat="45.9018735" lon="8.8235065"><ele>461.0</ele><time>2026-04-02T16:19:43.523Z</time></trkpt><trkpt lat="45.9019646" lon="8.823432"><ele>461.0</ele><time>2026-04-02T16:19:44.523Z</time></trkpt><trkpt lat="45.9020436" lon="8.8233645"><ele>461.0</ele><time>2026-04-02T16:19:45.522Z</time></trkpt><trkpt lat="45.9021152" lon="8.8232993"><ele>461.0</ele><time>2026-04-02T16:19:46.522Z</time></trkpt><trkpt lat="45.9021777" lon="8.8232325"><ele>461.0</ele><time>2026-04-02T16:19:47.522Z</time></trkpt><trkpt lat="45.9022376" lon="8.8231622"><ele>461.00000000000006</ele><time>2026-04-02T16:19:48.523Z</time></trkpt><trkpt lat="45.9022951" lon="8.8230886"><ele>461.0</ele><time>2026-04-02T16:19:49.523Z</time></trkpt><trkpt lat="45.9023456" lon="8.8230146"><ele>461.0</ele><time>2026-04-02T16:19:50.522Z</time></trkpt><trkpt lat="45.9023933" lon="8.8229321"><ele>461.00000000000006</ele><time>2026-04-02T16:19:51.521Z</time></trkpt><trkpt lat="45.9024348" lon="8.8228451"><ele>461.0</ele><time>2026-04-02T16:19:52.522Z</time></trkpt><trkpt lat="45.9024689" lon="8.8227551"><ele>461.0</ele><time>2026-04-02T16:19:53.522Z</time></trkpt><trkpt lat="45.9025" lon="8.8226637"><ele>462.16666666666663</ele><time>2026-04-02T16:19:54.522Z</time></trkpt><trkpt lat="45.9025224" lon="8.8225629"><ele>463.3333333333333</ele><time>2026-04-02T16:19:55.521Z</time></trkpt><trkpt lat="45.9025389" lon="8.8224492"><ele>464.5</ele><time>2026-04-02T16:19:56.522Z</time></trkpt><trkpt lat="45.9025509" lon="8.8223376"><ele>465.66666666666663</ele><time>2026-04-02T16:19:57.522Z</time></trkpt><trkpt lat="45.9025511" lon="8.8222199"><ele>466.8333333333333</ele><time>2026-04-02T16:19:58.521Z</time></trkpt><trkpt lat="45.9025384" lon="8.8221076"><ele>468.0</ele><time>2026-04-02T16:19:59.522Z</time></trkpt><trkpt lat="45.9025187" lon="8.8220016"><ele>468.0</ele><time>2026-04-02T16:20:00.522Z</time></trkpt><trkpt lat="45.9024991" lon="8.8219069"><ele>468.0</ele><time>2026-04-02T16:20:01.521Z</time></trkpt><trkpt lat="45.902478" lon="8.8218113"><ele>468.0</ele><time>2026-04-02T16:20:02.522Z</time></trkpt><trkpt lat="45.9024547" lon="8.8217079"><ele>468.0</ele><time>2026-04-02T16:20:03.522Z</time></trkpt><trkpt lat="45.9024208" lon="8.8215893"><ele>468.0</ele><time>2026-04-02T16:20:04.52Z</time></trkpt><trkpt lat="45.9023866" lon="8.8214599"><ele>468.0</ele><time>2026-04-02T16:20:05.521Z</time></trkpt><trkpt lat="45.9023519" lon="8.8213203"><ele>468.79999999999995</ele><time>2026-04-02T16:20:06.522Z</time></trkpt><trkpt lat="45.9023156" lon="8.8211843"><ele>469.59999999999997</ele><time>2026-04-02T16:20:07.522Z</time></trkpt><trkpt lat="45.9022845" lon="8.8210455"><ele>470.40000000000003</ele><time>2026-04-02T16:20:08.522Z</time></trkpt><trkpt lat="45.9022666" lon="8.820886"><ele>471.20000000000005</ele><time>2026-04-02T16:20:09.52Z</time></trkpt><trkpt lat="45.9022604" lon="8.8207027"><ele>472.0</ele><time>2026-04-02T16:20:10.522Z</time></trkpt><trkpt lat="45.9022616" lon="8.8205149"><ele>473.6666666666667</ele><time>2026-04-02T16:20:11.521Z</time></trkpt><trkpt lat="45.9022564" lon="8.8203088"><ele>475.33333333333337</ele><time>2026-04-02T16:20:12.521Z</time></trkpt><trkpt lat="45.9022385" lon="8.8200834"><ele>477.0</ele><time>2026-04-02T16:20:13.522Z</time></trkpt><trkpt lat="45.9022102" lon="8.8198513"><ele>478.0</ele><time>2026-04-02T16:20:14.522Z</time></trkpt><trkpt lat="45.9021775" lon="8.8196264"><ele>479.0</ele><time>2026-04-02T16:20:15.522Z</time></trkpt><trkpt lat="45.9021409" lon="8.8194124"><ele>480.0</ele><time>2026-04-02T16:20:16.522Z</time></trkpt><trkpt lat="45.9021024" lon="8.8191979"><ele>480.0</ele><time>2026-04-02T16:20:17.522Z</time></trkpt><trkpt lat="45.9020749" lon="8.8189767"><ele>480.0</ele><time>2026-04-02T16:20:18.522Z</time></trkpt><trkpt lat="45.9020602" lon="8.8187548"><ele>480.0</ele><time>2026-04-02T16:20:19.522Z</time></trkpt><trkpt lat="45.9020658" lon="8.8185354"><ele>479.75</ele><time>2026-04-02T16:20:20.522Z</time></trkpt><trkpt lat="45.9020863" lon="8.818333"><ele>479.5</ele><time>2026-04-02T16:20:21.522Z</time></trkpt><trkpt lat="45.9021199" lon="8.8181363"><ele>479.25</ele><time>2026-04-02T16:20:22.522Z</time></trkpt><trkpt lat="45.9021836" lon="8.8179497"><ele>479.0</ele><time>2026-04-02T16:20:23.521Z</time></trkpt><trkpt lat="45.9022738" lon="8.8177654"><ele>475.3333333333333</ele><time>2026-04-02T16:20:24.521Z</time></trkpt><trkpt lat="45.9023728" lon="8.8175713"><ele>471.66666666666663</ele><time>2026-04-02T16:20:25.521Z</time></trkpt><trkpt lat="45.9024779" lon="8.8173664"><ele>468.0</ele><time>2026-04-02T16:20:26.522Z</time></trkpt><trkpt lat="45.9025774" lon="8.8171549"><ele>476.66666666666663</ele><time>2026-04-02T16:20:27.521Z</time></trkpt><trkpt lat="45.9026568" lon="8.8169166"><ele>485.3333333333333</ele><time>2026-04-02T16:20:28.522Z</time></trkpt><trkpt lat="45.9027149" lon="8.8166501"><ele>494.0</ele><time>2026-04-02T16:20:29.52Z</time></trkpt><trkpt lat="45.9027561" lon="8.8163879"><ele>494.0</ele><time>2026-04-02T16:20:30.522Z</time></trkpt><trkpt lat="45.9027912" lon="8.8161386"><ele>494.0</ele><time>2026-04-02T16:20:31.522Z</time></trkpt><trkpt lat="45.9028229" lon="8.8158779"><ele>494.0</ele><time>2026-04-02T16:20:32.522Z</time></trkpt><trkpt lat="45.9028634" lon="8.8156135"><ele>490.66666666666663</ele><time>2026-04-02T16:20:33.521Z</time></trkpt><trkpt lat="45.9029142" lon="8.8153447"><ele>487.33333333333337</ele><time>2026-04-02T16:20:34.522Z</time></trkpt><trkpt lat="45.9029726" lon="8.8150857"><ele>484.0</ele><time>2026-04-02T16:20:35.521Z</time></trkpt><trkpt lat="45.9030246" lon="8.8148438"><ele>481.75</ele><time>2026-04-02T16:20:36.521Z</time></trkpt><trkpt lat="45.9030685" lon="8.814617"><ele>479.5</ele><time>2026-04-02T16:20:37.522Z</time></trkpt><trkpt lat="45.9031085" lon="8.8144125"><ele>477.25</ele><time>2026-04-02T16:20:38.521Z</time></trkpt><trkpt lat="45.9031462" lon="8.814227"><ele>475.0</ele><time>2026-04-02T16:20:39.522Z</time></trkpt><trkpt lat="45.9031942" lon="8.8140589"><ele>475.25</ele><time>2026-04-02T16:20:40.522Z</time></trkpt><trkpt lat="45.9032528" lon="8.8139097"><ele>475.5</ele><time>2026-04-02T16:20:41.522Z</time></trkpt><trkpt lat="45.9033295" lon="8.8137634"><ele>475.75</ele><time>2026-04-02T16:20:42.522Z</time></trkpt><trkpt lat="45.9034167" lon="8.8136103"><ele>476.0</ele><time>2026-04-02T16:20:43.521Z</time></trkpt><trkpt lat="45.9035029" lon="8.8134487"><ele>476.0</ele><time>2026-04-02T16:20:44.522Z</time></trkpt><trkpt lat="45.9035941" lon="8.8132763"><ele>476.0</ele><time>2026-04-02T16:20:45.521Z</time></trkpt><trkpt lat="45.9036878" lon="8.8131029"><ele>476.0</ele><time>2026-04-02T16:20:46.522Z</time></trkpt><trkpt lat="45.9037851" lon="8.8129137"><ele>476.0</ele><time>2026-04-02T16:20:47.521Z</time></trkpt><trkpt lat="45.9038866" lon="8.8127227"><ele>476.0</ele><time>2026-04-02T16:20:48.522Z</time></trkpt><trkpt lat="45.9039906" lon="8.8125332"><ele>476.0</ele><time>2026-04-02T16:20:49.522Z</time></trkpt><trkpt lat="45.9040775" lon="8.8123663"><ele>475.25</ele><time>2026-04-02T16:20:50.521Z</time></trkpt><trkpt lat="45.9041641" lon="8.8122049"><ele>474.5</ele><time>2026-04-02T16:20:51.522Z</time></trkpt><trkpt lat="45.9042521" lon="8.812031"><ele>473.75</ele><time>2026-04-02T16:20:52.522Z</time></trkpt><trkpt lat="45.904346" lon="8.8118523"><ele>473.0</ele><time>2026-04-02T16:20:53.521Z</time></trkpt><trkpt lat="45.9044415" lon="8.811657"><ele>473.0</ele><time>2026-04-02T16:20:54.522Z</time></trkpt><trkpt lat="45.9045426" lon="8.8114572"><ele>473.0</ele><time>2026-04-02T16:20:55.522Z</time></trkpt><trkpt lat="45.9046474" lon="8.8112429"><ele>473.0</ele><time>2026-04-02T16:20:56.521Z</time></trkpt><trkpt lat="45.9047532" lon="8.8110236"><ele>470.3333333333333</ele><time>2026-04-02T16:20:57.522Z</time></trkpt><trkpt lat="45.9048596" lon="8.810797"><ele>467.66666666666663</ele><time>2026-04-02T16:20:58.522Z</time></trkpt><trkpt lat="45.9049676" lon="8.8105631"><ele>465.0</ele><time>2026-04-02T16:20:59.521Z</time></trkpt><trkpt lat="45.9050818" lon="8.8103157"><ele>470.0</ele><time>2026-04-02T16:21:00.521Z</time></trkpt><trkpt lat="45.9051999" lon="8.8100626"><ele>475.0</ele><time>2026-04-02T16:21:01.521Z</time></trkpt><trkpt lat="45.9053175" lon="8.8098081"><ele>480.0</ele><time>2026-04-02T16:21:02.522Z</time></trkpt><trkpt lat="45.9054336" lon="8.8095524"><ele>476.0</ele><time>2026-04-02T16:21:03.521Z</time></trkpt><trkpt lat="45.9055523" lon="8.8092996"><ele>472.0</ele><time>2026-04-02T16:21:04.52Z</time></trkpt><trkpt lat="45.9056666" lon="8.8090517"><ele>468.0</ele><time>2026-04-02T16:21:05.521Z</time></trkpt><trkpt lat="45.9057733" lon="8.8088182"><ele>468.0</ele><time>2026-04-02T16:21:06.521Z</time></trkpt><trkpt lat="45.9058724" lon="8.8085989"><ele>468.0</ele><time>2026-04-02T16:21:07.522Z</time></trkpt><trkpt lat="45.9059681" lon="8.808384"><ele>468.0</ele><time>2026-04-02T16:21:08.521Z</time></trkpt><trkpt lat="45.9060613" lon="8.8081791"><ele>470.25</ele><time>2026-04-02T16:21:09.521Z</time></trkpt><trkpt lat="45.9061481" lon="8.8079905"><ele>472.5</ele><time>2026-04-02T16:21:10.522Z</time></trkpt><trkpt lat="45.90623" lon="8.8078215"><ele>474.75</ele><time>2026-04-02T16:21:11.521Z</time></trkpt><trkpt lat="45.9063101" lon="8.8076422"><ele>477.0</ele><time>2026-04-02T16:21:12.521Z</time></trkpt><trkpt lat="45.9063823" lon="8.8074539"><ele>477.0</ele><time>2026-04-02T16:21:13.522Z</time></trkpt><trkpt lat="45.9064397" lon="8.8072545"><ele>477.0</ele><time>2026-04-02T16:21:14.521Z</time></trkpt><trkpt lat="45.9064785" lon="8.8070319"><ele>477.0</ele><time>2026-04-02T16:21:15.522Z</time></trkpt><trkpt lat="45.9064957" lon="8.8067977"><ele>475.0</ele><time>2026-04-02T16:21:16.521Z</time></trkpt><trkpt lat="45.9064873" lon="8.806554"><ele>473.0</ele><time>2026-04-02T16:21:17.522Z</time></trkpt><trkpt lat="45.9064631" lon="8.8062948"><ele>471.0</ele><time>2026-04-02T16:21:18.522Z</time></trkpt><trkpt lat="45.9064344" lon="8.8060484"><ele>471.0</ele><time>2026-04-02T16:21:19.522Z</time></trkpt><trkpt lat="45.9064054" lon="8.805824"><ele>471.0</ele><time>2026-04-02T16:21:20.522Z</time></trkpt><trkpt lat="45.9063818" lon="8.8056116"><ele>471.0</ele><time>2026-04-02T16:21:21.52Z</time></trkpt><trkpt lat="45.906367" lon="8.8054167"><ele>471.0</ele><time>2026-04-02T16:21:22.521Z</time></trkpt><trkpt lat="45.9063719" lon="8.8052327"><ele>471.0</ele><time>2026-04-02T16:21:23.521Z</time></trkpt><trkpt lat="45.9064026" lon="8.8050443"><ele>471.0</ele><time>2026-04-02T16:21:24.521Z</time></trkpt><trkpt lat="45.9064593" lon="8.8048519"><ele>471.0</ele><time>2026-04-02T16:21:25.521Z</time></trkpt><trkpt lat="45.9065219" lon="8.804651"><ele>471.0</ele><time>2026-04-02T16:21:26.522Z</time></trkpt><trkpt lat="45.9065944" lon="8.8044381"><ele>471.0</ele><time>2026-04-02T16:21:27.522Z</time></trkpt><trkpt lat="45.9066626" lon="8.8042348"><ele>471.0</ele><time>2026-04-02T16:21:28.521Z</time></trkpt><trkpt lat="45.9067317" lon="8.8040272"><ele>471.0</ele><time>2026-04-02T16:21:29.521Z</time></trkpt><trkpt lat="45.9068011" lon="8.8038107"><ele>475.33333333333337</ele><time>2026-04-02T16:21:30.521Z</time></trkpt><trkpt lat="45.9068793" lon="8.8035922"><ele>479.6666666666667</ele><time>2026-04-02T16:21:31.522Z</time></trkpt><trkpt lat="45.9069602" lon="8.8033585"><ele>484.0</ele><time>2026-04-02T16:21:32.522Z</time></trkpt><trkpt lat="45.9070363" lon="8.8031335"><ele>484.0</ele><time>2026-04-02T16:21:33.521Z</time></trkpt><trkpt lat="45.9071036" lon="8.8029242"><ele>484.0</ele><time>2026-04-02T16:21:34.522Z</time></trkpt><trkpt lat="45.907167" lon="8.80273"><ele>484.0</ele><time>2026-04-02T16:21:35.521Z</time></trkpt><trkpt lat="45.9072323" lon="8.8025264"><ele>483.0</ele><time>2026-04-02T16:21:36.52Z</time></trkpt><trkpt lat="45.9073001" lon="8.8023169"><ele>482.0</ele><time>2026-04-02T16:21:37.522Z</time></trkpt><trkpt lat="45.907368" lon="8.8020986"><ele>481.0</ele><time>2026-04-02T16:21:38.522Z</time></trkpt><trkpt lat="45.9074389" lon="8.8018783"><ele>479.6666666666667</ele><time>2026-04-02T16:21:39.522Z</time></trkpt><trkpt lat="45.9075094" lon="8.8016526"><ele>478.33333333333337</ele><time>2026-04-02T16:21:40.522Z</time></trkpt><trkpt lat="45.9075831" lon="8.8014281"><ele>477.0</ele><time>2026-04-02T16:21:41.522Z</time></trkpt><trkpt lat="45.9076568" lon="8.8012049"><ele>479.66666666666663</ele><time>2026-04-02T16:21:42.521Z</time></trkpt><trkpt lat="45.9077282" lon="8.8009875"><ele>482.3333333333333</ele><time>2026-04-02T16:21:43.521Z</time></trkpt><trkpt lat="45.9078015" lon="8.8007666"><ele>485.0</ele><time>2026-04-02T16:21:44.522Z</time></trkpt><trkpt lat="45.9078758" lon="8.800535"><ele>485.0</ele><time>2026-04-02T16:21:45.521Z</time></trkpt><trkpt lat="45.9079521" lon="8.800299"><ele>485.0</ele><time>2026-04-02T16:21:46.522Z</time></trkpt><trkpt lat="45.9080301" lon="8.800054"><ele>485.0</ele><time>2026-04-02T16:21:47.522Z</time></trkpt><trkpt lat="45.9081093" lon="8.7998051"><ele>485.3333333333333</ele><time>2026-04-02T16:21:48.521Z</time></trkpt><trkpt lat="45.9081856" lon="8.799572"><ele>485.66666666666663</ele><time>2026-04-02T16:21:49.521Z</time></trkpt><trkpt lat="45.9082568" lon="8.7993703"><ele>486.0</ele><time>2026-04-02T16:21:50.521Z</time></trkpt><trkpt lat="45.9083245" lon="8.7991779"><ele>486.5</ele><time>2026-04-02T16:21:51.522Z</time></trkpt><trkpt lat="45.9083882" lon="8.7989926"><ele>487.0</ele><time>2026-04-02T16:21:52.521Z</time></trkpt><trkpt lat="45.908453" lon="8.7988019"><ele>487.5</ele><time>2026-04-02T16:21:53.522Z</time></trkpt><trkpt lat="45.9085171" lon="8.798619"><ele>488.0</ele><time>2026-04-02T16:21:54.522Z</time></trkpt><trkpt lat="45.9085753" lon="8.7984517"><ele>488.0</ele><time>2026-04-02T16:21:55.522Z</time></trkpt><trkpt lat="45.908632" lon="8.7982944"><ele>487.99999999999994</ele><time>2026-04-02T16:21:56.522Z</time></trkpt><trkpt lat="45.9086844" lon="8.7981569"><ele>487.99999999999994</ele><time>2026-04-02T16:21:57.522Z</time></trkpt><trkpt lat="45.9087437" lon="8.7980375"><ele>488.0</ele><time>2026-04-02T16:21:58.521Z</time></trkpt><trkpt lat="45.908809" lon="8.7979326"><ele>488.0</ele><time>2026-04-02T16:21:59.522Z</time></trkpt><trkpt lat="45.9088818" lon="8.7978279"><ele>488.0</ele><time>2026-04-02T16:22:00.522Z</time></trkpt><trkpt lat="45.9089699" lon="8.7977122"><ele>487.99999999999994</ele><time>2026-04-02T16:22:01.521Z</time></trkpt><trkpt lat="45.9090498" lon="8.7976173"><ele>487.99999999999994</ele><time>2026-04-02T16:22:02.522Z</time></trkpt><trkpt lat="45.9091216" lon="8.7975426"><ele>488.0</ele><time>2026-04-02T16:22:03.521Z</time></trkpt><trkpt lat="45.9091763" lon="8.7974898"><ele>488.0</ele><time>2026-04-02T16:22:04.522Z</time></trkpt><trkpt lat="45.9092508" lon="8.7974545"><ele>487.8333333333333</ele><time>2026-04-02T16:22:06.522Z</time></trkpt><trkpt lat="45.909298" lon="8.7973708"><ele>487.66666666666663</ele><time>2026-04-02T16:24:03.522Z</time></trkpt><trkpt lat="45.9093958" lon="8.7972364"><ele>487.5</ele><time>2026-04-02T16:24:05.522Z</time></trkpt><trkpt lat="45.9094537" lon="8.7971667"><ele>487.33333333333337</ele><time>2026-04-02T16:24:06.522Z</time></trkpt><trkpt lat="45.909507" lon="8.797109"><ele>487.1666666666667</ele><time>2026-04-02T16:24:07.521Z</time></trkpt><trkpt lat="45.9095635" lon="8.7970503"><ele>487.0</ele><time>2026-04-02T16:24:08.522Z</time></trkpt><trkpt lat="45.9096178" lon="8.7969884"><ele>487.00000000000006</ele><time>2026-04-02T16:24:09.521Z</time></trkpt><trkpt lat="45.9096715" lon="8.7969238"><ele>487.0</ele><time>2026-04-02T16:24:10.522Z</time></trkpt><trkpt lat="45.9097333" lon="8.7968557"><ele>487.0</ele><time>2026-04-02T16:24:11.522Z</time></trkpt><trkpt lat="45.9098045" lon="8.7967779"><ele>487.0</ele><time>2026-04-02T16:24:12.522Z</time></trkpt><trkpt lat="45.9098711" lon="8.7967056"><ele>487.00000000000006</ele><time>2026-04-02T16:24:13.521Z</time></trkpt><trkpt lat="45.9099344" lon="8.7966374"><ele>487.0</ele><time>2026-04-02T16:24:14.52Z</time></trkpt><trkpt lat="45.91001" lon="8.7965529"><ele>487.40000000000003</ele><time>2026-04-02T16:24:15.522Z</time></trkpt><trkpt lat="45.9100872" lon="8.7964598"><ele>487.80000000000007</ele><time>2026-04-02T16:24:16.52Z</time></trkpt><trkpt lat="45.9101774" lon="8.7963604"><ele>488.2</ele><time>2026-04-02T16:24:17.521Z</time></trkpt><trkpt lat="45.9102748" lon="8.796257"><ele>488.6</ele><time>2026-04-02T16:24:18.522Z</time></trkpt><trkpt lat="45.9103663" lon="8.7961621"><ele>489.0</ele><time>2026-04-02T16:24:19.52Z</time></trkpt><trkpt lat="45.9104559" lon="8.7960661"><ele>489.25</ele><time>2026-04-02T16:24:20.521Z</time></trkpt><trkpt lat="45.9105532" lon="8.7959613"><ele>489.5</ele><time>2026-04-02T16:24:21.522Z</time></trkpt><trkpt lat="45.9106483" lon="8.7958513"><ele>489.75</ele><time>2026-04-02T16:24:22.521Z</time></trkpt><trkpt lat="45.9107438" lon="8.7957427"><ele>490.0</ele><time>2026-04-02T16:24:23.522Z</time></trkpt><trkpt lat="45.9108399" lon="8.795636"><ele>491.25</ele><time>2026-04-02T16:24:24.521Z</time></trkpt><trkpt lat="45.9109341" lon="8.7955278"><ele>492.5</ele><time>2026-04-02T16:24:25.522Z</time></trkpt><trkpt lat="45.9110271" lon="8.7954149"><ele>493.75</ele><time>2026-04-02T16:24:26.522Z</time></trkpt><trkpt lat="45.9111158" lon="8.7952919"><ele>495.0</ele><time>2026-04-02T16:24:27.521Z</time></trkpt><trkpt lat="45.9112" lon="8.7951434"><ele>495.0</ele><time>2026-04-02T16:24:28.52Z</time></trkpt><trkpt lat="45.9112708" lon="8.7949818"><ele>495.0</ele><time>2026-04-02T16:24:29.521Z</time></trkpt><trkpt lat="45.9113359" lon="8.794824"><ele>495.0</ele><time>2026-04-02T16:24:30.522Z</time></trkpt><trkpt lat="45.9113925" lon="8.7946673"><ele>495.0</ele><time>2026-04-02T16:24:31.521Z</time></trkpt><trkpt lat="45.9114356" lon="8.7945283"><ele>495.0</ele><time>2026-04-02T16:24:32.522Z</time></trkpt><trkpt lat="45.9114782" lon="8.7943821"><ele>495.0</ele><time>2026-04-02T16:24:33.522Z</time></trkpt><trkpt lat="45.9115092" lon="8.7942191"><ele>495.0</ele><time>2026-04-02T16:24:34.522Z</time></trkpt><trkpt lat="45.9115239" lon="8.794037"><ele>495.0</ele><time>2026-04-02T16:24:35.522Z</time></trkpt><trkpt lat="45.9115294" lon="8.7938529"><ele>495.2</ele><time>2026-04-02T16:24:36.522Z</time></trkpt><trkpt lat="45.9115337" lon="8.7936747"><ele>495.4</ele><time>2026-04-02T16:24:37.521Z</time></trkpt><trkpt lat="45.9115292" lon="8.7935135"><ele>495.6</ele><time>2026-04-02T16:24:38.521Z</time></trkpt><trkpt lat="45.9115033" lon="8.7933907"><ele>495.8</ele><time>2026-04-02T16:24:39.522Z</time></trkpt><trkpt lat="45.9114706" lon="8.7932452"><ele>496.0</ele><time>2026-04-02T16:24:40.521Z</time></trkpt><trkpt lat="45.9114206" lon="8.7930955"><ele>496.0</ele><time>2026-04-02T16:24:41.522Z</time></trkpt><trkpt lat="45.9113563" lon="8.7929517"><ele>496.0</ele><time>2026-04-02T16:24:42.521Z</time></trkpt><trkpt lat="45.9112827" lon="8.7928111"><ele>496.0</ele><time>2026-04-02T16:24:43.522Z</time></trkpt><trkpt lat="45.9112072" lon="8.7926751"><ele>496.0</ele><time>2026-04-02T16:24:44.522Z</time></trkpt><trkpt lat="45.9111269" lon="8.7925493"><ele>494.25</ele><time>2026-04-02T16:24:45.52Z</time></trkpt><trkpt lat="45.9110423" lon="8.7924331"><ele>492.5</ele><time>2026-04-02T16:24:46.522Z</time></trkpt><trkpt lat="45.9109486" lon="8.7923299"><ele>490.75</ele><time>2026-04-02T16:24:47.521Z</time></trkpt><trkpt lat="45.9108439" lon="8.792229"><ele>489.0</ele><time>2026-04-02T16:24:48.522Z</time></trkpt><trkpt lat="45.9107283" lon="8.7921392"><ele>489.0</ele><time>2026-04-02T16:24:49.522Z</time></trkpt><trkpt lat="45.9106089" lon="8.7920641"><ele>489.0</ele><time>2026-04-02T16:24:50.522Z</time></trkpt><trkpt lat="45.9104912" lon="8.7920056"><ele>489.0</ele><time>2026-04-02T16:24:51.522Z</time></trkpt><trkpt lat="45.9103698" lon="8.7919649"><ele>489.0</ele><time>2026-04-02T16:24:52.521Z</time></trkpt><trkpt lat="45.9102466" lon="8.7919417"><ele>489.0</ele><time>2026-04-02T16:24:53.521Z</time></trkpt><trkpt lat="45.9101174" lon="8.7919291"><ele>489.0</ele><time>2026-04-02T16:24:54.521Z</time></trkpt><trkpt lat="45.9099729" lon="8.7919213"><ele>489.0</ele><time>2026-04-02T16:24:55.521Z</time></trkpt><trkpt lat="45.9098198" lon="8.7919098"><ele>489.0</ele><time>2026-04-02T16:24:56.522Z</time></trkpt><trkpt lat="45.9096639" lon="8.7918986"><ele>489.25</ele><time>2026-04-02T16:24:57.522Z</time></trkpt><trkpt lat="45.9095125" lon="8.7918875"><ele>489.5</ele><time>2026-04-02T16:24:58.522Z</time></trkpt><trkpt lat="45.909367" lon="8.7918783"><ele>489.75</ele><time>2026-04-02T16:24:59.522Z</time></trkpt><trkpt lat="45.9092238" lon="8.7918678"><ele>490.0</ele><time>2026-04-02T16:25:00.522Z</time></trkpt><trkpt lat="45.9090857" lon="8.7918619"><ele>490.0</ele><time>2026-04-02T16:25:01.522Z</time></trkpt><trkpt lat="45.9089496" lon="8.7918585"><ele>490.0</ele><time>2026-04-02T16:25:02.522Z</time></trkpt><trkpt lat="45.9088186" lon="8.7918435"><ele>490.0</ele><time>2026-04-02T16:25:03.522Z</time></trkpt><trkpt lat="45.9086983" lon="8.7918106"><ele>490.0</ele><time>2026-04-02T16:25:04.52Z</time></trkpt><trkpt lat="45.9085913" lon="8.7917453"><ele>487.6</ele><time>2026-04-02T16:25:05.524Z</time></trkpt><trkpt lat="45.90849" lon="8.7916765"><ele>485.2</ele><time>2026-04-02T16:25:06.521Z</time></trkpt><trkpt lat="45.9083971" lon="8.7916071"><ele>482.79999999999995</ele><time>2026-04-02T16:25:07.522Z</time></trkpt><trkpt lat="45.9083133" lon="8.791531"><ele>480.4</ele><time>2026-04-02T16:25:08.521Z</time></trkpt><trkpt lat="45.9082342" lon="8.791454"><ele>478.0</ele><time>2026-04-02T16:25:09.522Z</time></trkpt><trkpt lat="45.9081605" lon="8.7913768"><ele>477.2</ele><time>2026-04-02T16:25:10.521Z</time></trkpt><trkpt lat="45.9080798" lon="8.7912987"><ele>476.4</ele><time>2026-04-02T16:25:11.522Z</time></trkpt><trkpt lat="45.9079964" lon="8.7912097"><ele>475.59999999999997</ele><time>2026-04-02T16:25:12.521Z</time></trkpt><trkpt lat="45.9079071" lon="8.7911167"><ele>474.79999999999995</ele><time>2026-04-02T16:25:13.522Z</time></trkpt><trkpt lat="45.90781" lon="8.7910137"><ele>474.0</ele><time>2026-04-02T16:25:14.521Z</time></trkpt><trkpt lat="45.9077083" lon="8.7909016"><ele>472.5</ele><time>2026-04-02T16:25:15.521Z</time></trkpt><trkpt lat="45.9075966" lon="8.790779"><ele>471.0</ele><time>2026-04-02T16:25:16.522Z</time></trkpt><trkpt lat="45.9074731" lon="8.7906468"><ele>469.5</ele><time>2026-04-02T16:25:17.522Z</time></trkpt><trkpt lat="45.9073524" lon="8.7905137"><ele>468.0</ele><time>2026-04-02T16:25:18.521Z</time></trkpt><trkpt lat="45.9072329" lon="8.7903827"><ele>468.0</ele><time>2026-04-02T16:25:19.522Z</time></trkpt><trkpt lat="45.9071183" lon="8.7902515"><ele>468.0</ele><time>2026-04-02T16:25:20.521Z</time></trkpt><trkpt lat="45.9070083" lon="8.7901121"><ele>468.0</ele><time>2026-04-02T16:25:21.522Z</time></trkpt><trkpt lat="45.9069102" lon="8.7899616"><ele>468.0</ele><time>2026-04-02T16:25:22.521Z</time></trkpt><trkpt lat="45.9068238" lon="8.7898103"><ele>466.5</ele><time>2026-04-02T16:25:23.522Z</time></trkpt><trkpt lat="45.9067506" lon="8.7896715"><ele>465.0</ele><time>2026-04-02T16:25:24.521Z</time></trkpt><trkpt lat="45.9066617" lon="8.7895397"><ele>463.5</ele><time>2026-04-02T16:25:25.522Z</time></trkpt><trkpt lat="45.9065676" lon="8.7894326"><ele>462.0</ele><time>2026-04-02T16:25:26.522Z</time></trkpt><trkpt lat="45.9064764" lon="8.7893436"><ele>463.8</ele><time>2026-04-02T16:25:27.521Z</time></trkpt><trkpt lat="45.9064099" lon="8.7892565"><ele>465.6</ele><time>2026-04-02T16:25:28.522Z</time></trkpt><trkpt lat="45.9063708" lon="8.7891326"><ele>467.40000000000003</ele><time>2026-04-02T16:25:29.522Z</time></trkpt><trkpt lat="45.9063628" lon="8.7890012"><ele>469.20000000000005</ele><time>2026-04-02T16:25:30.521Z</time></trkpt><trkpt lat="45.9063545" lon="8.7888655"><ele>471.0</ele><time>2026-04-02T16:25:31.522Z</time></trkpt><trkpt lat="45.9063343" lon="8.7887266"><ele>471.0</ele><time>2026-04-02T16:25:32.522Z</time></trkpt><trkpt lat="45.9062617" lon="8.7885834"><ele>471.0</ele><time>2026-04-02T16:25:33.521Z</time></trkpt><trkpt lat="45.9061764" lon="8.7884449"><ele>471.0</ele><time>2026-04-02T16:25:34.521Z</time></trkpt><trkpt lat="45.9060884" lon="8.7883095"><ele>471.0</ele><time>2026-04-02T16:25:35.521Z</time></trkpt><trkpt lat="45.905995" lon="8.788183"><ele>471.25</ele><time>2026-04-02T16:25:36.522Z</time></trkpt><trkpt lat="45.9058979" lon="8.7880501"><ele>471.5</ele><time>2026-04-02T16:25:37.522Z</time></trkpt><trkpt lat="45.9057891" lon="8.7879182"><ele>471.75</ele><time>2026-04-02T16:25:38.522Z</time></trkpt><trkpt lat="45.9056652" lon="8.7877692"><ele>472.0</ele><time>2026-04-02T16:25:39.522Z</time></trkpt><trkpt lat="45.9055444" lon="8.7876126"><ele>472.0</ele><time>2026-04-02T16:25:40.521Z</time></trkpt><trkpt lat="45.9054363" lon="8.7874467"><ele>472.0</ele><time>2026-04-02T16:25:41.522Z</time></trkpt><trkpt lat="45.9053357" lon="8.7872823"><ele>472.0</ele><time>2026-04-02T16:25:42.521Z</time></trkpt><trkpt lat="45.9052398" lon="8.7871093"><ele>472.0</ele><time>2026-04-02T16:25:43.521Z</time></trkpt><trkpt lat="45.9051516" lon="8.7869256"><ele>472.0</ele><time>2026-04-02T16:25:44.521Z</time></trkpt><trkpt lat="45.9050675" lon="8.7867393"><ele>472.0</ele><time>2026-04-02T16:25:45.522Z</time></trkpt><trkpt lat="45.9049924" lon="8.7865631"><ele>472.25</ele><time>2026-04-02T16:25:46.522Z</time></trkpt><trkpt lat="45.904915" lon="8.7863819"><ele>472.5</ele><time>2026-04-02T16:25:47.521Z</time></trkpt><trkpt lat="45.9048452" lon="8.7862079"><ele>472.75</ele><time>2026-04-02T16:25:48.521Z</time></trkpt><trkpt lat="45.9047852" lon="8.7860334"><ele>473.0</ele><time>2026-04-02T16:25:49.522Z</time></trkpt><trkpt lat="45.9047417" lon="8.7858708"><ele>471.79999999999995</ele><time>2026-04-02T16:25:50.522Z</time></trkpt><trkpt lat="45.9047062" lon="8.7857308"><ele>470.59999999999997</ele><time>2026-04-02T16:25:51.522Z</time></trkpt><trkpt lat="45.9046675" lon="8.7856082"><ele>469.40000000000003</ele><time>2026-04-02T16:25:52.52Z</time></trkpt><trkpt lat="45.9046324" lon="8.7854934"><ele>468.20000000000005</ele><time>2026-04-02T16:25:53.521Z</time></trkpt><trkpt lat="45.90458" lon="8.7853871"><ele>467.0</ele><time>2026-04-02T16:25:56.521Z</time></trkpt><trkpt lat="45.9045699" lon="8.7852691"><ele>466.99999999999994</ele><time>2026-04-02T16:25:59.522Z</time></trkpt><trkpt lat="45.9046587" lon="8.7852245"><ele>467.0</ele><time>2026-04-02T16:26:02.521Z</time></trkpt><trkpt lat="45.9047217" lon="8.7852271"><ele>467.0</ele><time>2026-04-02T16:26:03.521Z</time></trkpt><trkpt lat="45.904786" lon="8.7852288"><ele>467.0</ele><time>2026-04-02T16:26:04.521Z</time></trkpt><trkpt lat="45.9048593" lon="8.7852124"><ele>466.99999999999994</ele><time>2026-04-02T16:26:05.522Z</time></trkpt><trkpt lat="45.9049425" lon="8.7851958"><ele>467.0</ele><time>2026-04-02T16:26:06.521Z</time></trkpt><trkpt lat="45.9050369" lon="8.785181"><ele>466.6</ele><time>2026-04-02T16:26:07.522Z</time></trkpt><trkpt lat="45.9051436" lon="8.7851583"><ele>466.20000000000005</ele><time>2026-04-02T16:26:08.521Z</time></trkpt><trkpt lat="45.9052471" lon="8.7851455"><ele>465.8</ele><time>2026-04-02T16:26:09.522Z</time></trkpt><trkpt lat="45.9053492" lon="8.7851281"><ele>465.4</ele><time>2026-04-02T16:26:10.521Z</time></trkpt><trkpt lat="45.9054504" lon="8.7851156"><ele>465.0</ele><time>2026-04-02T16:26:11.522Z</time></trkpt><trkpt lat="45.9055612" lon="8.7851116"><ele>465.0</ele><time>2026-04-02T16:26:12.522Z</time></trkpt><trkpt lat="45.9056709" lon="8.7851311"><ele>465.0</ele><time>2026-04-02T16:26:13.521Z</time></trkpt><trkpt lat="45.9057946" lon="8.7851593"><ele>465.0</ele><time>2026-04-02T16:26:14.521Z</time></trkpt><trkpt lat="45.9059176" lon="8.7851917"><ele>465.0</ele><time>2026-04-02T16:26:15.521Z</time></trkpt><trkpt lat="45.9060409" lon="8.7852285"><ele>463.2</ele><time>2026-04-02T16:26:16.52Z</time></trkpt><trkpt lat="45.9061517" lon="8.7852642"><ele>461.4</ele><time>2026-04-02T16:26:17.521Z</time></trkpt><trkpt lat="45.9062613" lon="8.7852918"><ele>459.6</ele><time>2026-04-02T16:26:18.522Z</time></trkpt><trkpt lat="45.9063491" lon="8.7852936"><ele>457.8</ele><time>2026-04-02T16:26:19.521Z</time></trkpt><trkpt lat="45.9064355" lon="8.7852643"><ele>456.0</ele><time>2026-04-02T16:26:20.522Z</time></trkpt><trkpt lat="45.9064897" lon="8.7851662"><ele>455.75</ele><time>2026-04-02T16:26:21.521Z</time></trkpt><trkpt lat="45.9065355" lon="8.7850319"><ele>455.5</ele><time>2026-04-02T16:26:22.522Z</time></trkpt><trkpt lat="45.9065582" lon="8.7848852"><ele>455.25</ele><time>2026-04-02T16:26:23.521Z</time></trkpt><trkpt lat="45.9065739" lon="8.7847017"><ele>455.0</ele><time>2026-04-02T16:26:24.521Z</time></trkpt><trkpt lat="45.9065656" lon="8.7845274"><ele>455.5</ele><time>2026-04-02T16:26:25.521Z</time></trkpt><trkpt lat="45.9065511" lon="8.7843384"><ele>456.0</ele><time>2026-04-02T16:26:26.522Z</time></trkpt><trkpt lat="45.9065203" lon="8.7841519"><ele>456.5</ele><time>2026-04-02T16:26:27.521Z</time></trkpt><trkpt lat="45.9064717" lon="8.7839786"><ele>457.0</ele><time>2026-04-02T16:26:28.522Z</time></trkpt><trkpt lat="45.9063932" lon="8.7838052"><ele>457.0</ele><time>2026-04-02T16:26:29.521Z</time></trkpt><trkpt lat="45.9062978" lon="8.7836486"><ele>457.0</ele><time>2026-04-02T16:26:30.522Z</time></trkpt><trkpt lat="45.9062109" lon="8.7834983"><ele>457.0</ele><time>2026-04-02T16:26:31.521Z</time></trkpt><trkpt lat="45.9061202" lon="8.7833594"><ele>457.0</ele><time>2026-04-02T16:26:32.521Z</time></trkpt><trkpt lat="45.9060472" lon="8.7832162"><ele>457.20000000000005</ele><time>2026-04-02T16:26:33.521Z</time></trkpt><trkpt lat="45.9059788" lon="8.7830814"><ele>457.40000000000003</ele><time>2026-04-02T16:26:34.522Z</time></trkpt><trkpt lat="45.9059088" lon="8.7829796"><ele>457.59999999999997</ele><time>2026-04-02T16:26:35.522Z</time></trkpt><trkpt lat="45.9058307" lon="8.7829271"><ele>457.79999999999995</ele><time>2026-04-02T16:26:36.522Z</time></trkpt><trkpt lat="45.9057402" lon="8.7829138"><ele>458.0</ele><time>2026-04-02T16:26:37.522Z</time></trkpt><trkpt lat="45.9056443" lon="8.7829438"><ele>456.79999999999995</ele><time>2026-04-02T16:26:38.522Z</time></trkpt><trkpt lat="45.9055568" lon="8.7830053"><ele>455.59999999999997</ele><time>2026-04-02T16:26:39.522Z</time></trkpt><trkpt lat="45.9054714" lon="8.7830504"><ele>454.40000000000003</ele><time>2026-04-02T16:26:40.521Z</time></trkpt><trkpt lat="45.9053796" lon="8.7830583"><ele>453.20000000000005</ele><time>2026-04-02T16:26:41.521Z</time></trkpt><trkpt lat="45.9052864" lon="8.783023"><ele>452.0</ele><time>2026-04-02T16:26:42.522Z</time></trkpt><trkpt lat="45.9051957" lon="8.7829358"><ele>452.0</ele><time>2026-04-02T16:26:43.522Z</time></trkpt><trkpt lat="45.9051139" lon="8.7828338"><ele>452.0</ele><time>2026-04-02T16:26:44.521Z</time></trkpt><trkpt lat="45.9050221" lon="8.7827283"><ele>452.0</ele><time>2026-04-02T16:26:45.521Z</time></trkpt><trkpt lat="45.9049081" lon="8.7826436"><ele>452.0</ele><time>2026-04-02T16:26:46.521Z</time></trkpt><trkpt lat="45.904795" lon="8.782588"><ele>448.8</ele><time>2026-04-02T16:26:47.521Z</time></trkpt><trkpt lat="45.9046998" lon="8.7825515"><ele>445.6</ele><time>2026-04-02T16:26:48.521Z</time></trkpt><trkpt lat="45.9046193" lon="8.7825202"><ele>442.40000000000003</ele><time>2026-04-02T16:26:49.522Z</time></trkpt><trkpt lat="45.9045524" lon="8.7824846"><ele>439.20000000000005</ele><time>2026-04-02T16:26:50.522Z</time></trkpt><trkpt lat="45.9045021" lon="8.7823421"><ele>436.0</ele><time>2026-04-02T16:26:52.521Z</time></trkpt><trkpt lat="45.9045829" lon="8.7822498"><ele>436.00000000000006</ele><time>2026-04-02T16:26:54.522Z</time></trkpt><trkpt lat="45.9046474" lon="8.7822692"><ele>436.0</ele><time>2026-04-02T16:26:55.522Z</time></trkpt><trkpt lat="45.9047204" lon="8.7823366"><ele>436.0</ele><time>2026-04-02T16:26:56.521Z</time></trkpt><trkpt lat="45.9048028" lon="8.7823993"><ele>436.0</ele><time>2026-04-02T16:26:57.522Z</time></trkpt><trkpt lat="45.9048898" lon="8.782437"><ele>436.00000000000006</ele><time>2026-04-02T16:26:58.522Z</time></trkpt><trkpt lat="45.9049872" lon="8.7824714"><ele>436.0</ele><time>2026-04-02T16:26:59.522Z</time></trkpt><trkpt lat="45.9050917" lon="8.7825082"><ele>435.75</ele><time>2026-04-02T16:27:00.522Z</time></trkpt><trkpt lat="45.9052039" lon="8.7825218"><ele>435.5</ele><time>2026-04-02T16:27:01.522Z</time></trkpt><trkpt lat="45.9053331" lon="8.7824776"><ele>435.25</ele><time>2026-04-02T16:27:02.522Z</time></trkpt><trkpt lat="45.9054629" lon="8.7823924"><ele>435.0</ele><time>2026-04-02T16:27:03.521Z</time></trkpt><trkpt lat="45.9055891" lon="8.7823225"><ele>435.0</ele><time>2026-04-02T16:27:04.521Z</time></trkpt><trkpt lat="45.9057151" lon="8.7822741"><ele>435.0</ele><time>2026-04-02T16:27:05.521Z</time></trkpt><trkpt lat="45.9058268" lon="8.7822307"><ele>435.0</ele><time>2026-04-02T16:27:06.521Z</time></trkpt><trkpt lat="45.9059309" lon="8.7821823"><ele>435.0</ele><time>2026-04-02T16:27:07.521Z</time></trkpt><trkpt lat="45.906025" lon="8.7821094"><ele>435.75</ele><time>2026-04-02T16:27:08.522Z</time></trkpt><trkpt lat="45.9061055" lon="8.7820063"><ele>436.5</ele><time>2026-04-02T16:27:09.522Z</time></trkpt><trkpt lat="45.9061779" lon="8.7818885"><ele>437.25</ele><time>2026-04-02T16:27:10.52Z</time></trkpt><trkpt lat="45.9061901" lon="8.7816965"><ele>438.0</ele><time>2026-04-02T16:27:11.522Z</time></trkpt><trkpt lat="45.9061934" lon="8.7815445"><ele>438.0</ele><time>2026-04-02T16:27:12.521Z</time></trkpt><trkpt lat="45.9061931" lon="8.7814019"><ele>438.0</ele><time>2026-04-02T16:27:13.522Z</time></trkpt><trkpt lat="45.9062002" lon="8.7812803"><ele>438.0</ele><time>2026-04-02T16:27:14.521Z</time></trkpt><trkpt lat="45.90627" lon="8.7812124"><ele>438.0</ele><time>2026-04-02T16:27:15.522Z</time></trkpt><trkpt lat="45.9063402" lon="8.781173"><ele>438.0</ele><time>2026-04-02T16:27:16.521Z</time></trkpt><trkpt lat="45.9064342" lon="8.7811373"><ele>438.0</ele><time>2026-04-02T16:27:17.521Z</time></trkpt><trkpt lat="45.9065371" lon="8.7810787"><ele>438.75</ele><time>2026-04-02T16:27:18.522Z</time></trkpt><trkpt lat="45.9066536" lon="8.7809997"><ele>439.5</ele><time>2026-04-02T16:27:19.521Z</time></trkpt><trkpt lat="45.9067631" lon="8.7808847"><ele>440.25</ele><time>2026-04-02T16:27:20.522Z</time></trkpt><trkpt lat="45.9068606" lon="8.7807252"><ele>441.0</ele><time>2026-04-02T16:27:21.521Z</time></trkpt><trkpt lat="45.9069427" lon="8.7805122"><ele>441.0</ele><time>2026-04-02T16:27:22.522Z</time></trkpt><trkpt lat="45.9070156" lon="8.7802946"><ele>441.0</ele><time>2026-04-02T16:27:23.521Z</time></trkpt><trkpt lat="45.9070762" lon="8.7800915"><ele>441.0</ele><time>2026-04-02T16:27:24.521Z</time></trkpt><trkpt lat="45.9071172" lon="8.7799021"><ele>437.6</ele><time>2026-04-02T16:27:25.522Z</time></trkpt><trkpt lat="45.9071385" lon="8.779745"><ele>434.20000000000005</ele><time>2026-04-02T16:27:26.522Z</time></trkpt><trkpt lat="45.9071601" lon="8.7796126"><ele>430.79999999999995</ele><time>2026-04-02T16:27:27.522Z</time></trkpt><trkpt lat="45.9072038" lon="8.779512"><ele>427.4</ele><time>2026-04-02T16:27:28.521Z</time></trkpt><trkpt lat="45.9072769" lon="8.779455"><ele>424.0</ele><time>2026-04-02T16:27:29.522Z</time></trkpt><trkpt lat="45.9073668" lon="8.7794154"><ele>422.75</ele><time>2026-04-02T16:27:30.522Z</time></trkpt><trkpt lat="45.9074659" lon="8.7793276"><ele>421.5</ele><time>2026-04-02T16:27:31.522Z</time></trkpt><trkpt lat="45.9075584" lon="8.7791946"><ele>420.25</ele><time>2026-04-02T16:27:32.522Z</time></trkpt><trkpt lat="45.9076301" lon="8.779031"><ele>419.0</ele><time>2026-04-02T16:27:33.521Z</time></trkpt><trkpt lat="45.9076952" lon="8.7789034"><ele>419.0</ele><time>2026-04-02T16:27:34.522Z</time></trkpt><trkpt lat="45.9077659" lon="8.7788154"><ele>419.0</ele><time>2026-04-02T16:27:35.521Z</time></trkpt><trkpt lat="45.9078512" lon="8.7787775"><ele>419.0</ele><time>2026-04-02T16:27:36.522Z</time></trkpt><trkpt lat="45.9079394" lon="8.778773"><ele>419.0</ele><time>2026-04-02T16:27:37.522Z</time></trkpt><trkpt lat="45.9080266" lon="8.7787401"><ele>419.0</ele><time>2026-04-02T16:27:38.521Z</time></trkpt><trkpt lat="45.908109" lon="8.7786459"><ele>419.0</ele><time>2026-04-02T16:27:39.521Z</time></trkpt><trkpt lat="45.9081744" lon="8.778542"><ele>419.0</ele><time>2026-04-02T16:27:40.521Z</time></trkpt><trkpt lat="45.9082251" lon="8.778413"><ele>419.0</ele><time>2026-04-02T16:27:41.521Z</time></trkpt><trkpt lat="45.9082184" lon="8.7782592"><ele>419.0</ele><time>2026-04-02T16:27:42.522Z</time></trkpt><trkpt lat="45.9082729" lon="8.7781447"><ele>419.0</ele><time>2026-04-02T16:27:43.522Z</time></trkpt><trkpt lat="45.9083361" lon="8.7780431"><ele>415.0</ele><time>2026-04-02T16:27:44.52Z</time></trkpt><trkpt lat="45.9084161" lon="8.7779808"><ele>411.0</ele><time>2026-04-02T16:27:45.521Z</time></trkpt><trkpt lat="45.9085132" lon="8.7779518"><ele>407.0</ele><time>2026-04-02T16:27:46.521Z</time></trkpt><trkpt lat="45.9086242" lon="8.7779576"><ele>403.0</ele><time>2026-04-02T16:27:47.522Z</time></trkpt><trkpt lat="45.90873" lon="8.7779933"><ele>399.0</ele><time>2026-04-02T16:27:48.521Z</time></trkpt><trkpt lat="45.908825" lon="8.7780618"><ele>399.0</ele><time>2026-04-02T16:27:49.521Z</time></trkpt><trkpt lat="45.9089231" lon="8.7781661"><ele>399.0</ele><time>2026-04-02T16:27:50.521Z</time></trkpt><trkpt lat="45.9090313" lon="8.7782772"><ele>399.0</ele><time>2026-04-02T16:27:51.521Z</time></trkpt><trkpt lat="45.90914" lon="8.778374"><ele>399.0</ele><time>2026-04-02T16:27:52.522Z</time></trkpt><trkpt lat="45.9092625" lon="8.7784452"><ele>394.25</ele><time>2026-04-02T16:27:53.521Z</time></trkpt><trkpt lat="45.909386" lon="8.7785016"><ele>389.5</ele><time>2026-04-02T16:27:54.522Z</time></trkpt><trkpt lat="45.9094955" lon="8.7785533"><ele>384.75</ele><time>2026-04-02T16:27:55.522Z</time></trkpt><trkpt lat="45.909597" lon="8.7786108"><ele>380.0</ele><time>2026-04-02T16:27:56.522Z</time></trkpt><trkpt lat="45.9096903" lon="8.7786858"><ele>380.0</ele><time>2026-04-02T16:27:57.522Z</time></trkpt><trkpt lat="45.9097519" lon="8.7787881"><ele>380.0</ele><time>2026-04-02T16:27:58.522Z</time></trkpt><trkpt lat="45.9097905" lon="8.7789291"><ele>380.0</ele><time>2026-04-02T16:27:59.521Z</time></trkpt><trkpt lat="45.9098244" lon="8.7790983"><ele>380.0</ele><time>2026-04-02T16:28:00.522Z</time></trkpt><trkpt lat="45.9098504" lon="8.7792737"><ele>380.0</ele><time>2026-04-02T16:28:01.521Z</time></trkpt><trkpt lat="45.9098885" lon="8.7794336"><ele>383.5</ele><time>2026-04-02T16:28:02.522Z</time></trkpt><trkpt lat="45.9099459" lon="8.7795952"><ele>387.0</ele><time>2026-04-02T16:28:03.52Z</time></trkpt><trkpt lat="45.9100293" lon="8.7797348"><ele>390.5</ele><time>2026-04-02T16:28:04.522Z</time></trkpt><trkpt lat="45.9101109" lon="8.7798643"><ele>394.0</ele><time>2026-04-02T16:28:05.521Z</time></trkpt><trkpt lat="45.9101791" lon="8.7799807"><ele>387.75</ele><time>2026-04-02T16:28:06.522Z</time></trkpt><trkpt lat="45.9102418" lon="8.7801066"><ele>381.5</ele><time>2026-04-02T16:28:07.522Z</time></trkpt><trkpt lat="45.9102587" lon="8.7802596"><ele>375.25</ele><time>2026-04-02T16:28:08.522Z</time></trkpt><trkpt lat="45.9102214" lon="8.7804247"><ele>369.0</ele><time>2026-04-02T16:28:09.52Z</time></trkpt><trkpt lat="45.9102281" lon="8.7805883"><ele>369.0</ele><time>2026-04-02T16:28:10.522Z</time></trkpt><trkpt lat="45.9102211" lon="8.7807534"><ele>369.0</ele><time>2026-04-02T16:28:11.522Z</time></trkpt><trkpt lat="45.9102423" lon="8.7809215"><ele>369.0</ele><time>2026-04-02T16:28:12.522Z</time></trkpt><trkpt lat="45.9102843" lon="8.7810837"><ele>369.0</ele><time>2026-04-02T16:28:13.521Z</time></trkpt><trkpt lat="45.910385" lon="8.7811996"><ele>370.4</ele><time>2026-04-02T16:28:14.521Z</time></trkpt><trkpt lat="45.9104786" lon="8.7812847"><ele>371.79999999999995</ele><time>2026-04-02T16:28:15.522Z</time></trkpt><trkpt lat="45.9105786" lon="8.7813821"><ele>373.20000000000005</ele><time>2026-04-02T16:28:16.521Z</time></trkpt><trkpt lat="45.9106674" lon="8.7814948"><ele>374.6</ele><time>2026-04-02T16:28:17.522Z</time></trkpt><trkpt lat="45.9107266" lon="8.7816057"><ele>376.0</ele><time>2026-04-02T16:28:18.522Z</time></trkpt><trkpt lat="45.9108126" lon="8.7816785"><ele>372.5</ele><time>2026-04-02T16:28:19.521Z</time></trkpt><trkpt lat="45.9109126" lon="8.7817046"><ele>369.0</ele><time>2026-04-02T16:28:20.521Z</time></trkpt><trkpt lat="45.9110275" lon="8.7816659"><ele>365.5</ele><time>2026-04-02T16:28:21.521Z</time></trkpt><trkpt lat="45.911127" lon="8.7815562"><ele>362.0</ele><time>2026-04-02T16:28:22.521Z</time></trkpt><trkpt lat="45.9112017" lon="8.7814064"><ele>362.0</ele><time>2026-04-02T16:28:23.522Z</time></trkpt><trkpt lat="45.9112873" lon="8.7812687"><ele>362.0</ele><time>2026-04-02T16:28:24.522Z</time></trkpt><trkpt lat="45.9113352" lon="8.7811115"><ele>362.0</ele><time>2026-04-02T16:28:25.521Z</time></trkpt><trkpt lat="45.9112957" lon="8.7809473"><ele>362.0</ele><time>2026-04-02T16:28:26.521Z</time></trkpt><trkpt lat="45.9112601" lon="8.7807853"><ele>362.0</ele><time>2026-04-02T16:28:27.521Z</time></trkpt><trkpt lat="45.9111919" lon="8.7806566"><ele>362.0</ele><time>2026-04-02T16:28:28.521Z</time></trkpt><trkpt lat="45.9111275" lon="8.7805322"><ele>362.0</ele><time>2026-04-02T16:28:29.522Z</time></trkpt><trkpt lat="45.9110922" lon="8.7803846"><ele>362.0</ele><time>2026-04-02T16:28:30.522Z</time></trkpt><trkpt lat="45.9110775" lon="8.7802237"><ele>362.0</ele><time>2026-04-02T16:28:31.521Z</time></trkpt><trkpt lat="45.9110704" lon="8.7800387"><ele>362.0</ele><time>2026-04-02T16:28:32.521Z</time></trkpt><trkpt lat="45.9110569" lon="8.7798303"><ele>362.0</ele><time>2026-04-02T16:28:33.522Z</time></trkpt><trkpt lat="45.911033" lon="8.7796338"><ele>362.0</ele><time>2026-04-02T16:28:34.522Z</time></trkpt><trkpt lat="45.910999" lon="8.7794167"><ele>362.0</ele><time>2026-04-02T16:28:35.521Z</time></trkpt><trkpt lat="45.9109137" lon="8.7792047"><ele>361.25</ele><time>2026-04-02T16:28:36.522Z</time></trkpt><trkpt lat="45.9107795" lon="8.7791046"><ele>360.5</ele><time>2026-04-02T16:28:37.521Z</time></trkpt><trkpt lat="45.9107178" lon="8.7789489"><ele>359.75</ele><time>2026-04-02T16:28:38.521Z</time></trkpt><trkpt lat="45.9106614" lon="8.7787743"><ele>359.0</ele><time>2026-04-02T16:28:39.522Z</time></trkpt><trkpt lat="45.910611" lon="8.7785796"><ele>359.0</ele><time>2026-04-02T16:28:40.522Z</time></trkpt><trkpt lat="45.910589" lon="8.7783242"><ele>359.0</ele><time>2026-04-02T16:28:41.521Z</time></trkpt><trkpt lat="45.9105648" lon="8.778054"><ele>359.0</ele><time>2026-04-02T16:28:42.522Z</time></trkpt><trkpt lat="45.9105431" lon="8.7777863"><ele>359.33333333333337</ele><time>2026-04-02T16:28:43.522Z</time></trkpt><trkpt lat="45.9105309" lon="8.7775307"><ele>359.6666666666667</ele><time>2026-04-02T16:28:44.522Z</time></trkpt><trkpt lat="45.9105199" lon="8.7772848"><ele>360.0</ele><time>2026-04-02T16:28:45.522Z</time></trkpt><trkpt lat="45.9105107" lon="8.7770489"><ele>360.0</ele><time>2026-04-02T16:28:46.521Z</time></trkpt><trkpt lat="45.9104936" lon="8.7768203"><ele>360.0</ele><time>2026-04-02T16:28:47.521Z</time></trkpt><trkpt lat="45.910478" lon="8.7766033"><ele>360.0</ele><time>2026-04-02T16:28:48.522Z</time></trkpt><trkpt lat="45.9104636" lon="8.7763948"><ele>360.0</ele><time>2026-04-02T16:28:49.522Z</time></trkpt><trkpt lat="45.9104532" lon="8.7762009"><ele>360.0</ele><time>2026-04-02T16:28:50.522Z</time></trkpt><trkpt lat="45.9104558" lon="8.7760185"><ele>360.0</ele><time>2026-04-02T16:28:51.521Z</time></trkpt><trkpt lat="45.9104787" lon="8.7758468"><ele>360.0</ele><time>2026-04-02T16:28:52.521Z</time></trkpt><trkpt lat="45.9105277" lon="8.775683"><ele>357.25</ele><time>2026-04-02T16:28:53.521Z</time></trkpt><trkpt lat="45.9105973" lon="8.7755358"><ele>354.5</ele><time>2026-04-02T16:28:54.521Z</time></trkpt><trkpt lat="45.9106851" lon="8.7754128"><ele>351.75</ele><time>2026-04-02T16:28:55.522Z</time></trkpt><trkpt lat="45.9107914" lon="8.7753227"><ele>349.0</ele><time>2026-04-02T16:28:56.522Z</time></trkpt><trkpt lat="45.9109123" lon="8.7752609"><ele>348.0</ele><time>2026-04-02T16:28:57.521Z</time></trkpt><trkpt lat="45.9110363" lon="8.7752341"><ele>347.0</ele><time>2026-04-02T16:28:58.522Z</time></trkpt><trkpt lat="45.9111494" lon="8.7752203"><ele>346.0</ele><time>2026-04-02T16:28:59.521Z</time></trkpt><trkpt lat="45.911254" lon="8.7751893"><ele>345.0</ele><time>2026-04-02T16:29:00.521Z</time></trkpt><trkpt lat="45.9113619" lon="8.7751497"><ele>340.75</ele><time>2026-04-02T16:29:01.522Z</time></trkpt><trkpt lat="45.9114616" lon="8.7750705"><ele>336.5</ele><time>2026-04-02T16:29:02.522Z</time></trkpt><trkpt lat="45.9114485" lon="8.774836"><ele>332.25</ele><time>2026-04-02T16:29:03.521Z</time></trkpt><trkpt lat="45.9114455" lon="8.7746584"><ele>328.0</ele><time>2026-04-02T16:29:04.521Z</time></trkpt><trkpt lat="45.9114625" lon="8.7745196"><ele>328.0</ele><time>2026-04-02T16:29:05.522Z</time></trkpt><trkpt lat="45.9115012" lon="8.7743925"><ele>328.0</ele><time>2026-04-02T16:29:06.522Z</time></trkpt><trkpt lat="45.9115657" lon="8.7743164"><ele>328.0</ele><time>2026-04-02T16:29:07.52Z</time></trkpt><trkpt lat="45.9116437" lon="8.7742701"><ele>328.0</ele><time>2026-04-02T16:29:08.52Z</time></trkpt><trkpt lat="45.9117521" lon="8.7742973"><ele>328.0</ele><time>2026-04-02T16:29:09.521Z</time></trkpt><trkpt lat="45.9118659" lon="8.7743336"><ele>325.5</ele><time>2026-04-02T16:29:10.52Z</time></trkpt><trkpt lat="45.9119986" lon="8.7743845"><ele>323.0</ele><time>2026-04-02T16:29:11.519Z</time></trkpt><trkpt lat="45.9121355" lon="8.7744417"><ele>320.5</ele><time>2026-04-02T16:29:12.52Z</time></trkpt><trkpt lat="45.912267" lon="8.7744923"><ele>318.0</ele><time>2026-04-02T16:29:13.52Z</time></trkpt><trkpt lat="45.912389" lon="8.7745399"><ele>318.0</ele><time>2026-04-02T16:29:14.52Z</time></trkpt><trkpt lat="45.9125117" lon="8.7745613"><ele>318.0</ele><time>2026-04-02T16:29:15.521Z</time></trkpt><trkpt lat="45.9126366" lon="8.7745809"><ele>318.0</ele><time>2026-04-02T16:29:16.52Z</time></trkpt><trkpt lat="45.9127532" lon="8.7746023"><ele>318.0</ele><time>2026-04-02T16:29:17.521Z</time></trkpt><trkpt lat="45.9128664" lon="8.7746228"><ele>316.0</ele><time>2026-04-02T16:29:18.52Z</time></trkpt><trkpt lat="45.9129736" lon="8.7746396"><ele>314.0</ele><time>2026-04-02T16:29:19.521Z</time></trkpt><trkpt lat="45.9130772" lon="8.7746538"><ele>312.0</ele><time>2026-04-02T16:29:20.521Z</time></trkpt><trkpt lat="45.9131707" lon="8.774668"><ele>310.0</ele><time>2026-04-02T16:29:21.521Z</time></trkpt><trkpt lat="45.913256" lon="8.7746641"><ele>308.0</ele><time>2026-04-02T16:29:22.521Z</time></trkpt><trkpt lat="45.9133337" lon="8.7746401"><ele>306.6</ele><time>2026-04-02T16:29:23.521Z</time></trkpt><trkpt lat="45.9134062" lon="8.7745882"><ele>305.20000000000005</ele><time>2026-04-02T16:29:24.52Z</time></trkpt><trkpt lat="45.9134776" lon="8.7745165"><ele>303.8</ele><time>2026-04-02T16:29:25.521Z</time></trkpt><trkpt lat="45.9135438" lon="8.7744292"><ele>302.40000000000003</ele><time>2026-04-02T16:29:26.52Z</time></trkpt><trkpt lat="45.9136145" lon="8.7743339"><ele>301.0</ele><time>2026-04-02T16:29:27.521Z</time></trkpt><trkpt lat="45.9136973" lon="8.7742261"><ele>301.0</ele><time>2026-04-02T16:29:28.52Z</time></trkpt><trkpt lat="45.91378" lon="8.7741249"><ele>301.0</ele><time>2026-04-02T16:29:29.52Z</time></trkpt><trkpt lat="45.9138569" lon="8.7740214"><ele>301.0</ele><time>2026-04-02T16:29:30.521Z</time></trkpt><trkpt lat="45.9139316" lon="8.7739263"><ele>301.0</ele><time>2026-04-02T16:29:31.521Z</time></trkpt><trkpt lat="45.9139989" lon="8.7738389"><ele>301.0</ele><time>2026-04-02T16:29:32.521Z</time></trkpt><trkpt lat="45.914059" lon="8.7737611"><ele>301.0</ele><time>2026-04-02T16:29:33.521Z</time></trkpt><trkpt lat="45.9141118" lon="8.7736906"><ele>301.0</ele><time>2026-04-02T16:29:34.52Z</time></trkpt><trkpt lat="45.9141618" lon="8.7736249"><ele>301.0</ele><time>2026-04-02T16:29:35.52Z</time></trkpt><trkpt lat="45.9142386" lon="8.7735256"><ele>301.0</ele><time>2026-04-02T16:29:37.521Z</time></trkpt><trkpt lat="45.9142609" lon="8.7734302"><ele>301.0</ele><time>2026-04-02T16:29:39.52Z</time></trkpt><trkpt lat="45.9142088" lon="8.7733393"><ele>301.0</ele><time>2026-04-02T16:29:41.519Z</time></trkpt><trkpt lat="45.9141168" lon="8.7732587"><ele>301.0</ele><time>2026-04-02T16:29:43.52Z</time></trkpt><trkpt lat="45.9140077" lon="8.7731642"><ele>301.0</ele><time>2026-04-02T16:29:45.52Z</time></trkpt><trkpt lat="45.913952" lon="8.7731154"><ele>301.0</ele><time>2026-04-02T16:29:46.521Z</time></trkpt><trkpt lat="45.9138683" lon="8.7730366"><ele>301.0</ele><time>2026-04-02T16:29:48.521Z</time></trkpt><trkpt lat="45.9138032" lon="8.7729432"><ele>301.0</ele><time>2026-04-02T16:29:50.52Z</time></trkpt><trkpt lat="45.9138131" lon="8.7728084"><ele>301.0</ele><time>2026-04-02T16:29:52.52Z</time></trkpt><trkpt lat="45.9138638" lon="8.772678"><ele>301.0</ele><time>2026-04-02T16:29:54.521Z</time></trkpt><trkpt lat="45.9139292" lon="8.7725391"><ele>301.0</ele><time>2026-04-02T16:29:56.521Z</time></trkpt><trkpt lat="45.9140006" lon="8.7724068"><ele>301.0</ele><time>2026-04-02T16:29:58.52Z</time></trkpt><trkpt lat="45.9140554" lon="8.7722619"><ele>301.0</ele><time>2026-04-02T16:30:00.52Z</time></trkpt><trkpt lat="45.9140989" lon="8.7721101"><ele>301.0</ele><time>2026-04-02T16:30:02.521Z</time></trkpt><trkpt lat="45.914147" lon="8.7719441"><ele>301.0</ele><time>2026-04-02T16:30:04.521Z</time></trkpt><trkpt lat="45.914203" lon="8.7718014"><ele>301.0</ele><time>2026-04-02T16:30:06.521Z</time></trkpt><trkpt lat="45.914272" lon="8.7717097"><ele>301.0</ele><time>2026-04-02T16:30:08.52Z</time></trkpt><trkpt lat="45.9143501" lon="8.7716153"><ele>300.6</ele><time>2026-04-02T16:30:10.52Z</time></trkpt><trkpt lat="45.9144354" lon="8.7715196"><ele>300.20000000000005</ele><time>2026-04-02T16:30:12.52Z</time></trkpt><trkpt lat="45.9144834" lon="8.7713809"><ele>299.79999999999995</ele><time>2026-04-02T16:30:14.52Z</time></trkpt><trkpt lat="45.914511" lon="8.7712574"><ele>299.4</ele><time>2026-04-02T16:30:16.52Z</time></trkpt><trkpt lat="45.9145443" lon="8.7711728"><ele>299.0</ele><time>2026-04-02T16:30:22.521Z</time></trkpt><trkpt lat="45.9146259" lon="8.7711598"><ele>299.0</ele><time>2026-04-02T16:30:25.52Z</time></trkpt><trkpt lat="45.9147222" lon="8.7711511"><ele>299.0</ele><time>2026-04-02T16:30:27.521Z</time></trkpt><trkpt lat="45.9148217" lon="8.7711618"><ele>299.0</ele><time>2026-04-02T16:30:29.521Z</time></trkpt><trkpt lat="45.9149184" lon="8.7711359"><ele>299.0</ele><time>2026-04-02T16:30:31.52Z</time></trkpt><trkpt lat="45.9150165" lon="8.7710737"><ele>299.0</ele><time>2026-04-02T16:30:33.521Z</time></trkpt><trkpt lat="45.9151354" lon="8.7710652"><ele>298.6666666666667</ele><time>2026-04-02T16:30:35.521Z</time></trkpt><trkpt lat="45.915231" lon="8.7710567"><ele>298.33333333333337</ele><time>2026-04-02T16:30:37.52Z</time></trkpt><trkpt lat="45.9153136" lon="8.7710725"><ele>298.0</ele><time>2026-04-02T16:30:38.521Z</time></trkpt><trkpt lat="45.9154208" lon="8.7710992"><ele>297.6666666666667</ele><time>2026-04-02T16:30:40.52Z</time></trkpt><trkpt lat="45.9154883" lon="8.7711354"><ele>297.3333333333333</ele><time>2026-04-02T16:30:42.521Z</time></trkpt><trkpt lat="45.9155693" lon="8.7711568"><ele>297.0</ele><time>2026-04-02T16:30:44.52Z</time></trkpt><trkpt lat="45.9156372" lon="8.771205"><ele>297.0</ele><time>2026-04-02T16:30:46.52Z</time></trkpt><trkpt lat="45.9156982" lon="8.7712416"><ele>297.0</ele><time>2026-04-02T16:30:48.521Z</time></trkpt><trkpt lat="45.9157677" lon="8.7712529"><ele>297.0</ele><time>2026-04-02T16:30:50.52Z</time></trkpt><trkpt lat="45.91585" lon="8.7712619"><ele>297.0</ele><time>2026-04-02T16:30:52.52Z</time></trkpt><trkpt lat="45.9159298" lon="8.77128"><ele>297.0</ele><time>2026-04-02T16:30:56.521Z</time></trkpt><trkpt lat="45.9160131" lon="8.7712989"><ele>297.0</ele><time>2026-04-02T16:30:59.52Z</time></trkpt><trkpt lat="45.9160638" lon="8.7712344"><ele>296.3333333333333</ele><time>2026-04-02T16:31:24.52Z</time></trkpt><trkpt lat="45.916129" lon="8.7712103"><ele>295.6666666666667</ele><time>2026-04-02T16:31:26.519Z</time></trkpt><trkpt lat="45.9162021" lon="8.7712059"><ele>295.0</ele><time>2026-04-02T16:31:37.52Z</time></trkpt><trkpt lat="45.9162675" lon="8.7711501"><ele>294.33333333333337</ele><time>2026-04-02T16:31:40.519Z</time></trkpt><trkpt lat="45.9163482" lon="8.7711186"><ele>293.6666666666667</ele><time>2026-04-02T16:31:43.52Z</time></trkpt><trkpt lat="45.9164222" lon="8.7712013"><ele>293.0</ele><time>2026-04-02T16:31:45.52Z</time></trkpt><trkpt lat="45.9164821" lon="8.771307"><ele>293.0</ele><time>2026-04-02T16:31:48.52Z</time></trkpt><trkpt lat="45.9165631" lon="8.7713523"><ele>293.0</ele><time>2026-04-02T16:31:50.52Z</time></trkpt><trkpt lat="45.9166453" lon="8.7713716"><ele>293.0</ele><time>2026-04-02T16:31:52.519Z</time></trkpt><trkpt lat="45.9167323" lon="8.7713575"><ele>293.0</ele><time>2026-04-02T16:31:54.52Z</time></trkpt><trkpt lat="45.9168149" lon="8.7713382"><ele>293.0</ele><time>2026-04-02T16:31:56.52Z</time></trkpt><trkpt lat="45.9168919" lon="8.771295"><ele>293.0</ele><time>2026-04-02T16:31:58.519Z</time></trkpt><trkpt lat="45.9169591" lon="8.7712268"><ele>292.33333333333337</ele><time>2026-04-02T16:32:00.519Z</time></trkpt><trkpt lat="45.9170229" lon="8.7711693"><ele>291.6666666666667</ele><time>2026-04-02T16:32:02.519Z</time></trkpt><trkpt lat="45.9170957" lon="8.7711443"><ele>291.0</ele><time>2026-04-02T16:32:04.519Z</time></trkpt><trkpt lat="45.9171708" lon="8.771197"><ele>290.3333333333333</ele><time>2026-04-02T16:32:06.519Z</time></trkpt><trkpt lat="45.9172195" lon="8.7713211"><ele>289.66666666666663</ele><time>2026-04-02T16:32:08.519Z</time></trkpt><trkpt lat="45.9172605" lon="8.7714674"><ele>289.0</ele><time>2026-04-02T16:32:10.52Z</time></trkpt><trkpt lat="45.917278" lon="8.7716189"><ele>289.0</ele><time>2026-04-02T16:32:12.52Z</time></trkpt><trkpt lat="45.9172783" lon="8.7717927"><ele>289.0</ele><time>2026-04-02T16:32:14.52Z</time></trkpt><trkpt lat="45.9172849" lon="8.7718831"><ele>289.0</ele><time>2026-04-02T16:32:15.52Z</time></trkpt><trkpt lat="45.9173133" lon="8.7719757"><ele>289.0</ele><time>2026-04-02T16:32:16.52Z</time></trkpt><trkpt lat="45.9173493" lon="8.7720675"><ele>289.0</ele><time>2026-04-02T16:32:17.519Z</time></trkpt><trkpt lat="45.9173917" lon="8.7721584"><ele>289.0</ele><time>2026-04-02T16:32:18.52Z</time></trkpt><trkpt lat="45.917437" lon="8.7722483"><ele>288.57142857142856</ele><time>2026-04-02T16:32:19.519Z</time></trkpt><trkpt lat="45.917472" lon="8.7723314"><ele>288.1428571428571</ele><time>2026-04-02T16:32:20.52Z</time></trkpt><trkpt lat="45.9174934" lon="8.7724175"><ele>287.71428571428567</ele><time>2026-04-02T16:32:21.518Z</time></trkpt><trkpt lat="45.917502" lon="8.772508"><ele>287.2857142857143</ele><time>2026-04-02T16:32:22.52Z</time></trkpt><trkpt lat="45.9174931" lon="8.772601"><ele>286.85714285714283</ele><time>2026-04-02T16:32:23.519Z</time></trkpt><trkpt lat="45.9174727" lon="8.772691"><ele>286.4285714285714</ele><time>2026-04-02T16:32:24.52Z</time></trkpt><trkpt lat="45.9174348" lon="8.7728429"><ele>286.0</ele><time>2026-04-02T16:32:26.52Z</time></trkpt><trkpt lat="45.9174076" lon="8.7729506"><ele>285.16666666666663</ele><time>2026-04-02T16:32:28.52Z</time></trkpt><trkpt lat="45.9173565" lon="8.7730475"><ele>284.3333333333333</ele><time>2026-04-02T16:32:35.52Z</time></trkpt><trkpt lat="45.9172412" lon="8.7730315"><ele>283.5</ele><time>2026-04-02T16:32:37.52Z</time></trkpt><trkpt lat="45.9171795" lon="8.7730003"><ele>282.6666666666667</ele><time>2026-04-02T16:32:38.519Z</time></trkpt><trkpt lat="45.9171178" lon="8.7729728"><ele>281.83333333333337</ele><time>2026-04-02T16:32:39.519Z</time></trkpt><trkpt lat="45.9170521" lon="8.7729156"><ele>281.0</ele><time>2026-04-02T16:32:40.519Z</time></trkpt><trkpt lat="45.9169874" lon="8.7728556"><ele>281.0</ele><time>2026-04-02T16:32:41.52Z</time></trkpt><trkpt lat="45.9169106" lon="8.7728275"><ele>281.0</ele><time>2026-04-02T16:32:42.519Z</time></trkpt><trkpt lat="45.9168262" lon="8.7728493"><ele>281.0</ele><time>2026-04-02T16:32:43.519Z</time></trkpt><trkpt lat="45.9167539" lon="8.7728978"><ele>281.0</ele><time>2026-04-02T16:32:44.519Z</time></trkpt><trkpt lat="45.916683" lon="8.7729988"><ele>281.0</ele><time>2026-04-02T16:32:45.52Z</time></trkpt><trkpt lat="45.9166409" lon="8.7730864"><ele>281.0</ele><time>2026-04-02T16:32:46.519Z</time></trkpt><trkpt lat="45.91663" lon="8.7732107"><ele>282.6</ele><time>2026-04-02T16:32:47.52Z</time></trkpt><trkpt lat="45.9166314" lon="8.7733546"><ele>284.20000000000005</ele><time>2026-04-02T16:32:48.52Z</time></trkpt><trkpt lat="45.91665" lon="8.7734985"><ele>285.79999999999995</ele><time>2026-04-02T16:32:49.52Z</time></trkpt><trkpt lat="45.9166651" lon="8.7736342"><ele>287.4</ele><time>2026-04-02T16:32:50.519Z</time></trkpt><trkpt lat="45.9166858" lon="8.7737635"><ele>289.0</ele><time>2026-04-02T16:32:51.52Z</time></trkpt><trkpt lat="45.9166982" lon="8.7738923"><ele>289.0</ele><time>2026-04-02T16:32:52.518Z</time></trkpt><trkpt lat="45.916684" lon="8.7740178"><ele>289.0</ele><time>2026-04-02T16:32:53.52Z</time></trkpt><trkpt lat="45.9166395" lon="8.7741213"><ele>289.0</ele><time>2026-04-02T16:32:54.52Z</time></trkpt><trkpt lat="45.9165673" lon="8.7741964"><ele>289.0</ele><time>2026-04-02T16:32:55.52Z</time></trkpt><trkpt lat="45.9164776" lon="8.7742173"><ele>289.0</ele><time>2026-04-02T16:32:56.52Z</time></trkpt><trkpt lat="45.9163875" lon="8.7741808"><ele>289.0</ele><time>2026-04-02T16:32:57.519Z</time></trkpt><trkpt lat="45.916302" lon="8.7740951"><ele>289.0</ele><time>2026-04-02T16:32:58.519Z</time></trkpt><trkpt lat="45.9162181" lon="8.773984"><ele>289.0</ele><time>2026-04-02T16:32:59.52Z</time></trkpt><trkpt lat="45.9161384" lon="8.7738801"><ele>289.0</ele><time>2026-04-02T16:33:00.519Z</time></trkpt><trkpt lat="45.9160637" lon="8.7737996"><ele>289.0</ele><time>2026-04-02T16:33:01.52Z</time></trkpt><trkpt lat="45.9160094" lon="8.7737372"><ele>289.0</ele><time>2026-04-02T16:33:02.519Z</time></trkpt><trkpt lat="45.9159115" lon="8.7737084"><ele>289.4</ele><time>2026-04-02T16:33:04.519Z</time></trkpt><trkpt lat="45.9158154" lon="8.7738249"><ele>289.79999999999995</ele><time>2026-04-02T16:33:06.52Z</time></trkpt><trkpt lat="45.9157801" lon="8.7739237"><ele>290.20000000000005</ele><time>2026-04-02T16:33:07.518Z</time></trkpt><trkpt lat="45.9157459" lon="8.7740204"><ele>290.6</ele><time>2026-04-02T16:33:08.519Z</time></trkpt><trkpt lat="45.9157078" lon="8.774121"><ele>291.0</ele><time>2026-04-02T16:33:09.519Z</time></trkpt><trkpt lat="45.9157261" lon="8.7742655"><ele>289.6</ele><time>2026-04-02T16:33:10.519Z</time></trkpt><trkpt lat="45.9157641" lon="8.774384"><ele>288.20000000000005</ele><time>2026-04-02T16:33:11.519Z</time></trkpt><trkpt lat="45.9158165" lon="8.7744911"><ele>286.79999999999995</ele><time>2026-04-02T16:33:12.52Z</time></trkpt><trkpt lat="45.9158954" lon="8.7745784"><ele>285.4</ele><time>2026-04-02T16:33:13.52Z</time></trkpt><trkpt lat="45.9160004" lon="8.7746398"><ele>284.0</ele><time>2026-04-02T16:33:14.519Z</time></trkpt><trkpt lat="45.9161103" lon="8.7746786"><ele>283.0</ele><time>2026-04-02T16:33:15.52Z</time></trkpt><trkpt lat="45.916227" lon="8.7747253"><ele>282.0</ele><time>2026-04-02T16:33:16.519Z</time></trkpt><trkpt lat="45.916358" lon="8.7747739"><ele>281.0</ele><time>2026-04-02T16:33:17.519Z</time></trkpt><trkpt lat="45.9165017" lon="8.7748296"><ele>280.0</ele><time>2026-04-02T16:33:18.52Z</time></trkpt><trkpt lat="45.9166466" lon="8.7748843"><ele>278.3333333333333</ele><time>2026-04-02T16:33:19.52Z</time></trkpt><trkpt lat="45.9167917" lon="8.7749383"><ele>276.6666666666667</ele><time>2026-04-02T16:33:20.52Z</time></trkpt><trkpt lat="45.916938" lon="8.7749958"><ele>275.0</ele><time>2026-04-02T16:33:21.519Z</time></trkpt><trkpt lat="45.917088" lon="8.7750495"><ele>275.0</ele><time>2026-04-02T16:33:22.518Z</time></trkpt><trkpt lat="45.9172315" lon="8.7751038"><ele>275.0</ele><time>2026-04-02T16:33:23.52Z</time></trkpt><trkpt lat="45.9173705" lon="8.7751554"><ele>275.0</ele><time>2026-04-02T16:33:24.519Z</time></trkpt><trkpt lat="45.9175037" lon="8.7752062"><ele>275.0</ele><time>2026-04-02T16:33:25.52Z</time></trkpt><trkpt lat="45.9176225" lon="8.7752506"><ele>277.75</ele><time>2026-04-02T16:33:26.52Z</time></trkpt><trkpt lat="45.9177431" lon="8.7752696"><ele>280.5</ele><time>2026-04-02T16:33:27.518Z</time></trkpt><trkpt lat="45.9178639" lon="8.7752418"><ele>283.25</ele><time>2026-04-02T16:33:28.519Z</time></trkpt><trkpt lat="45.9179814" lon="8.7751576"><ele>286.0</ele><time>2026-04-02T16:33:29.518Z</time></trkpt><trkpt lat="45.9180861" lon="8.7750358"><ele>286.0</ele><time>2026-04-02T16:33:30.519Z</time></trkpt><trkpt lat="45.9181702" lon="8.7748526"><ele>286.0</ele><time>2026-04-02T16:33:31.518Z</time></trkpt><trkpt lat="45.9182557" lon="8.7746621"><ele>286.0</ele><time>2026-04-02T16:33:32.52Z</time></trkpt><trkpt lat="45.9183354" lon="8.7745069"><ele>286.0</ele><time>2026-04-02T16:33:33.519Z</time></trkpt><trkpt lat="45.918407" lon="8.7743774"><ele>286.2</ele><time>2026-04-02T16:33:34.52Z</time></trkpt><trkpt lat="45.918481" lon="8.7742856"><ele>286.40000000000003</ele><time>2026-04-02T16:33:35.519Z</time></trkpt><trkpt lat="45.9185669" lon="8.7742352"><ele>286.6</ele><time>2026-04-02T16:33:36.52Z</time></trkpt><trkpt lat="45.9186636" lon="8.7742186"><ele>286.8</ele><time>2026-04-02T16:33:37.52Z</time></trkpt><trkpt lat="45.9187688" lon="8.7742223"><ele>287.0</ele><time>2026-04-02T16:33:38.52Z</time></trkpt><trkpt lat="45.9188899" lon="8.7742363"><ele>287.0</ele><time>2026-04-02T16:33:39.519Z</time></trkpt><trkpt lat="45.9190155" lon="8.7742541"><ele>287.0</ele><time>2026-04-02T16:33:40.52Z</time></trkpt><trkpt lat="45.9191449" lon="8.7743044"><ele>287.0</ele><time>2026-04-02T16:33:41.52Z</time></trkpt><trkpt lat="45.9192831" lon="8.7743765"><ele>287.0</ele><time>2026-04-02T16:33:42.52Z</time></trkpt><trkpt lat="45.919423" lon="8.7744531"><ele>288.5</ele><time>2026-04-02T16:33:43.519Z</time></trkpt><trkpt lat="45.9195468" lon="8.7745161"><ele>290.0</ele><time>2026-04-02T16:33:44.52Z</time></trkpt><trkpt lat="45.9196565" lon="8.7745578"><ele>291.5</ele><time>2026-04-02T16:33:45.519Z</time></trkpt><trkpt lat="45.9197664" lon="8.7745735"><ele>293.0</ele><time>2026-04-02T16:33:46.518Z</time></trkpt><trkpt lat="45.9198804" lon="8.7745118"><ele>293.0</ele><time>2026-04-02T16:33:47.519Z</time></trkpt><trkpt lat="45.9199863" lon="8.7744692"><ele>293.0</ele><time>2026-04-02T16:33:48.519Z</time></trkpt><trkpt lat="45.9200857" lon="8.7744669"><ele>293.0</ele><time>2026-04-02T16:33:49.52Z</time></trkpt><trkpt lat="45.9201906" lon="8.7744938"><ele>293.0</ele><time>2026-04-02T16:33:50.519Z</time></trkpt><trkpt lat="45.9203063" lon="8.7745546"><ele>293.0</ele><time>2026-04-02T16:33:51.518Z</time></trkpt><trkpt lat="45.9204348" lon="8.7746206"><ele>293.25</ele><time>2026-04-02T16:33:52.52Z</time></trkpt><trkpt lat="45.9205628" lon="8.7746873"><ele>293.5</ele><time>2026-04-02T16:33:53.52Z</time></trkpt><trkpt lat="45.9206873" lon="8.7747502"><ele>293.75</ele><time>2026-04-02T16:33:54.518Z</time></trkpt><trkpt lat="45.9208199" lon="8.7748172"><ele>294.0</ele><time>2026-04-02T16:33:55.519Z</time></trkpt><trkpt lat="45.9209457" lon="8.7748777"><ele>291.75</ele><time>2026-04-02T16:33:56.52Z</time></trkpt><trkpt lat="45.9210641" lon="8.7749385"><ele>289.5</ele><time>2026-04-02T16:33:57.519Z</time></trkpt><trkpt lat="45.9211766" lon="8.7749997"><ele>287.25</ele><time>2026-04-02T16:33:58.52Z</time></trkpt><trkpt lat="45.9212808" lon="8.7750511"><ele>285.0</ele><time>2026-04-02T16:33:59.52Z</time></trkpt><trkpt lat="45.9213737" lon="8.7751176"><ele>285.0</ele><time>2026-04-02T16:34:00.519Z</time></trkpt><trkpt lat="45.921468" lon="8.7752146"><ele>285.0</ele><time>2026-04-02T16:34:01.52Z</time></trkpt><trkpt lat="45.9215626" lon="8.7753295"><ele>285.0</ele><time>2026-04-02T16:34:02.52Z</time></trkpt><trkpt lat="45.9216597" lon="8.7754552"><ele>285.0</ele><time>2026-04-02T16:34:03.52Z</time></trkpt><trkpt lat="45.9217561" lon="8.7755802"><ele>285.0</ele><time>2026-04-02T16:34:04.52Z</time></trkpt><trkpt lat="45.9218492" lon="8.775685"><ele>285.0</ele><time>2026-04-02T16:34:05.519Z</time></trkpt><trkpt lat="45.9219328" lon="8.7757847"><ele>285.0</ele><time>2026-04-02T16:34:06.519Z</time></trkpt><trkpt lat="45.9220038" lon="8.775899"><ele>285.0</ele><time>2026-04-02T16:34:07.52Z</time></trkpt><trkpt lat="45.922061" lon="8.7760497"><ele>286.75</ele><time>2026-04-02T16:34:08.519Z</time></trkpt><trkpt lat="45.9221122" lon="8.7762181"><ele>288.5</ele><time>2026-04-02T16:34:09.52Z</time></trkpt><trkpt lat="45.9221733" lon="8.7763985"><ele>290.25</ele><time>2026-04-02T16:34:10.52Z</time></trkpt><trkpt lat="45.9222279" lon="8.7765819"><ele>292.0</ele><time>2026-04-02T16:34:11.52Z</time></trkpt><trkpt lat="45.9222776" lon="8.776747"><ele>292.0</ele><time>2026-04-02T16:34:12.519Z</time></trkpt><trkpt lat="45.9223267" lon="8.7768997"><ele>292.0</ele><time>2026-04-02T16:34:13.52Z</time></trkpt><trkpt lat="45.9223737" lon="8.7770513"><ele>292.0</ele><time>2026-04-02T16:34:14.519Z</time></trkpt><trkpt lat="45.9224089" lon="8.7771698"><ele>292.0</ele><time>2026-04-02T16:34:15.519Z</time></trkpt><trkpt lat="45.9224459" lon="8.7772803"><ele>292.0</ele><time>2026-04-02T16:34:16.519Z</time></trkpt><trkpt lat="45.9224759" lon="8.7773677"><ele>292.0</ele><time>2026-04-02T16:34:17.52Z</time></trkpt><trkpt lat="45.9224512" lon="8.7775528"><ele>292.0</ele><time>2026-04-02T16:34:19.52Z</time></trkpt><trkpt lat="45.9223967" lon="8.7776458"><ele>292.0</ele><time>2026-04-02T16:34:20.519Z</time></trkpt><trkpt lat="45.9223232" lon="8.7777333"><ele>292.0</ele><time>2026-04-02T16:34:21.519Z</time></trkpt><trkpt lat="45.9222384" lon="8.7778264"><ele>292.0</ele><time>2026-04-02T16:34:22.52Z</time></trkpt><trkpt lat="45.9221454" lon="8.7779411"><ele>293.25</ele><time>2026-04-02T16:34:23.519Z</time></trkpt><trkpt lat="45.9220451" lon="8.7780681"><ele>294.5</ele><time>2026-04-02T16:34:24.519Z</time></trkpt><trkpt lat="45.921935" lon="8.7782046"><ele>295.75</ele><time>2026-04-02T16:34:25.519Z</time></trkpt><trkpt lat="45.9218147" lon="8.7783529"><ele>297.0</ele><time>2026-04-02T16:34:26.52Z</time></trkpt><trkpt lat="45.9216853" lon="8.7785032"><ele>299.0</ele><time>2026-04-02T16:34:27.519Z</time></trkpt><trkpt lat="45.9215608" lon="8.7786409"><ele>301.0</ele><time>2026-04-02T16:34:28.52Z</time></trkpt><trkpt lat="45.9214499" lon="8.7787651"><ele>303.0</ele><time>2026-04-02T16:34:29.52Z</time></trkpt><trkpt lat="45.921359" lon="8.7788913"><ele>305.0</ele><time>2026-04-02T16:34:30.518Z</time></trkpt><trkpt lat="45.9212946" lon="8.7790353"><ele>305.0</ele><time>2026-04-02T16:34:31.52Z</time></trkpt><trkpt lat="45.9212609" lon="8.7792116"><ele>305.0</ele><time>2026-04-02T16:34:32.519Z</time></trkpt><trkpt lat="45.9212657" lon="8.7794046"><ele>305.0</ele><time>2026-04-02T16:34:33.52Z</time></trkpt><trkpt lat="45.9213027" lon="8.7796147"><ele>305.0</ele><time>2026-04-02T16:34:34.519Z</time></trkpt><trkpt lat="45.9213464" lon="8.7798042"><ele>305.5</ele><time>2026-04-02T16:34:35.52Z</time></trkpt><trkpt lat="45.9213753" lon="8.7799584"><ele>306.0</ele><time>2026-04-02T16:34:36.519Z</time></trkpt><trkpt lat="45.921377" lon="8.7801059"><ele>306.5</ele><time>2026-04-02T16:34:37.52Z</time></trkpt><trkpt lat="45.9213556" lon="8.7802661"><ele>307.0</ele><time>2026-04-02T16:34:38.519Z</time></trkpt><trkpt lat="45.921314" lon="8.7804326"><ele>307.0</ele><time>2026-04-02T16:34:39.519Z</time></trkpt><trkpt lat="45.9212531" lon="8.7806005"><ele>307.0</ele><time>2026-04-02T16:34:40.52Z</time></trkpt><trkpt lat="45.9211891" lon="8.7807673"><ele>307.0</ele><time>2026-04-02T16:34:41.519Z</time></trkpt><trkpt lat="45.9211332" lon="8.7809207"><ele>307.0</ele><time>2026-04-02T16:34:42.52Z</time></trkpt><trkpt lat="45.9210485" lon="8.7810669"><ele>306.0</ele><time>2026-04-02T16:34:43.519Z</time></trkpt><trkpt lat="45.9209427" lon="8.7812081"><ele>305.0</ele><time>2026-04-02T16:34:44.52Z</time></trkpt><trkpt lat="45.9208237" lon="8.7813457"><ele>304.0</ele><time>2026-04-02T16:34:45.52Z</time></trkpt><trkpt lat="45.920709" lon="8.7814763"><ele>303.0</ele><time>2026-04-02T16:34:46.519Z</time></trkpt><trkpt lat="45.9206177" lon="8.7815467"><ele>305.5</ele><time>2026-04-02T16:34:47.52Z</time></trkpt><trkpt lat="45.9205188" lon="8.7815841"><ele>308.0</ele><time>2026-04-02T16:34:48.52Z</time></trkpt><trkpt lat="45.9204052" lon="8.7815864"><ele>310.5</ele><time>2026-04-02T16:34:49.518Z</time></trkpt><trkpt lat="45.9202812" lon="8.7815762"><ele>313.0</ele><time>2026-04-02T16:34:50.518Z</time></trkpt><trkpt lat="45.9201541" lon="8.7815783"><ele>314.2</ele><time>2026-04-02T16:34:51.518Z</time></trkpt><trkpt lat="45.9200349" lon="8.7815771"><ele>315.4</ele><time>2026-04-02T16:34:52.518Z</time></trkpt><trkpt lat="45.9199196" lon="8.7815627"><ele>316.59999999999997</ele><time>2026-04-02T16:34:53.519Z</time></trkpt><trkpt lat="45.9198281" lon="8.7815492"><ele>317.8</ele><time>2026-04-02T16:34:54.518Z</time></trkpt><trkpt lat="45.9197645" lon="8.781492"><ele>319.0</ele><time>2026-04-02T16:34:55.518Z</time></trkpt><trkpt lat="45.9196683" lon="8.7813596"><ele>319.0</ele><time>2026-04-02T16:34:56.519Z</time></trkpt><trkpt lat="45.9195721" lon="8.7812806"><ele>319.0</ele><time>2026-04-02T16:34:57.519Z</time></trkpt><trkpt lat="45.9194916" lon="8.7811812"><ele>319.0</ele><time>2026-04-02T16:34:58.518Z</time></trkpt><trkpt lat="45.9194197" lon="8.7810491"><ele>319.0</ele><time>2026-04-02T16:34:59.518Z</time></trkpt><trkpt lat="45.9193523" lon="8.7808998"><ele>321.0</ele><time>2026-04-02T16:35:00.519Z</time></trkpt><trkpt lat="45.9192795" lon="8.7807442"><ele>323.0</ele><time>2026-04-02T16:35:01.519Z</time></trkpt><trkpt lat="45.9191844" lon="8.7806024"><ele>325.0</ele><time>2026-04-02T16:35:02.518Z</time></trkpt><trkpt lat="45.9190714" lon="8.7804881"><ele>327.0</ele><time>2026-04-02T16:35:03.518Z</time></trkpt><trkpt lat="45.9189479" lon="8.7803911"><ele>328.0</ele><time>2026-04-02T16:35:04.519Z</time></trkpt><trkpt lat="45.9188425" lon="8.7803106"><ele>329.0</ele><time>2026-04-02T16:35:05.519Z</time></trkpt><trkpt lat="45.9187494" lon="8.7802408"><ele>330.0</ele><time>2026-04-02T16:35:06.519Z</time></trkpt><trkpt lat="45.9186664" lon="8.7801847"><ele>331.0</ele><time>2026-04-02T16:35:07.519Z</time></trkpt><trkpt lat="45.91859" lon="8.7801384"><ele>332.0</ele><time>2026-04-02T16:35:08.518Z</time></trkpt><trkpt lat="45.9185027" lon="8.780119"><ele>333.0</ele><time>2026-04-02T16:35:09.519Z</time></trkpt><trkpt lat="45.91841" lon="8.7801416"><ele>334.0</ele><time>2026-04-02T16:35:10.519Z</time></trkpt><trkpt lat="45.9183125" lon="8.7801947"><ele>335.0</ele><time>2026-04-02T16:35:11.518Z</time></trkpt><trkpt lat="45.9182071" lon="8.7802805"><ele>336.0</ele><time>2026-04-02T16:35:12.517Z</time></trkpt><trkpt lat="45.918084" lon="8.7803784"><ele>336.0</ele><time>2026-04-02T16:35:13.518Z</time></trkpt><trkpt lat="45.9179491" lon="8.7804919"><ele>336.0</ele><time>2026-04-02T16:35:14.519Z</time></trkpt><trkpt lat="45.9178163" lon="8.7806034"><ele>336.0</ele><time>2026-04-02T16:35:15.518Z</time></trkpt><trkpt lat="45.9177019" lon="8.7806958"><ele>336.0</ele><time>2026-04-02T16:35:16.519Z</time></trkpt><trkpt lat="45.9176021" lon="8.7807774"><ele>336.8</ele><time>2026-04-02T16:35:17.518Z</time></trkpt><trkpt lat="45.9175172" lon="8.7808492"><ele>337.6</ele><time>2026-04-02T16:35:18.519Z</time></trkpt><trkpt lat="45.9174444" lon="8.7809306"><ele>338.4</ele><time>2026-04-02T16:35:19.518Z</time></trkpt><trkpt lat="45.9173844" lon="8.7810292"><ele>339.2</ele><time>2026-04-02T16:35:20.519Z</time></trkpt><trkpt lat="45.9173366" lon="8.781151"><ele>340.0</ele><time>2026-04-02T16:35:21.517Z</time></trkpt><trkpt lat="45.9173102" lon="8.7812906"><ele>340.6</ele><time>2026-04-02T16:35:22.519Z</time></trkpt><trkpt lat="45.917294" lon="8.7814431"><ele>341.2</ele><time>2026-04-02T16:35:23.519Z</time></trkpt><trkpt lat="45.9172805" lon="8.781597"><ele>341.79999999999995</ele><time>2026-04-02T16:35:24.519Z</time></trkpt><trkpt lat="45.9172621" lon="8.7817308"><ele>342.4</ele><time>2026-04-02T16:35:25.518Z</time></trkpt><trkpt lat="45.9172419" lon="8.781845"><ele>343.0</ele><time>2026-04-02T16:35:26.518Z</time></trkpt><trkpt lat="45.9171997" lon="8.7819277"><ele>344.0</ele><time>2026-04-02T16:35:27.518Z</time></trkpt><trkpt lat="45.9171326" lon="8.7819814"><ele>345.0</ele><time>2026-04-02T16:35:28.519Z</time></trkpt><trkpt lat="45.9170488" lon="8.7819915"><ele>346.0</ele><time>2026-04-02T16:35:29.518Z</time></trkpt><trkpt lat="45.9169532" lon="8.7819853"><ele>347.0</ele><time>2026-04-02T16:35:30.518Z</time></trkpt><trkpt lat="45.9168482" lon="8.7819703"><ele>348.0</ele><time>2026-04-02T16:35:31.518Z</time></trkpt><trkpt lat="45.9167328" lon="8.78194"><ele>348.25</ele><time>2026-04-02T16:35:32.518Z</time></trkpt><trkpt lat="45.9166104" lon="8.7818947"><ele>348.5</ele><time>2026-04-02T16:35:33.518Z</time></trkpt><trkpt lat="45.9164794" lon="8.7818385"><ele>348.75</ele><time>2026-04-02T16:35:34.518Z</time></trkpt><trkpt lat="45.9163362" lon="8.7817808"><ele>349.0</ele><time>2026-04-02T16:35:35.518Z</time></trkpt><trkpt lat="45.9161787" lon="8.7817172"><ele>348.5</ele><time>2026-04-02T16:35:36.519Z</time></trkpt><trkpt lat="45.9160285" lon="8.7816524"><ele>348.0</ele><time>2026-04-02T16:35:37.518Z</time></trkpt><trkpt lat="45.9158993" lon="8.7815869"><ele>347.5</ele><time>2026-04-02T16:35:38.519Z</time></trkpt><trkpt lat="45.9157875" lon="8.7815413"><ele>347.0</ele><time>2026-04-02T16:35:39.518Z</time></trkpt><trkpt lat="45.9156838" lon="8.7815196"><ele>347.8</ele><time>2026-04-02T16:35:40.518Z</time></trkpt><trkpt lat="45.9155893" lon="8.7815117"><ele>348.6</ele><time>2026-04-02T16:35:41.519Z</time></trkpt><trkpt lat="45.9155047" lon="8.7815451"><ele>349.40000000000003</ele><time>2026-04-02T16:35:42.518Z</time></trkpt><trkpt lat="45.9154323" lon="8.7816203"><ele>350.20000000000005</ele><time>2026-04-02T16:35:43.518Z</time></trkpt><trkpt lat="45.9153704" lon="8.7817152"><ele>351.0</ele><time>2026-04-02T16:35:44.518Z</time></trkpt><trkpt lat="45.9153171" lon="8.7818268"><ele>351.6</ele><time>2026-04-02T16:35:45.519Z</time></trkpt><trkpt lat="45.9152617" lon="8.7819407"><ele>352.20000000000005</ele><time>2026-04-02T16:35:46.518Z</time></trkpt><trkpt lat="45.9152214" lon="8.7820751"><ele>352.79999999999995</ele><time>2026-04-02T16:35:47.519Z</time></trkpt><trkpt lat="45.9152003" lon="8.782227"><ele>353.4</ele><time>2026-04-02T16:35:48.518Z</time></trkpt><trkpt lat="45.9151991" lon="8.782394"><ele>354.0</ele><time>2026-04-02T16:35:49.518Z</time></trkpt><trkpt lat="45.9152277" lon="8.7825693"><ele>356.79999999999995</ele><time>2026-04-02T16:35:50.517Z</time></trkpt><trkpt lat="45.9152787" lon="8.7827464"><ele>359.59999999999997</ele><time>2026-04-02T16:35:51.518Z</time></trkpt><trkpt lat="45.9153337" lon="8.7828815"><ele>362.4</ele><time>2026-04-02T16:35:52.518Z</time></trkpt><trkpt lat="45.9153731" lon="8.7830045"><ele>365.2</ele><time>2026-04-02T16:35:53.518Z</time></trkpt><trkpt lat="45.9153827" lon="8.7831153"><ele>368.0</ele><time>2026-04-02T16:35:54.518Z</time></trkpt><trkpt lat="45.9153676" lon="8.7832281"><ele>368.0</ele><time>2026-04-02T16:35:55.519Z</time></trkpt><trkpt lat="45.9153177" lon="8.7833285"><ele>368.0</ele><time>2026-04-02T16:35:56.518Z</time></trkpt><trkpt lat="45.9152693" lon="8.7834308"><ele>368.0</ele><time>2026-04-02T16:35:57.518Z</time></trkpt><trkpt lat="45.91524" lon="8.783555"><ele>368.0</ele><time>2026-04-02T16:35:58.519Z</time></trkpt><trkpt lat="45.915237" lon="8.7836732"><ele>368.0</ele><time>2026-04-02T16:35:59.519Z</time></trkpt><trkpt lat="45.9152394" lon="8.7837837"><ele>368.0</ele><time>2026-04-02T16:36:00.519Z</time></trkpt><trkpt lat="45.9153728" lon="8.7838506"><ele>370.59999999999997</ele><time>2026-04-02T16:36:01.519Z</time></trkpt><trkpt lat="45.915447" lon="8.7839203"><ele>373.2</ele><time>2026-04-02T16:36:02.519Z</time></trkpt><trkpt lat="45.9155031" lon="8.7840151"><ele>375.8</ele><time>2026-04-02T16:36:03.518Z</time></trkpt><trkpt lat="45.9155413" lon="8.7841438"><ele>378.4</ele><time>2026-04-02T16:36:04.518Z</time></trkpt><trkpt lat="45.9155696" lon="8.7842923"><ele>381.0</ele><time>2026-04-02T16:36:05.518Z</time></trkpt><trkpt lat="45.9155928" lon="8.7844589"><ele>383.75</ele><time>2026-04-02T16:36:06.519Z</time></trkpt><trkpt lat="45.9156171" lon="8.7846469"><ele>386.5</ele><time>2026-04-02T16:36:07.519Z</time></trkpt><trkpt lat="45.9156393" lon="8.7848198"><ele>389.25</ele><time>2026-04-02T16:36:08.518Z</time></trkpt><trkpt lat="45.9156585" lon="8.7849647"><ele>392.0</ele><time>2026-04-02T16:36:09.519Z</time></trkpt><trkpt lat="45.9156683" lon="8.785096"><ele>393.49999999999994</ele><time>2026-04-02T16:36:10.518Z</time></trkpt><trkpt lat="45.9156602" lon="8.7852223"><ele>395.0</ele><time>2026-04-02T16:36:11.518Z</time></trkpt><trkpt lat="45.9156185" lon="8.785326"><ele>396.5</ele><time>2026-04-02T16:36:12.519Z</time></trkpt><trkpt lat="45.9155556" lon="8.7854036"><ele>398.0</ele><time>2026-04-02T16:36:13.518Z</time></trkpt><trkpt lat="45.91547" lon="8.7854398"><ele>399.49999999999994</ele><time>2026-04-02T16:36:14.518Z</time></trkpt><trkpt lat="45.9153761" lon="8.785434"><ele>401.0</ele><time>2026-04-02T16:36:15.519Z</time></trkpt><trkpt lat="45.9152703" lon="8.7854163"><ele>401.0</ele><time>2026-04-02T16:36:16.518Z</time></trkpt><trkpt lat="45.9151427" lon="8.7853979"><ele>401.0</ele><time>2026-04-02T16:36:17.519Z</time></trkpt><trkpt lat="45.9150042" lon="8.7853838"><ele>401.0</ele><time>2026-04-02T16:36:18.518Z</time></trkpt><trkpt lat="45.9148694" lon="8.7853654"><ele>401.0</ele><time>2026-04-02T16:36:19.519Z</time></trkpt><trkpt lat="45.9147457" lon="8.7853396"><ele>402.75</ele><time>2026-04-02T16:36:20.519Z</time></trkpt><trkpt lat="45.914617" lon="8.7853136"><ele>404.5</ele><time>2026-04-02T16:36:21.519Z</time></trkpt><trkpt lat="45.9144942" lon="8.7852879"><ele>406.25</ele><time>2026-04-02T16:36:22.519Z</time></trkpt><trkpt lat="45.9143846" lon="8.7852645"><ele>408.0</ele><time>2026-04-02T16:36:23.519Z</time></trkpt><trkpt lat="45.9142831" lon="8.7852427"><ele>408.59999999999997</ele><time>2026-04-02T16:36:24.518Z</time></trkpt><trkpt lat="45.9141818" lon="8.7852466"><ele>409.2</ele><time>2026-04-02T16:36:25.518Z</time></trkpt><trkpt lat="45.9140822" lon="8.785276"><ele>409.8</ele><time>2026-04-02T16:36:26.519Z</time></trkpt><trkpt lat="45.9139879" lon="8.785357"><ele>410.4</ele><time>2026-04-02T16:36:27.519Z</time></trkpt><trkpt lat="45.9139107" lon="8.7854755"><ele>411.0</ele><time>2026-04-02T16:36:28.519Z</time></trkpt><trkpt lat="45.9138628" lon="8.7856405"><ele>411.0</ele><time>2026-04-02T16:36:29.519Z</time></trkpt><trkpt lat="45.9138361" lon="8.7858464"><ele>411.0</ele><time>2026-04-02T16:36:30.518Z</time></trkpt><trkpt lat="45.9138072" lon="8.786074"><ele>411.0</ele><time>2026-04-02T16:36:31.517Z</time></trkpt><trkpt lat="45.9137823" lon="8.786274"><ele>411.0</ele><time>2026-04-02T16:36:32.519Z</time></trkpt><trkpt lat="45.9137559" lon="8.7864836"><ele>411.66666666666663</ele><time>2026-04-02T16:36:33.519Z</time></trkpt><trkpt lat="45.9137312" lon="8.7866886"><ele>412.3333333333333</ele><time>2026-04-02T16:36:34.518Z</time></trkpt><trkpt lat="45.9137021" lon="8.7869104"><ele>413.0</ele><time>2026-04-02T16:36:35.518Z</time></trkpt><trkpt lat="45.9136745" lon="8.7871305"><ele>414.66666666666663</ele><time>2026-04-02T16:36:36.518Z</time></trkpt><trkpt lat="45.9136462" lon="8.7873658"><ele>416.33333333333337</ele><time>2026-04-02T16:36:37.518Z</time></trkpt><trkpt lat="45.9136132" lon="8.7875998"><ele>418.0</ele><time>2026-04-02T16:36:38.519Z</time></trkpt><trkpt lat="45.9135708" lon="8.7878173"><ele>420.25</ele><time>2026-04-02T16:36:39.519Z</time></trkpt><trkpt lat="45.913523" lon="8.7880256"><ele>422.5</ele><time>2026-04-02T16:36:40.519Z</time></trkpt><trkpt lat="45.913473" lon="8.7882306"><ele>424.75</ele><time>2026-04-02T16:36:41.518Z</time></trkpt><trkpt lat="45.9134255" lon="8.7884182"><ele>427.0</ele><time>2026-04-02T16:36:42.518Z</time></trkpt><trkpt lat="45.913385" lon="8.7885918"><ele>427.20000000000005</ele><time>2026-04-02T16:36:43.519Z</time></trkpt><trkpt lat="45.9133474" lon="8.7887455"><ele>427.40000000000003</ele><time>2026-04-02T16:36:44.519Z</time></trkpt><trkpt lat="45.9133073" lon="8.7888659"><ele>427.59999999999997</ele><time>2026-04-02T16:36:45.519Z</time></trkpt><trkpt lat="45.9132422" lon="8.78895"><ele>427.79999999999995</ele><time>2026-04-02T16:36:46.519Z</time></trkpt><trkpt lat="45.9131472" lon="8.7890234"><ele>428.0</ele><time>2026-04-02T16:36:47.519Z</time></trkpt><trkpt lat="45.9130343" lon="8.789061"><ele>428.0</ele><time>2026-04-02T16:36:48.519Z</time></trkpt><trkpt lat="45.9129045" lon="8.7890794"><ele>428.0</ele><time>2026-04-02T16:36:49.518Z</time></trkpt><trkpt lat="45.9127606" lon="8.7891021"><ele>428.0</ele><time>2026-04-02T16:36:50.519Z</time></trkpt><trkpt lat="45.9126217" lon="8.7891209"><ele>428.0</ele><time>2026-04-02T16:36:51.519Z</time></trkpt><trkpt lat="45.9124994" lon="8.78915"><ele>427.79999999999995</ele><time>2026-04-02T16:36:52.518Z</time></trkpt><trkpt lat="45.9123944" lon="8.7891836"><ele>427.59999999999997</ele><time>2026-04-02T16:36:53.518Z</time></trkpt><trkpt lat="45.9123122" lon="8.7892636"><ele>427.40000000000003</ele><time>2026-04-02T16:36:54.518Z</time></trkpt><trkpt lat="45.9122517" lon="8.789398"><ele>427.20000000000005</ele><time>2026-04-02T16:36:55.518Z</time></trkpt><trkpt lat="45.91221" lon="8.7895389"><ele>427.0</ele><time>2026-04-02T16:36:56.518Z</time></trkpt><trkpt lat="45.9121303" lon="8.7896577"><ele>430.0</ele><time>2026-04-02T16:36:57.517Z</time></trkpt><trkpt lat="45.9120177" lon="8.7897555"><ele>433.0</ele><time>2026-04-02T16:36:58.518Z</time></trkpt><trkpt lat="45.9118996" lon="8.7898762"><ele>436.0</ele><time>2026-04-02T16:36:59.519Z</time></trkpt><trkpt lat="45.9117677" lon="8.790012"><ele>439.0</ele><time>2026-04-02T16:37:00.519Z</time></trkpt><trkpt lat="45.9116394" lon="8.7901287"><ele>439.0</ele><time>2026-04-02T16:37:01.519Z</time></trkpt><trkpt lat="45.9115438" lon="8.7902054"><ele>459.0</ele><time>2026-04-02T16:37:02.519Z</time></trkpt><trkpt lat="45.911463" lon="8.7902686"><ele>459.0</ele><time>2026-04-02T16:37:03.518Z</time></trkpt><trkpt lat="45.9113961" lon="8.7903343"><ele>459.0</ele><time>2026-04-02T16:37:04.518Z</time></trkpt><trkpt lat="45.9113276" lon="8.7903656"><ele>459.0</ele><time>2026-04-02T16:37:05.518Z</time></trkpt><trkpt lat="45.9112558" lon="8.7903309"><ele>459.0</ele><time>2026-04-02T16:37:06.518Z</time></trkpt></trkseg></trk></gpx>